<?xml version="1.0" encoding="UTF-8" standalone="no" ?>
<gpx xmlns="http://www.topografix.com/GPX/1/1" xmlns:xsi="http://www.w3.org/2001/XMLSchema-instance" xsi:schemaLocation="http://www.topografix.com/GPX/1/1 http://www.topografix.com/GPX/1/1/gpx.xsd" version="1.1" creator="VisuGPX - https://www.visugpx.com">
  <metadata>
    <name>La Couillole </name>
    <desc><![CDATA[montée par Tinée et descente gorges du Cians]]></desc>
  </metadata>
  <trk>
    <name><![CDATA[2015-05-04-11-30-48 on GPSies.com]]></name>
    <trkseg>
      <trkpt lat="43.94679" lon="7.00477">
        <ele>325</ele>
        <time>2015-05-04T11:30:48Z</time>
      </trkpt>
      <trkpt lat="43.94683" lon="7.00488">
        <ele>325</ele>
        <time>2015-05-04T11:30:51Z</time>
      </trkpt>
      <trkpt lat="43.94685" lon="7.00517">
        <ele>325</ele>
        <time>2015-05-04T11:31:01Z</time>
      </trkpt>
      <trkpt lat="43.94688" lon="7.0053">
        <ele>326</ele>
        <time>2015-05-04T11:31:06Z</time>
      </trkpt>
      <trkpt lat="43.94701" lon="7.0055">
        <ele>327</ele>
        <time>2015-05-04T11:31:14Z</time>
      </trkpt>
      <trkpt lat="43.94705" lon="7.0056">
        <ele>328</ele>
        <time>2015-05-04T11:31:18Z</time>
      </trkpt>
      <trkpt lat="43.9471" lon="7.00565">
        <ele>329</ele>
        <time>2015-05-04T11:31:21Z</time>
      </trkpt>
      <trkpt lat="43.94717" lon="7.00577">
        <ele>329</ele>
        <time>2015-05-04T11:31:26Z</time>
      </trkpt>
      <trkpt lat="43.94728" lon="7.00589">
        <ele>331</ele>
        <time>2015-05-04T11:31:32Z</time>
      </trkpt>
      <trkpt lat="43.9474" lon="7.0061">
        <ele>332</ele>
        <time>2015-05-04T11:31:40Z</time>
      </trkpt>
      <trkpt lat="43.94743" lon="7.0062">
        <ele>334</ele>
        <time>2015-05-04T11:31:44Z</time>
      </trkpt>
      <trkpt lat="43.94753" lon="7.00637">
        <ele>334</ele>
        <time>2015-05-04T11:31:52Z</time>
      </trkpt>
      <trkpt lat="43.9477" lon="7.00649">
        <ele>336</ele>
        <time>2015-05-04T11:32:02Z</time>
      </trkpt>
      <trkpt lat="43.94774" lon="7.00669">
        <ele>336</ele>
        <time>2015-05-04T11:32:07Z</time>
      </trkpt>
      <trkpt lat="43.94776" lon="7.00697">
        <ele>336</ele>
        <time>2015-05-04T11:32:14Z</time>
      </trkpt>
      <trkpt lat="43.94777" lon="7.00729">
        <ele>336</ele>
        <time>2015-05-04T11:32:21Z</time>
      </trkpt>
      <trkpt lat="43.94775" lon="7.0077">
        <ele>336</ele>
        <time>2015-05-04T11:32:29Z</time>
      </trkpt>
      <trkpt lat="43.94776" lon="7.00782">
        <ele>336</ele>
        <time>2015-05-04T11:32:31Z</time>
      </trkpt>
      <trkpt lat="43.94798" lon="7.0088">
        <ele>335</ele>
        <time>2015-05-04T11:32:46Z</time>
      </trkpt>
      <trkpt lat="43.94801" lon="7.00895">
        <ele>335</ele>
        <time>2015-05-04T11:32:48Z</time>
      </trkpt>
      <trkpt lat="43.94801" lon="7.00912">
        <ele>334</ele>
        <time>2015-05-04T11:32:50Z</time>
      </trkpt>
      <trkpt lat="43.94799" lon="7.00928">
        <ele>334</ele>
        <time>2015-05-04T11:32:52Z</time>
      </trkpt>
      <trkpt lat="43.94768" lon="7.01035">
        <ele>332</ele>
        <time>2015-05-04T11:33:05Z</time>
      </trkpt>
      <trkpt lat="43.94765" lon="7.01053">
        <ele>331</ele>
        <time>2015-05-04T11:33:07Z</time>
      </trkpt>
      <trkpt lat="43.94763" lon="7.01088">
        <ele>330</ele>
        <time>2015-05-04T11:33:11Z</time>
      </trkpt>
      <trkpt lat="43.94764" lon="7.01182">
        <ele>327</ele>
        <time>2015-05-04T11:33:21Z</time>
      </trkpt>
      <trkpt lat="43.94761" lon="7.01209">
        <ele>327</ele>
        <time>2015-05-04T11:33:24Z</time>
      </trkpt>
      <trkpt lat="43.94755" lon="7.01235">
        <ele>327</ele>
        <time>2015-05-04T11:33:27Z</time>
      </trkpt>
      <trkpt lat="43.94717" lon="7.01337">
        <ele>325</ele>
        <time>2015-05-04T11:33:39Z</time>
      </trkpt>
      <trkpt lat="43.94712" lon="7.01356">
        <ele>325</ele>
        <time>2015-05-04T11:33:41Z</time>
      </trkpt>
      <trkpt lat="43.9471" lon="7.01385">
        <ele>325</ele>
        <time>2015-05-04T11:33:44Z</time>
      </trkpt>
      <trkpt lat="43.9471" lon="7.01487">
        <ele>323</ele>
        <time>2015-05-04T11:33:54Z</time>
      </trkpt>
      <trkpt lat="43.94709" lon="7.01569">
        <ele>321</ele>
        <time>2015-05-04T11:34:02Z</time>
      </trkpt>
      <trkpt lat="43.94705" lon="7.01601">
        <ele>320</ele>
        <time>2015-05-04T11:34:05Z</time>
      </trkpt>
      <trkpt lat="43.94697" lon="7.0163">
        <ele>319</ele>
        <time>2015-05-04T11:34:08Z</time>
      </trkpt>
      <trkpt lat="43.94682" lon="7.01668">
        <ele>319</ele>
        <time>2015-05-04T11:34:12Z</time>
      </trkpt>
      <trkpt lat="43.94663" lon="7.01748">
        <ele>318</ele>
        <time>2015-05-04T11:34:20Z</time>
      </trkpt>
      <trkpt lat="43.94658" lon="7.01781">
        <ele>317</ele>
        <time>2015-05-04T11:34:23Z</time>
      </trkpt>
      <trkpt lat="43.94649" lon="7.01872">
        <ele>315</ele>
        <time>2015-05-04T11:34:31Z</time>
      </trkpt>
      <trkpt lat="43.94638" lon="7.01927">
        <ele>313</ele>
        <time>2015-05-04T11:34:36Z</time>
      </trkpt>
      <trkpt lat="43.94603" lon="7.0206">
        <ele>310</ele>
        <time>2015-05-04T11:34:49Z</time>
      </trkpt>
      <trkpt lat="43.94584" lon="7.0214">
        <ele>310</ele>
        <time>2015-05-04T11:34:57Z</time>
      </trkpt>
      <trkpt lat="43.94554" lon="7.02251">
        <ele>307</ele>
        <time>2015-05-04T11:35:08Z</time>
      </trkpt>
      <trkpt lat="43.94535" lon="7.02333">
        <ele>305</ele>
        <time>2015-05-04T11:35:16Z</time>
      </trkpt>
      <trkpt lat="43.94528" lon="7.02376">
        <ele>304</ele>
        <time>2015-05-04T11:35:20Z</time>
      </trkpt>
      <trkpt lat="43.94515" lon="7.02482">
        <ele>303</ele>
        <time>2015-05-04T11:35:30Z</time>
      </trkpt>
      <trkpt lat="43.945" lon="7.02622">
        <ele>300</ele>
        <time>2015-05-04T11:35:44Z</time>
      </trkpt>
      <trkpt lat="43.94493" lon="7.02683">
        <ele>299</ele>
        <time>2015-05-04T11:35:50Z</time>
      </trkpt>
      <trkpt lat="43.94486" lon="7.02778">
        <ele>297</ele>
        <time>2015-05-04T11:35:59Z</time>
      </trkpt>
      <trkpt lat="43.94483" lon="7.02863">
        <ele>297</ele>
        <time>2015-05-04T11:36:07Z</time>
      </trkpt>
      <trkpt lat="43.94474" lon="7.02933">
        <ele>297</ele>
        <time>2015-05-04T11:36:14Z</time>
      </trkpt>
      <trkpt lat="43.9446" lon="7.03074">
        <ele>296</ele>
        <time>2015-05-04T11:36:29Z</time>
      </trkpt>
      <trkpt lat="43.94438" lon="7.03256">
        <ele>295</ele>
        <time>2015-05-04T11:36:48Z</time>
      </trkpt>
      <trkpt lat="43.94411" lon="7.03537">
        <ele>295</ele>
        <time>2015-05-04T11:37:19Z</time>
      </trkpt>
      <trkpt lat="43.944" lon="7.03809">
        <ele>297</ele>
        <time>2015-05-04T11:37:51Z</time>
      </trkpt>
      <trkpt lat="43.94401" lon="7.03827">
        <ele>297</ele>
        <time>2015-05-04T11:37:53Z</time>
      </trkpt>
      <trkpt lat="43.94417" lon="7.03942">
        <ele>295</ele>
        <time>2015-05-04T11:38:06Z</time>
      </trkpt>
      <trkpt lat="43.9442" lon="7.03979">
        <ele>295</ele>
        <time>2015-05-04T11:38:10Z</time>
      </trkpt>
      <trkpt lat="43.94415" lon="7.04034">
        <ele>295</ele>
        <time>2015-05-04T11:38:16Z</time>
      </trkpt>
      <trkpt lat="43.94369" lon="7.04248">
        <ele>295</ele>
        <time>2015-05-04T11:38:40Z</time>
      </trkpt>
      <trkpt lat="43.94346" lon="7.04336">
        <ele>293</ele>
        <time>2015-05-04T11:38:50Z</time>
      </trkpt>
      <trkpt lat="43.94332" lon="7.04399">
        <ele>293</ele>
        <time>2015-05-04T11:38:57Z</time>
      </trkpt>
      <trkpt lat="43.9431" lon="7.04529">
        <ele>293</ele>
        <time>2015-05-04T11:39:11Z</time>
      </trkpt>
      <trkpt lat="43.94294" lon="7.04603">
        <ele>291</ele>
        <time>2015-05-04T11:39:19Z</time>
      </trkpt>
      <trkpt lat="43.9429" lon="7.0464">
        <ele>291</ele>
        <time>2015-05-04T11:39:23Z</time>
      </trkpt>
      <trkpt lat="43.94294" lon="7.04708">
        <ele>291</ele>
        <time>2015-05-04T11:39:30Z</time>
      </trkpt>
      <trkpt lat="43.94299" lon="7.04747">
        <ele>291</ele>
        <time>2015-05-04T11:39:34Z</time>
      </trkpt>
      <trkpt lat="43.94311" lon="7.04964">
        <ele>289</ele>
        <time>2015-05-04T11:39:57Z</time>
      </trkpt>
      <trkpt lat="43.94313" lon="7.05041">
        <ele>289</ele>
        <time>2015-05-04T11:40:05Z</time>
      </trkpt>
      <trkpt lat="43.94315" lon="7.05081">
        <ele>289</ele>
        <time>2015-05-04T11:40:09Z</time>
      </trkpt>
      <trkpt lat="43.94312" lon="7.0516">
        <ele>287</ele>
        <time>2015-05-04T11:40:17Z</time>
      </trkpt>
      <trkpt lat="43.94303" lon="7.05215">
        <ele>287</ele>
        <time>2015-05-04T11:40:23Z</time>
      </trkpt>
      <trkpt lat="43.94266" lon="7.05333">
        <ele>287</ele>
        <time>2015-05-04T11:40:37Z</time>
      </trkpt>
      <trkpt lat="43.94239" lon="7.05445">
        <ele>287</ele>
        <time>2015-05-04T11:40:52Z</time>
      </trkpt>
      <trkpt lat="43.94221" lon="7.05541">
        <ele>289</ele>
        <time>2015-05-04T11:41:05Z</time>
      </trkpt>
      <trkpt lat="43.94208" lon="7.05591">
        <ele>289</ele>
        <time>2015-05-04T11:41:12Z</time>
      </trkpt>
      <trkpt lat="43.94198" lon="7.05616">
        <ele>289</ele>
        <time>2015-05-04T11:41:16Z</time>
      </trkpt>
      <trkpt lat="43.94189" lon="7.0565">
        <ele>291</ele>
        <time>2015-05-04T11:41:21Z</time>
      </trkpt>
      <trkpt lat="43.94172" lon="7.05695">
        <ele>291</ele>
        <time>2015-05-04T11:41:28Z</time>
      </trkpt>
      <trkpt lat="43.94166" lon="7.05715">
        <ele>291</ele>
        <time>2015-05-04T11:41:31Z</time>
      </trkpt>
      <trkpt lat="43.94154" lon="7.05747">
        <ele>292</ele>
        <time>2015-05-04T11:41:36Z</time>
      </trkpt>
      <trkpt lat="43.94146" lon="7.05763">
        <ele>293</ele>
        <time>2015-05-04T11:41:39Z</time>
      </trkpt>
      <trkpt lat="43.9412" lon="7.05834">
        <ele>293</ele>
        <time>2015-05-04T11:41:50Z</time>
      </trkpt>
      <trkpt lat="43.94114" lon="7.05846">
        <ele>293</ele>
        <time>2015-05-04T11:41:52Z</time>
      </trkpt>
      <trkpt lat="43.94102" lon="7.05862">
        <ele>293</ele>
        <time>2015-05-04T11:41:55Z</time>
      </trkpt>
      <trkpt lat="43.94088" lon="7.05876">
        <ele>294</ele>
        <time>2015-05-04T11:41:58Z</time>
      </trkpt>
      <trkpt lat="43.94071" lon="7.05886">
        <ele>295</ele>
        <time>2015-05-04T11:42:01Z</time>
      </trkpt>
      <trkpt lat="43.94016" lon="7.05909">
        <ele>296</ele>
        <time>2015-05-04T11:42:12Z</time>
      </trkpt>
      <trkpt lat="43.94002" lon="7.05918">
        <ele>297</ele>
        <time>2015-05-04T11:42:15Z</time>
      </trkpt>
      <trkpt lat="43.9399" lon="7.0593">
        <ele>297</ele>
        <time>2015-05-04T11:42:18Z</time>
      </trkpt>
      <trkpt lat="43.93983" lon="7.0594">
        <ele>297</ele>
        <time>2015-05-04T11:42:20Z</time>
      </trkpt>
      <trkpt lat="43.93975" lon="7.05957">
        <ele>297</ele>
        <time>2015-05-04T11:42:23Z</time>
      </trkpt>
      <trkpt lat="43.93959" lon="7.06">
        <ele>297</ele>
        <time>2015-05-04T11:42:30Z</time>
      </trkpt>
      <trkpt lat="43.93931" lon="7.06062">
        <ele>298</ele>
        <time>2015-05-04T11:42:41Z</time>
      </trkpt>
      <trkpt lat="43.939" lon="7.06123">
        <ele>299</ele>
        <time>2015-05-04T11:42:52Z</time>
      </trkpt>
      <trkpt lat="43.93878" lon="7.06159">
        <ele>299</ele>
        <time>2015-05-04T11:42:59Z</time>
      </trkpt>
      <trkpt lat="43.9382" lon="7.06223">
        <ele>302</ele>
        <time>2015-05-04T11:43:14Z</time>
      </trkpt>
      <trkpt lat="43.93789" lon="7.06249">
        <ele>302</ele>
        <time>2015-05-04T11:43:21Z</time>
      </trkpt>
      <trkpt lat="43.9375" lon="7.0628">
        <ele>302</ele>
        <time>2015-05-04T11:43:29Z</time>
      </trkpt>
      <trkpt lat="43.93725" lon="7.06312">
        <ele>302</ele>
        <time>2015-05-04T11:43:35Z</time>
      </trkpt>
      <trkpt lat="43.93714" lon="7.06339">
        <ele>302</ele>
        <time>2015-05-04T11:43:39Z</time>
      </trkpt>
      <trkpt lat="43.93712" lon="7.06347">
        <ele>302</ele>
        <time>2015-05-04T11:43:40Z</time>
      </trkpt>
      <trkpt lat="43.93694" lon="7.0646">
        <ele>302</ele>
        <time>2015-05-04T11:43:53Z</time>
      </trkpt>
      <trkpt lat="43.93685" lon="7.06486">
        <ele>301</ele>
        <time>2015-05-04T11:43:56Z</time>
      </trkpt>
      <trkpt lat="43.93649" lon="7.06565">
        <ele>300</ele>
        <time>2015-05-04T11:44:06Z</time>
      </trkpt>
      <trkpt lat="43.93626" lon="7.06599">
        <ele>300</ele>
        <time>2015-05-04T11:44:11Z</time>
      </trkpt>
      <trkpt lat="43.93583" lon="7.06646">
        <ele>300</ele>
        <time>2015-05-04T11:44:19Z</time>
      </trkpt>
      <trkpt lat="43.93564" lon="7.0667">
        <ele>300</ele>
        <time>2015-05-04T11:44:23Z</time>
      </trkpt>
      <trkpt lat="43.93557" lon="7.06686">
        <ele>300</ele>
        <time>2015-05-04T11:44:25Z</time>
      </trkpt>
      <trkpt lat="43.93547" lon="7.06722">
        <ele>299</ele>
        <time>2015-05-04T11:44:29Z</time>
      </trkpt>
      <trkpt lat="43.93545" lon="7.06731">
        <ele>299</ele>
        <time>2015-05-04T11:44:30Z</time>
      </trkpt>
      <trkpt lat="43.93544" lon="7.06761">
        <ele>297</ele>
        <time>2015-05-04T11:44:33Z</time>
      </trkpt>
      <trkpt lat="43.93547" lon="7.06781">
        <ele>297</ele>
        <time>2015-05-04T11:44:35Z</time>
      </trkpt>
      <trkpt lat="43.93556" lon="7.06822">
        <ele>297</ele>
        <time>2015-05-04T11:44:39Z</time>
      </trkpt>
      <trkpt lat="43.93589" lon="7.06945">
        <ele>294</ele>
        <time>2015-05-04T11:44:50Z</time>
      </trkpt>
      <trkpt lat="43.93595" lon="7.0697">
        <ele>293</ele>
        <time>2015-05-04T11:44:52Z</time>
      </trkpt>
      <trkpt lat="43.93596" lon="7.06983">
        <ele>293</ele>
        <time>2015-05-04T11:44:53Z</time>
      </trkpt>
      <trkpt lat="43.93596" lon="7.07009">
        <ele>292</ele>
        <time>2015-05-04T11:44:55Z</time>
      </trkpt>
      <trkpt lat="43.93587" lon="7.07085">
        <ele>289</ele>
        <time>2015-05-04T11:45:01Z</time>
      </trkpt>
      <trkpt lat="43.93586" lon="7.07111">
        <ele>289</ele>
        <time>2015-05-04T11:45:03Z</time>
      </trkpt>
      <trkpt lat="43.93587" lon="7.07124">
        <ele>289</ele>
        <time>2015-05-04T11:45:04Z</time>
      </trkpt>
      <trkpt lat="43.93593" lon="7.07149">
        <ele>288</ele>
        <time>2015-05-04T11:45:06Z</time>
      </trkpt>
      <trkpt lat="43.93613" lon="7.07208">
        <ele>287</ele>
        <time>2015-05-04T11:45:11Z</time>
      </trkpt>
      <trkpt lat="43.93617" lon="7.07235">
        <ele>286</ele>
        <time>2015-05-04T11:45:13Z</time>
      </trkpt>
      <trkpt lat="43.93618" lon="7.07248">
        <ele>285</ele>
        <time>2015-05-04T11:45:14Z</time>
      </trkpt>
      <trkpt lat="43.93617" lon="7.07275">
        <ele>284</ele>
        <time>2015-05-04T11:45:16Z</time>
      </trkpt>
      <trkpt lat="43.93612" lon="7.07341">
        <ele>282</ele>
        <time>2015-05-04T11:45:21Z</time>
      </trkpt>
      <trkpt lat="43.936" lon="7.0743">
        <ele>280</ele>
        <time>2015-05-04T11:45:28Z</time>
      </trkpt>
      <trkpt lat="43.93592" lon="7.0752">
        <ele>278</ele>
        <time>2015-05-04T11:45:35Z</time>
      </trkpt>
      <trkpt lat="43.93592" lon="7.07547">
        <ele>278</ele>
        <time>2015-05-04T11:45:37Z</time>
      </trkpt>
      <trkpt lat="43.93599" lon="7.07722">
        <ele>274</ele>
        <time>2015-05-04T11:45:51Z</time>
      </trkpt>
      <trkpt lat="43.93609" lon="7.07776">
        <ele>274</ele>
        <time>2015-05-04T11:45:56Z</time>
      </trkpt>
      <trkpt lat="43.93624" lon="7.07825">
        <ele>274</ele>
        <time>2015-05-04T11:46:01Z</time>
      </trkpt>
      <trkpt lat="43.93655" lon="7.07908">
        <ele>274</ele>
        <time>2015-05-04T11:46:10Z</time>
      </trkpt>
      <trkpt lat="43.93733" lon="7.08082">
        <ele>272</ele>
        <time>2015-05-04T11:46:29Z</time>
      </trkpt>
      <trkpt lat="43.93767" lon="7.08175">
        <ele>269</ele>
        <time>2015-05-04T11:46:38Z</time>
      </trkpt>
      <trkpt lat="43.93776" lon="7.08209">
        <ele>267</ele>
        <time>2015-05-04T11:46:41Z</time>
      </trkpt>
      <trkpt lat="43.93779" lon="7.08233">
        <ele>267</ele>
        <time>2015-05-04T11:46:43Z</time>
      </trkpt>
      <trkpt lat="43.93778" lon="7.08267">
        <ele>267</ele>
        <time>2015-05-04T11:46:46Z</time>
      </trkpt>
      <trkpt lat="43.93773" lon="7.08299">
        <ele>265</ele>
        <time>2015-05-04T11:46:49Z</time>
      </trkpt>
      <trkpt lat="43.93768" lon="7.08319">
        <ele>265</ele>
        <time>2015-05-04T11:46:51Z</time>
      </trkpt>
      <trkpt lat="43.93745" lon="7.08386">
        <ele>265</ele>
        <time>2015-05-04T11:46:58Z</time>
      </trkpt>
      <trkpt lat="43.9374" lon="7.08405">
        <ele>265</ele>
        <time>2015-05-04T11:47:00Z</time>
      </trkpt>
      <trkpt lat="43.93722" lon="7.08521">
        <ele>265</ele>
        <time>2015-05-04T11:47:11Z</time>
      </trkpt>
      <trkpt lat="43.9371" lon="7.08589">
        <ele>265</ele>
        <time>2015-05-04T11:47:18Z</time>
      </trkpt>
      <trkpt lat="43.93698" lon="7.08627">
        <ele>265</ele>
        <time>2015-05-04T11:47:22Z</time>
      </trkpt>
      <trkpt lat="43.93691" lon="7.08645">
        <ele>265</ele>
        <time>2015-05-04T11:47:24Z</time>
      </trkpt>
      <trkpt lat="43.93682" lon="7.08662">
        <ele>264</ele>
        <time>2015-05-04T11:47:26Z</time>
      </trkpt>
      <trkpt lat="43.93665" lon="7.08684">
        <ele>263</ele>
        <time>2015-05-04T11:47:29Z</time>
      </trkpt>
      <trkpt lat="43.9364" lon="7.08711">
        <ele>263</ele>
        <time>2015-05-04T11:47:33Z</time>
      </trkpt>
      <trkpt lat="43.9362" lon="7.08727">
        <ele>262</ele>
        <time>2015-05-04T11:47:36Z</time>
      </trkpt>
      <trkpt lat="43.93289" lon="7.08915">
        <ele>259</ele>
        <time>2015-05-04T11:48:24Z</time>
      </trkpt>
      <trkpt lat="43.93218" lon="7.08951">
        <ele>257</ele>
        <time>2015-05-04T11:48:34Z</time>
      </trkpt>
      <trkpt lat="43.93162" lon="7.08983">
        <ele>256</ele>
        <time>2015-05-04T11:48:42Z</time>
      </trkpt>
      <trkpt lat="43.93143" lon="7.08999">
        <ele>255</ele>
        <time>2015-05-04T11:48:45Z</time>
      </trkpt>
      <trkpt lat="43.9312" lon="7.09025">
        <ele>255</ele>
        <time>2015-05-04T11:48:49Z</time>
      </trkpt>
      <trkpt lat="43.93047" lon="7.09115">
        <ele>255</ele>
        <time>2015-05-04T11:49:02Z</time>
      </trkpt>
      <trkpt lat="43.93026" lon="7.09147">
        <ele>254</ele>
        <time>2015-05-04T11:49:06Z</time>
      </trkpt>
      <trkpt lat="43.92994" lon="7.09209">
        <ele>253</ele>
        <time>2015-05-04T11:49:13Z</time>
      </trkpt>
      <trkpt lat="43.92918" lon="7.09375">
        <ele>251</ele>
        <time>2015-05-04T11:49:32Z</time>
      </trkpt>
      <trkpt lat="43.92888" lon="7.09447">
        <ele>251</ele>
        <time>2015-05-04T11:49:40Z</time>
      </trkpt>
      <trkpt lat="43.92867" lon="7.09512">
        <ele>251</ele>
        <time>2015-05-04T11:49:47Z</time>
      </trkpt>
      <trkpt lat="43.92857" lon="7.09573">
        <ele>251</ele>
        <time>2015-05-04T11:49:53Z</time>
      </trkpt>
      <trkpt lat="43.92842" lon="7.09731">
        <ele>251</ele>
        <time>2015-05-04T11:50:09Z</time>
      </trkpt>
      <trkpt lat="43.92821" lon="7.09809">
        <ele>249</ele>
        <time>2015-05-04T11:50:17Z</time>
      </trkpt>
      <trkpt lat="43.92789" lon="7.09919">
        <ele>249</ele>
        <time>2015-05-04T11:50:28Z</time>
      </trkpt>
      <trkpt lat="43.92778" lon="7.09962">
        <ele>248</ele>
        <time>2015-05-04T11:50:32Z</time>
      </trkpt>
      <trkpt lat="43.92774" lon="7.09985">
        <ele>247</ele>
        <time>2015-05-04T11:50:34Z</time>
      </trkpt>
      <trkpt lat="43.92772" lon="7.10033">
        <ele>246</ele>
        <time>2015-05-04T11:50:38Z</time>
      </trkpt>
      <trkpt lat="43.92774" lon="7.10057">
        <ele>245</ele>
        <time>2015-05-04T11:50:40Z</time>
      </trkpt>
      <trkpt lat="43.92779" lon="7.10093">
        <ele>245</ele>
        <time>2015-05-04T11:50:43Z</time>
      </trkpt>
      <trkpt lat="43.92789" lon="7.10129">
        <ele>243</ele>
        <time>2015-05-04T11:50:46Z</time>
      </trkpt>
      <trkpt lat="43.92793" lon="7.1014">
        <ele>243</ele>
        <time>2015-05-04T11:50:47Z</time>
      </trkpt>
      <trkpt lat="43.92818" lon="7.10191">
        <ele>243</ele>
        <time>2015-05-04T11:50:52Z</time>
      </trkpt>
      <trkpt lat="43.92861" lon="7.10261">
        <ele>240</ele>
        <time>2015-05-04T11:51:00Z</time>
      </trkpt>
      <trkpt lat="43.92885" lon="7.10305">
        <ele>240</ele>
        <time>2015-05-04T11:51:05Z</time>
      </trkpt>
      <trkpt lat="43.92893" lon="7.10324">
        <ele>240</ele>
        <time>2015-05-04T11:51:07Z</time>
      </trkpt>
      <trkpt lat="43.92909" lon="7.10381">
        <ele>240</ele>
        <time>2015-05-04T11:51:13Z</time>
      </trkpt>
      <trkpt lat="43.92917" lon="7.10416">
        <ele>240</ele>
        <time>2015-05-04T11:51:17Z</time>
      </trkpt>
      <trkpt lat="43.92919" lon="7.10433">
        <ele>240</ele>
        <time>2015-05-04T11:51:19Z</time>
      </trkpt>
      <trkpt lat="43.92922" lon="7.10555">
        <ele>240</ele>
        <time>2015-05-04T11:51:32Z</time>
      </trkpt>
      <trkpt lat="43.92928" lon="7.10632">
        <ele>240</ele>
        <time>2015-05-04T11:51:40Z</time>
      </trkpt>
      <trkpt lat="43.92938" lon="7.10708">
        <ele>240</ele>
        <time>2015-05-04T11:51:51Z</time>
      </trkpt>
      <trkpt lat="43.92943" lon="7.10723">
        <ele>240</ele>
        <time>2015-05-04T11:52:06Z</time>
      </trkpt>
      <trkpt lat="43.92963" lon="7.10825">
        <ele>238</ele>
        <time>2015-05-04T11:52:20Z</time>
      </trkpt>
      <trkpt lat="43.92984" lon="7.10896">
        <ele>238</ele>
        <time>2015-05-04T11:52:28Z</time>
      </trkpt>
      <trkpt lat="43.93006" lon="7.10961">
        <ele>237</ele>
        <time>2015-05-04T11:52:35Z</time>
      </trkpt>
      <trkpt lat="43.93031" lon="7.11026">
        <ele>236</ele>
        <time>2015-05-04T11:52:42Z</time>
      </trkpt>
      <trkpt lat="43.9306" lon="7.11092">
        <ele>236</ele>
        <time>2015-05-04T11:52:49Z</time>
      </trkpt>
      <trkpt lat="43.93091" lon="7.11177">
        <ele>236</ele>
        <time>2015-05-04T11:52:58Z</time>
      </trkpt>
      <trkpt lat="43.93105" lon="7.11228">
        <ele>236</ele>
        <time>2015-05-04T11:53:03Z</time>
      </trkpt>
      <trkpt lat="43.93112" lon="7.1127">
        <ele>234</ele>
        <time>2015-05-04T11:53:07Z</time>
      </trkpt>
      <trkpt lat="43.93118" lon="7.11321">
        <ele>234</ele>
        <time>2015-05-04T11:53:12Z</time>
      </trkpt>
      <trkpt lat="43.93121" lon="7.11395">
        <ele>234</ele>
        <time>2015-05-04T11:53:19Z</time>
      </trkpt>
      <trkpt lat="43.93116" lon="7.11467">
        <ele>234</ele>
        <time>2015-05-04T11:53:26Z</time>
      </trkpt>
      <trkpt lat="43.93104" lon="7.11561">
        <ele>234</ele>
        <time>2015-05-04T11:53:35Z</time>
      </trkpt>
      <trkpt lat="43.93103" lon="7.11593">
        <ele>234</ele>
        <time>2015-05-04T11:53:38Z</time>
      </trkpt>
      <trkpt lat="43.93104" lon="7.11635">
        <ele>234</ele>
        <time>2015-05-04T11:53:42Z</time>
      </trkpt>
      <trkpt lat="43.93112" lon="7.11677">
        <ele>234</ele>
        <time>2015-05-04T11:53:47Z</time>
      </trkpt>
      <trkpt lat="43.93124" lon="7.11715">
        <ele>234</ele>
        <time>2015-05-04T11:53:51Z</time>
      </trkpt>
      <trkpt lat="43.93144" lon="7.11756">
        <ele>234</ele>
        <time>2015-05-04T11:53:56Z</time>
      </trkpt>
      <trkpt lat="43.93171" lon="7.1179">
        <ele>234</ele>
        <time>2015-05-04T11:54:01Z</time>
      </trkpt>
      <trkpt lat="43.93241" lon="7.11853">
        <ele>234</ele>
        <time>2015-05-04T11:54:13Z</time>
      </trkpt>
      <trkpt lat="43.93251" lon="7.11866">
        <ele>234</ele>
        <time>2015-05-04T11:54:15Z</time>
      </trkpt>
      <trkpt lat="43.93286" lon="7.11938">
        <ele>234</ele>
        <time>2015-05-04T11:54:24Z</time>
      </trkpt>
      <trkpt lat="43.93287" lon="7.11977">
        <ele>234</ele>
        <time>2015-05-04T11:54:28Z</time>
      </trkpt>
      <trkpt lat="43.93295" lon="7.12002">
        <ele>234</ele>
        <time>2015-05-04T11:54:31Z</time>
      </trkpt>
      <trkpt lat="43.93309" lon="7.12022">
        <ele>234</ele>
        <time>2015-05-04T11:54:34Z</time>
      </trkpt>
      <trkpt lat="43.93318" lon="7.12035">
        <ele>234</ele>
        <time>2015-05-04T11:54:36Z</time>
      </trkpt>
      <trkpt lat="43.93354" lon="7.12076">
        <ele>234</ele>
        <time>2015-05-04T11:54:43Z</time>
      </trkpt>
      <trkpt lat="43.93468" lon="7.12184">
        <ele>234</ele>
        <time>2015-05-04T11:55:03Z</time>
      </trkpt>
      <trkpt lat="43.93483" lon="7.12203">
        <ele>234</ele>
        <time>2015-05-04T11:55:06Z</time>
      </trkpt>
      <trkpt lat="43.9352" lon="7.12262">
        <ele>234</ele>
        <time>2015-05-04T11:55:14Z</time>
      </trkpt>
      <trkpt lat="43.9354" lon="7.12303">
        <ele>234</ele>
        <time>2015-05-04T11:55:19Z</time>
      </trkpt>
      <trkpt lat="43.93547" lon="7.1232">
        <ele>234</ele>
        <time>2015-05-04T11:55:21Z</time>
      </trkpt>
      <trkpt lat="43.93556" lon="7.12347">
        <ele>234</ele>
        <time>2015-05-04T11:55:24Z</time>
      </trkpt>
      <trkpt lat="43.93565" lon="7.12394">
        <ele>232</ele>
        <time>2015-05-04T11:55:29Z</time>
      </trkpt>
      <trkpt lat="43.9357" lon="7.12431">
        <ele>232</ele>
        <time>2015-05-04T11:55:33Z</time>
      </trkpt>
      <trkpt lat="43.9357" lon="7.12488">
        <ele>232</ele>
        <time>2015-05-04T11:55:39Z</time>
      </trkpt>
      <trkpt lat="43.93563" lon="7.12553">
        <ele>232</ele>
        <time>2015-05-04T11:55:46Z</time>
      </trkpt>
      <trkpt lat="43.93554" lon="7.12588">
        <ele>232</ele>
        <time>2015-05-04T11:55:50Z</time>
      </trkpt>
      <trkpt lat="43.93524" lon="7.1266">
        <ele>232</ele>
        <time>2015-05-04T11:55:59Z</time>
      </trkpt>
      <trkpt lat="43.93511" lon="7.12701">
        <ele>232</ele>
        <time>2015-05-04T11:56:04Z</time>
      </trkpt>
      <trkpt lat="43.93491" lon="7.12798">
        <ele>232</ele>
        <time>2015-05-04T11:56:15Z</time>
      </trkpt>
      <trkpt lat="43.93465" lon="7.12861">
        <ele>232</ele>
        <time>2015-05-04T11:56:23Z</time>
      </trkpt>
      <trkpt lat="43.9343" lon="7.1291">
        <ele>230</ele>
        <time>2015-05-04T11:56:31Z</time>
      </trkpt>
      <trkpt lat="43.93392" lon="7.12955">
        <ele>230</ele>
        <time>2015-05-04T11:56:39Z</time>
      </trkpt>
      <trkpt lat="43.9335" lon="7.1301">
        <ele>230</ele>
        <time>2015-05-04T11:56:48Z</time>
      </trkpt>
      <trkpt lat="43.93329" lon="7.13033">
        <ele>230</ele>
        <time>2015-05-04T11:56:52Z</time>
      </trkpt>
      <trkpt lat="43.93285" lon="7.13085">
        <ele>230</ele>
        <time>2015-05-04T11:57:00Z</time>
      </trkpt>
      <trkpt lat="43.93241" lon="7.13141">
        <ele>230</ele>
        <time>2015-05-04T11:57:10Z</time>
      </trkpt>
      <trkpt lat="43.93202" lon="7.13189">
        <ele>230</ele>
        <time>2015-05-04T11:57:18Z</time>
      </trkpt>
      <trkpt lat="43.93178" lon="7.13204">
        <ele>230</ele>
        <time>2015-05-04T11:57:22Z</time>
      </trkpt>
      <trkpt lat="43.93162" lon="7.13217">
        <ele>230</ele>
        <time>2015-05-04T11:57:25Z</time>
      </trkpt>
      <trkpt lat="43.93152" lon="7.13231">
        <ele>230</ele>
        <time>2015-05-04T11:57:27Z</time>
      </trkpt>
      <trkpt lat="43.93144" lon="7.13247">
        <ele>230</ele>
        <time>2015-05-04T11:57:29Z</time>
      </trkpt>
      <trkpt lat="43.93138" lon="7.13274">
        <ele>230</ele>
        <time>2015-05-04T11:57:32Z</time>
      </trkpt>
      <trkpt lat="43.93127" lon="7.13369">
        <ele>230</ele>
        <time>2015-05-04T11:57:42Z</time>
      </trkpt>
      <trkpt lat="43.93113" lon="7.13478">
        <ele>230</ele>
        <time>2015-05-04T11:57:54Z</time>
      </trkpt>
      <trkpt lat="43.93113" lon="7.13544">
        <ele>230</ele>
        <time>2015-05-04T11:58:01Z</time>
      </trkpt>
      <trkpt lat="43.93124" lon="7.13579">
        <ele>230</ele>
        <time>2015-05-04T11:58:05Z</time>
      </trkpt>
      <trkpt lat="43.93172" lon="7.13689">
        <ele>230</ele>
        <time>2015-05-04T11:58:19Z</time>
      </trkpt>
      <trkpt lat="43.93198" lon="7.13716">
        <ele>230</ele>
        <time>2015-05-04T11:58:25Z</time>
      </trkpt>
      <trkpt lat="43.93239" lon="7.13747">
        <ele>230</ele>
        <time>2015-05-04T11:58:31Z</time>
      </trkpt>
      <trkpt lat="43.93262" lon="7.13772">
        <ele>229</ele>
        <time>2015-05-04T11:58:35Z</time>
      </trkpt>
      <trkpt lat="43.93283" lon="7.13802">
        <ele>228</ele>
        <time>2015-05-04T11:58:39Z</time>
      </trkpt>
      <trkpt lat="43.93303" lon="7.13835">
        <ele>228</ele>
        <time>2015-05-04T11:58:43Z</time>
      </trkpt>
      <trkpt lat="43.9333" lon="7.13899">
        <ele>228</ele>
        <time>2015-05-04T11:58:50Z</time>
      </trkpt>
      <trkpt lat="43.93336" lon="7.13939">
        <ele>227</ele>
        <time>2015-05-04T11:58:54Z</time>
      </trkpt>
      <trkpt lat="43.93335" lon="7.1396">
        <ele>227</ele>
        <time>2015-05-04T11:58:56Z</time>
      </trkpt>
      <trkpt lat="43.93332" lon="7.13981">
        <ele>226</ele>
        <time>2015-05-04T11:58:58Z</time>
      </trkpt>
      <trkpt lat="43.93299" lon="7.14106">
        <ele>226</ele>
        <time>2015-05-04T11:59:11Z</time>
      </trkpt>
      <trkpt lat="43.93272" lon="7.14216">
        <ele>225</ele>
        <time>2015-05-04T11:59:22Z</time>
      </trkpt>
      <trkpt lat="43.93266" lon="7.14235">
        <ele>224</ele>
        <time>2015-05-04T11:59:24Z</time>
      </trkpt>
      <trkpt lat="43.93258" lon="7.14253">
        <ele>224</ele>
        <time>2015-05-04T11:59:26Z</time>
      </trkpt>
      <trkpt lat="43.93233" lon="7.14293">
        <ele>224</ele>
        <time>2015-05-04T11:59:31Z</time>
      </trkpt>
      <trkpt lat="43.9321" lon="7.14323">
        <ele>224</ele>
        <time>2015-05-04T11:59:35Z</time>
      </trkpt>
      <trkpt lat="43.9317" lon="7.14355">
        <ele>224</ele>
        <time>2015-05-04T11:59:41Z</time>
      </trkpt>
      <trkpt lat="43.93123" lon="7.14413">
        <ele>223</ele>
        <time>2015-05-04T11:59:49Z</time>
      </trkpt>
      <trkpt lat="43.93119" lon="7.14422">
        <ele>222</ele>
        <time>2015-05-04T11:59:50Z</time>
      </trkpt>
      <trkpt lat="43.93109" lon="7.14449">
        <ele>221</ele>
        <time>2015-05-04T11:59:53Z</time>
      </trkpt>
      <trkpt lat="43.93094" lon="7.14507">
        <ele>221</ele>
        <time>2015-05-04T11:59:59Z</time>
      </trkpt>
      <trkpt lat="43.93081" lon="7.14533">
        <ele>221</ele>
        <time>2015-05-04T12:00:02Z</time>
      </trkpt>
      <trkpt lat="43.93" lon="7.14638">
        <ele>219</ele>
        <time>2015-05-04T12:00:17Z</time>
      </trkpt>
      <trkpt lat="43.92986" lon="7.14661">
        <ele>219</ele>
        <time>2015-05-04T12:00:20Z</time>
      </trkpt>
      <trkpt lat="43.92974" lon="7.14687">
        <ele>219</ele>
        <time>2015-05-04T12:00:23Z</time>
      </trkpt>
      <trkpt lat="43.92951" lon="7.14729">
        <ele>219</ele>
        <time>2015-05-04T12:00:28Z</time>
      </trkpt>
      <trkpt lat="43.92935" lon="7.1475">
        <ele>217</ele>
        <time>2015-05-04T12:00:31Z</time>
      </trkpt>
      <trkpt lat="43.92923" lon="7.14762">
        <ele>217</ele>
        <time>2015-05-04T12:00:33Z</time>
      </trkpt>
      <trkpt lat="43.92889" lon="7.14783">
        <ele>217</ele>
        <time>2015-05-04T12:00:38Z</time>
      </trkpt>
      <trkpt lat="43.92847" lon="7.148">
        <ele>217</ele>
        <time>2015-05-04T12:00:44Z</time>
      </trkpt>
      <trkpt lat="43.92802" lon="7.14804">
        <ele>217</ele>
        <time>2015-05-04T12:00:50Z</time>
      </trkpt>
      <trkpt lat="43.92789" lon="7.1481">
        <ele>217</ele>
        <time>2015-05-04T12:00:52Z</time>
      </trkpt>
      <trkpt lat="43.92766" lon="7.14813">
        <ele>215</ele>
        <time>2015-05-04T12:00:55Z</time>
      </trkpt>
      <trkpt lat="43.92758" lon="7.14813">
        <ele>215</ele>
        <time>2015-05-04T12:00:56Z</time>
      </trkpt>
      <trkpt lat="43.9273" lon="7.14806">
        <ele>215</ele>
        <time>2015-05-04T12:01:00Z</time>
      </trkpt>
      <trkpt lat="43.92688" lon="7.14799">
        <ele>215</ele>
        <time>2015-05-04T12:01:06Z</time>
      </trkpt>
      <trkpt lat="43.92656" lon="7.14806">
        <ele>215</ele>
        <time>2015-05-04T12:01:11Z</time>
      </trkpt>
      <trkpt lat="43.92626" lon="7.14821">
        <ele>215</ele>
        <time>2015-05-04T12:01:16Z</time>
      </trkpt>
      <trkpt lat="43.92591" lon="7.14846">
        <ele>215</ele>
        <time>2015-05-04T12:01:22Z</time>
      </trkpt>
      <trkpt lat="43.92565" lon="7.14876">
        <ele>215</ele>
        <time>2015-05-04T12:01:27Z</time>
      </trkpt>
      <trkpt lat="43.92507" lon="7.14989">
        <ele>215</ele>
        <time>2015-05-04T12:01:42Z</time>
      </trkpt>
      <trkpt lat="43.92476" lon="7.15057">
        <ele>215</ele>
        <time>2015-05-04T12:01:51Z</time>
      </trkpt>
      <trkpt lat="43.92424" lon="7.15135">
        <ele>215</ele>
        <time>2015-05-04T12:02:03Z</time>
      </trkpt>
      <trkpt lat="43.92377" lon="7.15196">
        <ele>215</ele>
        <time>2015-05-04T12:02:13Z</time>
      </trkpt>
      <trkpt lat="43.92368" lon="7.1521">
        <ele>215</ele>
        <time>2015-05-04T12:02:15Z</time>
      </trkpt>
      <trkpt lat="43.92357" lon="7.15232">
        <ele>215</ele>
        <time>2015-05-04T12:02:18Z</time>
      </trkpt>
      <trkpt lat="43.92345" lon="7.15276">
        <ele>215</ele>
        <time>2015-05-04T12:02:23Z</time>
      </trkpt>
      <trkpt lat="43.92338" lon="7.15319">
        <ele>215</ele>
        <time>2015-05-04T12:02:28Z</time>
      </trkpt>
      <trkpt lat="43.92322" lon="7.15368">
        <ele>215</ele>
        <time>2015-05-04T12:02:34Z</time>
      </trkpt>
      <trkpt lat="43.92318" lon="7.15376">
        <ele>215</ele>
        <time>2015-05-04T12:02:35Z</time>
      </trkpt>
      <trkpt lat="43.92301" lon="7.15403">
        <ele>215</ele>
        <time>2015-05-04T12:02:39Z</time>
      </trkpt>
      <trkpt lat="43.92229" lon="7.15479">
        <ele>215</ele>
        <time>2015-05-04T12:02:53Z</time>
      </trkpt>
      <trkpt lat="43.92212" lon="7.15517">
        <ele>215</ele>
        <time>2015-05-04T12:02:58Z</time>
      </trkpt>
      <trkpt lat="43.92194" lon="7.15565">
        <ele>215</ele>
        <time>2015-05-04T12:03:04Z</time>
      </trkpt>
      <trkpt lat="43.92175" lon="7.15622">
        <ele>215</ele>
        <time>2015-05-04T12:03:11Z</time>
      </trkpt>
      <trkpt lat="43.92163" lon="7.15683">
        <ele>215</ele>
        <time>2015-05-04T12:03:18Z</time>
      </trkpt>
      <trkpt lat="43.92155" lon="7.15708">
        <ele>215</ele>
        <time>2015-05-04T12:03:21Z</time>
      </trkpt>
      <trkpt lat="43.92147" lon="7.15724">
        <ele>215</ele>
        <time>2015-05-04T12:03:23Z</time>
      </trkpt>
      <trkpt lat="43.92086" lon="7.15805">
        <ele>213</ele>
        <time>2015-05-04T12:03:35Z</time>
      </trkpt>
      <trkpt lat="43.92063" lon="7.15846">
        <ele>213</ele>
        <time>2015-05-04T12:03:40Z</time>
      </trkpt>
      <trkpt lat="43.92049" lon="7.15896">
        <ele>213</ele>
        <time>2015-05-04T12:03:45Z</time>
      </trkpt>
      <trkpt lat="43.92038" lon="7.15958">
        <ele>212</ele>
        <time>2015-05-04T12:03:51Z</time>
      </trkpt>
      <trkpt lat="43.92028" lon="7.15987">
        <ele>211</ele>
        <time>2015-05-04T12:03:54Z</time>
      </trkpt>
      <trkpt lat="43.92016" lon="7.16013">
        <ele>211</ele>
        <time>2015-05-04T12:03:57Z</time>
      </trkpt>
      <trkpt lat="43.91982" lon="7.16058">
        <ele>211</ele>
        <time>2015-05-04T12:04:03Z</time>
      </trkpt>
      <trkpt lat="43.91907" lon="7.16148">
        <ele>209</ele>
        <time>2015-05-04T12:04:16Z</time>
      </trkpt>
      <trkpt lat="43.91897" lon="7.16162">
        <ele>209</ele>
        <time>2015-05-04T12:04:18Z</time>
      </trkpt>
      <trkpt lat="43.91875" lon="7.16202">
        <ele>209</ele>
        <time>2015-05-04T12:04:23Z</time>
      </trkpt>
      <trkpt lat="43.91826" lon="7.16319">
        <ele>208</ele>
        <time>2015-05-04T12:04:36Z</time>
      </trkpt>
      <trkpt lat="43.91809" lon="7.16365">
        <ele>207</ele>
        <time>2015-05-04T12:04:41Z</time>
      </trkpt>
      <trkpt lat="43.918" lon="7.16405">
        <ele>207</ele>
        <time>2015-05-04T12:04:45Z</time>
      </trkpt>
      <trkpt lat="43.91804" lon="7.16447">
        <ele>207</ele>
        <time>2015-05-04T12:04:49Z</time>
      </trkpt>
      <trkpt lat="43.91817" lon="7.16484">
        <ele>207</ele>
        <time>2015-05-04T12:04:53Z</time>
      </trkpt>
      <trkpt lat="43.91842" lon="7.16539">
        <ele>206</ele>
        <time>2015-05-04T12:04:59Z</time>
      </trkpt>
      <trkpt lat="43.91848" lon="7.16561">
        <ele>205</ele>
        <time>2015-05-04T12:05:01Z</time>
      </trkpt>
      <trkpt lat="43.91851" lon="7.16595">
        <ele>204</ele>
        <time>2015-05-04T12:05:04Z</time>
      </trkpt>
      <trkpt lat="43.9185" lon="7.16652">
        <ele>204</ele>
        <time>2015-05-04T12:05:09Z</time>
      </trkpt>
      <trkpt lat="43.91838" lon="7.16808">
        <ele>201</ele>
        <time>2015-05-04T12:05:23Z</time>
      </trkpt>
      <trkpt lat="43.9183" lon="7.16852">
        <ele>200</ele>
        <time>2015-05-04T12:05:27Z</time>
      </trkpt>
      <trkpt lat="43.91822" lon="7.16883">
        <ele>199</ele>
        <time>2015-05-04T12:05:30Z</time>
      </trkpt>
      <trkpt lat="43.9181" lon="7.16913">
        <ele>198</ele>
        <time>2015-05-04T12:05:33Z</time>
      </trkpt>
      <trkpt lat="43.91766" lon="7.17002">
        <ele>198</ele>
        <time>2015-05-04T12:05:43Z</time>
      </trkpt>
      <trkpt lat="43.91743" lon="7.17047">
        <ele>198</ele>
        <time>2015-05-04T12:05:48Z</time>
      </trkpt>
      <trkpt lat="43.91722" lon="7.17079">
        <ele>197</ele>
        <time>2015-05-04T12:05:52Z</time>
      </trkpt>
      <trkpt lat="43.91705" lon="7.17101">
        <ele>196</ele>
        <time>2015-05-04T12:05:55Z</time>
      </trkpt>
      <trkpt lat="43.91666" lon="7.17148">
        <ele>196</ele>
        <time>2015-05-04T12:06:02Z</time>
      </trkpt>
      <trkpt lat="43.9163" lon="7.17199">
        <ele>196</ele>
        <time>2015-05-04T12:06:09Z</time>
      </trkpt>
      <trkpt lat="43.91598" lon="7.17255">
        <ele>196</ele>
        <time>2015-05-04T12:06:16Z</time>
      </trkpt>
      <trkpt lat="43.91531" lon="7.17378">
        <ele>196</ele>
        <time>2015-05-04T12:06:31Z</time>
      </trkpt>
      <trkpt lat="43.91488" lon="7.17462">
        <ele>194</ele>
        <time>2015-05-04T12:06:41Z</time>
      </trkpt>
      <trkpt lat="43.91443" lon="7.17533">
        <ele>194</ele>
        <time>2015-05-04T12:06:52Z</time>
      </trkpt>
      <trkpt lat="43.91409" lon="7.17607">
        <ele>194</ele>
        <time>2015-05-04T12:07:01Z</time>
      </trkpt>
      <trkpt lat="43.91403" lon="7.17626">
        <ele>194</ele>
        <time>2015-05-04T12:07:03Z</time>
      </trkpt>
      <trkpt lat="43.914" lon="7.17645">
        <ele>194</ele>
        <time>2015-05-04T12:07:05Z</time>
      </trkpt>
      <trkpt lat="43.914" lon="7.17673">
        <ele>194</ele>
        <time>2015-05-04T12:07:08Z</time>
      </trkpt>
      <trkpt lat="43.91403" lon="7.17703">
        <ele>194</ele>
        <time>2015-05-04T12:07:11Z</time>
      </trkpt>
      <trkpt lat="43.91395" lon="7.1776">
        <ele>194</ele>
        <time>2015-05-04T12:07:17Z</time>
      </trkpt>
      <trkpt lat="43.91385" lon="7.178">
        <ele>194</ele>
        <time>2015-05-04T12:07:22Z</time>
      </trkpt>
      <trkpt lat="43.91364" lon="7.17906">
        <ele>194</ele>
        <time>2015-05-04T12:07:35Z</time>
      </trkpt>
      <trkpt lat="43.91326" lon="7.18023">
        <ele>194</ele>
        <time>2015-05-04T12:07:49Z</time>
      </trkpt>
      <trkpt lat="43.91303" lon="7.18063">
        <ele>194</ele>
        <time>2015-05-04T12:07:54Z</time>
      </trkpt>
      <trkpt lat="43.91284" lon="7.18086">
        <ele>193</ele>
        <time>2015-05-04T12:07:57Z</time>
      </trkpt>
      <trkpt lat="43.91275" lon="7.18101">
        <ele>192</ele>
        <time>2015-05-04T12:07:59Z</time>
      </trkpt>
      <trkpt lat="43.91247" lon="7.18132">
        <ele>192</ele>
        <time>2015-05-04T12:08:03Z</time>
      </trkpt>
      <trkpt lat="43.91222" lon="7.18175">
        <ele>192</ele>
        <time>2015-05-04T12:08:08Z</time>
      </trkpt>
      <trkpt lat="43.91216" lon="7.18193">
        <ele>192</ele>
        <time>2015-05-04T12:08:10Z</time>
      </trkpt>
      <trkpt lat="43.91211" lon="7.18223">
        <ele>191</ele>
        <time>2015-05-04T12:08:13Z</time>
      </trkpt>
      <trkpt lat="43.91203" lon="7.18262">
        <ele>190</ele>
        <time>2015-05-04T12:08:17Z</time>
      </trkpt>
      <trkpt lat="43.91178" lon="7.18328">
        <ele>190</ele>
        <time>2015-05-04T12:08:24Z</time>
      </trkpt>
      <trkpt lat="43.91157" lon="7.18396">
        <ele>190</ele>
        <time>2015-05-04T12:08:31Z</time>
      </trkpt>
      <trkpt lat="43.9114" lon="7.18459">
        <ele>190</ele>
        <time>2015-05-04T12:08:38Z</time>
      </trkpt>
      <trkpt lat="43.91133" lon="7.18474">
        <ele>190</ele>
        <time>2015-05-04T12:08:40Z</time>
      </trkpt>
      <trkpt lat="43.91125" lon="7.18505">
        <ele>190</ele>
        <time>2015-05-04T12:08:45Z</time>
      </trkpt>
      <trkpt lat="43.91125" lon="7.18528">
        <ele>192</ele>
        <time>2015-05-04T12:08:49Z</time>
      </trkpt>
      <trkpt lat="43.91116" lon="7.1858">
        <ele>195</ele>
        <time>2015-05-04T12:09:00Z</time>
      </trkpt>
      <trkpt lat="43.91117" lon="7.18613">
        <ele>196</ele>
        <time>2015-05-04T12:09:07Z</time>
      </trkpt>
      <trkpt lat="43.91113" lon="7.18656">
        <ele>196</ele>
        <time>2015-05-04T12:09:15Z</time>
      </trkpt>
      <trkpt lat="43.91099" lon="7.18722">
        <ele>193</ele>
        <time>2015-05-04T12:09:24Z</time>
      </trkpt>
      <trkpt lat="43.91092" lon="7.1874">
        <ele>192</ele>
        <time>2015-05-04T12:09:26Z</time>
      </trkpt>
      <trkpt lat="43.91083" lon="7.18755">
        <ele>190</ele>
        <time>2015-05-04T12:09:28Z</time>
      </trkpt>
      <trkpt lat="43.91068" lon="7.18767">
        <ele>189</ele>
        <time>2015-05-04T12:09:31Z</time>
      </trkpt>
      <trkpt lat="43.91039" lon="7.18801">
        <ele>187</ele>
        <time>2015-05-04T12:09:37Z</time>
      </trkpt>
      <trkpt lat="43.91029" lon="7.18816">
        <ele>187</ele>
        <time>2015-05-04T12:09:39Z</time>
      </trkpt>
      <trkpt lat="43.91016" lon="7.18826">
        <ele>188</ele>
        <time>2015-05-04T12:09:43Z</time>
      </trkpt>
      <trkpt lat="43.91011" lon="7.18827">
        <ele>189</ele>
        <time>2015-05-04T12:09:45Z</time>
      </trkpt>
      <trkpt lat="43.90972" lon="7.18777">
        <ele>189</ele>
        <time>2015-05-04T12:10:01Z</time>
      </trkpt>
      <trkpt lat="43.90948" lon="7.18701">
        <ele>189</ele>
        <time>2015-05-04T12:10:10Z</time>
      </trkpt>
      <trkpt lat="43.90953" lon="7.18695">
        <ele>189</ele>
        <time>2015-05-04T12:10:11Z</time>
      </trkpt>
      <trkpt lat="43.90955" lon="7.18647">
        <ele>189</ele>
        <time>2015-05-04T12:10:17Z</time>
      </trkpt>
      <trkpt lat="43.90968" lon="7.18643">
        <ele>189</ele>
        <time>2015-05-04T12:10:19Z</time>
      </trkpt>
      <trkpt lat="43.9104" lon="7.18627">
        <ele>189</ele>
        <time>2015-05-04T12:10:26Z</time>
      </trkpt>
      <trkpt lat="43.91066" lon="7.18597">
        <ele>189</ele>
        <time>2015-05-04T12:10:31Z</time>
      </trkpt>
      <trkpt lat="43.91117" lon="7.1855">
        <ele>189</ele>
        <time>2015-05-04T12:10:40Z</time>
      </trkpt>
      <trkpt lat="43.9115" lon="7.18552">
        <ele>189</ele>
        <time>2015-05-04T12:10:44Z</time>
      </trkpt>
      <trkpt lat="43.9119" lon="7.18551">
        <ele>189</ele>
        <time>2015-05-04T12:10:49Z</time>
      </trkpt>
      <trkpt lat="43.91195" lon="7.18552">
        <ele>189</ele>
        <time>2015-05-04T12:10:50Z</time>
      </trkpt>
      <trkpt lat="43.91216" lon="7.18562">
        <ele>189</ele>
        <time>2015-05-04T12:10:54Z</time>
      </trkpt>
      <trkpt lat="43.9123" lon="7.18599">
        <ele>189</ele>
        <time>2015-05-04T12:10:58Z</time>
      </trkpt>
      <trkpt lat="43.9124" lon="7.18628">
        <ele>189</ele>
        <time>2015-05-04T12:11:02Z</time>
      </trkpt>
      <trkpt lat="43.91269" lon="7.18682">
        <ele>192</ele>
        <time>2015-05-04T12:11:11Z</time>
      </trkpt>
      <trkpt lat="43.91273" lon="7.18698">
        <ele>192</ele>
        <time>2015-05-04T12:11:13Z</time>
      </trkpt>
      <trkpt lat="43.91281" lon="7.18735">
        <ele>192</ele>
        <time>2015-05-04T12:11:19Z</time>
      </trkpt>
      <trkpt lat="43.91283" lon="7.18748">
        <ele>194</ele>
        <time>2015-05-04T12:11:22Z</time>
      </trkpt>
      <trkpt lat="43.91283" lon="7.18758">
        <ele>194</ele>
        <time>2015-05-04T12:11:25Z</time>
      </trkpt>
      <trkpt lat="43.9129" lon="7.18768">
        <ele>194</ele>
        <time>2015-05-04T12:11:30Z</time>
      </trkpt>
      <trkpt lat="43.91312" lon="7.18783">
        <ele>194</ele>
        <time>2015-05-04T12:11:33Z</time>
      </trkpt>
      <trkpt lat="43.91333" lon="7.18795">
        <ele>194</ele>
        <time>2015-05-04T12:11:36Z</time>
      </trkpt>
      <trkpt lat="43.91351" lon="7.18801">
        <ele>194</ele>
        <time>2015-05-04T12:11:39Z</time>
      </trkpt>
      <trkpt lat="43.91384" lon="7.18798">
        <ele>194</ele>
        <time>2015-05-04T12:11:45Z</time>
      </trkpt>
      <trkpt lat="43.91426" lon="7.18782">
        <ele>195</ele>
        <time>2015-05-04T12:11:54Z</time>
      </trkpt>
      <trkpt lat="43.9146" lon="7.18759">
        <ele>196</ele>
        <time>2015-05-04T12:12:02Z</time>
      </trkpt>
      <trkpt lat="43.91488" lon="7.18724">
        <ele>196</ele>
        <time>2015-05-04T12:12:09Z</time>
      </trkpt>
      <trkpt lat="43.91496" lon="7.18716">
        <ele>196</ele>
        <time>2015-05-04T12:12:11Z</time>
      </trkpt>
      <trkpt lat="43.91545" lon="7.18695">
        <ele>196</ele>
        <time>2015-05-04T12:12:20Z</time>
      </trkpt>
      <trkpt lat="43.91559" lon="7.18714">
        <ele>196</ele>
        <time>2015-05-04T12:12:23Z</time>
      </trkpt>
      <trkpt lat="43.91563" lon="7.18726">
        <ele>196</ele>
        <time>2015-05-04T12:12:24Z</time>
      </trkpt>
      <trkpt lat="43.91568" lon="7.18755">
        <ele>196</ele>
        <time>2015-05-04T12:12:25Z</time>
      </trkpt>
      <trkpt lat="43.91576" lon="7.18783">
        <ele>196</ele>
        <time>2015-05-04T12:12:29Z</time>
      </trkpt>
      <trkpt lat="43.91584" lon="7.18801">
        <ele>197</ele>
        <time>2015-05-04T12:12:32Z</time>
      </trkpt>
      <trkpt lat="43.91585" lon="7.18809">
        <ele>198</ele>
        <time>2015-05-04T12:12:33Z</time>
      </trkpt>
      <trkpt lat="43.91596" lon="7.18841">
        <ele>198</ele>
        <time>2015-05-04T12:12:38Z</time>
      </trkpt>
      <trkpt lat="43.91599" lon="7.18846">
        <ele>198</ele>
        <time>2015-05-04T12:12:39Z</time>
      </trkpt>
      <trkpt lat="43.91618" lon="7.1887">
        <ele>198</ele>
        <time>2015-05-04T12:12:44Z</time>
      </trkpt>
      <trkpt lat="43.91631" lon="7.189">
        <ele>198</ele>
        <time>2015-05-04T12:12:50Z</time>
      </trkpt>
      <trkpt lat="43.91637" lon="7.18909">
        <ele>198</ele>
        <time>2015-05-04T12:12:52Z</time>
      </trkpt>
      <trkpt lat="43.91648" lon="7.18923">
        <ele>198</ele>
        <time>2015-05-04T12:12:55Z</time>
      </trkpt>
      <trkpt lat="43.91663" lon="7.18938">
        <ele>198</ele>
        <time>2015-05-04T12:12:59Z</time>
      </trkpt>
      <trkpt lat="43.91703" lon="7.18968">
        <ele>200</ele>
        <time>2015-05-04T12:13:08Z</time>
      </trkpt>
      <trkpt lat="43.91714" lon="7.18978">
        <ele>200</ele>
        <time>2015-05-04T12:13:12Z</time>
      </trkpt>
      <trkpt lat="43.91733" lon="7.18987">
        <ele>200</ele>
        <time>2015-05-04T12:13:19Z</time>
      </trkpt>
      <trkpt lat="43.91752" lon="7.18991">
        <ele>200</ele>
        <time>2015-05-04T12:13:29Z</time>
      </trkpt>
      <trkpt lat="43.91756" lon="7.18991">
        <ele>202</ele>
        <time>2015-05-04T12:13:32Z</time>
      </trkpt>
      <trkpt lat="43.9187" lon="7.18927">
        <ele>202</ele>
        <time>2015-05-04T12:13:40Z</time>
      </trkpt>
      <trkpt lat="43.91885" lon="7.18922">
        <ele>202</ele>
        <time>2015-05-04T12:13:41Z</time>
      </trkpt>
      <trkpt lat="43.91929" lon="7.18895">
        <ele>203</ele>
        <time>2015-05-04T12:13:48Z</time>
      </trkpt>
      <trkpt lat="43.91938" lon="7.18892">
        <ele>203</ele>
        <time>2015-05-04T12:13:49Z</time>
      </trkpt>
      <trkpt lat="43.91949" lon="7.18885">
        <ele>204</ele>
        <time>2015-05-04T12:13:51Z</time>
      </trkpt>
      <trkpt lat="43.91965" lon="7.18875">
        <ele>204</ele>
        <time>2015-05-04T12:13:54Z</time>
      </trkpt>
      <trkpt lat="43.91991" lon="7.18855">
        <ele>206</ele>
        <time>2015-05-04T12:14:00Z</time>
      </trkpt>
      <trkpt lat="43.91999" lon="7.18846">
        <ele>206</ele>
        <time>2015-05-04T12:14:02Z</time>
      </trkpt>
      <trkpt lat="43.92021" lon="7.18833">
        <ele>206</ele>
        <time>2015-05-04T12:14:08Z</time>
      </trkpt>
      <trkpt lat="43.92032" lon="7.18821">
        <ele>207</ele>
        <time>2015-05-04T12:14:14Z</time>
      </trkpt>
      <trkpt lat="43.9202" lon="7.18806">
        <ele>208</ele>
        <time>2015-05-04T12:14:18Z</time>
      </trkpt>
      <trkpt lat="43.92039" lon="7.18797">
        <ele>209</ele>
        <time>2015-05-04T12:14:25Z</time>
      </trkpt>
      <trkpt lat="43.92093" lon="7.18774">
        <ele>210</ele>
        <time>2015-05-04T12:14:37Z</time>
      </trkpt>
      <trkpt lat="43.92115" lon="7.18763">
        <ele>212</ele>
        <time>2015-05-04T12:14:41Z</time>
      </trkpt>
      <trkpt lat="43.92125" lon="7.18757">
        <ele>212</ele>
        <time>2015-05-04T12:14:43Z</time>
      </trkpt>
      <trkpt lat="43.92147" lon="7.1874">
        <ele>212</ele>
        <time>2015-05-04T12:14:48Z</time>
      </trkpt>
      <trkpt lat="43.92161" lon="7.18722">
        <ele>212</ele>
        <time>2015-05-04T12:14:52Z</time>
      </trkpt>
      <trkpt lat="43.92169" lon="7.18697">
        <ele>212</ele>
        <time>2015-05-04T12:14:57Z</time>
      </trkpt>
      <trkpt lat="43.92174" lon="7.18669">
        <ele>214</ele>
        <time>2015-05-04T12:15:03Z</time>
      </trkpt>
      <trkpt lat="43.92164" lon="7.18647">
        <ele>214</ele>
        <time>2015-05-04T12:15:08Z</time>
      </trkpt>
      <trkpt lat="43.92177" lon="7.18633">
        <ele>215</ele>
        <time>2015-05-04T12:15:13Z</time>
      </trkpt>
      <trkpt lat="43.92189" lon="7.18623">
        <ele>216</ele>
        <time>2015-05-04T12:15:17Z</time>
      </trkpt>
      <trkpt lat="43.92229" lon="7.186">
        <ele>216</ele>
        <time>2015-05-04T12:15:29Z</time>
      </trkpt>
      <trkpt lat="43.92262" lon="7.1859">
        <ele>219</ele>
        <time>2015-05-04T12:15:38Z</time>
      </trkpt>
      <trkpt lat="43.92281" lon="7.18594">
        <ele>219</ele>
        <time>2015-05-04T12:15:43Z</time>
      </trkpt>
      <trkpt lat="43.92336" lon="7.18633">
        <ele>221</ele>
        <time>2015-05-04T12:15:59Z</time>
      </trkpt>
      <trkpt lat="43.9235" lon="7.18638">
        <ele>223</ele>
        <time>2015-05-04T12:16:03Z</time>
      </trkpt>
      <trkpt lat="43.92375" lon="7.18642">
        <ele>223</ele>
        <time>2015-05-04T12:16:09Z</time>
      </trkpt>
      <trkpt lat="43.92458" lon="7.18649">
        <ele>224</ele>
        <time>2015-05-04T12:16:28Z</time>
      </trkpt>
      <trkpt lat="43.92467" lon="7.18648">
        <ele>225</ele>
        <time>2015-05-04T12:16:30Z</time>
      </trkpt>
      <trkpt lat="43.92484" lon="7.1864">
        <ele>225</ele>
        <time>2015-05-04T12:16:34Z</time>
      </trkpt>
      <trkpt lat="43.92496" lon="7.18629">
        <ele>225</ele>
        <time>2015-05-04T12:16:37Z</time>
      </trkpt>
      <trkpt lat="43.92503" lon="7.18619">
        <ele>225</ele>
        <time>2015-05-04T12:16:39Z</time>
      </trkpt>
      <trkpt lat="43.92528" lon="7.1858">
        <ele>225</ele>
        <time>2015-05-04T12:16:47Z</time>
      </trkpt>
      <trkpt lat="43.92548" lon="7.18544">
        <ele>225</ele>
        <time>2015-05-04T12:16:54Z</time>
      </trkpt>
      <trkpt lat="43.92561" lon="7.18492">
        <ele>225</ele>
        <time>2015-05-04T12:17:02Z</time>
      </trkpt>
      <trkpt lat="43.92592" lon="7.18418">
        <ele>225</ele>
        <time>2015-05-04T12:17:14Z</time>
      </trkpt>
      <trkpt lat="43.92609" lon="7.18342">
        <ele>225</ele>
        <time>2015-05-04T12:17:25Z</time>
      </trkpt>
      <trkpt lat="43.92626" lon="7.18296">
        <ele>225</ele>
        <time>2015-05-04T12:17:32Z</time>
      </trkpt>
      <trkpt lat="43.92633" lon="7.18285">
        <ele>225</ele>
        <time>2015-05-04T12:17:34Z</time>
      </trkpt>
      <trkpt lat="43.92656" lon="7.18258">
        <ele>225</ele>
        <time>2015-05-04T12:17:40Z</time>
      </trkpt>
      <trkpt lat="43.92673" lon="7.18232">
        <ele>227</ele>
        <time>2015-05-04T12:17:45Z</time>
      </trkpt>
      <trkpt lat="43.92698" lon="7.18198">
        <ele>227</ele>
        <time>2015-05-04T12:17:52Z</time>
      </trkpt>
      <trkpt lat="43.92735" lon="7.18167">
        <ele>227</ele>
        <time>2015-05-04T12:18:00Z</time>
      </trkpt>
      <trkpt lat="43.9277" lon="7.18147">
        <ele>227</ele>
        <time>2015-05-04T12:18:06Z</time>
      </trkpt>
      <trkpt lat="43.92815" lon="7.1812">
        <ele>227</ele>
        <time>2015-05-04T12:18:15Z</time>
      </trkpt>
      <trkpt lat="43.9286" lon="7.18095">
        <ele>227</ele>
        <time>2015-05-04T12:18:24Z</time>
      </trkpt>
      <trkpt lat="43.92898" lon="7.18079">
        <ele>227</ele>
        <time>2015-05-04T12:18:31Z</time>
      </trkpt>
      <trkpt lat="43.92953" lon="7.18074">
        <ele>227</ele>
        <time>2015-05-04T12:18:41Z</time>
      </trkpt>
      <trkpt lat="43.92968" lon="7.18067">
        <ele>229</ele>
        <time>2015-05-04T12:18:44Z</time>
      </trkpt>
      <trkpt lat="43.92997" lon="7.18049">
        <ele>229</ele>
        <time>2015-05-04T12:18:50Z</time>
      </trkpt>
      <trkpt lat="43.93005" lon="7.1804">
        <ele>229</ele>
        <time>2015-05-04T12:18:52Z</time>
      </trkpt>
      <trkpt lat="43.93013" lon="7.18029">
        <ele>229</ele>
        <time>2015-05-04T12:18:54Z</time>
      </trkpt>
      <trkpt lat="43.93036" lon="7.17985">
        <ele>229</ele>
        <time>2015-05-04T12:19:01Z</time>
      </trkpt>
      <trkpt lat="43.9309" lon="7.17818">
        <ele>229</ele>
        <time>2015-05-04T12:19:25Z</time>
      </trkpt>
      <trkpt lat="43.9312" lon="7.1777">
        <ele>229</ele>
        <time>2015-05-04T12:19:33Z</time>
      </trkpt>
      <trkpt lat="43.93133" lon="7.17754">
        <ele>230</ele>
        <time>2015-05-04T12:19:36Z</time>
      </trkpt>
      <trkpt lat="43.93141" lon="7.17743">
        <ele>230</ele>
        <time>2015-05-04T12:19:38Z</time>
      </trkpt>
      <trkpt lat="43.93149" lon="7.17724">
        <ele>231</ele>
        <time>2015-05-04T12:19:41Z</time>
      </trkpt>
      <trkpt lat="43.93189" lon="7.17658">
        <ele>231</ele>
        <time>2015-05-04T12:19:52Z</time>
      </trkpt>
      <trkpt lat="43.93212" lon="7.1763">
        <ele>231</ele>
        <time>2015-05-04T12:19:57Z</time>
      </trkpt>
      <trkpt lat="43.93236" lon="7.17579">
        <ele>231</ele>
        <time>2015-05-04T12:20:05Z</time>
      </trkpt>
      <trkpt lat="43.93286" lon="7.17546">
        <ele>231</ele>
        <time>2015-05-04T12:20:12Z</time>
      </trkpt>
      <trkpt lat="43.9332" lon="7.17509">
        <ele>231</ele>
        <time>2015-05-04T12:20:18Z</time>
      </trkpt>
      <trkpt lat="43.93356" lon="7.1746">
        <ele>231</ele>
        <time>2015-05-04T12:20:26Z</time>
      </trkpt>
      <trkpt lat="43.93373" lon="7.17431">
        <ele>231</ele>
        <time>2015-05-04T12:20:31Z</time>
      </trkpt>
      <trkpt lat="43.934" lon="7.17395">
        <ele>231</ele>
        <time>2015-05-04T12:20:38Z</time>
      </trkpt>
      <trkpt lat="43.93412" lon="7.17367">
        <ele>231</ele>
        <time>2015-05-04T12:20:43Z</time>
      </trkpt>
      <trkpt lat="43.93419" lon="7.17341">
        <ele>231</ele>
        <time>2015-05-04T12:20:47Z</time>
      </trkpt>
      <trkpt lat="43.93431" lon="7.17312">
        <ele>231</ele>
        <time>2015-05-04T12:20:51Z</time>
      </trkpt>
      <trkpt lat="43.93436" lon="7.17306">
        <ele>231</ele>
        <time>2015-05-04T12:20:52Z</time>
      </trkpt>
      <trkpt lat="43.93447" lon="7.17275">
        <ele>231</ele>
        <time>2015-05-04T12:20:56Z</time>
      </trkpt>
      <trkpt lat="43.93449" lon="7.17257">
        <ele>231</ele>
        <time>2015-05-04T12:20:58Z</time>
      </trkpt>
      <trkpt lat="43.93464" lon="7.17215">
        <ele>231</ele>
        <time>2015-05-04T12:21:04Z</time>
      </trkpt>
      <trkpt lat="43.93475" lon="7.172">
        <ele>231</ele>
        <time>2015-05-04T12:21:07Z</time>
      </trkpt>
      <trkpt lat="43.93479" lon="7.17196">
        <ele>231</ele>
        <time>2015-05-04T12:21:08Z</time>
      </trkpt>
      <trkpt lat="43.93509" lon="7.17184">
        <ele>231</ele>
        <time>2015-05-04T12:21:14Z</time>
      </trkpt>
      <trkpt lat="43.93542" lon="7.1718">
        <ele>231</ele>
        <time>2015-05-04T12:21:20Z</time>
      </trkpt>
      <trkpt lat="43.9357" lon="7.17184">
        <ele>231</ele>
        <time>2015-05-04T12:21:25Z</time>
      </trkpt>
      <trkpt lat="43.936" lon="7.17178">
        <ele>231</ele>
        <time>2015-05-04T12:21:30Z</time>
      </trkpt>
      <trkpt lat="43.93616" lon="7.17172">
        <ele>231</ele>
        <time>2015-05-04T12:21:34Z</time>
      </trkpt>
      <trkpt lat="43.93625" lon="7.17172">
        <ele>231</ele>
        <time>2015-05-04T12:21:36Z</time>
      </trkpt>
      <trkpt lat="43.93661" lon="7.17165">
        <ele>231</ele>
        <time>2015-05-04T12:21:42Z</time>
      </trkpt>
      <trkpt lat="43.93698" lon="7.17144">
        <ele>231</ele>
        <time>2015-05-04T12:21:48Z</time>
      </trkpt>
      <trkpt lat="43.93764" lon="7.17096">
        <ele>231</ele>
        <time>2015-05-04T12:21:59Z</time>
      </trkpt>
      <trkpt lat="43.93807" lon="7.17057">
        <ele>231</ele>
        <time>2015-05-04T12:22:07Z</time>
      </trkpt>
      <trkpt lat="43.93829" lon="7.17049">
        <ele>231</ele>
        <time>2015-05-04T12:22:11Z</time>
      </trkpt>
      <trkpt lat="43.93847" lon="7.17038">
        <ele>231</ele>
        <time>2015-05-04T12:22:16Z</time>
      </trkpt>
      <trkpt lat="43.93843" lon="7.17014">
        <ele>231</ele>
        <time>2015-05-04T12:22:19Z</time>
      </trkpt>
      <trkpt lat="43.93809" lon="7.16944">
        <ele>231</ele>
        <time>2015-05-04T12:22:25Z</time>
      </trkpt>
      <trkpt lat="43.93778" lon="7.16869">
        <ele>231</ele>
        <time>2015-05-04T12:22:32Z</time>
      </trkpt>
      <trkpt lat="43.93768" lon="7.16839">
        <ele>232</ele>
        <time>2015-05-04T12:22:35Z</time>
      </trkpt>
      <trkpt lat="43.93759" lon="7.16794">
        <ele>233</ele>
        <time>2015-05-04T12:22:40Z</time>
      </trkpt>
      <trkpt lat="43.93758" lon="7.16785">
        <ele>233</ele>
        <time>2015-05-04T12:22:41Z</time>
      </trkpt>
      <trkpt lat="43.93761" lon="7.16752">
        <ele>233</ele>
        <time>2015-05-04T12:22:45Z</time>
      </trkpt>
      <trkpt lat="43.93773" lon="7.16709">
        <ele>233</ele>
        <time>2015-05-04T12:22:51Z</time>
      </trkpt>
      <trkpt lat="43.93819" lon="7.16637">
        <ele>233</ele>
        <time>2015-05-04T12:23:03Z</time>
      </trkpt>
      <trkpt lat="43.93827" lon="7.16618">
        <ele>234</ele>
        <time>2015-05-04T12:23:06Z</time>
      </trkpt>
      <trkpt lat="43.93839" lon="7.16585">
        <ele>235</ele>
        <time>2015-05-04T12:23:11Z</time>
      </trkpt>
      <trkpt lat="43.93846" lon="7.16546">
        <ele>235</ele>
        <time>2015-05-04T12:23:18Z</time>
      </trkpt>
      <trkpt lat="43.93851" lon="7.1654">
        <ele>235</ele>
        <time>2015-05-04T12:23:20Z</time>
      </trkpt>
      <trkpt lat="43.93878" lon="7.16521">
        <ele>235</ele>
        <time>2015-05-04T12:23:26Z</time>
      </trkpt>
      <trkpt lat="43.93931" lon="7.16455">
        <ele>235</ele>
        <time>2015-05-04T12:23:39Z</time>
      </trkpt>
      <trkpt lat="43.93964" lon="7.16423">
        <ele>237</ele>
        <time>2015-05-04T12:23:47Z</time>
      </trkpt>
      <trkpt lat="43.93958" lon="7.16405">
        <ele>237</ele>
        <time>2015-05-04T12:23:49Z</time>
      </trkpt>
      <trkpt lat="43.93903" lon="7.16281">
        <ele>237</ele>
        <time>2015-05-04T12:24:03Z</time>
      </trkpt>
      <trkpt lat="43.93903" lon="7.16268">
        <ele>238</ele>
        <time>2015-05-04T12:24:05Z</time>
      </trkpt>
      <trkpt lat="43.93908" lon="7.16257">
        <ele>239</ele>
        <time>2015-05-04T12:24:07Z</time>
      </trkpt>
      <trkpt lat="43.93922" lon="7.16238">
        <ele>240</ele>
        <time>2015-05-04T12:24:11Z</time>
      </trkpt>
      <trkpt lat="43.9394" lon="7.16208">
        <ele>240</ele>
        <time>2015-05-04T12:24:17Z</time>
      </trkpt>
      <trkpt lat="43.93959" lon="7.16187">
        <ele>240</ele>
        <time>2015-05-04T12:24:22Z</time>
      </trkpt>
      <trkpt lat="43.93981" lon="7.16169">
        <ele>241</ele>
        <time>2015-05-04T12:24:27Z</time>
      </trkpt>
      <trkpt lat="43.93995" lon="7.16162">
        <ele>242</ele>
        <time>2015-05-04T12:24:30Z</time>
      </trkpt>
      <trkpt lat="43.94008" lon="7.16143">
        <ele>242</ele>
        <time>2015-05-04T12:24:35Z</time>
      </trkpt>
      <trkpt lat="43.94021" lon="7.16137">
        <ele>242</ele>
        <time>2015-05-04T12:24:39Z</time>
      </trkpt>
      <trkpt lat="43.94033" lon="7.16134">
        <ele>244</ele>
        <time>2015-05-04T12:24:43Z</time>
      </trkpt>
      <trkpt lat="43.94032" lon="7.1613">
        <ele>244</ele>
        <time>2015-05-04T12:24:48Z</time>
      </trkpt>
      <trkpt lat="43.94041" lon="7.16131">
        <ele>244</ele>
        <time>2015-05-04T12:24:55Z</time>
      </trkpt>
      <trkpt lat="43.94099" lon="7.16143">
        <ele>244</ele>
        <time>2015-05-04T12:25:08Z</time>
      </trkpt>
      <trkpt lat="43.94125" lon="7.16145">
        <ele>244</ele>
        <time>2015-05-04T12:25:13Z</time>
      </trkpt>
      <trkpt lat="43.94144" lon="7.1615">
        <ele>244</ele>
        <time>2015-05-04T12:25:17Z</time>
      </trkpt>
      <trkpt lat="43.94164" lon="7.16161">
        <ele>244</ele>
        <time>2015-05-04T12:25:21Z</time>
      </trkpt>
      <trkpt lat="43.9418" lon="7.16176">
        <ele>246</ele>
        <time>2015-05-04T12:25:25Z</time>
      </trkpt>
      <trkpt lat="43.94231" lon="7.16229">
        <ele>246</ele>
        <time>2015-05-04T12:25:38Z</time>
      </trkpt>
      <trkpt lat="43.94243" lon="7.1624">
        <ele>246</ele>
        <time>2015-05-04T12:25:41Z</time>
      </trkpt>
      <trkpt lat="43.94253" lon="7.16246">
        <ele>246</ele>
        <time>2015-05-04T12:25:43Z</time>
      </trkpt>
      <trkpt lat="43.94287" lon="7.16259">
        <ele>246</ele>
        <time>2015-05-04T12:25:49Z</time>
      </trkpt>
      <trkpt lat="43.94346" lon="7.16278">
        <ele>246</ele>
        <time>2015-05-04T12:26:00Z</time>
      </trkpt>
      <trkpt lat="43.94389" lon="7.16294">
        <ele>248</ele>
        <time>2015-05-04T12:26:08Z</time>
      </trkpt>
      <trkpt lat="43.94421" lon="7.16303">
        <ele>248</ele>
        <time>2015-05-04T12:26:14Z</time>
      </trkpt>
      <trkpt lat="43.94441" lon="7.16306">
        <ele>248</ele>
        <time>2015-05-04T12:26:18Z</time>
      </trkpt>
      <trkpt lat="43.94491" lon="7.16306">
        <ele>250</ele>
        <time>2015-05-04T12:26:28Z</time>
      </trkpt>
      <trkpt lat="43.94509" lon="7.16301">
        <ele>250</ele>
        <time>2015-05-04T12:26:32Z</time>
      </trkpt>
      <trkpt lat="43.94518" lon="7.16296">
        <ele>250</ele>
        <time>2015-05-04T12:26:34Z</time>
      </trkpt>
      <trkpt lat="43.94531" lon="7.16288">
        <ele>250</ele>
        <time>2015-05-04T12:26:37Z</time>
      </trkpt>
      <trkpt lat="43.94538" lon="7.16281">
        <ele>250</ele>
        <time>2015-05-04T12:26:39Z</time>
      </trkpt>
      <trkpt lat="43.94557" lon="7.16261">
        <ele>250</ele>
        <time>2015-05-04T12:26:44Z</time>
      </trkpt>
      <trkpt lat="43.94593" lon="7.16211">
        <ele>252</ele>
        <time>2015-05-04T12:26:55Z</time>
      </trkpt>
      <trkpt lat="43.94624" lon="7.16166">
        <ele>254</ele>
        <time>2015-05-04T12:27:05Z</time>
      </trkpt>
      <trkpt lat="43.94651" lon="7.16123">
        <ele>255</ele>
        <time>2015-05-04T12:27:14Z</time>
      </trkpt>
      <trkpt lat="43.94677" lon="7.16086">
        <ele>256</ele>
        <time>2015-05-04T12:27:22Z</time>
      </trkpt>
      <trkpt lat="43.94695" lon="7.16066">
        <ele>256</ele>
        <time>2015-05-04T12:27:27Z</time>
      </trkpt>
      <trkpt lat="43.94708" lon="7.16054">
        <ele>257</ele>
        <time>2015-05-04T12:27:30Z</time>
      </trkpt>
      <trkpt lat="43.94757" lon="7.16024">
        <ele>259</ele>
        <time>2015-05-04T12:27:41Z</time>
      </trkpt>
      <trkpt lat="43.94782" lon="7.16013">
        <ele>259</ele>
        <time>2015-05-04T12:27:46Z</time>
      </trkpt>
      <trkpt lat="43.94806" lon="7.16012">
        <ele>259</ele>
        <time>2015-05-04T12:27:51Z</time>
      </trkpt>
      <trkpt lat="43.94953" lon="7.1603">
        <ele>260</ele>
        <time>2015-05-04T12:28:20Z</time>
      </trkpt>
      <trkpt lat="43.94982" lon="7.16036">
        <ele>261</ele>
        <time>2015-05-04T12:28:26Z</time>
      </trkpt>
      <trkpt lat="43.95002" lon="7.16038">
        <ele>261</ele>
        <time>2015-05-04T12:28:30Z</time>
      </trkpt>
      <trkpt lat="43.95019" lon="7.16034">
        <ele>261</ele>
        <time>2015-05-04T12:28:33Z</time>
      </trkpt>
      <trkpt lat="43.95096" lon="7.16008">
        <ele>261</ele>
        <time>2015-05-04T12:28:48Z</time>
      </trkpt>
      <trkpt lat="43.95133" lon="7.15993">
        <ele>261</ele>
        <time>2015-05-04T12:28:55Z</time>
      </trkpt>
      <trkpt lat="43.95193" lon="7.15962">
        <ele>262</ele>
        <time>2015-05-04T12:29:07Z</time>
      </trkpt>
      <trkpt lat="43.95226" lon="7.15949">
        <ele>263</ele>
        <time>2015-05-04T12:29:13Z</time>
      </trkpt>
      <trkpt lat="43.95345" lon="7.15907">
        <ele>263</ele>
        <time>2015-05-04T12:29:36Z</time>
      </trkpt>
      <trkpt lat="43.95396" lon="7.15892">
        <ele>265</ele>
        <time>2015-05-04T12:29:47Z</time>
      </trkpt>
      <trkpt lat="43.95426" lon="7.15882">
        <ele>267</ele>
        <time>2015-05-04T12:29:54Z</time>
      </trkpt>
      <trkpt lat="43.95473" lon="7.15863">
        <ele>267</ele>
        <time>2015-05-04T12:30:06Z</time>
      </trkpt>
      <trkpt lat="43.95512" lon="7.15844">
        <ele>269</ele>
        <time>2015-05-04T12:30:16Z</time>
      </trkpt>
      <trkpt lat="43.95556" lon="7.15826">
        <ele>269</ele>
        <time>2015-05-04T12:30:27Z</time>
      </trkpt>
      <trkpt lat="43.95635" lon="7.15799">
        <ele>272</ele>
        <time>2015-05-04T12:30:46Z</time>
      </trkpt>
      <trkpt lat="43.95643" lon="7.15794">
        <ele>272</ele>
        <time>2015-05-04T12:30:48Z</time>
      </trkpt>
      <trkpt lat="43.95678" lon="7.15765">
        <ele>273</ele>
        <time>2015-05-04T12:30:58Z</time>
      </trkpt>
      <trkpt lat="43.95716" lon="7.15743">
        <ele>275</ele>
        <time>2015-05-04T12:31:09Z</time>
      </trkpt>
      <trkpt lat="43.95727" lon="7.15734">
        <ele>275</ele>
        <time>2015-05-04T12:31:12Z</time>
      </trkpt>
      <trkpt lat="43.95761" lon="7.15698">
        <ele>275</ele>
        <time>2015-05-04T12:31:22Z</time>
      </trkpt>
      <trkpt lat="43.95778" lon="7.15687">
        <ele>275</ele>
        <time>2015-05-04T12:31:26Z</time>
      </trkpt>
      <trkpt lat="43.95798" lon="7.1568">
        <ele>277</ele>
        <time>2015-05-04T12:31:31Z</time>
      </trkpt>
      <trkpt lat="43.95862" lon="7.15643">
        <ele>277</ele>
        <time>2015-05-04T12:31:47Z</time>
      </trkpt>
      <trkpt lat="43.95879" lon="7.15637">
        <ele>278</ele>
        <time>2015-05-04T12:31:51Z</time>
      </trkpt>
      <trkpt lat="43.9592" lon="7.15631">
        <ele>279</ele>
        <time>2015-05-04T12:32:01Z</time>
      </trkpt>
      <trkpt lat="43.95938" lon="7.15624">
        <ele>279</ele>
        <time>2015-05-04T12:32:05Z</time>
      </trkpt>
      <trkpt lat="43.95957" lon="7.15609">
        <ele>279</ele>
        <time>2015-05-04T12:32:10Z</time>
      </trkpt>
      <trkpt lat="43.95961" lon="7.15605">
        <ele>279</ele>
        <time>2015-05-04T12:32:11Z</time>
      </trkpt>
      <trkpt lat="43.95975" lon="7.15584">
        <ele>280</ele>
        <time>2015-05-04T12:32:16Z</time>
      </trkpt>
      <trkpt lat="43.95996" lon="7.15544">
        <ele>281</ele>
        <time>2015-05-04T12:32:24Z</time>
      </trkpt>
      <trkpt lat="43.9602" lon="7.15518">
        <ele>281</ele>
        <time>2015-05-04T12:32:31Z</time>
      </trkpt>
      <trkpt lat="43.96044" lon="7.15502">
        <ele>282</ele>
        <time>2015-05-04T12:32:37Z</time>
      </trkpt>
      <trkpt lat="43.96062" lon="7.15496">
        <ele>284</ele>
        <time>2015-05-04T12:32:41Z</time>
      </trkpt>
      <trkpt lat="43.96079" lon="7.15487">
        <ele>284</ele>
        <time>2015-05-04T12:32:45Z</time>
      </trkpt>
      <trkpt lat="43.96113" lon="7.15467">
        <ele>284</ele>
        <time>2015-05-04T12:32:53Z</time>
      </trkpt>
      <trkpt lat="43.96212" lon="7.15371">
        <ele>286</ele>
        <time>2015-05-04T12:33:17Z</time>
      </trkpt>
      <trkpt lat="43.9623" lon="7.15361">
        <ele>286</ele>
        <time>2015-05-04T12:33:21Z</time>
      </trkpt>
      <trkpt lat="43.96251" lon="7.1536">
        <ele>286</ele>
        <time>2015-05-04T12:33:25Z</time>
      </trkpt>
      <trkpt lat="43.96327" lon="7.15375">
        <ele>286</ele>
        <time>2015-05-04T12:33:40Z</time>
      </trkpt>
      <trkpt lat="43.96332" lon="7.15374">
        <ele>286</ele>
        <time>2015-05-04T12:33:41Z</time>
      </trkpt>
      <trkpt lat="43.96341" lon="7.15367">
        <ele>286</ele>
        <time>2015-05-04T12:33:43Z</time>
      </trkpt>
      <trkpt lat="43.96349" lon="7.15359">
        <ele>287</ele>
        <time>2015-05-04T12:33:45Z</time>
      </trkpt>
      <trkpt lat="43.96366" lon="7.15332">
        <ele>288</ele>
        <time>2015-05-04T12:33:50Z</time>
      </trkpt>
      <trkpt lat="43.96406" lon="7.15277">
        <ele>288</ele>
        <time>2015-05-04T12:34:01Z</time>
      </trkpt>
      <trkpt lat="43.96414" lon="7.15268">
        <ele>288</ele>
        <time>2015-05-04T12:34:03Z</time>
      </trkpt>
      <trkpt lat="43.96428" lon="7.15259">
        <ele>288</ele>
        <time>2015-05-04T12:34:06Z</time>
      </trkpt>
      <trkpt lat="43.96459" lon="7.15244">
        <ele>288</ele>
        <time>2015-05-04T12:34:12Z</time>
      </trkpt>
      <trkpt lat="43.96514" lon="7.15226">
        <ele>289</ele>
        <time>2015-05-04T12:34:23Z</time>
      </trkpt>
      <trkpt lat="43.96533" lon="7.15217">
        <ele>290</ele>
        <time>2015-05-04T12:34:27Z</time>
      </trkpt>
      <trkpt lat="43.96599" lon="7.15168">
        <ele>290</ele>
        <time>2015-05-04T12:34:42Z</time>
      </trkpt>
      <trkpt lat="43.96624" lon="7.15158">
        <ele>290</ele>
        <time>2015-05-04T12:34:47Z</time>
      </trkpt>
      <trkpt lat="43.96642" lon="7.15149">
        <ele>291</ele>
        <time>2015-05-04T12:34:51Z</time>
      </trkpt>
      <trkpt lat="43.96721" lon="7.15095">
        <ele>292</ele>
        <time>2015-05-04T12:35:09Z</time>
      </trkpt>
      <trkpt lat="43.96751" lon="7.15076">
        <ele>293</ele>
        <time>2015-05-04T12:35:16Z</time>
      </trkpt>
      <trkpt lat="43.96798" lon="7.15051">
        <ele>294</ele>
        <time>2015-05-04T12:35:26Z</time>
      </trkpt>
      <trkpt lat="43.96833" lon="7.15025">
        <ele>294</ele>
        <time>2015-05-04T12:35:34Z</time>
      </trkpt>
      <trkpt lat="43.96868" lon="7.14989">
        <ele>294</ele>
        <time>2015-05-04T12:35:43Z</time>
      </trkpt>
      <trkpt lat="43.96886" lon="7.14968">
        <ele>294</ele>
        <time>2015-05-04T12:35:48Z</time>
      </trkpt>
      <trkpt lat="43.96933" lon="7.14918">
        <ele>296</ele>
        <time>2015-05-04T12:36:00Z</time>
      </trkpt>
      <trkpt lat="43.97025" lon="7.14824">
        <ele>296</ele>
        <time>2015-05-04T12:36:23Z</time>
      </trkpt>
      <trkpt lat="43.97077" lon="7.14782">
        <ele>298</ele>
        <time>2015-05-04T12:36:36Z</time>
      </trkpt>
      <trkpt lat="43.97118" lon="7.14745">
        <ele>298</ele>
        <time>2015-05-04T12:36:46Z</time>
      </trkpt>
      <trkpt lat="43.9716" lon="7.14717">
        <ele>298</ele>
        <time>2015-05-04T12:36:56Z</time>
      </trkpt>
      <trkpt lat="43.97192" lon="7.14687">
        <ele>300</ele>
        <time>2015-05-04T12:37:04Z</time>
      </trkpt>
      <trkpt lat="43.97221" lon="7.14666">
        <ele>300</ele>
        <time>2015-05-04T12:37:10Z</time>
      </trkpt>
      <trkpt lat="43.9725" lon="7.14641">
        <ele>300</ele>
        <time>2015-05-04T12:37:16Z</time>
      </trkpt>
      <trkpt lat="43.97254" lon="7.14635">
        <ele>300</ele>
        <time>2015-05-04T12:37:17Z</time>
      </trkpt>
      <trkpt lat="43.9726" lon="7.14615">
        <ele>300</ele>
        <time>2015-05-04T12:37:20Z</time>
      </trkpt>
      <trkpt lat="43.97264" lon="7.14568">
        <ele>300</ele>
        <time>2015-05-04T12:37:26Z</time>
      </trkpt>
      <trkpt lat="43.97267" lon="7.14551">
        <ele>300</ele>
        <time>2015-05-04T12:37:28Z</time>
      </trkpt>
      <trkpt lat="43.97278" lon="7.14506">
        <ele>300</ele>
        <time>2015-05-04T12:37:34Z</time>
      </trkpt>
      <trkpt lat="43.97287" lon="7.14477">
        <ele>300</ele>
        <time>2015-05-04T12:37:38Z</time>
      </trkpt>
      <trkpt lat="43.9729" lon="7.14462">
        <ele>299</ele>
        <time>2015-05-04T12:37:40Z</time>
      </trkpt>
      <trkpt lat="43.97291" lon="7.14429">
        <ele>298</ele>
        <time>2015-05-04T12:37:44Z</time>
      </trkpt>
      <trkpt lat="43.97286" lon="7.14347">
        <ele>298</ele>
        <time>2015-05-04T12:37:54Z</time>
      </trkpt>
      <trkpt lat="43.97286" lon="7.1431">
        <ele>298</ele>
        <time>2015-05-04T12:37:59Z</time>
      </trkpt>
      <trkpt lat="43.97282" lon="7.14267">
        <ele>298</ele>
        <time>2015-05-04T12:38:05Z</time>
      </trkpt>
      <trkpt lat="43.97283" lon="7.14247">
        <ele>298</ele>
        <time>2015-05-04T12:38:08Z</time>
      </trkpt>
      <trkpt lat="43.97287" lon="7.14227">
        <ele>298</ele>
        <time>2015-05-04T12:38:11Z</time>
      </trkpt>
      <trkpt lat="43.97313" lon="7.14145">
        <ele>300</ele>
        <time>2015-05-04T12:38:25Z</time>
      </trkpt>
      <trkpt lat="43.97325" lon="7.14126">
        <ele>300</ele>
        <time>2015-05-04T12:38:29Z</time>
      </trkpt>
      <trkpt lat="43.97341" lon="7.14109">
        <ele>300</ele>
        <time>2015-05-04T12:38:33Z</time>
      </trkpt>
      <trkpt lat="43.97389" lon="7.14079">
        <ele>300</ele>
        <time>2015-05-04T12:38:43Z</time>
      </trkpt>
      <trkpt lat="43.97425" lon="7.14052">
        <ele>300</ele>
        <time>2015-05-04T12:38:50Z</time>
      </trkpt>
      <trkpt lat="43.97454" lon="7.14024">
        <ele>300</ele>
        <time>2015-05-04T12:38:56Z</time>
      </trkpt>
      <trkpt lat="43.97492" lon="7.13974">
        <ele>300</ele>
        <time>2015-05-04T12:39:07Z</time>
      </trkpt>
      <trkpt lat="43.97516" lon="7.13947">
        <ele>300</ele>
        <time>2015-05-04T12:39:14Z</time>
      </trkpt>
      <trkpt lat="43.97528" lon="7.1394">
        <ele>302</ele>
        <time>2015-05-04T12:39:18Z</time>
      </trkpt>
      <trkpt lat="43.97546" lon="7.13939">
        <ele>302</ele>
        <time>2015-05-04T12:39:24Z</time>
      </trkpt>
      <trkpt lat="43.97553" lon="7.13944">
        <ele>303</ele>
        <time>2015-05-04T12:39:26Z</time>
      </trkpt>
      <trkpt lat="43.97588" lon="7.13976">
        <ele>304</ele>
        <time>2015-05-04T12:39:35Z</time>
      </trkpt>
      <trkpt lat="43.9762" lon="7.13999">
        <ele>304</ele>
        <time>2015-05-04T12:39:42Z</time>
      </trkpt>
      <trkpt lat="43.97634" lon="7.14024">
        <ele>304</ele>
        <time>2015-05-04T12:39:47Z</time>
      </trkpt>
      <trkpt lat="43.97642" lon="7.14026">
        <ele>304</ele>
        <time>2015-05-04T12:39:49Z</time>
      </trkpt>
      <trkpt lat="43.97656" lon="7.14024">
        <ele>304</ele>
        <time>2015-05-04T12:39:52Z</time>
      </trkpt>
      <trkpt lat="43.97679" lon="7.14033">
        <ele>304</ele>
        <time>2015-05-04T12:39:57Z</time>
      </trkpt>
      <trkpt lat="43.977" lon="7.14043">
        <ele>306</ele>
        <time>2015-05-04T12:40:02Z</time>
      </trkpt>
      <trkpt lat="43.97724" lon="7.14051">
        <ele>306</ele>
        <time>2015-05-04T12:40:07Z</time>
      </trkpt>
      <trkpt lat="43.97758" lon="7.14055">
        <ele>306</ele>
        <time>2015-05-04T12:40:14Z</time>
      </trkpt>
      <trkpt lat="43.97787" lon="7.14053">
        <ele>306</ele>
        <time>2015-05-04T12:40:20Z</time>
      </trkpt>
      <trkpt lat="43.97854" lon="7.14035">
        <ele>307</ele>
        <time>2015-05-04T12:40:33Z</time>
      </trkpt>
      <trkpt lat="43.97962" lon="7.13987">
        <ele>308</ele>
        <time>2015-05-04T12:40:55Z</time>
      </trkpt>
      <trkpt lat="43.97997" lon="7.13976">
        <ele>309</ele>
        <time>2015-05-04T12:41:02Z</time>
      </trkpt>
      <trkpt lat="43.98107" lon="7.13962">
        <ele>310</ele>
        <time>2015-05-04T12:41:23Z</time>
      </trkpt>
      <trkpt lat="43.98152" lon="7.1395">
        <ele>312</ele>
        <time>2015-05-04T12:41:32Z</time>
      </trkpt>
      <trkpt lat="43.98213" lon="7.13926">
        <ele>312</ele>
        <time>2015-05-04T12:41:45Z</time>
      </trkpt>
      <trkpt lat="43.98241" lon="7.1391">
        <ele>314</ele>
        <time>2015-05-04T12:41:52Z</time>
      </trkpt>
      <trkpt lat="43.9831" lon="7.1386">
        <ele>316</ele>
        <time>2015-05-04T12:42:11Z</time>
      </trkpt>
      <trkpt lat="43.98355" lon="7.13825">
        <ele>317</ele>
        <time>2015-05-04T12:42:24Z</time>
      </trkpt>
      <trkpt lat="43.98388" lon="7.13794">
        <ele>319</ele>
        <time>2015-05-04T12:42:34Z</time>
      </trkpt>
      <trkpt lat="43.98436" lon="7.13755">
        <ele>321</ele>
        <time>2015-05-04T12:42:48Z</time>
      </trkpt>
      <trkpt lat="43.98463" lon="7.13735">
        <ele>321</ele>
        <time>2015-05-04T12:42:56Z</time>
      </trkpt>
      <trkpt lat="43.985" lon="7.13702">
        <ele>323</ele>
        <time>2015-05-04T12:43:08Z</time>
      </trkpt>
      <trkpt lat="43.98552" lon="7.13668">
        <ele>323</ele>
        <time>2015-05-04T12:43:23Z</time>
      </trkpt>
      <trkpt lat="43.98577" lon="7.13655">
        <ele>325</ele>
        <time>2015-05-04T12:43:30Z</time>
      </trkpt>
      <trkpt lat="43.98603" lon="7.13645">
        <ele>325</ele>
        <time>2015-05-04T12:43:37Z</time>
      </trkpt>
      <trkpt lat="43.98619" lon="7.13641">
        <ele>326</ele>
        <time>2015-05-04T12:43:41Z</time>
      </trkpt>
      <trkpt lat="43.98649" lon="7.13631">
        <ele>327</ele>
        <time>2015-05-04T12:43:48Z</time>
      </trkpt>
      <trkpt lat="43.98696" lon="7.13618">
        <ele>328</ele>
        <time>2015-05-04T12:43:59Z</time>
      </trkpt>
      <trkpt lat="43.98721" lon="7.13617">
        <ele>329</ele>
        <time>2015-05-04T12:44:05Z</time>
      </trkpt>
      <trkpt lat="43.98762" lon="7.13621">
        <ele>330</ele>
        <time>2015-05-04T12:44:15Z</time>
      </trkpt>
      <trkpt lat="43.98778" lon="7.13625">
        <ele>331</ele>
        <time>2015-05-04T12:44:19Z</time>
      </trkpt>
      <trkpt lat="43.988" lon="7.13633">
        <ele>331</ele>
        <time>2015-05-04T12:44:25Z</time>
      </trkpt>
      <trkpt lat="43.98843" lon="7.13641">
        <ele>331</ele>
        <time>2015-05-04T12:44:36Z</time>
      </trkpt>
      <trkpt lat="43.9886" lon="7.13643">
        <ele>331</ele>
        <time>2015-05-04T12:44:40Z</time>
      </trkpt>
      <trkpt lat="43.98928" lon="7.1364">
        <ele>333</ele>
        <time>2015-05-04T12:44:55Z</time>
      </trkpt>
      <trkpt lat="43.98959" lon="7.13642">
        <ele>333</ele>
        <time>2015-05-04T12:45:02Z</time>
      </trkpt>
      <trkpt lat="43.98991" lon="7.13648">
        <ele>333</ele>
        <time>2015-05-04T12:45:09Z</time>
      </trkpt>
      <trkpt lat="43.99015" lon="7.13658">
        <ele>333</ele>
        <time>2015-05-04T12:45:15Z</time>
      </trkpt>
      <trkpt lat="43.99042" lon="7.13673">
        <ele>335</ele>
        <time>2015-05-04T12:45:21Z</time>
      </trkpt>
      <trkpt lat="43.99061" lon="7.13687">
        <ele>335</ele>
        <time>2015-05-04T12:45:26Z</time>
      </trkpt>
      <trkpt lat="43.9909" lon="7.137">
        <ele>335</ele>
        <time>2015-05-04T12:45:33Z</time>
      </trkpt>
      <trkpt lat="43.99126" lon="7.13712">
        <ele>335</ele>
        <time>2015-05-04T12:45:41Z</time>
      </trkpt>
      <trkpt lat="43.99155" lon="7.13716">
        <ele>336</ele>
        <time>2015-05-04T12:45:47Z</time>
      </trkpt>
      <trkpt lat="43.99207" lon="7.13713">
        <ele>337</ele>
        <time>2015-05-04T12:45:58Z</time>
      </trkpt>
      <trkpt lat="43.99244" lon="7.13708">
        <ele>337</ele>
        <time>2015-05-04T12:46:06Z</time>
      </trkpt>
      <trkpt lat="43.99273" lon="7.13701">
        <ele>337</ele>
        <time>2015-05-04T12:46:12Z</time>
      </trkpt>
      <trkpt lat="43.99345" lon="7.1368">
        <ele>338</ele>
        <time>2015-05-04T12:46:27Z</time>
      </trkpt>
      <trkpt lat="43.99379" lon="7.13675">
        <ele>339</ele>
        <time>2015-05-04T12:46:34Z</time>
      </trkpt>
      <trkpt lat="43.9949" lon="7.13702">
        <ele>341</ele>
        <time>2015-05-04T12:46:57Z</time>
      </trkpt>
      <trkpt lat="43.99546" lon="7.13718">
        <ele>341</ele>
        <time>2015-05-04T12:47:09Z</time>
      </trkpt>
      <trkpt lat="43.99573" lon="7.13731">
        <ele>341</ele>
        <time>2015-05-04T12:47:15Z</time>
      </trkpt>
      <trkpt lat="43.99618" lon="7.1376">
        <ele>343</ele>
        <time>2015-05-04T12:47:25Z</time>
      </trkpt>
      <trkpt lat="43.99638" lon="7.13771">
        <ele>343</ele>
        <time>2015-05-04T12:47:30Z</time>
      </trkpt>
      <trkpt lat="43.99677" lon="7.13782">
        <ele>343</ele>
        <time>2015-05-04T12:47:38Z</time>
      </trkpt>
      <trkpt lat="43.99706" lon="7.13786">
        <ele>343</ele>
        <time>2015-05-04T12:47:44Z</time>
      </trkpt>
      <trkpt lat="43.99738" lon="7.13784">
        <ele>343</ele>
        <time>2015-05-04T12:47:51Z</time>
      </trkpt>
      <trkpt lat="43.99774" lon="7.13771">
        <ele>345</ele>
        <time>2015-05-04T12:47:59Z</time>
      </trkpt>
      <trkpt lat="43.99798" lon="7.13758">
        <ele>345</ele>
        <time>2015-05-04T12:48:04Z</time>
      </trkpt>
      <trkpt lat="43.99828" lon="7.13745">
        <ele>345</ele>
        <time>2015-05-04T12:48:09Z</time>
      </trkpt>
      <trkpt lat="43.99868" lon="7.13713">
        <ele>345</ele>
        <time>2015-05-04T12:48:18Z</time>
      </trkpt>
      <trkpt lat="43.9989" lon="7.13702">
        <ele>345</ele>
        <time>2015-05-04T12:48:23Z</time>
      </trkpt>
      <trkpt lat="43.99909" lon="7.13702">
        <ele>345</ele>
        <time>2015-05-04T12:48:27Z</time>
      </trkpt>
      <trkpt lat="43.99929" lon="7.13706">
        <ele>346</ele>
        <time>2015-05-04T12:48:31Z</time>
      </trkpt>
      <trkpt lat="43.99952" lon="7.13715">
        <ele>347</ele>
        <time>2015-05-04T12:48:36Z</time>
      </trkpt>
      <trkpt lat="43.99994" lon="7.13727">
        <ele>347</ele>
        <time>2015-05-04T12:48:45Z</time>
      </trkpt>
      <trkpt lat="44.00025" lon="7.13744">
        <ele>347</ele>
        <time>2015-05-04T12:48:52Z</time>
      </trkpt>
      <trkpt lat="44.00054" lon="7.13766">
        <ele>348</ele>
        <time>2015-05-04T12:48:59Z</time>
      </trkpt>
      <trkpt lat="44.00111" lon="7.13796">
        <ele>349</ele>
        <time>2015-05-04T12:49:11Z</time>
      </trkpt>
      <trkpt lat="44.00191" lon="7.13827">
        <ele>349</ele>
        <time>2015-05-04T12:49:25Z</time>
      </trkpt>
      <trkpt lat="44.00215" lon="7.13836">
        <ele>349</ele>
        <time>2015-05-04T12:49:29Z</time>
      </trkpt>
      <trkpt lat="44.00227" lon="7.13839">
        <ele>349</ele>
        <time>2015-05-04T12:49:31Z</time>
      </trkpt>
      <trkpt lat="44.00238" lon="7.13839">
        <ele>349</ele>
        <time>2015-05-04T12:49:33Z</time>
      </trkpt>
      <trkpt lat="44.00262" lon="7.13835">
        <ele>349</ele>
        <time>2015-05-04T12:49:37Z</time>
      </trkpt>
      <trkpt lat="44.00316" lon="7.13822">
        <ele>349</ele>
        <time>2015-05-04T12:49:46Z</time>
      </trkpt>
      <trkpt lat="44.00353" lon="7.1381">
        <ele>349</ele>
        <time>2015-05-04T12:49:52Z</time>
      </trkpt>
      <trkpt lat="44.00376" lon="7.13798">
        <ele>348</ele>
        <time>2015-05-04T12:49:56Z</time>
      </trkpt>
      <trkpt lat="44.00428" lon="7.13767">
        <ele>347</ele>
        <time>2015-05-04T12:50:05Z</time>
      </trkpt>
      <trkpt lat="44.00516" lon="7.13709">
        <ele>345</ele>
        <time>2015-05-04T12:50:20Z</time>
      </trkpt>
      <trkpt lat="44.0054" lon="7.13695">
        <ele>345</ele>
        <time>2015-05-04T12:50:24Z</time>
      </trkpt>
      <trkpt lat="44.00582" lon="7.13667">
        <ele>345</ele>
        <time>2015-05-04T12:50:31Z</time>
      </trkpt>
      <trkpt lat="44.00601" lon="7.13651">
        <ele>344</ele>
        <time>2015-05-04T12:50:34Z</time>
      </trkpt>
      <trkpt lat="44.00627" lon="7.13626">
        <ele>343</ele>
        <time>2015-05-04T12:50:38Z</time>
      </trkpt>
      <trkpt lat="44.00652" lon="7.13599">
        <ele>341</ele>
        <time>2015-05-04T12:50:42Z</time>
      </trkpt>
      <trkpt lat="44.00674" lon="7.13571">
        <ele>341</ele>
        <time>2015-05-04T12:50:46Z</time>
      </trkpt>
      <trkpt lat="44.0076" lon="7.13451">
        <ele>341</ele>
        <time>2015-05-04T12:51:04Z</time>
      </trkpt>
      <trkpt lat="44.00791" lon="7.13401">
        <ele>341</ele>
        <time>2015-05-04T12:51:12Z</time>
      </trkpt>
      <trkpt lat="44.00824" lon="7.13366">
        <ele>341</ele>
        <time>2015-05-04T12:51:19Z</time>
      </trkpt>
      <trkpt lat="44.00845" lon="7.1334">
        <ele>341</ele>
        <time>2015-05-04T12:51:24Z</time>
      </trkpt>
      <trkpt lat="44.00856" lon="7.13325">
        <ele>341</ele>
        <time>2015-05-04T12:51:27Z</time>
      </trkpt>
      <trkpt lat="44.00881" lon="7.13297">
        <ele>341</ele>
        <time>2015-05-04T12:51:33Z</time>
      </trkpt>
      <trkpt lat="44.00916" lon="7.13262">
        <ele>341</ele>
        <time>2015-05-04T12:51:41Z</time>
      </trkpt>
      <trkpt lat="44.0096" lon="7.13221">
        <ele>341</ele>
        <time>2015-05-04T12:51:51Z</time>
      </trkpt>
      <trkpt lat="44.00991" lon="7.13196">
        <ele>341</ele>
        <time>2015-05-04T12:51:58Z</time>
      </trkpt>
      <trkpt lat="44.01024" lon="7.13178">
        <ele>341</ele>
        <time>2015-05-04T12:52:05Z</time>
      </trkpt>
      <trkpt lat="44.0108" lon="7.13183">
        <ele>341</ele>
        <time>2015-05-04T12:52:12Z</time>
      </trkpt>
      <trkpt lat="44.0116" lon="7.13178">
        <ele>343</ele>
        <time>2015-05-04T12:52:27Z</time>
      </trkpt>
      <trkpt lat="44.01306" lon="7.13172">
        <ele>345</ele>
        <time>2015-05-04T12:52:56Z</time>
      </trkpt>
      <trkpt lat="44.01384" lon="7.1316">
        <ele>347</ele>
        <time>2015-05-04T12:53:13Z</time>
      </trkpt>
      <trkpt lat="44.01426" lon="7.13145">
        <ele>347</ele>
        <time>2015-05-04T12:53:21Z</time>
      </trkpt>
      <trkpt lat="44.01457" lon="7.13127">
        <ele>347</ele>
        <time>2015-05-04T12:53:27Z</time>
      </trkpt>
      <trkpt lat="44.01496" lon="7.13111">
        <ele>347</ele>
        <time>2015-05-04T12:53:34Z</time>
      </trkpt>
      <trkpt lat="44.01537" lon="7.13101">
        <ele>347</ele>
        <time>2015-05-04T12:53:41Z</time>
      </trkpt>
      <trkpt lat="44.01579" lon="7.13103">
        <ele>347</ele>
        <time>2015-05-04T12:53:48Z</time>
      </trkpt>
      <trkpt lat="44.01591" lon="7.13105">
        <ele>347</ele>
        <time>2015-05-04T12:53:50Z</time>
      </trkpt>
      <trkpt lat="44.01704" lon="7.13131">
        <ele>350</ele>
        <time>2015-05-04T12:54:11Z</time>
      </trkpt>
      <trkpt lat="44.01821" lon="7.13161">
        <ele>352</ele>
        <time>2015-05-04T12:54:34Z</time>
      </trkpt>
      <trkpt lat="44.01893" lon="7.13177">
        <ele>354</ele>
        <time>2015-05-04T12:54:49Z</time>
      </trkpt>
      <trkpt lat="44.01917" lon="7.1318">
        <ele>355</ele>
        <time>2015-05-04T12:54:54Z</time>
      </trkpt>
      <trkpt lat="44.01935" lon="7.1318">
        <ele>356</ele>
        <time>2015-05-04T12:54:58Z</time>
      </trkpt>
      <trkpt lat="44.01978" lon="7.13172">
        <ele>356</ele>
        <time>2015-05-04T12:55:08Z</time>
      </trkpt>
      <trkpt lat="44.02103" lon="7.13142">
        <ele>358</ele>
        <time>2015-05-04T12:55:36Z</time>
      </trkpt>
      <trkpt lat="44.02152" lon="7.13132">
        <ele>360</ele>
        <time>2015-05-04T12:55:46Z</time>
      </trkpt>
      <trkpt lat="44.02209" lon="7.13129">
        <ele>360</ele>
        <time>2015-05-04T12:55:57Z</time>
      </trkpt>
      <trkpt lat="44.02236" lon="7.13129">
        <ele>360</ele>
        <time>2015-05-04T12:56:02Z</time>
      </trkpt>
      <trkpt lat="44.02251" lon="7.13131">
        <ele>360</ele>
        <time>2015-05-04T12:56:05Z</time>
      </trkpt>
      <trkpt lat="44.0249" lon="7.13174">
        <ele>362</ele>
        <time>2015-05-04T12:56:50Z</time>
      </trkpt>
      <trkpt lat="44.02528" lon="7.13176">
        <ele>362</ele>
        <time>2015-05-04T12:56:57Z</time>
      </trkpt>
      <trkpt lat="44.02555" lon="7.13171">
        <ele>364</ele>
        <time>2015-05-04T12:57:02Z</time>
      </trkpt>
      <trkpt lat="44.0257" lon="7.13166">
        <ele>364</ele>
        <time>2015-05-04T12:57:05Z</time>
      </trkpt>
      <trkpt lat="44.0264" lon="7.13132">
        <ele>364</ele>
        <time>2015-05-04T12:57:19Z</time>
      </trkpt>
      <trkpt lat="44.02683" lon="7.13123">
        <ele>366</ele>
        <time>2015-05-04T12:57:27Z</time>
      </trkpt>
      <trkpt lat="44.02803" lon="7.13111">
        <ele>368</ele>
        <time>2015-05-04T12:57:51Z</time>
      </trkpt>
      <trkpt lat="44.02825" lon="7.13113">
        <ele>368</ele>
        <time>2015-05-04T12:57:56Z</time>
      </trkpt>
      <trkpt lat="44.02852" lon="7.1312">
        <ele>369</ele>
        <time>2015-05-04T12:58:02Z</time>
      </trkpt>
      <trkpt lat="44.02958" lon="7.13174">
        <ele>372</ele>
        <time>2015-05-04T12:58:27Z</time>
      </trkpt>
      <trkpt lat="44.03005" lon="7.13195">
        <ele>373</ele>
        <time>2015-05-04T12:58:39Z</time>
      </trkpt>
      <trkpt lat="44.0304" lon="7.13208">
        <ele>375</ele>
        <time>2015-05-04T12:58:50Z</time>
      </trkpt>
      <trkpt lat="44.03074" lon="7.13218">
        <ele>377</ele>
        <time>2015-05-04T12:59:03Z</time>
      </trkpt>
      <trkpt lat="44.03122" lon="7.1322">
        <ele>381</ele>
        <time>2015-05-04T12:59:21Z</time>
      </trkpt>
      <trkpt lat="44.03145" lon="7.13216">
        <ele>383</ele>
        <time>2015-05-04T12:59:30Z</time>
      </trkpt>
      <trkpt lat="44.0316" lon="7.13214">
        <ele>385</ele>
        <time>2015-05-04T12:59:36Z</time>
      </trkpt>
      <trkpt lat="44.03182" lon="7.13209">
        <ele>386</ele>
        <time>2015-05-04T12:59:45Z</time>
      </trkpt>
      <trkpt lat="44.03242" lon="7.13202">
        <ele>391</ele>
        <time>2015-05-04T13:00:08Z</time>
      </trkpt>
      <trkpt lat="44.03297" lon="7.132">
        <ele>396</ele>
        <time>2015-05-04T13:00:29Z</time>
      </trkpt>
      <trkpt lat="44.03336" lon="7.13202">
        <ele>398</ele>
        <time>2015-05-04T13:00:44Z</time>
      </trkpt>
      <trkpt lat="44.03365" lon="7.13206">
        <ele>400</ele>
        <time>2015-05-04T13:00:55Z</time>
      </trkpt>
      <trkpt lat="44.0338" lon="7.1321">
        <ele>401</ele>
        <time>2015-05-04T13:01:01Z</time>
      </trkpt>
      <trkpt lat="44.03395" lon="7.1321">
        <ele>402</ele>
        <time>2015-05-04T13:01:07Z</time>
      </trkpt>
      <trkpt lat="44.03412" lon="7.13208">
        <ele>402</ele>
        <time>2015-05-04T13:01:13Z</time>
      </trkpt>
      <trkpt lat="44.03426" lon="7.13203">
        <ele>403</ele>
        <time>2015-05-04T13:01:17Z</time>
      </trkpt>
      <trkpt lat="44.03452" lon="7.13189">
        <ele>404</ele>
        <time>2015-05-04T13:01:25Z</time>
      </trkpt>
      <trkpt lat="44.03486" lon="7.13168">
        <ele>405</ele>
        <time>2015-05-04T13:01:35Z</time>
      </trkpt>
      <trkpt lat="44.03499" lon="7.13158">
        <ele>406</ele>
        <time>2015-05-04T13:01:39Z</time>
      </trkpt>
      <trkpt lat="44.03519" lon="7.13134">
        <ele>406</ele>
        <time>2015-05-04T13:01:46Z</time>
      </trkpt>
      <trkpt lat="44.03555" lon="7.13087">
        <ele>408</ele>
        <time>2015-05-04T13:01:59Z</time>
      </trkpt>
      <trkpt lat="44.03573" lon="7.13067">
        <ele>408</ele>
        <time>2015-05-04T13:02:05Z</time>
      </trkpt>
      <trkpt lat="44.03587" lon="7.13044">
        <ele>409</ele>
        <time>2015-05-04T13:02:11Z</time>
      </trkpt>
      <trkpt lat="44.036" lon="7.13007">
        <ele>410</ele>
        <time>2015-05-04T13:02:19Z</time>
      </trkpt>
      <trkpt lat="44.03617" lon="7.12942">
        <ele>411</ele>
        <time>2015-05-04T13:02:32Z</time>
      </trkpt>
      <trkpt lat="44.03627" lon="7.12862">
        <ele>413</ele>
        <time>2015-05-04T13:02:48Z</time>
      </trkpt>
      <trkpt lat="44.03633" lon="7.12829">
        <ele>414</ele>
        <time>2015-05-04T13:02:55Z</time>
      </trkpt>
      <trkpt lat="44.03645" lon="7.12811">
        <ele>414</ele>
        <time>2015-05-04T13:03:00Z</time>
      </trkpt>
      <trkpt lat="44.03667" lon="7.12796">
        <ele>414</ele>
        <time>2015-05-04T13:03:06Z</time>
      </trkpt>
      <trkpt lat="44.03677" lon="7.12788">
        <ele>414</ele>
        <time>2015-05-04T13:03:09Z</time>
      </trkpt>
      <trkpt lat="44.03701" lon="7.12783">
        <ele>415</ele>
        <time>2015-05-04T13:03:16Z</time>
      </trkpt>
      <trkpt lat="44.03748" lon="7.12771">
        <ele>416</ele>
        <time>2015-05-04T13:03:24Z</time>
      </trkpt>
      <trkpt lat="44.03848" lon="7.12751">
        <ele>416</ele>
        <time>2015-05-04T13:03:35Z</time>
      </trkpt>
      <trkpt lat="44.03945" lon="7.12738">
        <ele>417</ele>
        <time>2015-05-04T13:03:45Z</time>
      </trkpt>
      <trkpt lat="44.03956" lon="7.12732">
        <ele>419</ele>
        <time>2015-05-04T13:03:49Z</time>
      </trkpt>
      <trkpt lat="44.0396" lon="7.12725">
        <ele>419</ele>
        <time>2015-05-04T13:03:53Z</time>
      </trkpt>
      <trkpt lat="44.03895" lon="7.1271">
        <ele>419</ele>
        <time>2015-05-04T13:03:58Z</time>
      </trkpt>
      <trkpt lat="44.03895" lon="7.12699">
        <ele>419</ele>
        <time>2015-05-04T13:03:59Z</time>
      </trkpt>
      <trkpt lat="44.039" lon="7.12692">
        <ele>419</ele>
        <time>2015-05-04T13:04:00Z</time>
      </trkpt>
      <trkpt lat="44.03902" lon="7.12676">
        <ele>421</ele>
        <time>2015-05-04T13:04:02Z</time>
      </trkpt>
      <trkpt lat="44.03907" lon="7.12658">
        <ele>421</ele>
        <time>2015-05-04T13:04:05Z</time>
      </trkpt>
      <trkpt lat="44.03916" lon="7.12646">
        <ele>421</ele>
        <time>2015-05-04T13:04:11Z</time>
      </trkpt>
      <trkpt lat="44.03913" lon="7.12646">
        <ele>422</ele>
        <time>2015-05-04T13:04:12Z</time>
      </trkpt>
      <trkpt lat="44.03866" lon="7.12665">
        <ele>423</ele>
        <time>2015-05-04T13:04:21Z</time>
      </trkpt>
      <trkpt lat="44.03853" lon="7.12667">
        <ele>423</ele>
        <time>2015-05-04T13:04:26Z</time>
      </trkpt>
      <trkpt lat="44.03851" lon="7.12671">
        <ele>424</ele>
        <time>2015-05-04T13:04:29Z</time>
      </trkpt>
      <trkpt lat="44.03814" lon="7.12692">
        <ele>425</ele>
        <time>2015-05-04T13:04:41Z</time>
      </trkpt>
      <trkpt lat="44.03809" lon="7.12689">
        <ele>427</ele>
        <time>2015-05-04T13:04:46Z</time>
      </trkpt>
      <trkpt lat="44.03807" lon="7.12686">
        <ele>427</ele>
        <time>2015-05-04T13:04:52Z</time>
      </trkpt>
      <trkpt lat="44.03807" lon="7.12678">
        <ele>427</ele>
        <time>2015-05-04T13:04:58Z</time>
      </trkpt>
      <trkpt lat="44.03818" lon="7.12673">
        <ele>427</ele>
        <time>2015-05-04T13:05:04Z</time>
      </trkpt>
      <trkpt lat="44.03905" lon="7.127">
        <ele>429</ele>
        <time>2015-05-04T13:05:07Z</time>
      </trkpt>
      <trkpt lat="44.03947" lon="7.1271">
        <ele>429</ele>
        <time>2015-05-04T13:05:11Z</time>
      </trkpt>
      <trkpt lat="44.03979" lon="7.12717">
        <ele>429</ele>
        <time>2015-05-04T13:05:16Z</time>
      </trkpt>
      <trkpt lat="44.04021" lon="7.12721">
        <ele>429</ele>
        <time>2015-05-04T13:05:23Z</time>
      </trkpt>
      <trkpt lat="44.04039" lon="7.12726">
        <ele>429</ele>
        <time>2015-05-04T13:05:26Z</time>
      </trkpt>
      <trkpt lat="44.04055" lon="7.12737">
        <ele>431</ele>
        <time>2015-05-04T13:05:30Z</time>
      </trkpt>
      <trkpt lat="44.04068" lon="7.1274">
        <ele>431</ele>
        <time>2015-05-04T13:05:33Z</time>
      </trkpt>
      <trkpt lat="44.04087" lon="7.12739">
        <ele>431</ele>
        <time>2015-05-04T13:05:37Z</time>
      </trkpt>
      <trkpt lat="44.04092" lon="7.12737">
        <ele>431</ele>
        <time>2015-05-04T13:05:38Z</time>
      </trkpt>
      <trkpt lat="44.04113" lon="7.12723">
        <ele>431</ele>
        <time>2015-05-04T13:05:42Z</time>
      </trkpt>
      <trkpt lat="44.04132" lon="7.12706">
        <ele>432</ele>
        <time>2015-05-04T13:05:47Z</time>
      </trkpt>
      <trkpt lat="44.04145" lon="7.12699">
        <ele>433</ele>
        <time>2015-05-04T13:05:50Z</time>
      </trkpt>
      <trkpt lat="44.0416" lon="7.12698">
        <ele>433</ele>
        <time>2015-05-04T13:05:53Z</time>
      </trkpt>
      <trkpt lat="44.04187" lon="7.12692">
        <ele>433</ele>
        <time>2015-05-04T13:05:59Z</time>
      </trkpt>
      <trkpt lat="44.0421" lon="7.12685">
        <ele>435</ele>
        <time>2015-05-04T13:06:04Z</time>
      </trkpt>
      <trkpt lat="44.04235" lon="7.12684">
        <ele>435</ele>
        <time>2015-05-04T13:06:09Z</time>
      </trkpt>
      <trkpt lat="44.04279" lon="7.12675">
        <ele>435</ele>
        <time>2015-05-04T13:06:18Z</time>
      </trkpt>
      <trkpt lat="44.04308" lon="7.12678">
        <ele>435</ele>
        <time>2015-05-04T13:06:24Z</time>
      </trkpt>
      <trkpt lat="44.04319" lon="7.12683">
        <ele>435</ele>
        <time>2015-05-04T13:06:26Z</time>
      </trkpt>
      <trkpt lat="44.0436" lon="7.127">
        <ele>435</ele>
        <time>2015-05-04T13:06:32Z</time>
      </trkpt>
      <trkpt lat="44.04391" lon="7.12717">
        <ele>435</ele>
        <time>2015-05-04T13:06:36Z</time>
      </trkpt>
      <trkpt lat="44.04453" lon="7.12775">
        <ele>435</ele>
        <time>2015-05-04T13:06:45Z</time>
      </trkpt>
      <trkpt lat="44.04487" lon="7.12812">
        <ele>435</ele>
        <time>2015-05-04T13:06:51Z</time>
      </trkpt>
      <trkpt lat="44.04506" lon="7.12828">
        <ele>435</ele>
        <time>2015-05-04T13:06:55Z</time>
      </trkpt>
      <trkpt lat="44.04531" lon="7.12832">
        <ele>435</ele>
        <time>2015-05-04T13:06:56Z</time>
      </trkpt>
      <trkpt lat="44.04645" lon="7.12927">
        <ele>435</ele>
        <time>2015-05-04T13:07:03Z</time>
      </trkpt>
      <trkpt lat="44.0467" lon="7.12941">
        <ele>435</ele>
        <time>2015-05-04T13:07:07Z</time>
      </trkpt>
      <trkpt lat="44.04679" lon="7.12953">
        <ele>436</ele>
        <time>2015-05-04T13:07:08Z</time>
      </trkpt>
      <trkpt lat="44.04705" lon="7.12964">
        <ele>438</ele>
        <time>2015-05-04T13:07:19Z</time>
      </trkpt>
      <trkpt lat="44.04715" lon="7.12964">
        <ele>439</ele>
        <time>2015-05-04T13:07:23Z</time>
      </trkpt>
      <trkpt lat="44.04745" lon="7.12953">
        <ele>440</ele>
        <time>2015-05-04T13:07:36Z</time>
      </trkpt>
      <trkpt lat="44.04753" lon="7.12948">
        <ele>441</ele>
        <time>2015-05-04T13:07:39Z</time>
      </trkpt>
      <trkpt lat="44.04814" lon="7.1292">
        <ele>444</ele>
        <time>2015-05-04T13:08:02Z</time>
      </trkpt>
      <trkpt lat="44.04868" lon="7.12892">
        <ele>448</ele>
        <time>2015-05-04T13:08:23Z</time>
      </trkpt>
      <trkpt lat="44.04886" lon="7.12878">
        <ele>449</ele>
        <time>2015-05-04T13:08:30Z</time>
      </trkpt>
      <trkpt lat="44.04931" lon="7.12836">
        <ele>452</ele>
        <time>2015-05-04T13:08:48Z</time>
      </trkpt>
      <trkpt lat="44.04946" lon="7.12826">
        <ele>452</ele>
        <time>2015-05-04T13:08:54Z</time>
      </trkpt>
      <trkpt lat="44.04971" lon="7.12818">
        <ele>454</ele>
        <time>2015-05-04T13:09:04Z</time>
      </trkpt>
      <trkpt lat="44.04981" lon="7.12811">
        <ele>455</ele>
        <time>2015-05-04T13:09:07Z</time>
      </trkpt>
      <trkpt lat="44.0506" lon="7.12722">
        <ele>460</ele>
        <time>2015-05-04T13:09:39Z</time>
      </trkpt>
      <trkpt lat="44.05079" lon="7.12697">
        <ele>461</ele>
        <time>2015-05-04T13:09:48Z</time>
      </trkpt>
      <trkpt lat="44.05086" lon="7.12684">
        <ele>462</ele>
        <time>2015-05-04T13:09:52Z</time>
      </trkpt>
      <trkpt lat="44.0511" lon="7.12633">
        <ele>464</ele>
        <time>2015-05-04T13:10:07Z</time>
      </trkpt>
      <trkpt lat="44.05118" lon="7.12622">
        <ele>464</ele>
        <time>2015-05-04T13:10:11Z</time>
      </trkpt>
      <trkpt lat="44.05147" lon="7.12591">
        <ele>466</ele>
        <time>2015-05-04T13:10:24Z</time>
      </trkpt>
      <trkpt lat="44.05193" lon="7.12559">
        <ele>468</ele>
        <time>2015-05-04T13:10:41Z</time>
      </trkpt>
      <trkpt lat="44.05205" lon="7.12546">
        <ele>469</ele>
        <time>2015-05-04T13:10:46Z</time>
      </trkpt>
      <trkpt lat="44.05212" lon="7.12535">
        <ele>471</ele>
        <time>2015-05-04T13:10:49Z</time>
      </trkpt>
      <trkpt lat="44.05241" lon="7.12468">
        <ele>473</ele>
        <time>2015-05-04T13:11:06Z</time>
      </trkpt>
      <trkpt lat="44.05258" lon="7.1245">
        <ele>473</ele>
        <time>2015-05-04T13:11:13Z</time>
      </trkpt>
      <trkpt lat="44.05266" lon="7.12446">
        <ele>474</ele>
        <time>2015-05-04T13:11:16Z</time>
      </trkpt>
      <trkpt lat="44.05319" lon="7.12443">
        <ele>477</ele>
        <time>2015-05-04T13:11:36Z</time>
      </trkpt>
      <trkpt lat="44.05324" lon="7.1244">
        <ele>478</ele>
        <time>2015-05-04T13:11:38Z</time>
      </trkpt>
      <trkpt lat="44.05329" lon="7.12433">
        <ele>479</ele>
        <time>2015-05-04T13:11:41Z</time>
      </trkpt>
      <trkpt lat="44.05343" lon="7.12409">
        <ele>479</ele>
        <time>2015-05-04T13:11:48Z</time>
      </trkpt>
      <trkpt lat="44.05348" lon="7.12395">
        <ele>479</ele>
        <time>2015-05-04T13:11:52Z</time>
      </trkpt>
      <trkpt lat="44.05349" lon="7.12379">
        <ele>481</ele>
        <time>2015-05-04T13:11:56Z</time>
      </trkpt>
      <trkpt lat="44.05347" lon="7.12359">
        <ele>481</ele>
        <time>2015-05-04T13:12:01Z</time>
      </trkpt>
      <trkpt lat="44.05349" lon="7.12334">
        <ele>481</ele>
        <time>2015-05-04T13:12:07Z</time>
      </trkpt>
      <trkpt lat="44.05352" lon="7.12322">
        <ele>482</ele>
        <time>2015-05-04T13:12:10Z</time>
      </trkpt>
      <trkpt lat="44.05376" lon="7.12281">
        <ele>485</ele>
        <time>2015-05-04T13:12:23Z</time>
      </trkpt>
      <trkpt lat="44.05387" lon="7.12264">
        <ele>485</ele>
        <time>2015-05-04T13:12:29Z</time>
      </trkpt>
      <trkpt lat="44.054" lon="7.12249">
        <ele>485</ele>
        <time>2015-05-04T13:12:35Z</time>
      </trkpt>
      <trkpt lat="44.05444" lon="7.12128">
        <ele>487</ele>
        <time>2015-05-04T13:13:01Z</time>
      </trkpt>
      <trkpt lat="44.0545" lon="7.1208">
        <ele>487</ele>
        <time>2015-05-04T13:13:07Z</time>
      </trkpt>
      <trkpt lat="44.05453" lon="7.12036">
        <ele>487</ele>
        <time>2015-05-04T13:13:13Z</time>
      </trkpt>
      <trkpt lat="44.05452" lon="7.11973">
        <ele>487</ele>
        <time>2015-05-04T13:13:21Z</time>
      </trkpt>
      <trkpt lat="44.05458" lon="7.11941">
        <ele>487</ele>
        <time>2015-05-04T13:13:26Z</time>
      </trkpt>
      <trkpt lat="44.05457" lon="7.1193">
        <ele>487</ele>
        <time>2015-05-04T13:13:28Z</time>
      </trkpt>
      <trkpt lat="44.05449" lon="7.11913">
        <ele>487</ele>
        <time>2015-05-04T13:13:31Z</time>
      </trkpt>
      <trkpt lat="44.05446" lon="7.11897">
        <ele>487</ele>
        <time>2015-05-04T13:13:33Z</time>
      </trkpt>
      <trkpt lat="44.05452" lon="7.11877">
        <ele>487</ele>
        <time>2015-05-04T13:13:36Z</time>
      </trkpt>
      <trkpt lat="44.05455" lon="7.11872">
        <ele>487</ele>
        <time>2015-05-04T13:13:37Z</time>
      </trkpt>
      <trkpt lat="44.05462" lon="7.11866">
        <ele>487</ele>
        <time>2015-05-04T13:13:39Z</time>
      </trkpt>
      <trkpt lat="44.05465" lon="7.11866">
        <ele>487</ele>
        <time>2015-05-04T13:13:40Z</time>
      </trkpt>
      <trkpt lat="44.05483" lon="7.11873">
        <ele>487</ele>
        <time>2015-05-04T13:13:44Z</time>
      </trkpt>
      <trkpt lat="44.05502" lon="7.11896">
        <ele>487</ele>
        <time>2015-05-04T13:13:48Z</time>
      </trkpt>
      <trkpt lat="44.05512" lon="7.11905">
        <ele>487</ele>
        <time>2015-05-04T13:13:50Z</time>
      </trkpt>
      <trkpt lat="44.05527" lon="7.11915">
        <ele>487</ele>
        <time>2015-05-04T13:13:53Z</time>
      </trkpt>
      <trkpt lat="44.05559" lon="7.11933">
        <ele>487</ele>
        <time>2015-05-04T13:13:59Z</time>
      </trkpt>
      <trkpt lat="44.05564" lon="7.11935">
        <ele>487</ele>
        <time>2015-05-04T13:14:00Z</time>
      </trkpt>
      <trkpt lat="44.05583" lon="7.11931">
        <ele>487</ele>
        <time>2015-05-04T13:14:03Z</time>
      </trkpt>
      <trkpt lat="44.05605" lon="7.11914">
        <ele>487</ele>
        <time>2015-05-04T13:14:07Z</time>
      </trkpt>
      <trkpt lat="44.05632" lon="7.11882">
        <ele>487</ele>
        <time>2015-05-04T13:14:13Z</time>
      </trkpt>
      <trkpt lat="44.05638" lon="7.11879">
        <ele>487</ele>
        <time>2015-05-04T13:14:14Z</time>
      </trkpt>
      <trkpt lat="44.05649" lon="7.11882">
        <ele>486</ele>
        <time>2015-05-04T13:14:16Z</time>
      </trkpt>
      <trkpt lat="44.05659" lon="7.11889">
        <ele>485</ele>
        <time>2015-05-04T13:14:18Z</time>
      </trkpt>
      <trkpt lat="44.0567" lon="7.11893">
        <ele>485</ele>
        <time>2015-05-04T13:14:20Z</time>
      </trkpt>
      <trkpt lat="44.05683" lon="7.11895">
        <ele>485</ele>
        <time>2015-05-04T13:14:22Z</time>
      </trkpt>
      <trkpt lat="44.05694" lon="7.11894">
        <ele>485</ele>
        <time>2015-05-04T13:14:24Z</time>
      </trkpt>
      <trkpt lat="44.05729" lon="7.11883">
        <ele>485</ele>
        <time>2015-05-04T13:14:30Z</time>
      </trkpt>
      <trkpt lat="44.05735" lon="7.11877">
        <ele>485</ele>
        <time>2015-05-04T13:14:31Z</time>
      </trkpt>
      <trkpt lat="44.05755" lon="7.11852">
        <ele>485</ele>
        <time>2015-05-04T13:14:35Z</time>
      </trkpt>
      <trkpt lat="44.05766" lon="7.11843">
        <ele>485</ele>
        <time>2015-05-04T13:14:37Z</time>
      </trkpt>
      <trkpt lat="44.05778" lon="7.11837">
        <ele>485</ele>
        <time>2015-05-04T13:14:39Z</time>
      </trkpt>
      <trkpt lat="44.05784" lon="7.11836">
        <ele>485</ele>
        <time>2015-05-04T13:14:40Z</time>
      </trkpt>
      <trkpt lat="44.05795" lon="7.11839">
        <ele>485</ele>
        <time>2015-05-04T13:14:42Z</time>
      </trkpt>
      <trkpt lat="44.0581" lon="7.11848">
        <ele>483</ele>
        <time>2015-05-04T13:14:45Z</time>
      </trkpt>
      <trkpt lat="44.05827" lon="7.11855">
        <ele>483</ele>
        <time>2015-05-04T13:14:48Z</time>
      </trkpt>
      <trkpt lat="44.0585" lon="7.11859">
        <ele>483</ele>
        <time>2015-05-04T13:14:52Z</time>
      </trkpt>
      <trkpt lat="44.05856" lon="7.11858">
        <ele>483</ele>
        <time>2015-05-04T13:14:53Z</time>
      </trkpt>
      <trkpt lat="44.05879" lon="7.11845">
        <ele>483</ele>
        <time>2015-05-04T13:14:57Z</time>
      </trkpt>
      <trkpt lat="44.05914" lon="7.11823">
        <ele>483</ele>
        <time>2015-05-04T13:15:03Z</time>
      </trkpt>
      <trkpt lat="44.0592" lon="7.11822">
        <ele>483</ele>
        <time>2015-05-04T13:15:04Z</time>
      </trkpt>
      <trkpt lat="44.0594" lon="7.11824">
        <ele>483</ele>
        <time>2015-05-04T13:15:07Z</time>
      </trkpt>
      <trkpt lat="44.05958" lon="7.11813">
        <ele>483</ele>
        <time>2015-05-04T13:15:10Z</time>
      </trkpt>
      <trkpt lat="44.05985" lon="7.11779">
        <ele>483</ele>
        <time>2015-05-04T13:15:16Z</time>
      </trkpt>
      <trkpt lat="44.06001" lon="7.1177">
        <ele>483</ele>
        <time>2015-05-04T13:15:19Z</time>
      </trkpt>
      <trkpt lat="44.06062" lon="7.11768">
        <ele>483</ele>
        <time>2015-05-04T13:15:29Z</time>
      </trkpt>
      <trkpt lat="44.06068" lon="7.1177">
        <ele>483</ele>
        <time>2015-05-04T13:15:30Z</time>
      </trkpt>
      <trkpt lat="44.06088" lon="7.11785">
        <ele>483</ele>
        <time>2015-05-04T13:15:34Z</time>
      </trkpt>
      <trkpt lat="44.06095" lon="7.11796">
        <ele>482</ele>
        <time>2015-05-04T13:15:36Z</time>
      </trkpt>
      <trkpt lat="44.06099" lon="7.118">
        <ele>482</ele>
        <time>2015-05-04T13:15:37Z</time>
      </trkpt>
      <trkpt lat="44.06117" lon="7.11807">
        <ele>481</ele>
        <time>2015-05-04T13:15:40Z</time>
      </trkpt>
      <trkpt lat="44.06134" lon="7.11802">
        <ele>481</ele>
        <time>2015-05-04T13:15:43Z</time>
      </trkpt>
      <trkpt lat="44.06169" lon="7.11801">
        <ele>481</ele>
        <time>2015-05-04T13:15:48Z</time>
      </trkpt>
      <trkpt lat="44.06196" lon="7.11801">
        <ele>481</ele>
        <time>2015-05-04T13:15:52Z</time>
      </trkpt>
      <trkpt lat="44.06202" lon="7.11798">
        <ele>481</ele>
        <time>2015-05-04T13:15:53Z</time>
      </trkpt>
      <trkpt lat="44.06221" lon="7.11775">
        <ele>481</ele>
        <time>2015-05-04T13:15:57Z</time>
      </trkpt>
      <trkpt lat="44.0624" lon="7.1174">
        <ele>481</ele>
        <time>2015-05-04T13:16:02Z</time>
      </trkpt>
      <trkpt lat="44.0626" lon="7.11708">
        <ele>481</ele>
        <time>2015-05-04T13:16:07Z</time>
      </trkpt>
      <trkpt lat="44.06265" lon="7.11706">
        <ele>481</ele>
        <time>2015-05-04T13:16:08Z</time>
      </trkpt>
      <trkpt lat="44.06315" lon="7.11721">
        <ele>481</ele>
        <time>2015-05-04T13:16:17Z</time>
      </trkpt>
      <trkpt lat="44.06327" lon="7.1172">
        <ele>481</ele>
        <time>2015-05-04T13:16:19Z</time>
      </trkpt>
      <trkpt lat="44.06363" lon="7.11712">
        <ele>479</ele>
        <time>2015-05-04T13:16:25Z</time>
      </trkpt>
      <trkpt lat="44.06374" lon="7.11713">
        <ele>479</ele>
        <time>2015-05-04T13:16:27Z</time>
      </trkpt>
      <trkpt lat="44.06397" lon="7.11721">
        <ele>479</ele>
        <time>2015-05-04T13:16:31Z</time>
      </trkpt>
      <trkpt lat="44.0642" lon="7.11728">
        <ele>479</ele>
        <time>2015-05-04T13:16:35Z</time>
      </trkpt>
      <trkpt lat="44.06432" lon="7.11727">
        <ele>479</ele>
        <time>2015-05-04T13:16:37Z</time>
      </trkpt>
      <trkpt lat="44.06451" lon="7.11713">
        <ele>479</ele>
        <time>2015-05-04T13:16:40Z</time>
      </trkpt>
      <trkpt lat="44.06464" lon="7.11691">
        <ele>479</ele>
        <time>2015-05-04T13:16:43Z</time>
      </trkpt>
      <trkpt lat="44.06464" lon="7.11666">
        <ele>479</ele>
        <time>2015-05-04T13:16:46Z</time>
      </trkpt>
      <trkpt lat="44.0646" lon="7.11632">
        <ele>479</ele>
        <time>2015-05-04T13:16:50Z</time>
      </trkpt>
      <trkpt lat="44.0646" lon="7.11624">
        <ele>479</ele>
        <time>2015-05-04T13:16:51Z</time>
      </trkpt>
      <trkpt lat="44.06463" lon="7.1161">
        <ele>479</ele>
        <time>2015-05-04T13:16:53Z</time>
      </trkpt>
      <trkpt lat="44.06485" lon="7.11551">
        <ele>479</ele>
        <time>2015-05-04T13:17:02Z</time>
      </trkpt>
      <trkpt lat="44.06497" lon="7.11521">
        <ele>479</ele>
        <time>2015-05-04T13:17:07Z</time>
      </trkpt>
      <trkpt lat="44.06512" lon="7.11465">
        <ele>479</ele>
        <time>2015-05-04T13:17:15Z</time>
      </trkpt>
      <trkpt lat="44.06519" lon="7.11453">
        <ele>479</ele>
        <time>2015-05-04T13:17:17Z</time>
      </trkpt>
      <trkpt lat="44.06526" lon="7.11445">
        <ele>479</ele>
        <time>2015-05-04T13:17:19Z</time>
      </trkpt>
      <trkpt lat="44.06534" lon="7.11442">
        <ele>479</ele>
        <time>2015-05-04T13:17:21Z</time>
      </trkpt>
      <trkpt lat="44.06553" lon="7.11447">
        <ele>479</ele>
        <time>2015-05-04T13:17:25Z</time>
      </trkpt>
      <trkpt lat="44.06592" lon="7.11461">
        <ele>479</ele>
        <time>2015-05-04T13:17:33Z</time>
      </trkpt>
      <trkpt lat="44.066" lon="7.11468">
        <ele>479</ele>
        <time>2015-05-04T13:17:35Z</time>
      </trkpt>
      <trkpt lat="44.06617" lon="7.11487">
        <ele>479</ele>
        <time>2015-05-04T13:17:39Z</time>
      </trkpt>
      <trkpt lat="44.06633" lon="7.11494">
        <ele>479</ele>
        <time>2015-05-04T13:17:42Z</time>
      </trkpt>
      <trkpt lat="44.06648" lon="7.11486">
        <ele>479</ele>
        <time>2015-05-04T13:17:45Z</time>
      </trkpt>
      <trkpt lat="44.06663" lon="7.11476">
        <ele>479</ele>
        <time>2015-05-04T13:17:48Z</time>
      </trkpt>
      <trkpt lat="44.06695" lon="7.11477">
        <ele>479</ele>
        <time>2015-05-04T13:17:54Z</time>
      </trkpt>
      <trkpt lat="44.06706" lon="7.11476">
        <ele>479</ele>
        <time>2015-05-04T13:17:56Z</time>
      </trkpt>
      <trkpt lat="44.06718" lon="7.11473">
        <ele>479</ele>
        <time>2015-05-04T13:17:58Z</time>
      </trkpt>
      <trkpt lat="44.06733" lon="7.11467">
        <ele>480</ele>
        <time>2015-05-04T13:18:01Z</time>
      </trkpt>
      <trkpt lat="44.06749" lon="7.11459">
        <ele>481</ele>
        <time>2015-05-04T13:18:04Z</time>
      </trkpt>
      <trkpt lat="44.06758" lon="7.11454">
        <ele>481</ele>
        <time>2015-05-04T13:18:06Z</time>
      </trkpt>
      <trkpt lat="44.06772" lon="7.11444">
        <ele>481</ele>
        <time>2015-05-04T13:18:09Z</time>
      </trkpt>
      <trkpt lat="44.06789" lon="7.11438">
        <ele>481</ele>
        <time>2015-05-04T13:18:12Z</time>
      </trkpt>
      <trkpt lat="44.06808" lon="7.11422">
        <ele>481</ele>
        <time>2015-05-04T13:18:16Z</time>
      </trkpt>
      <trkpt lat="44.06817" lon="7.11403">
        <ele>481</ele>
        <time>2015-05-04T13:18:19Z</time>
      </trkpt>
      <trkpt lat="44.06828" lon="7.11376">
        <ele>481</ele>
        <time>2015-05-04T13:18:23Z</time>
      </trkpt>
      <trkpt lat="44.06841" lon="7.11333">
        <ele>481</ele>
        <time>2015-05-04T13:18:29Z</time>
      </trkpt>
      <trkpt lat="44.0685" lon="7.11287">
        <ele>481</ele>
        <time>2015-05-04T13:18:35Z</time>
      </trkpt>
      <trkpt lat="44.06856" lon="7.11241">
        <ele>481</ele>
        <time>2015-05-04T13:18:41Z</time>
      </trkpt>
      <trkpt lat="44.06857" lon="7.11188">
        <ele>481</ele>
        <time>2015-05-04T13:18:48Z</time>
      </trkpt>
      <trkpt lat="44.06898" lon="7.11154">
        <ele>481</ele>
        <time>2015-05-04T13:18:56Z</time>
      </trkpt>
      <trkpt lat="44.06922" lon="7.11139">
        <ele>483</ele>
        <time>2015-05-04T13:19:01Z</time>
      </trkpt>
      <trkpt lat="44.0693" lon="7.11132">
        <ele>483</ele>
        <time>2015-05-04T13:19:03Z</time>
      </trkpt>
      <trkpt lat="44.06975" lon="7.11071">
        <ele>483</ele>
        <time>2015-05-04T13:19:15Z</time>
      </trkpt>
      <trkpt lat="44.07003" lon="7.11049">
        <ele>483</ele>
        <time>2015-05-04T13:19:21Z</time>
      </trkpt>
      <trkpt lat="44.07036" lon="7.11027">
        <ele>483</ele>
        <time>2015-05-04T13:19:28Z</time>
      </trkpt>
      <trkpt lat="44.07064" lon="7.11006">
        <ele>483</ele>
        <time>2015-05-04T13:19:34Z</time>
      </trkpt>
      <trkpt lat="44.07107" lon="7.10965">
        <ele>483</ele>
        <time>2015-05-04T13:19:44Z</time>
      </trkpt>
      <trkpt lat="44.07121" lon="7.10956">
        <ele>483</ele>
        <time>2015-05-04T13:19:47Z</time>
      </trkpt>
      <trkpt lat="44.07136" lon="7.10953">
        <ele>484</ele>
        <time>2015-05-04T13:19:50Z</time>
      </trkpt>
      <trkpt lat="44.07148" lon="7.10953">
        <ele>484</ele>
        <time>2015-05-04T13:19:52Z</time>
      </trkpt>
      <trkpt lat="44.07231" lon="7.10966">
        <ele>485</ele>
        <time>2015-05-04T13:20:07Z</time>
      </trkpt>
      <trkpt lat="44.07269" lon="7.10967">
        <ele>485</ele>
        <time>2015-05-04T13:20:14Z</time>
      </trkpt>
      <trkpt lat="44.07314" lon="7.10966">
        <ele>485</ele>
        <time>2015-05-04T13:20:22Z</time>
      </trkpt>
      <trkpt lat="44.07352" lon="7.10955">
        <ele>485</ele>
        <time>2015-05-04T13:20:29Z</time>
      </trkpt>
      <trkpt lat="44.07393" lon="7.10937">
        <ele>486</ele>
        <time>2015-05-04T13:20:37Z</time>
      </trkpt>
      <trkpt lat="44.07457" lon="7.10899">
        <ele>487</ele>
        <time>2015-05-04T13:20:51Z</time>
      </trkpt>
      <trkpt lat="44.07481" lon="7.10874">
        <ele>487</ele>
        <time>2015-05-04T13:20:57Z</time>
      </trkpt>
      <trkpt lat="44.07507" lon="7.10851">
        <ele>487</ele>
        <time>2015-05-04T13:21:03Z</time>
      </trkpt>
      <trkpt lat="44.07534" lon="7.10822">
        <ele>487</ele>
        <time>2015-05-04T13:21:10Z</time>
      </trkpt>
      <trkpt lat="44.07576" lon="7.10793">
        <ele>488</ele>
        <time>2015-05-04T13:21:19Z</time>
      </trkpt>
      <trkpt lat="44.07598" lon="7.10774">
        <ele>489</ele>
        <time>2015-05-04T13:21:24Z</time>
      </trkpt>
      <trkpt lat="44.07625" lon="7.10737">
        <ele>489</ele>
        <time>2015-05-04T13:21:31Z</time>
      </trkpt>
      <trkpt lat="44.07651" lon="7.10699">
        <ele>489</ele>
        <time>2015-05-04T13:21:38Z</time>
      </trkpt>
      <trkpt lat="44.0767" lon="7.10665">
        <ele>489</ele>
        <time>2015-05-04T13:21:44Z</time>
      </trkpt>
      <trkpt lat="44.07674" lon="7.1066">
        <ele>489</ele>
        <time>2015-05-04T13:21:45Z</time>
      </trkpt>
      <trkpt lat="44.07698" lon="7.10613">
        <ele>489</ele>
        <time>2015-05-04T13:21:53Z</time>
      </trkpt>
      <trkpt lat="44.07732" lon="7.10536">
        <ele>489</ele>
        <time>2015-05-04T13:22:05Z</time>
      </trkpt>
      <trkpt lat="44.07764" lon="7.10496">
        <ele>490</ele>
        <time>2015-05-04T13:22:13Z</time>
      </trkpt>
      <trkpt lat="44.07777" lon="7.10486">
        <ele>492</ele>
        <time>2015-05-04T13:22:16Z</time>
      </trkpt>
      <trkpt lat="44.07788" lon="7.10483">
        <ele>492</ele>
        <time>2015-05-04T13:22:18Z</time>
      </trkpt>
      <trkpt lat="44.07802" lon="7.10487">
        <ele>492</ele>
        <time>2015-05-04T13:22:21Z</time>
      </trkpt>
      <trkpt lat="44.0784" lon="7.10504">
        <ele>492</ele>
        <time>2015-05-04T13:22:29Z</time>
      </trkpt>
      <trkpt lat="44.07849" lon="7.10506">
        <ele>492</ele>
        <time>2015-05-04T13:22:31Z</time>
      </trkpt>
      <trkpt lat="44.07867" lon="7.10509">
        <ele>492</ele>
        <time>2015-05-04T13:22:35Z</time>
      </trkpt>
      <trkpt lat="44.07895" lon="7.10506">
        <ele>492</ele>
        <time>2015-05-04T13:22:41Z</time>
      </trkpt>
      <trkpt lat="44.0791" lon="7.10509">
        <ele>492</ele>
        <time>2015-05-04T13:22:44Z</time>
      </trkpt>
      <trkpt lat="44.07924" lon="7.10515">
        <ele>492</ele>
        <time>2015-05-04T13:22:47Z</time>
      </trkpt>
      <trkpt lat="44.07922" lon="7.10513">
        <ele>493</ele>
        <time>2015-05-04T13:22:48Z</time>
      </trkpt>
      <trkpt lat="44.07938" lon="7.10521">
        <ele>494</ele>
        <time>2015-05-04T13:22:51Z</time>
      </trkpt>
      <trkpt lat="44.07977" lon="7.10548">
        <ele>494</ele>
        <time>2015-05-04T13:22:56Z</time>
      </trkpt>
      <trkpt lat="44.07994" lon="7.10576">
        <ele>494</ele>
        <time>2015-05-04T13:23:01Z</time>
      </trkpt>
      <trkpt lat="44.08008" lon="7.10604">
        <ele>494</ele>
        <time>2015-05-04T13:23:06Z</time>
      </trkpt>
      <trkpt lat="44.08038" lon="7.10658">
        <ele>495</ele>
        <time>2015-05-04T13:23:16Z</time>
      </trkpt>
      <trkpt lat="44.0805" lon="7.10668">
        <ele>496</ele>
        <time>2015-05-04T13:23:19Z</time>
      </trkpt>
      <trkpt lat="44.08072" lon="7.10681">
        <ele>496</ele>
        <time>2015-05-04T13:23:24Z</time>
      </trkpt>
      <trkpt lat="44.08106" lon="7.10692">
        <ele>496</ele>
        <time>2015-05-04T13:23:31Z</time>
      </trkpt>
      <trkpt lat="44.08121" lon="7.1069">
        <ele>496</ele>
        <time>2015-05-04T13:23:34Z</time>
      </trkpt>
      <trkpt lat="44.08145" lon="7.10677">
        <ele>496</ele>
        <time>2015-05-04T13:23:39Z</time>
      </trkpt>
      <trkpt lat="44.08181" lon="7.10651">
        <ele>496</ele>
        <time>2015-05-04T13:23:47Z</time>
      </trkpt>
      <trkpt lat="44.08206" lon="7.10627">
        <ele>496</ele>
        <time>2015-05-04T13:23:53Z</time>
      </trkpt>
      <trkpt lat="44.08228" lon="7.10608">
        <ele>497</ele>
        <time>2015-05-04T13:23:58Z</time>
      </trkpt>
      <trkpt lat="44.08259" lon="7.10586">
        <ele>498</ele>
        <time>2015-05-04T13:24:05Z</time>
      </trkpt>
      <trkpt lat="44.08293" lon="7.10557">
        <ele>498</ele>
        <time>2015-05-04T13:24:13Z</time>
      </trkpt>
      <trkpt lat="44.08308" lon="7.10549">
        <ele>498</ele>
        <time>2015-05-04T13:24:16Z</time>
      </trkpt>
      <trkpt lat="44.08343" lon="7.10521">
        <ele>498</ele>
        <time>2015-05-04T13:24:24Z</time>
      </trkpt>
      <trkpt lat="44.08379" lon="7.10488">
        <ele>499</ele>
        <time>2015-05-04T13:24:33Z</time>
      </trkpt>
      <trkpt lat="44.08391" lon="7.10481">
        <ele>500</ele>
        <time>2015-05-04T13:24:36Z</time>
      </trkpt>
      <trkpt lat="44.08405" lon="7.10486">
        <ele>500</ele>
        <time>2015-05-04T13:24:38Z</time>
      </trkpt>
      <trkpt lat="44.08417" lon="7.10492">
        <ele>500</ele>
        <time>2015-05-04T13:24:39Z</time>
      </trkpt>
      <trkpt lat="44.08431" lon="7.10507">
        <ele>500</ele>
        <time>2015-05-04T13:24:42Z</time>
      </trkpt>
      <trkpt lat="44.08435" lon="7.10535">
        <ele>500</ele>
        <time>2015-05-04T13:24:47Z</time>
      </trkpt>
      <trkpt lat="44.08443" lon="7.10568">
        <ele>502</ele>
        <time>2015-05-04T13:24:54Z</time>
      </trkpt>
      <trkpt lat="44.08445" lon="7.10588">
        <ele>502</ele>
        <time>2015-05-04T13:24:59Z</time>
      </trkpt>
      <trkpt lat="44.08453" lon="7.10606">
        <ele>504</ele>
        <time>2015-05-04T13:25:06Z</time>
      </trkpt>
      <trkpt lat="44.08462" lon="7.10614">
        <ele>505</ele>
        <time>2015-05-04T13:25:13Z</time>
      </trkpt>
      <trkpt lat="44.08466" lon="7.10614">
        <ele>506</ele>
        <time>2015-05-04T13:25:16Z</time>
      </trkpt>
      <trkpt lat="44.08485" lon="7.10609">
        <ele>507</ele>
        <time>2015-05-04T13:25:26Z</time>
      </trkpt>
      <trkpt lat="44.08504" lon="7.1059">
        <ele>509</ele>
        <time>2015-05-04T13:25:40Z</time>
      </trkpt>
      <trkpt lat="44.08513" lon="7.10584">
        <ele>510</ele>
        <time>2015-05-04T13:25:45Z</time>
      </trkpt>
      <trkpt lat="44.08529" lon="7.10578">
        <ele>511</ele>
        <time>2015-05-04T13:25:51Z</time>
      </trkpt>
      <trkpt lat="44.08537" lon="7.10573">
        <ele>512</ele>
        <time>2015-05-04T13:25:54Z</time>
      </trkpt>
      <trkpt lat="44.08551" lon="7.1057">
        <ele>512</ele>
        <time>2015-05-04T13:25:59Z</time>
      </trkpt>
      <trkpt lat="44.08564" lon="7.10566">
        <ele>512</ele>
        <time>2015-05-04T13:26:03Z</time>
      </trkpt>
      <trkpt lat="44.08566" lon="7.10562">
        <ele>512</ele>
        <time>2015-05-04T13:26:05Z</time>
      </trkpt>
      <trkpt lat="44.08565" lon="7.1055">
        <ele>512</ele>
        <time>2015-05-04T13:26:08Z</time>
      </trkpt>
      <trkpt lat="44.08558" lon="7.10537">
        <ele>512</ele>
        <time>2015-05-04T13:26:11Z</time>
      </trkpt>
      <trkpt lat="44.08583" lon="7.10544">
        <ele>512</ele>
        <time>2015-05-04T13:26:15Z</time>
      </trkpt>
      <trkpt lat="44.08639" lon="7.10575">
        <ele>512</ele>
        <time>2015-05-04T13:26:18Z</time>
      </trkpt>
      <trkpt lat="44.08702" lon="7.10613">
        <ele>512</ele>
        <time>2015-05-04T13:26:22Z</time>
      </trkpt>
      <trkpt lat="44.08708" lon="7.10619">
        <ele>512</ele>
        <time>2015-05-04T13:26:23Z</time>
      </trkpt>
      <trkpt lat="44.08721" lon="7.10638">
        <ele>512</ele>
        <time>2015-05-04T13:26:26Z</time>
      </trkpt>
      <trkpt lat="44.0873" lon="7.10657">
        <ele>512</ele>
        <time>2015-05-04T13:26:29Z</time>
      </trkpt>
      <trkpt lat="44.08734" lon="7.10661">
        <ele>512</ele>
        <time>2015-05-04T13:26:30Z</time>
      </trkpt>
      <trkpt lat="44.08771" lon="7.10683">
        <ele>512</ele>
        <time>2015-05-04T13:26:38Z</time>
      </trkpt>
      <trkpt lat="44.088" lon="7.10697">
        <ele>512</ele>
        <time>2015-05-04T13:26:44Z</time>
      </trkpt>
      <trkpt lat="44.08826" lon="7.10702">
        <ele>512</ele>
        <time>2015-05-04T13:26:50Z</time>
      </trkpt>
      <trkpt lat="44.08835" lon="7.10699">
        <ele>511</ele>
        <time>2015-05-04T13:26:52Z</time>
      </trkpt>
      <trkpt lat="44.08878" lon="7.10661">
        <ele>510</ele>
        <time>2015-05-04T13:27:00Z</time>
      </trkpt>
      <trkpt lat="44.08893" lon="7.10652">
        <ele>510</ele>
        <time>2015-05-04T13:27:04Z</time>
      </trkpt>
      <trkpt lat="44.08895" lon="7.10653">
        <ele>510</ele>
        <time>2015-05-04T13:27:05Z</time>
      </trkpt>
      <trkpt lat="44.0891" lon="7.10666">
        <ele>511</ele>
        <time>2015-05-04T13:27:13Z</time>
      </trkpt>
      <trkpt lat="44.08915" lon="7.10667">
        <ele>511</ele>
        <time>2015-05-04T13:27:15Z</time>
      </trkpt>
      <trkpt lat="44.08911" lon="7.10663">
        <ele>512</ele>
        <time>2015-05-04T13:27:16Z</time>
      </trkpt>
      <trkpt lat="44.08919" lon="7.1066">
        <ele>512</ele>
        <time>2015-05-04T13:27:22Z</time>
      </trkpt>
      <trkpt lat="44.08886" lon="7.1063">
        <ele>513</ele>
        <time>2015-05-04T13:27:25Z</time>
      </trkpt>
      <trkpt lat="44.08868" lon="7.1061">
        <ele>514</ele>
        <time>2015-05-04T13:27:28Z</time>
      </trkpt>
      <trkpt lat="44.08842" lon="7.10575">
        <ele>515</ele>
        <time>2015-05-04T13:27:35Z</time>
      </trkpt>
      <trkpt lat="44.08822" lon="7.10547">
        <ele>516</ele>
        <time>2015-05-04T13:27:42Z</time>
      </trkpt>
      <trkpt lat="44.08812" lon="7.10528">
        <ele>517</ele>
        <time>2015-05-04T13:27:48Z</time>
      </trkpt>
      <trkpt lat="44.08801" lon="7.10513">
        <ele>519</ele>
        <time>2015-05-04T13:27:52Z</time>
      </trkpt>
      <trkpt lat="44.08786" lon="7.10486">
        <ele>519</ele>
        <time>2015-05-04T13:28:00Z</time>
      </trkpt>
      <trkpt lat="44.08782" lon="7.10475">
        <ele>520</ele>
        <time>2015-05-04T13:28:03Z</time>
      </trkpt>
      <trkpt lat="44.0878" lon="7.10444">
        <ele>522</ele>
        <time>2015-05-04T13:28:14Z</time>
      </trkpt>
      <trkpt lat="44.08768" lon="7.10426">
        <ele>523</ele>
        <time>2015-05-04T13:28:22Z</time>
      </trkpt>
      <trkpt lat="44.08706" lon="7.10373">
        <ele>530</ele>
        <time>2015-05-04T13:28:52Z</time>
      </trkpt>
      <trkpt lat="44.08687" lon="7.10354">
        <ele>531</ele>
        <time>2015-05-04T13:29:02Z</time>
      </trkpt>
      <trkpt lat="44.08682" lon="7.10352">
        <ele>532</ele>
        <time>2015-05-04T13:29:04Z</time>
      </trkpt>
      <trkpt lat="44.08668" lon="7.10352">
        <ele>532</ele>
        <time>2015-05-04T13:29:10Z</time>
      </trkpt>
      <trkpt lat="44.08651" lon="7.10359">
        <ele>534</ele>
        <time>2015-05-04T13:29:17Z</time>
      </trkpt>
      <trkpt lat="44.08637" lon="7.10363">
        <ele>534</ele>
        <time>2015-05-04T13:29:23Z</time>
      </trkpt>
      <trkpt lat="44.08621" lon="7.10364">
        <ele>536</ele>
        <time>2015-05-04T13:29:30Z</time>
      </trkpt>
      <trkpt lat="44.08605" lon="7.10357">
        <ele>537</ele>
        <time>2015-05-04T13:29:37Z</time>
      </trkpt>
      <trkpt lat="44.08584" lon="7.10335">
        <ele>540</ele>
        <time>2015-05-04T13:29:49Z</time>
      </trkpt>
      <trkpt lat="44.08567" lon="7.10309">
        <ele>542</ele>
        <time>2015-05-04T13:30:00Z</time>
      </trkpt>
      <trkpt lat="44.08557" lon="7.10284">
        <ele>543</ele>
        <time>2015-05-04T13:30:10Z</time>
      </trkpt>
      <trkpt lat="44.08557" lon="7.10277">
        <ele>544</ele>
        <time>2015-05-04T13:30:14Z</time>
      </trkpt>
      <trkpt lat="44.08563" lon="7.10254">
        <ele>546</ele>
        <time>2015-05-04T13:30:23Z</time>
      </trkpt>
      <trkpt lat="44.08556" lon="7.1022">
        <ele>548</ele>
        <time>2015-05-04T13:30:34Z</time>
      </trkpt>
      <trkpt lat="44.08557" lon="7.10215">
        <ele>549</ele>
        <time>2015-05-04T13:30:36Z</time>
      </trkpt>
      <trkpt lat="44.08551" lon="7.10196">
        <ele>549</ele>
        <time>2015-05-04T13:30:42Z</time>
      </trkpt>
      <trkpt lat="44.08546" lon="7.10187">
        <ele>549</ele>
        <time>2015-05-04T13:30:45Z</time>
      </trkpt>
      <trkpt lat="44.08538" lon="7.10165">
        <ele>551</ele>
        <time>2015-05-04T13:30:52Z</time>
      </trkpt>
      <trkpt lat="44.08533" lon="7.10138">
        <ele>553</ele>
        <time>2015-05-04T13:31:02Z</time>
      </trkpt>
      <trkpt lat="44.08522" lon="7.10121">
        <ele>553</ele>
        <time>2015-05-04T13:31:09Z</time>
      </trkpt>
      <trkpt lat="44.08517" lon="7.10116">
        <ele>555</ele>
        <time>2015-05-04T13:31:12Z</time>
      </trkpt>
      <trkpt lat="44.08489" lon="7.10114">
        <ele>557</ele>
        <time>2015-05-04T13:31:25Z</time>
      </trkpt>
      <trkpt lat="44.08471" lon="7.10124">
        <ele>557</ele>
        <time>2015-05-04T13:31:34Z</time>
      </trkpt>
      <trkpt lat="44.08467" lon="7.10122">
        <ele>557</ele>
        <time>2015-05-04T13:32:13Z</time>
      </trkpt>
      <trkpt lat="44.08464" lon="7.10108">
        <ele>557</ele>
        <time>2015-05-04T13:32:19Z</time>
      </trkpt>
      <trkpt lat="44.0847" lon="7.10104">
        <ele>557</ele>
        <time>2015-05-04T13:32:22Z</time>
      </trkpt>
      <trkpt lat="44.08475" lon="7.10103">
        <ele>559</ele>
        <time>2015-05-04T13:32:25Z</time>
      </trkpt>
      <trkpt lat="44.0852" lon="7.10113">
        <ele>561</ele>
        <time>2015-05-04T13:32:46Z</time>
      </trkpt>
      <trkpt lat="44.0854" lon="7.1012">
        <ele>563</ele>
        <time>2015-05-04T13:32:57Z</time>
      </trkpt>
      <trkpt lat="44.08554" lon="7.10149">
        <ele>566</ele>
        <time>2015-05-04T13:33:11Z</time>
      </trkpt>
      <trkpt lat="44.08556" lon="7.10157">
        <ele>567</ele>
        <time>2015-05-04T13:33:14Z</time>
      </trkpt>
      <trkpt lat="44.0857" lon="7.10191">
        <ele>570</ele>
        <time>2015-05-04T13:33:26Z</time>
      </trkpt>
      <trkpt lat="44.08587" lon="7.10223">
        <ele>571</ele>
        <time>2015-05-04T13:33:39Z</time>
      </trkpt>
      <trkpt lat="44.08595" lon="7.10261">
        <ele>573</ele>
        <time>2015-05-04T13:33:52Z</time>
      </trkpt>
      <trkpt lat="44.08599" lon="7.1027">
        <ele>574</ele>
        <time>2015-05-04T13:33:55Z</time>
      </trkpt>
      <trkpt lat="44.08621" lon="7.10297">
        <ele>576</ele>
        <time>2015-05-04T13:34:08Z</time>
      </trkpt>
      <trkpt lat="44.08633" lon="7.10305">
        <ele>576</ele>
        <time>2015-05-04T13:34:15Z</time>
      </trkpt>
      <trkpt lat="44.08639" lon="7.10304">
        <ele>577</ele>
        <time>2015-05-04T13:34:18Z</time>
      </trkpt>
      <trkpt lat="44.08661" lon="7.10297">
        <ele>579</ele>
        <time>2015-05-04T13:34:29Z</time>
      </trkpt>
      <trkpt lat="44.08687" lon="7.10279">
        <ele>582</ele>
        <time>2015-05-04T13:34:43Z</time>
      </trkpt>
      <trkpt lat="44.08699" lon="7.10274">
        <ele>582</ele>
        <time>2015-05-04T13:34:49Z</time>
      </trkpt>
      <trkpt lat="44.08737" lon="7.10268">
        <ele>586</ele>
        <time>2015-05-04T13:35:07Z</time>
      </trkpt>
      <trkpt lat="44.08756" lon="7.1027">
        <ele>587</ele>
        <time>2015-05-04T13:35:16Z</time>
      </trkpt>
      <trkpt lat="44.08779" lon="7.10278">
        <ele>588</ele>
        <time>2015-05-04T13:35:26Z</time>
      </trkpt>
      <trkpt lat="44.08795" lon="7.10287">
        <ele>590</ele>
        <time>2015-05-04T13:35:33Z</time>
      </trkpt>
      <trkpt lat="44.08811" lon="7.10292">
        <ele>591</ele>
        <time>2015-05-04T13:35:41Z</time>
      </trkpt>
      <trkpt lat="44.08821" lon="7.10291">
        <ele>592</ele>
        <time>2015-05-04T13:35:46Z</time>
      </trkpt>
      <trkpt lat="44.08833" lon="7.10296">
        <ele>592</ele>
        <time>2015-05-04T13:35:52Z</time>
      </trkpt>
      <trkpt lat="44.08857" lon="7.10318">
        <ele>595</ele>
        <time>2015-05-04T13:36:05Z</time>
      </trkpt>
      <trkpt lat="44.08862" lon="7.10315">
        <ele>596</ele>
        <time>2015-05-04T13:36:08Z</time>
      </trkpt>
      <trkpt lat="44.08864" lon="7.1031">
        <ele>596</ele>
        <time>2015-05-04T13:36:10Z</time>
      </trkpt>
      <trkpt lat="44.08864" lon="7.10307">
        <ele>597</ele>
        <time>2015-05-04T13:36:11Z</time>
      </trkpt>
      <trkpt lat="44.0886" lon="7.103">
        <ele>597</ele>
        <time>2015-05-04T13:36:14Z</time>
      </trkpt>
      <trkpt lat="44.08841" lon="7.10279">
        <ele>599</ele>
        <time>2015-05-04T13:36:25Z</time>
      </trkpt>
      <trkpt lat="44.08827" lon="7.10271">
        <ele>599</ele>
        <time>2015-05-04T13:36:31Z</time>
      </trkpt>
      <trkpt lat="44.0881" lon="7.10264">
        <ele>601</ele>
        <time>2015-05-04T13:36:39Z</time>
      </trkpt>
      <trkpt lat="44.08801" lon="7.10256">
        <ele>601</ele>
        <time>2015-05-04T13:36:44Z</time>
      </trkpt>
      <trkpt lat="44.08792" lon="7.10246">
        <ele>603</ele>
        <time>2015-05-04T13:36:49Z</time>
      </trkpt>
      <trkpt lat="44.0878" lon="7.10226">
        <ele>604</ele>
        <time>2015-05-04T13:36:58Z</time>
      </trkpt>
      <trkpt lat="44.08776" lon="7.10221">
        <ele>605</ele>
        <time>2015-05-04T13:37:01Z</time>
      </trkpt>
      <trkpt lat="44.08772" lon="7.10218">
        <ele>605</ele>
        <time>2015-05-04T13:37:03Z</time>
      </trkpt>
      <trkpt lat="44.08761" lon="7.10216">
        <ele>606</ele>
        <time>2015-05-04T13:37:08Z</time>
      </trkpt>
      <trkpt lat="44.08754" lon="7.10216">
        <ele>607</ele>
        <time>2015-05-04T13:37:11Z</time>
      </trkpt>
      <trkpt lat="44.08715" lon="7.10223">
        <ele>610</ele>
        <time>2015-05-04T13:37:30Z</time>
      </trkpt>
      <trkpt lat="44.08685" lon="7.10223">
        <ele>612</ele>
        <time>2015-05-04T13:37:43Z</time>
      </trkpt>
      <trkpt lat="44.08672" lon="7.10221">
        <ele>614</ele>
        <time>2015-05-04T13:37:49Z</time>
      </trkpt>
      <trkpt lat="44.08656" lon="7.1021">
        <ele>615</ele>
        <time>2015-05-04T13:37:58Z</time>
      </trkpt>
      <trkpt lat="44.08651" lon="7.10204">
        <ele>616</ele>
        <time>2015-05-04T13:38:01Z</time>
      </trkpt>
      <trkpt lat="44.08643" lon="7.1019">
        <ele>616</ele>
        <time>2015-05-04T13:38:07Z</time>
      </trkpt>
      <trkpt lat="44.08638" lon="7.10174">
        <ele>618</ele>
        <time>2015-05-04T13:38:13Z</time>
      </trkpt>
      <trkpt lat="44.08628" lon="7.10136">
        <ele>620</ele>
        <time>2015-05-04T13:38:27Z</time>
      </trkpt>
      <trkpt lat="44.08624" lon="7.10106">
        <ele>622</ele>
        <time>2015-05-04T13:38:38Z</time>
      </trkpt>
      <trkpt lat="44.08623" lon="7.10077">
        <ele>623</ele>
        <time>2015-05-04T13:38:48Z</time>
      </trkpt>
      <trkpt lat="44.08621" lon="7.1007">
        <ele>624</ele>
        <time>2015-05-04T13:38:51Z</time>
      </trkpt>
      <trkpt lat="44.08598" lon="7.10031">
        <ele>627</ele>
        <time>2015-05-04T13:39:11Z</time>
      </trkpt>
      <trkpt lat="44.08591" lon="7.10015">
        <ele>629</ele>
        <time>2015-05-04T13:39:17Z</time>
      </trkpt>
      <trkpt lat="44.08577" lon="7.09989">
        <ele>630</ele>
        <time>2015-05-04T13:39:28Z</time>
      </trkpt>
      <trkpt lat="44.08563" lon="7.09977">
        <ele>631</ele>
        <time>2015-05-04T13:39:36Z</time>
      </trkpt>
      <trkpt lat="44.08543" lon="7.09968">
        <ele>633</ele>
        <time>2015-05-04T13:39:46Z</time>
      </trkpt>
      <trkpt lat="44.08534" lon="7.0996">
        <ele>634</ele>
        <time>2015-05-04T13:39:51Z</time>
      </trkpt>
      <trkpt lat="44.08501" lon="7.09917">
        <ele>637</ele>
        <time>2015-05-04T13:40:13Z</time>
      </trkpt>
      <trkpt lat="44.08463" lon="7.09894">
        <ele>641</ele>
        <time>2015-05-04T13:40:32Z</time>
      </trkpt>
      <trkpt lat="44.08449" lon="7.09877">
        <ele>643</ele>
        <time>2015-05-04T13:40:42Z</time>
      </trkpt>
      <trkpt lat="44.08437" lon="7.09869">
        <ele>643</ele>
        <time>2015-05-04T13:40:48Z</time>
      </trkpt>
      <trkpt lat="44.08407" lon="7.09856">
        <ele>645</ele>
        <time>2015-05-04T13:41:02Z</time>
      </trkpt>
      <trkpt lat="44.08398" lon="7.09854">
        <ele>647</ele>
        <time>2015-05-04T13:41:06Z</time>
      </trkpt>
      <trkpt lat="44.08388" lon="7.09855">
        <ele>647</ele>
        <time>2015-05-04T13:41:11Z</time>
      </trkpt>
      <trkpt lat="44.08374" lon="7.0985">
        <ele>648</ele>
        <time>2015-05-04T13:41:18Z</time>
      </trkpt>
      <trkpt lat="44.08369" lon="7.09838">
        <ele>650</ele>
        <time>2015-05-04T13:41:23Z</time>
      </trkpt>
      <trkpt lat="44.08367" lon="7.09822">
        <ele>650</ele>
        <time>2015-05-04T13:41:29Z</time>
      </trkpt>
      <trkpt lat="44.08375" lon="7.09784">
        <ele>653</ele>
        <time>2015-05-04T13:41:44Z</time>
      </trkpt>
      <trkpt lat="44.084" lon="7.09737">
        <ele>658</ele>
        <time>2015-05-04T13:42:09Z</time>
      </trkpt>
      <trkpt lat="44.08414" lon="7.09716">
        <ele>658</ele>
        <time>2015-05-04T13:42:19Z</time>
      </trkpt>
      <trkpt lat="44.08422" lon="7.0971">
        <ele>660</ele>
        <time>2015-05-04T13:42:23Z</time>
      </trkpt>
      <trkpt lat="44.08426" lon="7.097">
        <ele>660</ele>
        <time>2015-05-04T13:42:28Z</time>
      </trkpt>
      <trkpt lat="44.08435" lon="7.09691">
        <ele>661</ele>
        <time>2015-05-04T13:42:33Z</time>
      </trkpt>
      <trkpt lat="44.08453" lon="7.0966">
        <ele>663</ele>
        <time>2015-05-04T13:42:47Z</time>
      </trkpt>
      <trkpt lat="44.08466" lon="7.09632">
        <ele>666</ele>
        <time>2015-05-04T13:42:59Z</time>
      </trkpt>
      <trkpt lat="44.08472" lon="7.09624">
        <ele>666</ele>
        <time>2015-05-04T13:43:06Z</time>
      </trkpt>
      <trkpt lat="44.08475" lon="7.09618">
        <ele>667</ele>
        <time>2015-05-04T13:43:09Z</time>
      </trkpt>
      <trkpt lat="44.0848" lon="7.09614">
        <ele>668</ele>
        <time>2015-05-04T13:43:12Z</time>
      </trkpt>
      <trkpt lat="44.08492" lon="7.0961">
        <ele>668</ele>
        <time>2015-05-04T13:43:17Z</time>
      </trkpt>
      <trkpt lat="44.08503" lon="7.09608">
        <ele>669</ele>
        <time>2015-05-04T13:43:21Z</time>
      </trkpt>
      <trkpt lat="44.08512" lon="7.09604">
        <ele>670</ele>
        <time>2015-05-04T13:43:25Z</time>
      </trkpt>
      <trkpt lat="44.08528" lon="7.09583">
        <ele>672</ele>
        <time>2015-05-04T13:43:35Z</time>
      </trkpt>
      <trkpt lat="44.08549" lon="7.09562">
        <ele>673</ele>
        <time>2015-05-04T13:43:47Z</time>
      </trkpt>
      <trkpt lat="44.08572" lon="7.09526">
        <ele>676</ele>
        <time>2015-05-04T13:44:04Z</time>
      </trkpt>
      <trkpt lat="44.08587" lon="7.09506">
        <ele>678</ele>
        <time>2015-05-04T13:44:15Z</time>
      </trkpt>
      <trkpt lat="44.08606" lon="7.09486">
        <ele>680</ele>
        <time>2015-05-04T13:44:27Z</time>
      </trkpt>
      <trkpt lat="44.08609" lon="7.09479">
        <ele>681</ele>
        <time>2015-05-04T13:44:30Z</time>
      </trkpt>
      <trkpt lat="44.08628" lon="7.09419">
        <ele>683</ele>
        <time>2015-05-04T13:44:51Z</time>
      </trkpt>
      <trkpt lat="44.08634" lon="7.09421">
        <ele>684</ele>
        <time>2015-05-04T13:44:52Z</time>
      </trkpt>
      <trkpt lat="44.08637" lon="7.09417">
        <ele>685</ele>
        <time>2015-05-04T13:44:54Z</time>
      </trkpt>
      <trkpt lat="44.08645" lon="7.0939">
        <ele>685</ele>
        <time>2015-05-04T13:45:05Z</time>
      </trkpt>
      <trkpt lat="44.08657" lon="7.09364">
        <ele>688</ele>
        <time>2015-05-04T13:45:16Z</time>
      </trkpt>
      <trkpt lat="44.0866" lon="7.09353">
        <ele>689</ele>
        <time>2015-05-04T13:45:20Z</time>
      </trkpt>
      <trkpt lat="44.08662" lon="7.09332">
        <ele>689</ele>
        <time>2015-05-04T13:45:27Z</time>
      </trkpt>
      <trkpt lat="44.0866" lon="7.09323">
        <ele>690</ele>
        <time>2015-05-04T13:45:30Z</time>
      </trkpt>
      <trkpt lat="44.08647" lon="7.09294">
        <ele>692</ele>
        <time>2015-05-04T13:45:41Z</time>
      </trkpt>
      <trkpt lat="44.08644" lon="7.0929">
        <ele>693</ele>
        <time>2015-05-04T13:45:43Z</time>
      </trkpt>
      <trkpt lat="44.08641" lon="7.09282">
        <ele>693</ele>
        <time>2015-05-04T13:45:46Z</time>
      </trkpt>
      <trkpt lat="44.08639" lon="7.09265">
        <ele>693</ele>
        <time>2015-05-04T13:45:52Z</time>
      </trkpt>
      <trkpt lat="44.08647" lon="7.09234">
        <ele>696</ele>
        <time>2015-05-04T13:46:04Z</time>
      </trkpt>
      <trkpt lat="44.08652" lon="7.09195">
        <ele>699</ele>
        <time>2015-05-04T13:46:18Z</time>
      </trkpt>
      <trkpt lat="44.08658" lon="7.09178">
        <ele>700</ele>
        <time>2015-05-04T13:46:25Z</time>
      </trkpt>
      <trkpt lat="44.0866" lon="7.09166">
        <ele>701</ele>
        <time>2015-05-04T13:46:30Z</time>
      </trkpt>
      <trkpt lat="44.08659" lon="7.09152">
        <ele>702</ele>
        <time>2015-05-04T13:46:35Z</time>
      </trkpt>
      <trkpt lat="44.08655" lon="7.09136">
        <ele>702</ele>
        <time>2015-05-04T13:46:40Z</time>
      </trkpt>
      <trkpt lat="44.08654" lon="7.09111">
        <ele>704</ele>
        <time>2015-05-04T13:46:48Z</time>
      </trkpt>
      <trkpt lat="44.08647" lon="7.09087">
        <ele>706</ele>
        <time>2015-05-04T13:46:57Z</time>
      </trkpt>
      <trkpt lat="44.08638" lon="7.09074">
        <ele>707</ele>
        <time>2015-05-04T13:47:03Z</time>
      </trkpt>
      <trkpt lat="44.08636" lon="7.09068">
        <ele>708</ele>
        <time>2015-05-04T13:47:05Z</time>
      </trkpt>
      <trkpt lat="44.08634" lon="7.09055">
        <ele>708</ele>
        <time>2015-05-04T13:47:10Z</time>
      </trkpt>
      <trkpt lat="44.08632" lon="7.09053">
        <ele>708</ele>
        <time>2015-05-04T13:47:11Z</time>
      </trkpt>
      <trkpt lat="44.08634" lon="7.09043">
        <ele>710</ele>
        <time>2015-05-04T13:47:52Z</time>
      </trkpt>
      <trkpt lat="44.08625" lon="7.09036">
        <ele>710</ele>
        <time>2015-05-04T13:48:01Z</time>
      </trkpt>
      <trkpt lat="44.08561" lon="7.08953">
        <ele>714</ele>
        <time>2015-05-04T13:48:37Z</time>
      </trkpt>
      <trkpt lat="44.08556" lon="7.08963">
        <ele>715</ele>
        <time>2015-05-04T13:48:39Z</time>
      </trkpt>
      <trkpt lat="44.08546" lon="7.08973">
        <ele>715</ele>
        <time>2015-05-04T13:48:41Z</time>
      </trkpt>
      <trkpt lat="44.08542" lon="7.08975">
        <ele>716</ele>
        <time>2015-05-04T13:48:43Z</time>
      </trkpt>
      <trkpt lat="44.08537" lon="7.08972">
        <ele>716</ele>
        <time>2015-05-04T13:48:46Z</time>
      </trkpt>
      <trkpt lat="44.0852" lon="7.08917">
        <ele>719</ele>
        <time>2015-05-04T13:49:04Z</time>
      </trkpt>
      <trkpt lat="44.08528" lon="7.0888">
        <ele>721</ele>
        <time>2015-05-04T13:49:17Z</time>
      </trkpt>
      <trkpt lat="44.08526" lon="7.08874">
        <ele>722</ele>
        <time>2015-05-04T13:49:19Z</time>
      </trkpt>
      <trkpt lat="44.08527" lon="7.08871">
        <ele>722</ele>
        <time>2015-05-04T13:49:20Z</time>
      </trkpt>
      <trkpt lat="44.08535" lon="7.0884">
        <ele>724</ele>
        <time>2015-05-04T13:49:31Z</time>
      </trkpt>
      <trkpt lat="44.08538" lon="7.088">
        <ele>727</ele>
        <time>2015-05-04T13:49:45Z</time>
      </trkpt>
      <trkpt lat="44.08541" lon="7.08769">
        <ele>727</ele>
        <time>2015-05-04T13:49:56Z</time>
      </trkpt>
      <trkpt lat="44.08545" lon="7.0875">
        <ele>729</ele>
        <time>2015-05-04T13:50:03Z</time>
      </trkpt>
      <trkpt lat="44.08545" lon="7.08738">
        <ele>730</ele>
        <time>2015-05-04T13:50:07Z</time>
      </trkpt>
      <trkpt lat="44.08545" lon="7.08717">
        <ele>731</ele>
        <time>2015-05-04T13:50:14Z</time>
      </trkpt>
      <trkpt lat="44.08537" lon="7.0869">
        <ele>733</ele>
        <time>2015-05-04T13:50:23Z</time>
      </trkpt>
      <trkpt lat="44.08537" lon="7.08684">
        <ele>733</ele>
        <time>2015-05-04T13:50:25Z</time>
      </trkpt>
      <trkpt lat="44.08531" lon="7.08663">
        <ele>733</ele>
        <time>2015-05-04T13:50:32Z</time>
      </trkpt>
      <trkpt lat="44.08532" lon="7.08639">
        <ele>735</ele>
        <time>2015-05-04T13:50:40Z</time>
      </trkpt>
      <trkpt lat="44.08531" lon="7.08618">
        <ele>737</ele>
        <time>2015-05-04T13:50:47Z</time>
      </trkpt>
      <trkpt lat="44.08524" lon="7.08585">
        <ele>738</ele>
        <time>2015-05-04T13:50:58Z</time>
      </trkpt>
      <trkpt lat="44.08521" lon="7.08547">
        <ele>741</ele>
        <time>2015-05-04T13:51:11Z</time>
      </trkpt>
      <trkpt lat="44.0852" lon="7.08508">
        <ele>743</ele>
        <time>2015-05-04T13:51:24Z</time>
      </trkpt>
      <trkpt lat="44.08524" lon="7.08488">
        <ele>744</ele>
        <time>2015-05-04T13:51:31Z</time>
      </trkpt>
      <trkpt lat="44.08541" lon="7.08462">
        <ele>746</ele>
        <time>2015-05-04T13:51:44Z</time>
      </trkpt>
      <trkpt lat="44.08561" lon="7.08447">
        <ele>748</ele>
        <time>2015-05-04T13:51:55Z</time>
      </trkpt>
      <trkpt lat="44.08572" lon="7.08442">
        <ele>750</ele>
        <time>2015-05-04T13:52:01Z</time>
      </trkpt>
      <trkpt lat="44.08588" lon="7.08432">
        <ele>751</ele>
        <time>2015-05-04T13:52:10Z</time>
      </trkpt>
      <trkpt lat="44.08598" lon="7.08395">
        <ele>754</ele>
        <time>2015-05-04T13:52:23Z</time>
      </trkpt>
      <trkpt lat="44.08604" lon="7.08384">
        <ele>754</ele>
        <time>2015-05-04T13:52:28Z</time>
      </trkpt>
      <trkpt lat="44.08608" lon="7.08372">
        <ele>755</ele>
        <time>2015-05-04T13:52:32Z</time>
      </trkpt>
      <trkpt lat="44.08608" lon="7.08361">
        <ele>756</ele>
        <time>2015-05-04T13:52:35Z</time>
      </trkpt>
      <trkpt lat="44.08614" lon="7.08317">
        <ele>758</ele>
        <time>2015-05-04T13:52:49Z</time>
      </trkpt>
      <trkpt lat="44.08615" lon="7.08289">
        <ele>759</ele>
        <time>2015-05-04T13:52:57Z</time>
      </trkpt>
      <trkpt lat="44.08618" lon="7.08281">
        <ele>760</ele>
        <time>2015-05-04T13:53:00Z</time>
      </trkpt>
      <trkpt lat="44.08628" lon="7.08203">
        <ele>762</ele>
        <time>2015-05-04T13:53:25Z</time>
      </trkpt>
      <trkpt lat="44.08628" lon="7.08162">
        <ele>765</ele>
        <time>2015-05-04T13:53:37Z</time>
      </trkpt>
      <trkpt lat="44.08624" lon="7.08147">
        <ele>766</ele>
        <time>2015-05-04T13:53:40Z</time>
      </trkpt>
      <trkpt lat="44.08624" lon="7.08141">
        <ele>766</ele>
        <time>2015-05-04T13:53:42Z</time>
      </trkpt>
      <trkpt lat="44.08635" lon="7.08118">
        <ele>768</ele>
        <time>2015-05-04T13:53:54Z</time>
      </trkpt>
      <trkpt lat="44.08643" lon="7.08109">
        <ele>769</ele>
        <time>2015-05-04T13:54:00Z</time>
      </trkpt>
      <trkpt lat="44.08649" lon="7.08095">
        <ele>770</ele>
        <time>2015-05-04T13:54:06Z</time>
      </trkpt>
      <trkpt lat="44.08652" lon="7.0808">
        <ele>771</ele>
        <time>2015-05-04T13:54:11Z</time>
      </trkpt>
      <trkpt lat="44.08651" lon="7.08051">
        <ele>772</ele>
        <time>2015-05-04T13:54:19Z</time>
      </trkpt>
      <trkpt lat="44.08643" lon="7.08004">
        <ele>775</ele>
        <time>2015-05-04T13:54:31Z</time>
      </trkpt>
      <trkpt lat="44.08687" lon="7.08031">
        <ele>775</ele>
        <time>2015-05-04T13:54:36Z</time>
      </trkpt>
      <trkpt lat="44.0871" lon="7.08051">
        <ele>775</ele>
        <time>2015-05-04T13:54:37Z</time>
      </trkpt>
      <trkpt lat="44.08732" lon="7.08065">
        <ele>776</ele>
        <time>2015-05-04T13:54:39Z</time>
      </trkpt>
      <trkpt lat="44.08737" lon="7.08068">
        <ele>777</ele>
        <time>2015-05-04T13:54:40Z</time>
      </trkpt>
      <trkpt lat="44.08747" lon="7.08064">
        <ele>777</ele>
        <time>2015-05-04T13:54:44Z</time>
      </trkpt>
      <trkpt lat="44.08755" lon="7.08047">
        <ele>779</ele>
        <time>2015-05-04T13:54:52Z</time>
      </trkpt>
      <trkpt lat="44.08765" lon="7.08041">
        <ele>779</ele>
        <time>2015-05-04T13:54:57Z</time>
      </trkpt>
      <trkpt lat="44.08769" lon="7.08035">
        <ele>779</ele>
        <time>2015-05-04T13:55:00Z</time>
      </trkpt>
      <trkpt lat="44.0877" lon="7.08024">
        <ele>781</ele>
        <time>2015-05-04T13:55:04Z</time>
      </trkpt>
      <trkpt lat="44.08778" lon="7.08004">
        <ele>781</ele>
        <time>2015-05-04T13:55:13Z</time>
      </trkpt>
      <trkpt lat="44.0878" lon="7.08003">
        <ele>782</ele>
        <time>2015-05-04T13:55:14Z</time>
      </trkpt>
      <trkpt lat="44.08781" lon="7.07994">
        <ele>783</ele>
        <time>2015-05-04T13:55:17Z</time>
      </trkpt>
      <trkpt lat="44.08792" lon="7.07986">
        <ele>783</ele>
        <time>2015-05-04T13:55:23Z</time>
      </trkpt>
      <trkpt lat="44.08795" lon="7.07979">
        <ele>784</ele>
        <time>2015-05-04T13:55:27Z</time>
      </trkpt>
      <trkpt lat="44.08796" lon="7.07964">
        <ele>785</ele>
        <time>2015-05-04T13:55:34Z</time>
      </trkpt>
      <trkpt lat="44.08796" lon="7.07947">
        <ele>785</ele>
        <time>2015-05-04T13:55:40Z</time>
      </trkpt>
      <trkpt lat="44.08807" lon="7.079">
        <ele>789</ele>
        <time>2015-05-04T13:55:58Z</time>
      </trkpt>
      <trkpt lat="44.08807" lon="7.07872">
        <ele>790</ele>
        <time>2015-05-04T13:56:07Z</time>
      </trkpt>
      <trkpt lat="44.08811" lon="7.0785">
        <ele>791</ele>
        <time>2015-05-04T13:56:15Z</time>
      </trkpt>
      <trkpt lat="44.08809" lon="7.07827">
        <ele>793</ele>
        <time>2015-05-04T13:56:23Z</time>
      </trkpt>
      <trkpt lat="44.0881" lon="7.07814">
        <ele>793</ele>
        <time>2015-05-04T13:56:28Z</time>
      </trkpt>
      <trkpt lat="44.08814" lon="7.07805">
        <ele>795</ele>
        <time>2015-05-04T13:56:32Z</time>
      </trkpt>
      <trkpt lat="44.08819" lon="7.07778">
        <ele>796</ele>
        <time>2015-05-04T13:56:42Z</time>
      </trkpt>
      <trkpt lat="44.08818" lon="7.07768">
        <ele>797</ele>
        <time>2015-05-04T13:56:45Z</time>
      </trkpt>
      <trkpt lat="44.0882" lon="7.07749">
        <ele>798</ele>
        <time>2015-05-04T13:56:52Z</time>
      </trkpt>
      <trkpt lat="44.0882" lon="7.07727">
        <ele>800</ele>
        <time>2015-05-04T13:56:59Z</time>
      </trkpt>
      <trkpt lat="44.08823" lon="7.07718">
        <ele>800</ele>
        <time>2015-05-04T13:57:03Z</time>
      </trkpt>
      <trkpt lat="44.0885" lon="7.07718">
        <ele>801</ele>
        <time>2015-05-04T13:57:11Z</time>
      </trkpt>
      <trkpt lat="44.08911" lon="7.0774">
        <ele>802</ele>
        <time>2015-05-04T13:57:22Z</time>
      </trkpt>
      <trkpt lat="44.08913" lon="7.07739">
        <ele>803</ele>
        <time>2015-05-04T13:57:23Z</time>
      </trkpt>
      <trkpt lat="44.08918" lon="7.07735">
        <ele>804</ele>
        <time>2015-05-04T13:57:26Z</time>
      </trkpt>
      <trkpt lat="44.08953" lon="7.0768">
        <ele>808</ele>
        <time>2015-05-04T13:58:12Z</time>
      </trkpt>
      <trkpt lat="44.08965" lon="7.07665">
        <ele>810</ele>
        <time>2015-05-04T13:58:23Z</time>
      </trkpt>
      <trkpt lat="44.08975" lon="7.07657">
        <ele>810</ele>
        <time>2015-05-04T13:58:31Z</time>
      </trkpt>
      <trkpt lat="44.0898" lon="7.07649">
        <ele>811</ele>
        <time>2015-05-04T13:58:34Z</time>
      </trkpt>
      <trkpt lat="44.08987" lon="7.07643">
        <ele>812</ele>
        <time>2015-05-04T13:58:38Z</time>
      </trkpt>
      <trkpt lat="44.08989" lon="7.07636">
        <ele>812</ele>
        <time>2015-05-04T13:58:41Z</time>
      </trkpt>
      <trkpt lat="44.08992" lon="7.07621">
        <ele>812</ele>
        <time>2015-05-04T13:58:47Z</time>
      </trkpt>
      <trkpt lat="44.08991" lon="7.07611">
        <ele>813</ele>
        <time>2015-05-04T13:58:51Z</time>
      </trkpt>
      <trkpt lat="44.08986" lon="7.07593">
        <ele>814</ele>
        <time>2015-05-04T13:58:57Z</time>
      </trkpt>
      <trkpt lat="44.08986" lon="7.0757">
        <ele>816</ele>
        <time>2015-05-04T13:59:06Z</time>
      </trkpt>
      <trkpt lat="44.0898" lon="7.07542">
        <ele>817</ele>
        <time>2015-05-04T13:59:17Z</time>
      </trkpt>
      <trkpt lat="44.08977" lon="7.07521">
        <ele>819</ele>
        <time>2015-05-04T13:59:25Z</time>
      </trkpt>
      <trkpt lat="44.08978" lon="7.07504">
        <ele>821</ele>
        <time>2015-05-04T13:59:33Z</time>
      </trkpt>
      <trkpt lat="44.08982" lon="7.07493">
        <ele>821</ele>
        <time>2015-05-04T13:59:38Z</time>
      </trkpt>
      <trkpt lat="44.09004" lon="7.07473">
        <ele>823</ele>
        <time>2015-05-04T13:59:51Z</time>
      </trkpt>
      <trkpt lat="44.0901" lon="7.07465">
        <ele>823</ele>
        <time>2015-05-04T13:59:55Z</time>
      </trkpt>
      <trkpt lat="44.09019" lon="7.07447">
        <ele>825</ele>
        <time>2015-05-04T14:00:02Z</time>
      </trkpt>
      <trkpt lat="44.09021" lon="7.07431">
        <ele>825</ele>
        <time>2015-05-04T14:00:08Z</time>
      </trkpt>
      <trkpt lat="44.09016" lon="7.07419">
        <ele>826</ele>
        <time>2015-05-04T14:00:12Z</time>
      </trkpt>
      <trkpt lat="44.09012" lon="7.07414">
        <ele>827</ele>
        <time>2015-05-04T14:00:14Z</time>
      </trkpt>
      <trkpt lat="44.09008" lon="7.07406">
        <ele>827</ele>
        <time>2015-05-04T14:00:18Z</time>
      </trkpt>
      <trkpt lat="44.08997" lon="7.07398">
        <ele>827</ele>
        <time>2015-05-04T14:00:23Z</time>
      </trkpt>
      <trkpt lat="44.08989" lon="7.07387">
        <ele>829</ele>
        <time>2015-05-04T14:00:28Z</time>
      </trkpt>
      <trkpt lat="44.08971" lon="7.0736">
        <ele>831</ele>
        <time>2015-05-04T14:00:41Z</time>
      </trkpt>
      <trkpt lat="44.08961" lon="7.07348">
        <ele>831</ele>
        <time>2015-05-04T14:00:47Z</time>
      </trkpt>
      <trkpt lat="44.08956" lon="7.07333">
        <ele>833</ele>
        <time>2015-05-04T14:00:54Z</time>
      </trkpt>
      <trkpt lat="44.08951" lon="7.07324">
        <ele>833</ele>
        <time>2015-05-04T14:00:58Z</time>
      </trkpt>
      <trkpt lat="44.08947" lon="7.07308">
        <ele>834</ele>
        <time>2015-05-04T14:01:05Z</time>
      </trkpt>
      <trkpt lat="44.08942" lon="7.07303">
        <ele>835</ele>
        <time>2015-05-04T14:01:09Z</time>
      </trkpt>
      <trkpt lat="44.08932" lon="7.07283">
        <ele>837</ele>
        <time>2015-05-04T14:01:20Z</time>
      </trkpt>
      <trkpt lat="44.08922" lon="7.07233">
        <ele>839</ele>
        <time>2015-05-04T14:01:43Z</time>
      </trkpt>
      <trkpt lat="44.08921" lon="7.07189">
        <ele>842</ele>
        <time>2015-05-04T14:01:57Z</time>
      </trkpt>
      <trkpt lat="44.08925" lon="7.07166">
        <ele>842</ele>
        <time>2015-05-04T14:02:06Z</time>
      </trkpt>
      <trkpt lat="44.08928" lon="7.07138">
        <ele>844</ele>
        <time>2015-05-04T14:02:18Z</time>
      </trkpt>
      <trkpt lat="44.0892" lon="7.07101">
        <ele>846</ele>
        <time>2015-05-04T14:02:28Z</time>
      </trkpt>
      <trkpt lat="44.08923" lon="7.07097">
        <ele>846</ele>
        <time>2015-05-04T14:02:30Z</time>
      </trkpt>
      <trkpt lat="44.08925" lon="7.07091">
        <ele>847</ele>
        <time>2015-05-04T14:02:32Z</time>
      </trkpt>
      <trkpt lat="44.08928" lon="7.07068">
        <ele>848</ele>
        <time>2015-05-04T14:02:42Z</time>
      </trkpt>
      <trkpt lat="44.0893" lon="7.07064">
        <ele>849</ele>
        <time>2015-05-04T14:02:44Z</time>
      </trkpt>
      <trkpt lat="44.08944" lon="7.07045">
        <ele>851</ele>
        <time>2015-05-04T14:02:55Z</time>
      </trkpt>
      <trkpt lat="44.08953" lon="7.07024">
        <ele>852</ele>
        <time>2015-05-04T14:03:05Z</time>
      </trkpt>
      <trkpt lat="44.08959" lon="7.07013">
        <ele>854</ele>
        <time>2015-05-04T14:03:11Z</time>
      </trkpt>
      <trkpt lat="44.08965" lon="7.06998">
        <ele>855</ele>
        <time>2015-05-04T14:03:18Z</time>
      </trkpt>
      <trkpt lat="44.0897" lon="7.06968">
        <ele>857</ele>
        <time>2015-05-04T14:03:30Z</time>
      </trkpt>
      <trkpt lat="44.08978" lon="7.0694">
        <ele>859</ele>
        <time>2015-05-04T14:03:42Z</time>
      </trkpt>
      <trkpt lat="44.08985" lon="7.0692">
        <ele>861</ele>
        <time>2015-05-04T14:03:52Z</time>
      </trkpt>
      <trkpt lat="44.08988" lon="7.06904">
        <ele>862</ele>
        <time>2015-05-04T14:03:59Z</time>
      </trkpt>
      <trkpt lat="44.08994" lon="7.0689">
        <ele>864</ele>
        <time>2015-05-04T14:04:06Z</time>
      </trkpt>
      <trkpt lat="44.08995" lon="7.06886">
        <ele>864</ele>
        <time>2015-05-04T14:04:08Z</time>
      </trkpt>
      <trkpt lat="44.09006" lon="7.06874">
        <ele>866</ele>
        <time>2015-05-04T14:04:18Z</time>
      </trkpt>
      <trkpt lat="44.09007" lon="7.06869">
        <ele>867</ele>
        <time>2015-05-04T14:04:24Z</time>
      </trkpt>
      <trkpt lat="44.09019" lon="7.06861">
        <ele>867</ele>
        <time>2015-05-04T14:04:28Z</time>
      </trkpt>
      <trkpt lat="44.09028" lon="7.06832">
        <ele>869</ele>
        <time>2015-05-04T14:04:39Z</time>
      </trkpt>
      <trkpt lat="44.0903" lon="7.06815">
        <ele>869</ele>
        <time>2015-05-04T14:04:45Z</time>
      </trkpt>
      <trkpt lat="44.09029" lon="7.06807">
        <ele>871</ele>
        <time>2015-05-04T14:04:48Z</time>
      </trkpt>
      <trkpt lat="44.09027" lon="7.06785">
        <ele>871</ele>
        <time>2015-05-04T14:04:56Z</time>
      </trkpt>
      <trkpt lat="44.0902" lon="7.06749">
        <ele>873</ele>
        <time>2015-05-04T14:05:09Z</time>
      </trkpt>
      <trkpt lat="44.09021" lon="7.06718">
        <ele>876</ele>
        <time>2015-05-04T14:05:21Z</time>
      </trkpt>
      <trkpt lat="44.09024" lon="7.06687">
        <ele>878</ele>
        <time>2015-05-04T14:05:34Z</time>
      </trkpt>
      <trkpt lat="44.09044" lon="7.06604">
        <ele>883</ele>
        <time>2015-05-04T14:06:08Z</time>
      </trkpt>
      <trkpt lat="44.09041" lon="7.06584">
        <ele>884</ele>
        <time>2015-05-04T14:06:13Z</time>
      </trkpt>
      <trkpt lat="44.09029" lon="7.06553">
        <ele>886</ele>
        <time>2015-05-04T14:06:26Z</time>
      </trkpt>
      <trkpt lat="44.09028" lon="7.06546">
        <ele>888</ele>
        <time>2015-05-04T14:06:29Z</time>
      </trkpt>
      <trkpt lat="44.09032" lon="7.06524">
        <ele>888</ele>
        <time>2015-05-04T14:06:38Z</time>
      </trkpt>
      <trkpt lat="44.09054" lon="7.06471">
        <ele>892</ele>
        <time>2015-05-04T14:07:02Z</time>
      </trkpt>
      <trkpt lat="44.09063" lon="7.06433">
        <ele>896</ele>
        <time>2015-05-04T14:07:18Z</time>
      </trkpt>
      <trkpt lat="44.09065" lon="7.06407">
        <ele>897</ele>
        <time>2015-05-04T14:07:28Z</time>
      </trkpt>
      <trkpt lat="44.09054" lon="7.06368">
        <ele>899</ele>
        <time>2015-05-04T14:07:41Z</time>
      </trkpt>
      <trkpt lat="44.09074" lon="7.06321">
        <ele>902</ele>
        <time>2015-05-04T14:08:02Z</time>
      </trkpt>
      <trkpt lat="44.09085" lon="7.06312">
        <ele>903</ele>
        <time>2015-05-04T14:08:07Z</time>
      </trkpt>
      <trkpt lat="44.09091" lon="7.0631">
        <ele>904</ele>
        <time>2015-05-04T14:08:10Z</time>
      </trkpt>
      <trkpt lat="44.09108" lon="7.06298">
        <ele>906</ele>
        <time>2015-05-04T14:08:20Z</time>
      </trkpt>
      <trkpt lat="44.09124" lon="7.06277">
        <ele>908</ele>
        <time>2015-05-04T14:08:32Z</time>
      </trkpt>
      <trkpt lat="44.09136" lon="7.0625">
        <ele>909</ele>
        <time>2015-05-04T14:08:44Z</time>
      </trkpt>
      <trkpt lat="44.0915" lon="7.06231">
        <ele>911</ele>
        <time>2015-05-04T14:08:54Z</time>
      </trkpt>
      <trkpt lat="44.09175" lon="7.06209">
        <ele>915</ele>
        <time>2015-05-04T14:09:10Z</time>
      </trkpt>
      <trkpt lat="44.09187" lon="7.06194">
        <ele>915</ele>
        <time>2015-05-04T14:09:18Z</time>
      </trkpt>
      <trkpt lat="44.09189" lon="7.0619">
        <ele>916</ele>
        <time>2015-05-04T14:09:20Z</time>
      </trkpt>
      <trkpt lat="44.09204" lon="7.06174">
        <ele>917</ele>
        <time>2015-05-04T14:09:30Z</time>
      </trkpt>
      <trkpt lat="44.09208" lon="7.06166">
        <ele>919</ele>
        <time>2015-05-04T14:11:55Z</time>
      </trkpt>
      <trkpt lat="44.09217" lon="7.06163">
        <ele>919</ele>
        <time>2015-05-04T14:12:00Z</time>
      </trkpt>
      <trkpt lat="44.0922" lon="7.0616">
        <ele>919</ele>
        <time>2015-05-04T14:12:02Z</time>
      </trkpt>
      <trkpt lat="44.09245" lon="7.06119">
        <ele>923</ele>
        <time>2015-05-04T14:12:24Z</time>
      </trkpt>
      <trkpt lat="44.09245" lon="7.06115">
        <ele>923</ele>
        <time>2015-05-04T14:12:51Z</time>
      </trkpt>
      <trkpt lat="44.09263" lon="7.06088">
        <ele>925</ele>
        <time>2015-05-04T14:13:06Z</time>
      </trkpt>
      <trkpt lat="44.09277" lon="7.06079">
        <ele>926</ele>
        <time>2015-05-04T14:13:14Z</time>
      </trkpt>
      <trkpt lat="44.09318" lon="7.06035">
        <ele>931</ele>
        <time>2015-05-04T14:13:42Z</time>
      </trkpt>
      <trkpt lat="44.09342" lon="7.05986">
        <ele>936</ele>
        <time>2015-05-04T14:14:05Z</time>
      </trkpt>
      <trkpt lat="44.09353" lon="7.05969">
        <ele>936</ele>
        <time>2015-05-04T14:14:14Z</time>
      </trkpt>
      <trkpt lat="44.09355" lon="7.05962">
        <ele>938</ele>
        <time>2015-05-04T14:14:20Z</time>
      </trkpt>
      <trkpt lat="44.09357" lon="7.05961">
        <ele>938</ele>
        <time>2015-05-04T14:14:30Z</time>
      </trkpt>
      <trkpt lat="44.09357" lon="7.05958">
        <ele>938</ele>
        <time>2015-05-04T14:14:32Z</time>
      </trkpt>
      <trkpt lat="44.09367" lon="7.05946">
        <ele>939</ele>
        <time>2015-05-04T14:14:40Z</time>
      </trkpt>
      <trkpt lat="44.09375" lon="7.05928">
        <ele>940</ele>
        <time>2015-05-04T14:14:48Z</time>
      </trkpt>
      <trkpt lat="44.09382" lon="7.0588">
        <ele>942</ele>
        <time>2015-05-04T14:15:08Z</time>
      </trkpt>
      <trkpt lat="44.09387" lon="7.05864">
        <ele>944</ele>
        <time>2015-05-04T14:15:15Z</time>
      </trkpt>
      <trkpt lat="44.09399" lon="7.05843">
        <ele>945</ele>
        <time>2015-05-04T14:15:24Z</time>
      </trkpt>
      <trkpt lat="44.09413" lon="7.05823">
        <ele>947</ele>
        <time>2015-05-04T14:15:33Z</time>
      </trkpt>
      <trkpt lat="44.09428" lon="7.05812">
        <ele>948</ele>
        <time>2015-05-04T14:15:41Z</time>
      </trkpt>
      <trkpt lat="44.09447" lon="7.05787">
        <ele>950</ele>
        <time>2015-05-04T14:15:53Z</time>
      </trkpt>
      <trkpt lat="44.09452" lon="7.05765">
        <ele>951</ele>
        <time>2015-05-04T14:16:01Z</time>
      </trkpt>
      <trkpt lat="44.09455" lon="7.05741">
        <ele>952</ele>
        <time>2015-05-04T14:16:08Z</time>
      </trkpt>
      <trkpt lat="44.09458" lon="7.05726">
        <ele>953</ele>
        <time>2015-05-04T14:16:13Z</time>
      </trkpt>
      <trkpt lat="44.0947" lon="7.05713">
        <ele>955</ele>
        <time>2015-05-04T14:16:21Z</time>
      </trkpt>
      <trkpt lat="44.09488" lon="7.05705">
        <ele>956</ele>
        <time>2015-05-04T14:16:30Z</time>
      </trkpt>
      <trkpt lat="44.09502" lon="7.05695">
        <ele>957</ele>
        <time>2015-05-04T14:16:38Z</time>
      </trkpt>
      <trkpt lat="44.09509" lon="7.05693">
        <ele>958</ele>
        <time>2015-05-04T14:16:42Z</time>
      </trkpt>
      <trkpt lat="44.09533" lon="7.05695">
        <ele>961</ele>
        <time>2015-05-04T14:16:56Z</time>
      </trkpt>
      <trkpt lat="44.0955" lon="7.0569">
        <ele>962</ele>
        <time>2015-05-04T14:17:05Z</time>
      </trkpt>
      <trkpt lat="44.09566" lon="7.05676">
        <ele>963</ele>
        <time>2015-05-04T14:17:15Z</time>
      </trkpt>
      <trkpt lat="44.09575" lon="7.05662">
        <ele>965</ele>
        <time>2015-05-04T14:17:22Z</time>
      </trkpt>
      <trkpt lat="44.09577" lon="7.05662">
        <ele>965</ele>
        <time>2015-05-04T14:17:23Z</time>
      </trkpt>
      <trkpt lat="44.09582" lon="7.05666">
        <ele>965</ele>
        <time>2015-05-04T14:17:29Z</time>
      </trkpt>
      <trkpt lat="44.09586" lon="7.05662">
        <ele>965</ele>
        <time>2015-05-04T14:17:31Z</time>
      </trkpt>
      <trkpt lat="44.09601" lon="7.05652">
        <ele>966</ele>
        <time>2015-05-04T14:17:38Z</time>
      </trkpt>
      <trkpt lat="44.09608" lon="7.0565">
        <ele>968</ele>
        <time>2015-05-04T14:17:41Z</time>
      </trkpt>
      <trkpt lat="44.09629" lon="7.05656">
        <ele>969</ele>
        <time>2015-05-04T14:17:52Z</time>
      </trkpt>
      <trkpt lat="44.09645" lon="7.05651">
        <ele>970</ele>
        <time>2015-05-04T14:18:01Z</time>
      </trkpt>
      <trkpt lat="44.09652" lon="7.05651">
        <ele>972</ele>
        <time>2015-05-04T14:18:05Z</time>
      </trkpt>
      <trkpt lat="44.09659" lon="7.05648">
        <ele>972</ele>
        <time>2015-05-04T14:18:09Z</time>
      </trkpt>
      <trkpt lat="44.09667" lon="7.05643">
        <ele>972</ele>
        <time>2015-05-04T14:18:14Z</time>
      </trkpt>
      <trkpt lat="44.0967" lon="7.05639">
        <ele>972</ele>
        <time>2015-05-04T14:18:16Z</time>
      </trkpt>
      <trkpt lat="44.09671" lon="7.05635">
        <ele>972</ele>
        <time>2015-05-04T14:18:18Z</time>
      </trkpt>
      <trkpt lat="44.09671" lon="7.05623">
        <ele>974</ele>
        <time>2015-05-04T14:18:22Z</time>
      </trkpt>
      <trkpt lat="44.09662" lon="7.05596">
        <ele>974</ele>
        <time>2015-05-04T14:18:29Z</time>
      </trkpt>
      <trkpt lat="44.09638" lon="7.05579">
        <ele>975</ele>
        <time>2015-05-04T14:18:40Z</time>
      </trkpt>
      <trkpt lat="44.09614" lon="7.05548">
        <ele>978</ele>
        <time>2015-05-04T14:18:56Z</time>
      </trkpt>
      <trkpt lat="44.09603" lon="7.05543">
        <ele>978</ele>
        <time>2015-05-04T14:19:02Z</time>
      </trkpt>
      <trkpt lat="44.09589" lon="7.05543">
        <ele>979</ele>
        <time>2015-05-04T14:19:09Z</time>
      </trkpt>
      <trkpt lat="44.0957" lon="7.05536">
        <ele>980</ele>
        <time>2015-05-04T14:19:20Z</time>
      </trkpt>
      <trkpt lat="44.09557" lon="7.05535">
        <ele>982</ele>
        <time>2015-05-04T14:19:27Z</time>
      </trkpt>
      <trkpt lat="44.09519" lon="7.05549">
        <ele>986</ele>
        <time>2015-05-04T14:19:49Z</time>
      </trkpt>
      <trkpt lat="44.09508" lon="7.05551">
        <ele>986</ele>
        <time>2015-05-04T14:19:55Z</time>
      </trkpt>
      <trkpt lat="44.095" lon="7.05549">
        <ele>987</ele>
        <time>2015-05-04T14:20:00Z</time>
      </trkpt>
      <trkpt lat="44.09496" lon="7.0555">
        <ele>988</ele>
        <time>2015-05-04T14:20:03Z</time>
      </trkpt>
      <trkpt lat="44.09488" lon="7.05553">
        <ele>988</ele>
        <time>2015-05-04T14:20:07Z</time>
      </trkpt>
      <trkpt lat="44.09477" lon="7.05561">
        <ele>989</ele>
        <time>2015-05-04T14:20:14Z</time>
      </trkpt>
      <trkpt lat="44.09464" lon="7.05567">
        <ele>990</ele>
        <time>2015-05-04T14:20:21Z</time>
      </trkpt>
      <trkpt lat="44.0945" lon="7.0558">
        <ele>991</ele>
        <time>2015-05-04T14:20:29Z</time>
      </trkpt>
      <trkpt lat="44.09423" lon="7.05609">
        <ele>994</ele>
        <time>2015-05-04T14:20:46Z</time>
      </trkpt>
      <trkpt lat="44.09402" lon="7.05626">
        <ele>997</ele>
        <time>2015-05-04T14:20:59Z</time>
      </trkpt>
      <trkpt lat="44.09377" lon="7.0565">
        <ele>999</ele>
        <time>2015-05-04T14:21:16Z</time>
      </trkpt>
      <trkpt lat="44.09361" lon="7.05661">
        <ele>1000</ele>
        <time>2015-05-04T14:21:27Z</time>
      </trkpt>
      <trkpt lat="44.09339" lon="7.05683">
        <ele>1002</ele>
        <time>2015-05-04T14:21:42Z</time>
      </trkpt>
      <trkpt lat="44.09319" lon="7.0569">
        <ele>1003</ele>
        <time>2015-05-04T14:21:54Z</time>
      </trkpt>
      <trkpt lat="44.09301" lon="7.05693">
        <ele>1005</ele>
        <time>2015-05-04T14:22:05Z</time>
      </trkpt>
      <trkpt lat="44.09285" lon="7.05686">
        <ele>1007</ele>
        <time>2015-05-04T14:22:13Z</time>
      </trkpt>
      <trkpt lat="44.0928" lon="7.05686">
        <ele>1007</ele>
        <time>2015-05-04T14:22:16Z</time>
      </trkpt>
      <trkpt lat="44.09265" lon="7.05695">
        <ele>1007</ele>
        <time>2015-05-04T14:22:24Z</time>
      </trkpt>
      <trkpt lat="44.09256" lon="7.05703">
        <ele>1009</ele>
        <time>2015-05-04T14:22:28Z</time>
      </trkpt>
      <trkpt lat="44.09244" lon="7.0572">
        <ele>1009</ele>
        <time>2015-05-04T14:22:36Z</time>
      </trkpt>
      <trkpt lat="44.09227" lon="7.05738">
        <ele>1011</ele>
        <time>2015-05-04T14:22:48Z</time>
      </trkpt>
      <trkpt lat="44.09216" lon="7.05738">
        <ele>1011</ele>
        <time>2015-05-04T14:22:54Z</time>
      </trkpt>
      <trkpt lat="44.09201" lon="7.0573">
        <ele>1013</ele>
        <time>2015-05-04T14:23:03Z</time>
      </trkpt>
      <trkpt lat="44.09189" lon="7.05727">
        <ele>1013</ele>
        <time>2015-05-04T14:23:09Z</time>
      </trkpt>
      <trkpt lat="44.09186" lon="7.05728">
        <ele>1013</ele>
        <time>2015-05-04T14:23:11Z</time>
      </trkpt>
      <trkpt lat="44.09179" lon="7.05735">
        <ele>1015</ele>
        <time>2015-05-04T14:23:15Z</time>
      </trkpt>
      <trkpt lat="44.09172" lon="7.05751">
        <ele>1015</ele>
        <time>2015-05-04T14:23:21Z</time>
      </trkpt>
      <trkpt lat="44.09163" lon="7.05765">
        <ele>1016</ele>
        <time>2015-05-04T14:23:27Z</time>
      </trkpt>
      <trkpt lat="44.09136" lon="7.05797">
        <ele>1018</ele>
        <time>2015-05-04T14:23:44Z</time>
      </trkpt>
      <trkpt lat="44.0913" lon="7.05807">
        <ele>1019</ele>
        <time>2015-05-04T14:23:48Z</time>
      </trkpt>
      <trkpt lat="44.09123" lon="7.05835">
        <ele>1021</ele>
        <time>2015-05-04T14:24:01Z</time>
      </trkpt>
      <trkpt lat="44.09114" lon="7.05847">
        <ele>1021</ele>
        <time>2015-05-04T14:24:07Z</time>
      </trkpt>
      <trkpt lat="44.09106" lon="7.05865">
        <ele>1023</ele>
        <time>2015-05-04T14:24:15Z</time>
      </trkpt>
      <trkpt lat="44.09097" lon="7.05878">
        <ele>1023</ele>
        <time>2015-05-04T14:24:22Z</time>
      </trkpt>
      <trkpt lat="44.09081" lon="7.05888">
        <ele>1024</ele>
        <time>2015-05-04T14:24:30Z</time>
      </trkpt>
      <trkpt lat="44.09046" lon="7.05878">
        <ele>1028</ele>
        <time>2015-05-04T14:24:49Z</time>
      </trkpt>
      <trkpt lat="44.09039" lon="7.05882">
        <ele>1028</ele>
        <time>2015-05-04T14:24:55Z</time>
      </trkpt>
      <trkpt lat="44.09036" lon="7.05889">
        <ele>1028</ele>
        <time>2015-05-04T14:24:59Z</time>
      </trkpt>
      <trkpt lat="44.09035" lon="7.05893">
        <ele>1029</ele>
        <time>2015-05-04T14:25:01Z</time>
      </trkpt>
      <trkpt lat="44.09038" lon="7.05929">
        <ele>1031</ele>
        <time>2015-05-04T14:25:14Z</time>
      </trkpt>
      <trkpt lat="44.09034" lon="7.05938">
        <ele>1032</ele>
        <time>2015-05-04T14:25:17Z</time>
      </trkpt>
      <trkpt lat="44.09023" lon="7.0595">
        <ele>1032</ele>
        <time>2015-05-04T14:25:23Z</time>
      </trkpt>
      <trkpt lat="44.0901" lon="7.05956">
        <ele>1033</ele>
        <time>2015-05-04T14:25:26Z</time>
      </trkpt>
      <trkpt lat="44.09007" lon="7.05961">
        <ele>1033</ele>
        <time>2015-05-04T14:25:28Z</time>
      </trkpt>
      <trkpt lat="44.08997" lon="7.05966">
        <ele>1034</ele>
        <time>2015-05-04T14:25:33Z</time>
      </trkpt>
      <trkpt lat="44.08988" lon="7.05974">
        <ele>1034</ele>
        <time>2015-05-04T14:25:39Z</time>
      </trkpt>
      <trkpt lat="44.08981" lon="7.05977">
        <ele>1036</ele>
        <time>2015-05-04T14:25:43Z</time>
      </trkpt>
      <trkpt lat="44.08973" lon="7.05985">
        <ele>1036</ele>
        <time>2015-05-04T14:25:49Z</time>
      </trkpt>
      <trkpt lat="44.08964" lon="7.05998">
        <ele>1037</ele>
        <time>2015-05-04T14:25:56Z</time>
      </trkpt>
      <trkpt lat="44.08928" lon="7.06026">
        <ele>1040</ele>
        <time>2015-05-04T14:26:19Z</time>
      </trkpt>
      <trkpt lat="44.08919" lon="7.06045">
        <ele>1042</ele>
        <time>2015-05-04T14:26:28Z</time>
      </trkpt>
      <trkpt lat="44.08908" lon="7.06081">
        <ele>1044</ele>
        <time>2015-05-04T14:26:44Z</time>
      </trkpt>
      <trkpt lat="44.089" lon="7.06098">
        <ele>1044</ele>
        <time>2015-05-04T14:26:51Z</time>
      </trkpt>
      <trkpt lat="44.0888" lon="7.06111">
        <ele>1046</ele>
        <time>2015-05-04T14:26:59Z</time>
      </trkpt>
      <trkpt lat="44.08857" lon="7.06118">
        <ele>1048</ele>
        <time>2015-05-04T14:27:09Z</time>
      </trkpt>
      <trkpt lat="44.08846" lon="7.06113">
        <ele>1048</ele>
        <time>2015-05-04T14:27:15Z</time>
      </trkpt>
      <trkpt lat="44.08836" lon="7.06102">
        <ele>1049</ele>
        <time>2015-05-04T14:27:21Z</time>
      </trkpt>
      <trkpt lat="44.08796" lon="7.06022">
        <ele>1054</ele>
        <time>2015-05-04T14:27:53Z</time>
      </trkpt>
      <trkpt lat="44.08786" lon="7.06007">
        <ele>1054</ele>
        <time>2015-05-04T14:27:59Z</time>
      </trkpt>
      <trkpt lat="44.08762" lon="7.05959">
        <ele>1057</ele>
        <time>2015-05-04T14:28:20Z</time>
      </trkpt>
      <trkpt lat="44.08755" lon="7.05949">
        <ele>1059</ele>
        <time>2015-05-04T14:28:25Z</time>
      </trkpt>
      <trkpt lat="44.08742" lon="7.05935">
        <ele>1060</ele>
        <time>2015-05-04T14:28:34Z</time>
      </trkpt>
      <trkpt lat="44.08729" lon="7.05926">
        <ele>1061</ele>
        <time>2015-05-04T14:28:42Z</time>
      </trkpt>
      <trkpt lat="44.08699" lon="7.05912">
        <ele>1065</ele>
        <time>2015-05-04T14:28:59Z</time>
      </trkpt>
      <trkpt lat="44.08693" lon="7.05911">
        <ele>1065</ele>
        <time>2015-05-04T14:29:02Z</time>
      </trkpt>
      <trkpt lat="44.08683" lon="7.05906">
        <ele>1066</ele>
        <time>2015-05-04T14:29:08Z</time>
      </trkpt>
      <trkpt lat="44.08668" lon="7.05895">
        <ele>1068</ele>
        <time>2015-05-04T14:29:19Z</time>
      </trkpt>
      <trkpt lat="44.08661" lon="7.05892">
        <ele>1069</ele>
        <time>2015-05-04T14:29:23Z</time>
      </trkpt>
      <trkpt lat="44.0865" lon="7.05882">
        <ele>1070</ele>
        <time>2015-05-04T14:29:30Z</time>
      </trkpt>
      <trkpt lat="44.08637" lon="7.05848">
        <ele>1072</ele>
        <time>2015-05-04T14:29:42Z</time>
      </trkpt>
      <trkpt lat="44.08621" lon="7.0582">
        <ele>1075</ele>
        <time>2015-05-04T14:29:55Z</time>
      </trkpt>
      <trkpt lat="44.08612" lon="7.05794">
        <ele>1076</ele>
        <time>2015-05-04T14:30:06Z</time>
      </trkpt>
      <trkpt lat="44.08603" lon="7.05782">
        <ele>1078</ele>
        <time>2015-05-04T14:30:13Z</time>
      </trkpt>
      <trkpt lat="44.08566" lon="7.05754">
        <ele>1082</ele>
        <time>2015-05-04T14:30:34Z</time>
      </trkpt>
      <trkpt lat="44.08551" lon="7.05749">
        <ele>1083</ele>
        <time>2015-05-04T14:30:42Z</time>
      </trkpt>
      <trkpt lat="44.08533" lon="7.05749">
        <ele>1084</ele>
        <time>2015-05-04T14:30:52Z</time>
      </trkpt>
      <trkpt lat="44.08521" lon="7.05743">
        <ele>1086</ele>
        <time>2015-05-04T14:30:58Z</time>
      </trkpt>
      <trkpt lat="44.08507" lon="7.05726">
        <ele>1088</ele>
        <time>2015-05-04T14:31:07Z</time>
      </trkpt>
      <trkpt lat="44.08501" lon="7.0572">
        <ele>1088</ele>
        <time>2015-05-04T14:31:11Z</time>
      </trkpt>
      <trkpt lat="44.08489" lon="7.05716">
        <ele>1089</ele>
        <time>2015-05-04T14:31:18Z</time>
      </trkpt>
      <trkpt lat="44.08477" lon="7.05713">
        <ele>1091</ele>
        <time>2015-05-04T14:31:25Z</time>
      </trkpt>
      <trkpt lat="44.08466" lon="7.05714">
        <ele>1091</ele>
        <time>2015-05-04T14:31:31Z</time>
      </trkpt>
      <trkpt lat="44.08459" lon="7.05718">
        <ele>1093</ele>
        <time>2015-05-04T14:31:35Z</time>
      </trkpt>
      <trkpt lat="44.08447" lon="7.0572">
        <ele>1093</ele>
        <time>2015-05-04T14:31:41Z</time>
      </trkpt>
      <trkpt lat="44.08432" lon="7.0572">
        <ele>1095</ele>
        <time>2015-05-04T14:31:50Z</time>
      </trkpt>
      <trkpt lat="44.08416" lon="7.05716">
        <ele>1095</ele>
        <time>2015-05-04T14:31:58Z</time>
      </trkpt>
      <trkpt lat="44.08412" lon="7.05714">
        <ele>1095</ele>
        <time>2015-05-04T14:32:00Z</time>
      </trkpt>
      <trkpt lat="44.0841" lon="7.05707">
        <ele>1097</ele>
        <time>2015-05-04T14:32:03Z</time>
      </trkpt>
      <trkpt lat="44.08413" lon="7.05701">
        <ele>1097</ele>
        <time>2015-05-04T14:32:06Z</time>
      </trkpt>
      <trkpt lat="44.08419" lon="7.05698">
        <ele>1097</ele>
        <time>2015-05-04T14:32:10Z</time>
      </trkpt>
      <trkpt lat="44.08422" lon="7.057">
        <ele>1098</ele>
        <time>2015-05-04T14:32:13Z</time>
      </trkpt>
      <trkpt lat="44.08426" lon="7.05699">
        <ele>1099</ele>
        <time>2015-05-04T14:32:15Z</time>
      </trkpt>
      <trkpt lat="44.08438" lon="7.05698">
        <ele>1099</ele>
        <time>2015-05-04T14:32:22Z</time>
      </trkpt>
      <trkpt lat="44.08455" lon="7.05694">
        <ele>1101</ele>
        <time>2015-05-04T14:32:31Z</time>
      </trkpt>
      <trkpt lat="44.08466" lon="7.05689">
        <ele>1102</ele>
        <time>2015-05-04T14:32:37Z</time>
      </trkpt>
      <trkpt lat="44.08485" lon="7.05686">
        <ele>1103</ele>
        <time>2015-05-04T14:32:46Z</time>
      </trkpt>
      <trkpt lat="44.08499" lon="7.05689">
        <ele>1105</ele>
        <time>2015-05-04T14:32:53Z</time>
      </trkpt>
      <trkpt lat="44.08513" lon="7.05697">
        <ele>1106</ele>
        <time>2015-05-04T14:33:00Z</time>
      </trkpt>
      <trkpt lat="44.08522" lon="7.05704">
        <ele>1107</ele>
        <time>2015-05-04T14:33:06Z</time>
      </trkpt>
      <trkpt lat="44.08529" lon="7.05704">
        <ele>1108</ele>
        <time>2015-05-04T14:33:10Z</time>
      </trkpt>
      <trkpt lat="44.08563" lon="7.05684">
        <ele>1111</ele>
        <time>2015-05-04T14:33:30Z</time>
      </trkpt>
      <trkpt lat="44.08576" lon="7.05679">
        <ele>1111</ele>
        <time>2015-05-04T14:33:36Z</time>
      </trkpt>
      <trkpt lat="44.08582" lon="7.05678">
        <ele>1112</ele>
        <time>2015-05-04T14:33:39Z</time>
      </trkpt>
      <trkpt lat="44.08597" lon="7.0569">
        <ele>1114</ele>
        <time>2015-05-04T14:33:48Z</time>
      </trkpt>
      <trkpt lat="44.08611" lon="7.05714">
        <ele>1116</ele>
        <time>2015-05-04T14:34:01Z</time>
      </trkpt>
      <trkpt lat="44.08615" lon="7.05716">
        <ele>1117</ele>
        <time>2015-05-04T14:34:03Z</time>
      </trkpt>
      <trkpt lat="44.08619" lon="7.05721">
        <ele>1117</ele>
        <time>2015-05-04T14:34:06Z</time>
      </trkpt>
      <trkpt lat="44.08628" lon="7.05727">
        <ele>1118</ele>
        <time>2015-05-04T14:34:11Z</time>
      </trkpt>
      <trkpt lat="44.0865" lon="7.05733">
        <ele>1120</ele>
        <time>2015-05-04T14:34:24Z</time>
      </trkpt>
      <trkpt lat="44.08656" lon="7.05736">
        <ele>1121</ele>
        <time>2015-05-04T14:34:27Z</time>
      </trkpt>
      <trkpt lat="44.08665" lon="7.0575">
        <ele>1121</ele>
        <time>2015-05-04T14:34:34Z</time>
      </trkpt>
      <trkpt lat="44.08678" lon="7.05779">
        <ele>1124</ele>
        <time>2015-05-04T14:34:48Z</time>
      </trkpt>
      <trkpt lat="44.08687" lon="7.05795">
        <ele>1126</ele>
        <time>2015-05-04T14:34:56Z</time>
      </trkpt>
      <trkpt lat="44.08692" lon="7.05802">
        <ele>1126</ele>
        <time>2015-05-04T14:35:00Z</time>
      </trkpt>
      <trkpt lat="44.08706" lon="7.05816">
        <ele>1128</ele>
        <time>2015-05-04T14:35:10Z</time>
      </trkpt>
      <trkpt lat="44.08717" lon="7.05819">
        <ele>1129</ele>
        <time>2015-05-04T14:35:16Z</time>
      </trkpt>
      <trkpt lat="44.0873" lon="7.05818">
        <ele>1130</ele>
        <time>2015-05-04T14:35:23Z</time>
      </trkpt>
      <trkpt lat="44.08748" lon="7.05812">
        <ele>1132</ele>
        <time>2015-05-04T14:35:33Z</time>
      </trkpt>
      <trkpt lat="44.08766" lon="7.05809">
        <ele>1134</ele>
        <time>2015-05-04T14:35:43Z</time>
      </trkpt>
      <trkpt lat="44.08784" lon="7.05802">
        <ele>1136</ele>
        <time>2015-05-04T14:36:56Z</time>
      </trkpt>
      <trkpt lat="44.08798" lon="7.05802">
        <ele>1136</ele>
        <time>2015-05-04T14:37:03Z</time>
      </trkpt>
      <trkpt lat="44.08835" lon="7.05813">
        <ele>1140</ele>
        <time>2015-05-04T14:37:25Z</time>
      </trkpt>
      <trkpt lat="44.08848" lon="7.05812">
        <ele>1142</ele>
        <time>2015-05-04T14:37:33Z</time>
      </trkpt>
      <trkpt lat="44.0886" lon="7.05814">
        <ele>1142</ele>
        <time>2015-05-04T14:37:39Z</time>
      </trkpt>
      <trkpt lat="44.0887" lon="7.05822">
        <ele>1144</ele>
        <time>2015-05-04T14:37:45Z</time>
      </trkpt>
      <trkpt lat="44.08878" lon="7.05831">
        <ele>1144</ele>
        <time>2015-05-04T14:37:51Z</time>
      </trkpt>
      <trkpt lat="44.08887" lon="7.05844">
        <ele>1147</ele>
        <time>2015-05-04T14:37:58Z</time>
      </trkpt>
      <trkpt lat="44.08897" lon="7.05853">
        <ele>1147</ele>
        <time>2015-05-04T14:38:05Z</time>
      </trkpt>
      <trkpt lat="44.089" lon="7.05854">
        <ele>1147</ele>
        <time>2015-05-04T14:38:07Z</time>
      </trkpt>
      <trkpt lat="44.08909" lon="7.05853">
        <ele>1149</ele>
        <time>2015-05-04T14:38:12Z</time>
      </trkpt>
      <trkpt lat="44.08926" lon="7.05838">
        <ele>1149</ele>
        <time>2015-05-04T14:38:23Z</time>
      </trkpt>
      <trkpt lat="44.08941" lon="7.05818">
        <ele>1151</ele>
        <time>2015-05-04T14:38:35Z</time>
      </trkpt>
      <trkpt lat="44.08947" lon="7.05796">
        <ele>1153</ele>
        <time>2015-05-04T14:38:45Z</time>
      </trkpt>
      <trkpt lat="44.08954" lon="7.05779">
        <ele>1155</ele>
        <time>2015-05-04T14:38:52Z</time>
      </trkpt>
      <trkpt lat="44.08965" lon="7.05761">
        <ele>1156</ele>
        <time>2015-05-04T14:39:01Z</time>
      </trkpt>
      <trkpt lat="44.0898" lon="7.05742">
        <ele>1158</ele>
        <time>2015-05-04T14:39:11Z</time>
      </trkpt>
      <trkpt lat="44.08986" lon="7.05737">
        <ele>1159</ele>
        <time>2015-05-04T14:39:14Z</time>
      </trkpt>
      <trkpt lat="44.09006" lon="7.05727">
        <ele>1161</ele>
        <time>2015-05-04T14:39:25Z</time>
      </trkpt>
      <trkpt lat="44.09024" lon="7.05721">
        <ele>1162</ele>
        <time>2015-05-04T14:39:33Z</time>
      </trkpt>
      <trkpt lat="44.09029" lon="7.05716">
        <ele>1163</ele>
        <time>2015-05-04T14:39:37Z</time>
      </trkpt>
      <trkpt lat="44.09034" lon="7.05704">
        <ele>1163</ele>
        <time>2015-05-04T14:39:43Z</time>
      </trkpt>
      <trkpt lat="44.09035" lon="7.05662">
        <ele>1167</ele>
        <time>2015-05-04T14:40:00Z</time>
      </trkpt>
      <trkpt lat="44.09032" lon="7.05626">
        <ele>1170</ele>
        <time>2015-05-04T14:40:14Z</time>
      </trkpt>
      <trkpt lat="44.09037" lon="7.05537">
        <ele>1174</ele>
        <time>2015-05-04T14:40:46Z</time>
      </trkpt>
      <trkpt lat="44.09042" lon="7.05492">
        <ele>1178</ele>
        <time>2015-05-04T14:41:03Z</time>
      </trkpt>
      <trkpt lat="44.09043" lon="7.05465">
        <ele>1179</ele>
        <time>2015-05-04T14:41:13Z</time>
      </trkpt>
      <trkpt lat="44.09053" lon="7.05361">
        <ele>1187</ele>
        <time>2015-05-04T14:41:53Z</time>
      </trkpt>
      <trkpt lat="44.09058" lon="7.05337">
        <ele>1188</ele>
        <time>2015-05-04T14:42:03Z</time>
      </trkpt>
      <trkpt lat="44.09057" lon="7.05328">
        <ele>1189</ele>
        <time>2015-05-04T14:42:06Z</time>
      </trkpt>
      <trkpt lat="44.09061" lon="7.05266">
        <ele>1192</ele>
        <time>2015-05-04T14:42:28Z</time>
      </trkpt>
      <trkpt lat="44.0906" lon="7.05241">
        <ele>1193</ele>
        <time>2015-05-04T14:42:37Z</time>
      </trkpt>
      <trkpt lat="44.09065" lon="7.05225">
        <ele>1195</ele>
        <time>2015-05-04T14:42:43Z</time>
      </trkpt>
      <trkpt lat="44.09067" lon="7.05206">
        <ele>1195</ele>
        <time>2015-05-04T14:42:50Z</time>
      </trkpt>
      <trkpt lat="44.09072" lon="7.05187">
        <ele>1197</ele>
        <time>2015-05-04T14:42:58Z</time>
      </trkpt>
      <trkpt lat="44.09071" lon="7.05164">
        <ele>1198</ele>
        <time>2015-05-04T14:43:07Z</time>
      </trkpt>
      <trkpt lat="44.0905" lon="7.05107">
        <ele>1202</ele>
        <time>2015-05-04T14:43:32Z</time>
      </trkpt>
      <trkpt lat="44.09047" lon="7.05096">
        <ele>1203</ele>
        <time>2015-05-04T14:43:36Z</time>
      </trkpt>
      <trkpt lat="44.09047" lon="7.05079">
        <ele>1203</ele>
        <time>2015-05-04T14:43:41Z</time>
      </trkpt>
      <trkpt lat="44.09056" lon="7.0507">
        <ele>1203</ele>
        <time>2015-05-04T14:43:46Z</time>
      </trkpt>
      <trkpt lat="44.09067" lon="7.05069">
        <ele>1204</ele>
        <time>2015-05-04T14:43:51Z</time>
      </trkpt>
      <trkpt lat="44.09073" lon="7.0507">
        <ele>1205</ele>
        <time>2015-05-04T14:43:54Z</time>
      </trkpt>
      <trkpt lat="44.09082" lon="7.05068">
        <ele>1205</ele>
        <time>2015-05-04T14:43:59Z</time>
      </trkpt>
      <trkpt lat="44.09091" lon="7.0507">
        <ele>1207</ele>
        <time>2015-05-04T14:44:04Z</time>
      </trkpt>
      <trkpt lat="44.09118" lon="7.05086">
        <ele>1209</ele>
        <time>2015-05-04T14:44:18Z</time>
      </trkpt>
      <trkpt lat="44.09127" lon="7.05098">
        <ele>1209</ele>
        <time>2015-05-04T14:44:24Z</time>
      </trkpt>
      <trkpt lat="44.0913" lon="7.05106">
        <ele>1210</ele>
        <time>2015-05-04T14:44:28Z</time>
      </trkpt>
      <trkpt lat="44.09144" lon="7.05118">
        <ele>1212</ele>
        <time>2015-05-04T14:44:36Z</time>
      </trkpt>
      <trkpt lat="44.09157" lon="7.05128">
        <ele>1214</ele>
        <time>2015-05-04T14:44:45Z</time>
      </trkpt>
      <trkpt lat="44.09181" lon="7.0514">
        <ele>1215</ele>
        <time>2015-05-04T14:44:58Z</time>
      </trkpt>
      <trkpt lat="44.09185" lon="7.05143">
        <ele>1216</ele>
        <time>2015-05-04T14:45:00Z</time>
      </trkpt>
      <trkpt lat="44.09197" lon="7.05156">
        <ele>1216</ele>
        <time>2015-05-04T14:45:07Z</time>
      </trkpt>
      <trkpt lat="44.09201" lon="7.05162">
        <ele>1217</ele>
        <time>2015-05-04T14:45:10Z</time>
      </trkpt>
      <trkpt lat="44.09209" lon="7.05188">
        <ele>1218</ele>
        <time>2015-05-04T14:45:20Z</time>
      </trkpt>
      <trkpt lat="44.09209" lon="7.05196">
        <ele>1219</ele>
        <time>2015-05-04T14:45:23Z</time>
      </trkpt>
      <trkpt lat="44.09214" lon="7.05219">
        <ele>1220</ele>
        <time>2015-05-04T14:45:32Z</time>
      </trkpt>
      <trkpt lat="44.09223" lon="7.05233">
        <ele>1222</ele>
        <time>2015-05-04T14:45:39Z</time>
      </trkpt>
      <trkpt lat="44.09249" lon="7.05265">
        <ele>1224</ele>
        <time>2015-05-04T14:45:59Z</time>
      </trkpt>
      <trkpt lat="44.09272" lon="7.05285">
        <ele>1226</ele>
        <time>2015-05-04T14:46:13Z</time>
      </trkpt>
      <trkpt lat="44.09285" lon="7.053">
        <ele>1228</ele>
        <time>2015-05-04T14:46:22Z</time>
      </trkpt>
      <trkpt lat="44.09289" lon="7.05302">
        <ele>1228</ele>
        <time>2015-05-04T14:46:24Z</time>
      </trkpt>
      <trkpt lat="44.09293" lon="7.05302">
        <ele>1228</ele>
        <time>2015-05-04T14:46:26Z</time>
      </trkpt>
      <trkpt lat="44.09294" lon="7.05293">
        <ele>1228</ele>
        <time>2015-05-04T14:46:30Z</time>
      </trkpt>
      <trkpt lat="44.09287" lon="7.05285">
        <ele>1228</ele>
        <time>2015-05-04T14:46:35Z</time>
      </trkpt>
      <trkpt lat="44.09276" lon="7.05278">
        <ele>1230</ele>
        <time>2015-05-04T14:46:42Z</time>
      </trkpt>
      <trkpt lat="44.09264" lon="7.05266">
        <ele>1230</ele>
        <time>2015-05-04T14:46:50Z</time>
      </trkpt>
      <trkpt lat="44.09258" lon="7.05253">
        <ele>1232</ele>
        <time>2015-05-04T14:46:56Z</time>
      </trkpt>
      <trkpt lat="44.09249" lon="7.05242">
        <ele>1232</ele>
        <time>2015-05-04T14:47:02Z</time>
      </trkpt>
      <trkpt lat="44.09246" lon="7.05236">
        <ele>1233</ele>
        <time>2015-05-04T14:47:05Z</time>
      </trkpt>
      <trkpt lat="44.09241" lon="7.05231">
        <ele>1234</ele>
        <time>2015-05-04T14:47:08Z</time>
      </trkpt>
      <trkpt lat="44.09238" lon="7.05225">
        <ele>1234</ele>
        <time>2015-05-04T14:47:11Z</time>
      </trkpt>
      <trkpt lat="44.09232" lon="7.05208">
        <ele>1236</ele>
        <time>2015-05-04T14:47:18Z</time>
      </trkpt>
      <trkpt lat="44.09221" lon="7.05133">
        <ele>1241</ele>
        <time>2015-05-04T14:47:47Z</time>
      </trkpt>
      <trkpt lat="44.0921" lon="7.05117">
        <ele>1242</ele>
        <time>2015-05-04T14:47:56Z</time>
      </trkpt>
      <trkpt lat="44.09188" lon="7.05093">
        <ele>1245</ele>
        <time>2015-05-04T14:48:10Z</time>
      </trkpt>
      <trkpt lat="44.0915" lon="7.05065">
        <ele>1248</ele>
        <time>2015-05-04T14:48:33Z</time>
      </trkpt>
      <trkpt lat="44.09144" lon="7.05045">
        <ele>1249</ele>
        <time>2015-05-04T14:48:41Z</time>
      </trkpt>
      <trkpt lat="44.09123" lon="7.04996">
        <ele>1253</ele>
        <time>2015-05-04T14:49:02Z</time>
      </trkpt>
      <trkpt lat="44.09109" lon="7.04946">
        <ele>1257</ele>
        <time>2015-05-04T14:49:22Z</time>
      </trkpt>
      <trkpt lat="44.09089" lon="7.04859">
        <ele>1262</ele>
        <time>2015-05-04T14:49:56Z</time>
      </trkpt>
      <trkpt lat="44.09086" lon="7.04826">
        <ele>1265</ele>
        <time>2015-05-04T14:50:09Z</time>
      </trkpt>
      <trkpt lat="44.09086" lon="7.04815">
        <ele>1266</ele>
        <time>2015-05-04T14:50:13Z</time>
      </trkpt>
      <trkpt lat="44.09081" lon="7.04785">
        <ele>1268</ele>
        <time>2015-05-04T14:50:25Z</time>
      </trkpt>
      <trkpt lat="44.0908" lon="7.04763">
        <ele>1268</ele>
        <time>2015-05-04T14:50:33Z</time>
      </trkpt>
      <trkpt lat="44.09084" lon="7.04689">
        <ele>1274</ele>
        <time>2015-05-04T14:51:02Z</time>
      </trkpt>
      <trkpt lat="44.09083" lon="7.04654">
        <ele>1276</ele>
        <time>2015-05-04T14:51:16Z</time>
      </trkpt>
      <trkpt lat="44.09088" lon="7.04595">
        <ele>1280</ele>
        <time>2015-05-04T14:51:40Z</time>
      </trkpt>
      <trkpt lat="44.09085" lon="7.04564">
        <ele>1281</ele>
        <time>2015-05-04T14:51:52Z</time>
      </trkpt>
      <trkpt lat="44.09086" lon="7.04559">
        <ele>1282</ele>
        <time>2015-05-04T14:51:54Z</time>
      </trkpt>
      <trkpt lat="44.09092" lon="7.04554">
        <ele>1282</ele>
        <time>2015-05-04T14:51:58Z</time>
      </trkpt>
      <trkpt lat="44.09095" lon="7.04554">
        <ele>1282</ele>
        <time>2015-05-04T14:52:00Z</time>
      </trkpt>
      <trkpt lat="44.09097" lon="7.04558">
        <ele>1282</ele>
        <time>2015-05-04T14:52:03Z</time>
      </trkpt>
      <trkpt lat="44.09098" lon="7.04569">
        <ele>1283</ele>
        <time>2015-05-04T14:52:08Z</time>
      </trkpt>
      <trkpt lat="44.09094" lon="7.04579">
        <ele>1285</ele>
        <time>2015-05-04T14:52:12Z</time>
      </trkpt>
      <trkpt lat="44.09093" lon="7.04593">
        <ele>1285</ele>
        <time>2015-05-04T14:52:18Z</time>
      </trkpt>
      <trkpt lat="44.09093" lon="7.04617">
        <ele>1287</ele>
        <time>2015-05-04T14:52:27Z</time>
      </trkpt>
      <trkpt lat="44.09102" lon="7.04649">
        <ele>1289</ele>
        <time>2015-05-04T14:52:40Z</time>
      </trkpt>
      <trkpt lat="44.09111" lon="7.04677">
        <ele>1290</ele>
        <time>2015-05-04T14:52:52Z</time>
      </trkpt>
      <trkpt lat="44.09125" lon="7.04744">
        <ele>1293</ele>
        <time>2015-05-04T14:53:17Z</time>
      </trkpt>
      <trkpt lat="44.09146" lon="7.0481">
        <ele>1298</ele>
        <time>2015-05-04T14:53:45Z</time>
      </trkpt>
      <trkpt lat="44.09166" lon="7.04859">
        <ele>1301</ele>
        <time>2015-05-04T14:54:07Z</time>
      </trkpt>
      <trkpt lat="44.09174" lon="7.04901">
        <ele>1305</ele>
        <time>2015-05-04T14:54:25Z</time>
      </trkpt>
      <trkpt lat="44.09178" lon="7.04906">
        <ele>1305</ele>
        <time>2015-05-04T14:55:20Z</time>
      </trkpt>
      <trkpt lat="44.09178" lon="7.04905">
        <ele>1305</ele>
        <time>2015-05-04T14:55:38Z</time>
      </trkpt>
      <trkpt lat="44.09187" lon="7.04898">
        <ele>1305</ele>
        <time>2015-05-04T14:55:43Z</time>
      </trkpt>
      <trkpt lat="44.09177" lon="7.0486">
        <ele>1307</ele>
        <time>2015-05-04T14:55:57Z</time>
      </trkpt>
      <trkpt lat="44.09164" lon="7.048">
        <ele>1310</ele>
        <time>2015-05-04T14:56:18Z</time>
      </trkpt>
      <trkpt lat="44.0916" lon="7.04754">
        <ele>1313</ele>
        <time>2015-05-04T14:56:35Z</time>
      </trkpt>
      <trkpt lat="44.0916" lon="7.04645">
        <ele>1319</ele>
        <time>2015-05-04T14:57:15Z</time>
      </trkpt>
      <trkpt lat="44.09164" lon="7.04588">
        <ele>1322</ele>
        <time>2015-05-04T14:57:35Z</time>
      </trkpt>
      <trkpt lat="44.09165" lon="7.04536">
        <ele>1325</ele>
        <time>2015-05-04T14:57:53Z</time>
      </trkpt>
      <trkpt lat="44.09171" lon="7.04426">
        <ele>1331</ele>
        <time>2015-05-04T14:58:31Z</time>
      </trkpt>
      <trkpt lat="44.09175" lon="7.04394">
        <ele>1333</ele>
        <time>2015-05-04T14:58:42Z</time>
      </trkpt>
      <trkpt lat="44.09193" lon="7.04319">
        <ele>1337</ele>
        <time>2015-05-04T14:59:09Z</time>
      </trkpt>
      <trkpt lat="44.09203" lon="7.04268">
        <ele>1341</ele>
        <time>2015-05-04T14:59:27Z</time>
      </trkpt>
      <trkpt lat="44.09204" lon="7.04252">
        <ele>1341</ele>
        <time>2015-05-04T14:59:33Z</time>
      </trkpt>
      <trkpt lat="44.09201" lon="7.04199">
        <ele>1345</ele>
        <time>2015-05-04T14:59:51Z</time>
      </trkpt>
      <trkpt lat="44.0921" lon="7.04139">
        <ele>1347</ele>
        <time>2015-05-04T15:00:13Z</time>
      </trkpt>
      <trkpt lat="44.0921" lon="7.04093">
        <ele>1351</ele>
        <time>2015-05-04T15:00:28Z</time>
      </trkpt>
      <trkpt lat="44.09212" lon="7.04055">
        <ele>1352</ele>
        <time>2015-05-04T15:00:41Z</time>
      </trkpt>
      <trkpt lat="44.09222" lon="7.04019">
        <ele>1354</ele>
        <time>2015-05-04T15:00:55Z</time>
      </trkpt>
      <trkpt lat="44.09224" lon="7.04006">
        <ele>1355</ele>
        <time>2015-05-04T15:01:00Z</time>
      </trkpt>
      <trkpt lat="44.09225" lon="7.03953">
        <ele>1358</ele>
        <time>2015-05-04T15:01:19Z</time>
      </trkpt>
      <trkpt lat="44.09223" lon="7.03949">
        <ele>1359</ele>
        <time>2015-05-04T15:01:21Z</time>
      </trkpt>
      <trkpt lat="44.0922" lon="7.03944">
        <ele>1359</ele>
        <time>2015-05-04T15:01:23Z</time>
      </trkpt>
      <trkpt lat="44.09213" lon="7.0394">
        <ele>1359</ele>
        <time>2015-05-04T15:01:26Z</time>
      </trkpt>
      <trkpt lat="44.09204" lon="7.03944">
        <ele>1359</ele>
        <time>2015-05-04T15:01:31Z</time>
      </trkpt>
      <trkpt lat="44.09195" lon="7.03959">
        <ele>1361</ele>
        <time>2015-05-04T15:01:38Z</time>
      </trkpt>
      <trkpt lat="44.09189" lon="7.03975">
        <ele>1361</ele>
        <time>2015-05-04T15:01:44Z</time>
      </trkpt>
      <trkpt lat="44.09183" lon="7.03995">
        <ele>1363</ele>
        <time>2015-05-04T15:01:52Z</time>
      </trkpt>
      <trkpt lat="44.0917" lon="7.0402">
        <ele>1365</ele>
        <time>2015-05-04T15:02:04Z</time>
      </trkpt>
      <trkpt lat="44.09171" lon="7.04035">
        <ele>1366</ele>
        <time>2015-05-04T15:02:12Z</time>
      </trkpt>
      <trkpt lat="44.09169" lon="7.04047">
        <ele>1366</ele>
        <time>2015-05-04T15:02:17Z</time>
      </trkpt>
      <trkpt lat="44.09165" lon="7.04059">
        <ele>1368</ele>
        <time>2015-05-04T15:02:21Z</time>
      </trkpt>
      <trkpt lat="44.09153" lon="7.04086">
        <ele>1368</ele>
        <time>2015-05-04T15:02:31Z</time>
      </trkpt>
      <trkpt lat="44.09133" lon="7.04118">
        <ele>1370</ele>
        <time>2015-05-04T15:02:46Z</time>
      </trkpt>
      <trkpt lat="44.09123" lon="7.04142">
        <ele>1372</ele>
        <time>2015-05-04T15:02:57Z</time>
      </trkpt>
      <trkpt lat="44.0912" lon="7.04146">
        <ele>1374</ele>
        <time>2015-05-04T15:03:00Z</time>
      </trkpt>
      <trkpt lat="44.09113" lon="7.04161">
        <ele>1374</ele>
        <time>2015-05-04T15:03:07Z</time>
      </trkpt>
      <trkpt lat="44.09108" lon="7.04182">
        <ele>1376</ele>
        <time>2015-05-04T15:03:16Z</time>
      </trkpt>
      <trkpt lat="44.09101" lon="7.04196">
        <ele>1376</ele>
        <time>2015-05-04T15:03:22Z</time>
      </trkpt>
      <trkpt lat="44.09094" lon="7.04207">
        <ele>1377</ele>
        <time>2015-05-04T15:03:27Z</time>
      </trkpt>
      <trkpt lat="44.09086" lon="7.04215">
        <ele>1378</ele>
        <time>2015-05-04T15:03:31Z</time>
      </trkpt>
      <trkpt lat="44.09068" lon="7.04229">
        <ele>1380</ele>
        <time>2015-05-04T15:03:41Z</time>
      </trkpt>
      <trkpt lat="44.09039" lon="7.04255">
        <ele>1382</ele>
        <time>2015-05-04T15:03:59Z</time>
      </trkpt>
      <trkpt lat="44.09026" lon="7.04271">
        <ele>1384</ele>
        <time>2015-05-04T15:04:09Z</time>
      </trkpt>
      <trkpt lat="44.0902" lon="7.04282">
        <ele>1384</ele>
        <time>2015-05-04T15:04:15Z</time>
      </trkpt>
      <trkpt lat="44.09007" lon="7.04298">
        <ele>1385</ele>
        <time>2015-05-04T15:04:21Z</time>
      </trkpt>
      <trkpt lat="44.09002" lon="7.04308">
        <ele>1386</ele>
        <time>2015-05-04T15:04:25Z</time>
      </trkpt>
      <trkpt lat="44.08998" lon="7.04313">
        <ele>1386</ele>
        <time>2015-05-04T15:04:28Z</time>
      </trkpt>
      <trkpt lat="44.08982" lon="7.04328">
        <ele>1387</ele>
        <time>2015-05-04T15:04:34Z</time>
      </trkpt>
      <trkpt lat="44.08973" lon="7.0433">
        <ele>1388</ele>
        <time>2015-05-04T15:04:38Z</time>
      </trkpt>
      <trkpt lat="44.0896" lon="7.04327">
        <ele>1388</ele>
        <time>2015-05-04T15:04:46Z</time>
      </trkpt>
      <trkpt lat="44.08923" lon="7.04315">
        <ele>1393</ele>
        <time>2015-05-04T15:05:06Z</time>
      </trkpt>
      <trkpt lat="44.08903" lon="7.04302">
        <ele>1395</ele>
        <time>2015-05-04T15:05:17Z</time>
      </trkpt>
      <trkpt lat="44.08892" lon="7.04291">
        <ele>1395</ele>
        <time>2015-05-04T15:05:24Z</time>
      </trkpt>
      <trkpt lat="44.08878" lon="7.04274">
        <ele>1397</ele>
        <time>2015-05-04T15:05:34Z</time>
      </trkpt>
      <trkpt lat="44.08866" lon="7.04256">
        <ele>1399</ele>
        <time>2015-05-04T15:05:43Z</time>
      </trkpt>
      <trkpt lat="44.08857" lon="7.04225">
        <ele>1401</ele>
        <time>2015-05-04T15:05:56Z</time>
      </trkpt>
      <trkpt lat="44.08848" lon="7.04215">
        <ele>1401</ele>
        <time>2015-05-04T15:06:02Z</time>
      </trkpt>
      <trkpt lat="44.08842" lon="7.04213">
        <ele>1403</ele>
        <time>2015-05-04T15:06:06Z</time>
      </trkpt>
      <trkpt lat="44.08836" lon="7.04214">
        <ele>1403</ele>
        <time>2015-05-04T15:06:10Z</time>
      </trkpt>
      <trkpt lat="44.08831" lon="7.0424">
        <ele>1405</ele>
        <time>2015-05-04T15:06:24Z</time>
      </trkpt>
      <trkpt lat="44.08812" lon="7.04292">
        <ele>1407</ele>
        <time>2015-05-04T15:06:46Z</time>
      </trkpt>
      <trkpt lat="44.08801" lon="7.04342">
        <ele>1411</ele>
        <time>2015-05-04T15:07:03Z</time>
      </trkpt>
      <trkpt lat="44.08792" lon="7.04368">
        <ele>1412</ele>
        <time>2015-05-04T15:07:13Z</time>
      </trkpt>
      <trkpt lat="44.08788" lon="7.04375">
        <ele>1413</ele>
        <time>2015-05-04T15:07:16Z</time>
      </trkpt>
      <trkpt lat="44.08783" lon="7.0438">
        <ele>1413</ele>
        <time>2015-05-04T15:07:19Z</time>
      </trkpt>
      <trkpt lat="44.0878" lon="7.04379">
        <ele>1413</ele>
        <time>2015-05-04T15:07:21Z</time>
      </trkpt>
      <trkpt lat="44.08778" lon="7.04375">
        <ele>1413</ele>
        <time>2015-05-04T15:07:23Z</time>
      </trkpt>
      <trkpt lat="44.08778" lon="7.0437">
        <ele>1414</ele>
        <time>2015-05-04T15:07:25Z</time>
      </trkpt>
      <trkpt lat="44.08785" lon="7.04349">
        <ele>1415</ele>
        <time>2015-05-04T15:07:33Z</time>
      </trkpt>
      <trkpt lat="44.08789" lon="7.04332">
        <ele>1415</ele>
        <time>2015-05-04T15:07:39Z</time>
      </trkpt>
      <trkpt lat="44.08795" lon="7.04299">
        <ele>1417</ele>
        <time>2015-05-04T15:07:51Z</time>
      </trkpt>
      <trkpt lat="44.08799" lon="7.04267">
        <ele>1418</ele>
        <time>2015-05-04T15:08:02Z</time>
      </trkpt>
      <trkpt lat="44.08798" lon="7.04241">
        <ele>1420</ele>
        <time>2015-05-04T15:08:13Z</time>
      </trkpt>
      <trkpt lat="44.08797" lon="7.04241">
        <ele>1424</ele>
        <time>2015-05-04T15:09:46Z</time>
      </trkpt>
      <trkpt lat="44.088" lon="7.04236">
        <ele>1424</ele>
        <time>2015-05-04T15:12:26Z</time>
      </trkpt>
      <trkpt lat="44.08803" lon="7.04224">
        <ele>1424</ele>
        <time>2015-05-04T15:12:32Z</time>
      </trkpt>
      <trkpt lat="44.08807" lon="7.04216">
        <ele>1424</ele>
        <time>2015-05-04T15:12:36Z</time>
      </trkpt>
      <trkpt lat="44.08809" lon="7.04198">
        <ele>1425</ele>
        <time>2015-05-04T15:12:43Z</time>
      </trkpt>
      <trkpt lat="44.08821" lon="7.0417">
        <ele>1426</ele>
        <time>2015-05-04T15:12:54Z</time>
      </trkpt>
      <trkpt lat="44.08823" lon="7.04151">
        <ele>1428</ele>
        <time>2015-05-04T15:13:03Z</time>
      </trkpt>
      <trkpt lat="44.08822" lon="7.04139">
        <ele>1430</ele>
        <time>2015-05-04T15:13:09Z</time>
      </trkpt>
      <trkpt lat="44.08828" lon="7.04118">
        <ele>1430</ele>
        <time>2015-05-04T15:13:16Z</time>
      </trkpt>
      <trkpt lat="44.08834" lon="7.04101">
        <ele>1432</ele>
        <time>2015-05-04T15:13:22Z</time>
      </trkpt>
      <trkpt lat="44.08838" lon="7.04067">
        <ele>1434</ele>
        <time>2015-05-04T15:13:35Z</time>
      </trkpt>
      <trkpt lat="44.08848" lon="7.04039">
        <ele>1436</ele>
        <time>2015-05-04T15:13:48Z</time>
      </trkpt>
      <trkpt lat="44.08851" lon="7.04027">
        <ele>1436</ele>
        <time>2015-05-04T15:13:54Z</time>
      </trkpt>
      <trkpt lat="44.08862" lon="7.04005">
        <ele>1438</ele>
        <time>2015-05-04T15:14:03Z</time>
      </trkpt>
      <trkpt lat="44.08864" lon="7.0399">
        <ele>1438</ele>
        <time>2015-05-04T15:14:09Z</time>
      </trkpt>
      <trkpt lat="44.08869" lon="7.03976">
        <ele>1439</ele>
        <time>2015-05-04T15:14:14Z</time>
      </trkpt>
      <trkpt lat="44.08872" lon="7.03926">
        <ele>1442</ele>
        <time>2015-05-04T15:14:34Z</time>
      </trkpt>
      <trkpt lat="44.08873" lon="7.03889">
        <ele>1444</ele>
        <time>2015-05-04T15:14:46Z</time>
      </trkpt>
      <trkpt lat="44.08878" lon="7.03848">
        <ele>1447</ele>
        <time>2015-05-04T15:15:01Z</time>
      </trkpt>
      <trkpt lat="44.08883" lon="7.03836">
        <ele>1449</ele>
        <time>2015-05-04T15:15:05Z</time>
      </trkpt>
      <trkpt lat="44.0889" lon="7.0383">
        <ele>1449</ele>
        <time>2015-05-04T15:15:09Z</time>
      </trkpt>
      <trkpt lat="44.08898" lon="7.03834">
        <ele>1449</ele>
        <time>2015-05-04T15:15:13Z</time>
      </trkpt>
      <trkpt lat="44.08903" lon="7.03845">
        <ele>1449</ele>
        <time>2015-05-04T15:15:17Z</time>
      </trkpt>
      <trkpt lat="44.08906" lon="7.03873">
        <ele>1451</ele>
        <time>2015-05-04T15:15:26Z</time>
      </trkpt>
      <trkpt lat="44.08912" lon="7.03899">
        <ele>1453</ele>
        <time>2015-05-04T15:15:35Z</time>
      </trkpt>
      <trkpt lat="44.08922" lon="7.03912">
        <ele>1453</ele>
        <time>2015-05-04T15:15:42Z</time>
      </trkpt>
      <trkpt lat="44.08926" lon="7.03914">
        <ele>1453</ele>
        <time>2015-05-04T15:15:44Z</time>
      </trkpt>
      <trkpt lat="44.08954" lon="7.03918">
        <ele>1455</ele>
        <time>2015-05-04T15:15:57Z</time>
      </trkpt>
      <trkpt lat="44.08966" lon="7.03922">
        <ele>1457</ele>
        <time>2015-05-04T15:16:04Z</time>
      </trkpt>
      <trkpt lat="44.08976" lon="7.0392">
        <ele>1457</ele>
        <time>2015-05-04T15:16:09Z</time>
      </trkpt>
      <trkpt lat="44.08988" lon="7.03913">
        <ele>1459</ele>
        <time>2015-05-04T15:16:16Z</time>
      </trkpt>
      <trkpt lat="44.09001" lon="7.03901">
        <ele>1461</ele>
        <time>2015-05-04T15:16:24Z</time>
      </trkpt>
      <trkpt lat="44.09018" lon="7.03862">
        <ele>1463</ele>
        <time>2015-05-04T15:16:41Z</time>
      </trkpt>
      <trkpt lat="44.09033" lon="7.03836">
        <ele>1465</ele>
        <time>2015-05-04T15:16:53Z</time>
      </trkpt>
      <trkpt lat="44.09039" lon="7.0383">
        <ele>1466</ele>
        <time>2015-05-04T15:16:57Z</time>
      </trkpt>
      <trkpt lat="44.09056" lon="7.03809">
        <ele>1468</ele>
        <time>2015-05-04T15:17:09Z</time>
      </trkpt>
      <trkpt lat="44.09064" lon="7.03802">
        <ele>1469</ele>
        <time>2015-05-04T15:17:14Z</time>
      </trkpt>
      <trkpt lat="44.09076" lon="7.03776">
        <ele>1471</ele>
        <time>2015-05-04T15:17:27Z</time>
      </trkpt>
      <trkpt lat="44.09103" lon="7.0373">
        <ele>1474</ele>
        <time>2015-05-04T15:17:49Z</time>
      </trkpt>
      <trkpt lat="44.09108" lon="7.03726">
        <ele>1475</ele>
        <time>2015-05-04T15:17:52Z</time>
      </trkpt>
      <trkpt lat="44.09115" lon="7.03715">
        <ele>1475</ele>
        <time>2015-05-04T15:17:57Z</time>
      </trkpt>
      <trkpt lat="44.09126" lon="7.037">
        <ele>1477</ele>
        <time>2015-05-04T15:18:06Z</time>
      </trkpt>
      <trkpt lat="44.09135" lon="7.03692">
        <ele>1477</ele>
        <time>2015-05-04T15:18:12Z</time>
      </trkpt>
      <trkpt lat="44.09141" lon="7.03683">
        <ele>1478</ele>
        <time>2015-05-04T15:18:17Z</time>
      </trkpt>
      <trkpt lat="44.09159" lon="7.03666">
        <ele>1480</ele>
        <time>2015-05-04T15:18:30Z</time>
      </trkpt>
      <trkpt lat="44.09185" lon="7.03659">
        <ele>1483</ele>
        <time>2015-05-04T15:18:45Z</time>
      </trkpt>
      <trkpt lat="44.09203" lon="7.03647">
        <ele>1484</ele>
        <time>2015-05-04T15:18:55Z</time>
      </trkpt>
      <trkpt lat="44.09219" lon="7.03627">
        <ele>1486</ele>
        <time>2015-05-04T15:19:06Z</time>
      </trkpt>
      <trkpt lat="44.09234" lon="7.03603">
        <ele>1490</ele>
        <time>2015-05-04T15:19:21Z</time>
      </trkpt>
      <trkpt lat="44.09248" lon="7.03593">
        <ele>1491</ele>
        <time>2015-05-04T15:19:31Z</time>
      </trkpt>
      <trkpt lat="44.09276" lon="7.03576">
        <ele>1494</ele>
        <time>2015-05-04T15:19:47Z</time>
      </trkpt>
      <trkpt lat="44.093" lon="7.03554">
        <ele>1496</ele>
        <time>2015-05-04T15:20:02Z</time>
      </trkpt>
      <trkpt lat="44.09316" lon="7.03542">
        <ele>1497</ele>
        <time>2015-05-04T15:20:11Z</time>
      </trkpt>
      <trkpt lat="44.09325" lon="7.03532">
        <ele>1498</ele>
        <time>2015-05-04T15:20:17Z</time>
      </trkpt>
      <trkpt lat="44.09337" lon="7.03518">
        <ele>1498</ele>
        <time>2015-05-04T15:20:25Z</time>
      </trkpt>
      <trkpt lat="44.09342" lon="7.03507">
        <ele>1500</ele>
        <time>2015-05-04T15:20:30Z</time>
      </trkpt>
      <trkpt lat="44.09347" lon="7.03489">
        <ele>1500</ele>
        <time>2015-05-04T15:20:37Z</time>
      </trkpt>
      <trkpt lat="44.09344" lon="7.03479">
        <ele>1500</ele>
        <time>2015-05-04T15:20:41Z</time>
      </trkpt>
      <trkpt lat="44.09343" lon="7.03478">
        <ele>1500</ele>
        <time>2015-05-04T15:20:42Z</time>
      </trkpt>
      <trkpt lat="44.09338" lon="7.03478">
        <ele>1501</ele>
        <time>2015-05-04T15:20:44Z</time>
      </trkpt>
      <trkpt lat="44.09334" lon="7.03481">
        <ele>1502</ele>
        <time>2015-05-04T15:20:47Z</time>
      </trkpt>
      <trkpt lat="44.0932" lon="7.03501">
        <ele>1505</ele>
        <time>2015-05-04T15:20:59Z</time>
      </trkpt>
      <trkpt lat="44.09309" lon="7.03511">
        <ele>1505</ele>
        <time>2015-05-04T15:21:07Z</time>
      </trkpt>
      <trkpt lat="44.09295" lon="7.03516">
        <ele>1507</ele>
        <time>2015-05-04T15:21:14Z</time>
      </trkpt>
      <trkpt lat="44.09281" lon="7.03519">
        <ele>1508</ele>
        <time>2015-05-04T15:21:21Z</time>
      </trkpt>
      <trkpt lat="44.09249" lon="7.03536">
        <ele>1509</ele>
        <time>2015-05-04T15:21:36Z</time>
      </trkpt>
      <trkpt lat="44.09221" lon="7.03548">
        <ele>1511</ele>
        <time>2015-05-04T15:21:50Z</time>
      </trkpt>
      <trkpt lat="44.09181" lon="7.03555">
        <ele>1515</ele>
        <time>2015-05-04T15:22:12Z</time>
      </trkpt>
      <trkpt lat="44.09167" lon="7.03554">
        <ele>1516</ele>
        <time>2015-05-04T15:22:19Z</time>
      </trkpt>
      <trkpt lat="44.09155" lon="7.03546">
        <ele>1517</ele>
        <time>2015-05-04T15:22:26Z</time>
      </trkpt>
      <trkpt lat="44.0915" lon="7.03532">
        <ele>1517</ele>
        <time>2015-05-04T15:22:32Z</time>
      </trkpt>
      <trkpt lat="44.0915" lon="7.03524">
        <ele>1518</ele>
        <time>2015-05-04T15:22:35Z</time>
      </trkpt>
      <trkpt lat="44.0915" lon="7.03511">
        <ele>1519</ele>
        <time>2015-05-04T15:22:40Z</time>
      </trkpt>
      <trkpt lat="44.09154" lon="7.03496">
        <ele>1520</ele>
        <time>2015-05-04T15:22:46Z</time>
      </trkpt>
      <trkpt lat="44.09164" lon="7.03467">
        <ele>1522</ele>
        <time>2015-05-04T15:22:58Z</time>
      </trkpt>
      <trkpt lat="44.09166" lon="7.03459">
        <ele>1523</ele>
        <time>2015-05-04T15:23:01Z</time>
      </trkpt>
      <trkpt lat="44.09166" lon="7.03439">
        <ele>1524</ele>
        <time>2015-05-04T15:23:09Z</time>
      </trkpt>
      <trkpt lat="44.09162" lon="7.03429">
        <ele>1525</ele>
        <time>2015-05-04T15:23:13Z</time>
      </trkpt>
      <trkpt lat="44.09144" lon="7.03414">
        <ele>1526</ele>
        <time>2015-05-04T15:23:23Z</time>
      </trkpt>
      <trkpt lat="44.09118" lon="7.03401">
        <ele>1529</ele>
        <time>2015-05-04T15:23:36Z</time>
      </trkpt>
      <trkpt lat="44.091" lon="7.03395">
        <ele>1529</ele>
        <time>2015-05-04T15:23:45Z</time>
      </trkpt>
      <trkpt lat="44.0908" lon="7.03392">
        <ele>1532</ele>
        <time>2015-05-04T15:23:55Z</time>
      </trkpt>
      <trkpt lat="44.09058" lon="7.03385">
        <ele>1532</ele>
        <time>2015-05-04T15:24:06Z</time>
      </trkpt>
      <trkpt lat="44.09054" lon="7.03381">
        <ele>1532</ele>
        <time>2015-05-04T15:24:08Z</time>
      </trkpt>
      <trkpt lat="44.09053" lon="7.03374">
        <ele>1533</ele>
        <time>2015-05-04T15:24:10Z</time>
      </trkpt>
      <trkpt lat="44.09053" lon="7.03372">
        <ele>1534</ele>
        <time>2015-05-04T15:24:11Z</time>
      </trkpt>
      <trkpt lat="44.09061" lon="7.03369">
        <ele>1534</ele>
        <time>2015-05-04T15:24:15Z</time>
      </trkpt>
      <trkpt lat="44.09082" lon="7.0336">
        <ele>1535</ele>
        <time>2015-05-04T15:24:25Z</time>
      </trkpt>
      <trkpt lat="44.091" lon="7.03345">
        <ele>1536</ele>
        <time>2015-05-04T15:24:35Z</time>
      </trkpt>
      <trkpt lat="44.09114" lon="7.03325">
        <ele>1538</ele>
        <time>2015-05-04T15:24:46Z</time>
      </trkpt>
      <trkpt lat="44.09139" lon="7.03298">
        <ele>1542</ele>
        <time>2015-05-04T15:25:03Z</time>
      </trkpt>
      <trkpt lat="44.09147" lon="7.03283">
        <ele>1542</ele>
        <time>2015-05-04T15:25:11Z</time>
      </trkpt>
      <trkpt lat="44.0916" lon="7.03265">
        <ele>1544</ele>
        <time>2015-05-04T15:25:21Z</time>
      </trkpt>
      <trkpt lat="44.09197" lon="7.03224">
        <ele>1549</ele>
        <time>2015-05-04T15:25:47Z</time>
      </trkpt>
      <trkpt lat="44.09206" lon="7.03208">
        <ele>1549</ele>
        <time>2015-05-04T15:25:55Z</time>
      </trkpt>
      <trkpt lat="44.09214" lon="7.03198">
        <ele>1551</ele>
        <time>2015-05-04T15:26:01Z</time>
      </trkpt>
      <trkpt lat="44.09237" lon="7.0318">
        <ele>1553</ele>
        <time>2015-05-04T15:26:16Z</time>
      </trkpt>
      <trkpt lat="44.09256" lon="7.03145">
        <ele>1556</ele>
        <time>2015-05-04T15:26:34Z</time>
      </trkpt>
      <trkpt lat="44.09271" lon="7.03108">
        <ele>1559</ele>
        <time>2015-05-04T15:26:52Z</time>
      </trkpt>
      <trkpt lat="44.09278" lon="7.03086">
        <ele>1561</ele>
        <time>2015-05-04T15:27:02Z</time>
      </trkpt>
      <trkpt lat="44.09281" lon="7.03067">
        <ele>1561</ele>
        <time>2015-05-04T15:27:11Z</time>
      </trkpt>
      <trkpt lat="44.09288" lon="7.03042">
        <ele>1563</ele>
        <time>2015-05-04T15:27:22Z</time>
      </trkpt>
      <trkpt lat="44.09292" lon="7.03016">
        <ele>1565</ele>
        <time>2015-05-04T15:27:34Z</time>
      </trkpt>
      <trkpt lat="44.09299" lon="7.02996">
        <ele>1567</ele>
        <time>2015-05-04T15:27:42Z</time>
      </trkpt>
      <trkpt lat="44.09301" lon="7.02946">
        <ele>1569</ele>
        <time>2015-05-04T15:28:02Z</time>
      </trkpt>
      <trkpt lat="44.09298" lon="7.02895">
        <ele>1573</ele>
        <time>2015-05-04T15:28:23Z</time>
      </trkpt>
      <trkpt lat="44.09293" lon="7.02868">
        <ele>1575</ele>
        <time>2015-05-04T15:28:35Z</time>
      </trkpt>
      <trkpt lat="44.09293" lon="7.02845">
        <ele>1576</ele>
        <time>2015-05-04T15:28:45Z</time>
      </trkpt>
      <trkpt lat="44.09297" lon="7.02828">
        <ele>1578</ele>
        <time>2015-05-04T15:28:52Z</time>
      </trkpt>
      <trkpt lat="44.09302" lon="7.02785">
        <ele>1581</ele>
        <time>2015-05-04T15:29:09Z</time>
      </trkpt>
      <trkpt lat="44.09311" lon="7.02742">
        <ele>1584</ele>
        <time>2015-05-04T15:29:28Z</time>
      </trkpt>
      <trkpt lat="44.09315" lon="7.02689">
        <ele>1588</ele>
        <time>2015-05-04T15:29:50Z</time>
      </trkpt>
      <trkpt lat="44.09314" lon="7.0264">
        <ele>1591</ele>
        <time>2015-05-04T15:30:11Z</time>
      </trkpt>
      <trkpt lat="44.09319" lon="7.02609">
        <ele>1593</ele>
        <time>2015-05-04T15:30:25Z</time>
      </trkpt>
      <trkpt lat="44.09323" lon="7.02603">
        <ele>1594</ele>
        <time>2015-05-04T15:30:30Z</time>
      </trkpt>
      <trkpt lat="44.09333" lon="7.02605">
        <ele>1595</ele>
        <time>2015-05-04T15:30:36Z</time>
      </trkpt>
      <trkpt lat="44.09337" lon="7.02608">
        <ele>1596</ele>
        <time>2015-05-04T15:30:38Z</time>
      </trkpt>
      <trkpt lat="44.09341" lon="7.02609">
        <ele>1597</ele>
        <time>2015-05-04T15:30:40Z</time>
      </trkpt>
      <trkpt lat="44.0936" lon="7.02619">
        <ele>1598</ele>
        <time>2015-05-04T15:30:50Z</time>
      </trkpt>
      <trkpt lat="44.09367" lon="7.02626">
        <ele>1599</ele>
        <time>2015-05-04T15:30:55Z</time>
      </trkpt>
      <trkpt lat="44.09379" lon="7.02632">
        <ele>1599</ele>
        <time>2015-05-04T15:31:03Z</time>
      </trkpt>
      <trkpt lat="44.09405" lon="7.02641">
        <ele>1602</ele>
        <time>2015-05-04T15:31:20Z</time>
      </trkpt>
      <trkpt lat="44.09421" lon="7.02641">
        <ele>1603</ele>
        <time>2015-05-04T15:31:30Z</time>
      </trkpt>
      <trkpt lat="44.09445" lon="7.02638">
        <ele>1605</ele>
        <time>2015-05-04T15:31:42Z</time>
      </trkpt>
      <trkpt lat="44.09471" lon="7.0262">
        <ele>1608</ele>
        <time>2015-05-04T15:31:57Z</time>
      </trkpt>
      <trkpt lat="44.09511" lon="7.0257">
        <ele>1613</ele>
        <time>2015-05-04T15:32:26Z</time>
      </trkpt>
      <trkpt lat="44.09521" lon="7.02555">
        <ele>1616</ele>
        <time>2015-05-04T15:32:34Z</time>
      </trkpt>
      <trkpt lat="44.09538" lon="7.0254">
        <ele>1617</ele>
        <time>2015-05-04T15:32:45Z</time>
      </trkpt>
      <trkpt lat="44.09553" lon="7.02515">
        <ele>1619</ele>
        <time>2015-05-04T15:32:58Z</time>
      </trkpt>
      <trkpt lat="44.0957" lon="7.02485">
        <ele>1622</ele>
        <time>2015-05-04T15:33:13Z</time>
      </trkpt>
      <trkpt lat="44.09584" lon="7.02473">
        <ele>1623</ele>
        <time>2015-05-04T15:33:23Z</time>
      </trkpt>
      <trkpt lat="44.09591" lon="7.0247">
        <ele>1624</ele>
        <time>2015-05-04T15:33:27Z</time>
      </trkpt>
      <trkpt lat="44.09607" lon="7.02467">
        <ele>1625</ele>
        <time>2015-05-04T15:33:35Z</time>
      </trkpt>
      <trkpt lat="44.09618" lon="7.02461">
        <ele>1626</ele>
        <time>2015-05-04T15:33:41Z</time>
      </trkpt>
      <trkpt lat="44.09642" lon="7.02433">
        <ele>1629</ele>
        <time>2015-05-04T15:33:59Z</time>
      </trkpt>
      <trkpt lat="44.09655" lon="7.02411">
        <ele>1631</ele>
        <time>2015-05-04T15:34:12Z</time>
      </trkpt>
      <trkpt lat="44.0968" lon="7.02384">
        <ele>1635</ele>
        <time>2015-05-04T15:34:32Z</time>
      </trkpt>
      <trkpt lat="44.09693" lon="7.02366">
        <ele>1635</ele>
        <time>2015-05-04T15:34:44Z</time>
      </trkpt>
      <trkpt lat="44.097" lon="7.02353">
        <ele>1637</ele>
        <time>2015-05-04T15:34:52Z</time>
      </trkpt>
      <trkpt lat="44.09708" lon="7.02331">
        <ele>1639</ele>
        <time>2015-05-04T15:35:03Z</time>
      </trkpt>
      <trkpt lat="44.09712" lon="7.02303">
        <ele>1641</ele>
        <time>2015-05-04T15:35:16Z</time>
      </trkpt>
      <trkpt lat="44.09716" lon="7.02298">
        <ele>1641</ele>
        <time>2015-05-04T15:35:20Z</time>
      </trkpt>
      <trkpt lat="44.09725" lon="7.02294">
        <ele>1642</ele>
        <time>2015-05-04T15:35:26Z</time>
      </trkpt>
      <trkpt lat="44.09737" lon="7.02293">
        <ele>1643</ele>
        <time>2015-05-04T15:35:33Z</time>
      </trkpt>
      <trkpt lat="44.09759" lon="7.023">
        <ele>1645</ele>
        <time>2015-05-04T15:35:46Z</time>
      </trkpt>
      <trkpt lat="44.09768" lon="7.02299">
        <ele>1645</ele>
        <time>2015-05-04T15:35:52Z</time>
      </trkpt>
      <trkpt lat="44.09779" lon="7.02295">
        <ele>1647</ele>
        <time>2015-05-04T15:35:59Z</time>
      </trkpt>
      <trkpt lat="44.098" lon="7.02282">
        <ele>1650</ele>
        <time>2015-05-04T15:36:13Z</time>
      </trkpt>
      <trkpt lat="44.09813" lon="7.02276">
        <ele>1650</ele>
        <time>2015-05-04T15:36:22Z</time>
      </trkpt>
      <trkpt lat="44.09822" lon="7.02281">
        <ele>1652</ele>
        <time>2015-05-04T15:36:28Z</time>
      </trkpt>
      <trkpt lat="44.09837" lon="7.02299">
        <ele>1654</ele>
        <time>2015-05-04T15:36:39Z</time>
      </trkpt>
      <trkpt lat="44.09851" lon="7.02312">
        <ele>1654</ele>
        <time>2015-05-04T15:36:48Z</time>
      </trkpt>
      <trkpt lat="44.0989" lon="7.02317">
        <ele>1658</ele>
        <time>2015-05-04T15:37:09Z</time>
      </trkpt>
      <trkpt lat="44.09902" lon="7.02322">
        <ele>1658</ele>
        <time>2015-05-04T15:37:15Z</time>
      </trkpt>
      <trkpt lat="44.09917" lon="7.02339">
        <ele>1660</ele>
        <time>2015-05-04T15:37:25Z</time>
      </trkpt>
      <trkpt lat="44.0992" lon="7.02341">
        <ele>1660</ele>
        <time>2015-05-04T15:37:27Z</time>
      </trkpt>
      <trkpt lat="44.09937" lon="7.02347">
        <ele>1660</ele>
        <time>2015-05-04T15:37:35Z</time>
      </trkpt>
      <trkpt lat="44.09955" lon="7.02343">
        <ele>1662</ele>
        <time>2015-05-04T15:37:43Z</time>
      </trkpt>
      <trkpt lat="44.09992" lon="7.02329">
        <ele>1664</ele>
        <time>2015-05-04T15:38:00Z</time>
      </trkpt>
      <trkpt lat="44.1001" lon="7.0232">
        <ele>1666</ele>
        <time>2015-05-04T15:38:09Z</time>
      </trkpt>
      <trkpt lat="44.10018" lon="7.02319">
        <ele>1666</ele>
        <time>2015-05-04T15:38:14Z</time>
      </trkpt>
      <trkpt lat="44.10027" lon="7.02312">
        <ele>1668</ele>
        <time>2015-05-04T15:39:56Z</time>
      </trkpt>
      <trkpt lat="44.10029" lon="7.02307">
        <ele>1668</ele>
        <time>2015-05-04T15:40:19Z</time>
      </trkpt>
      <trkpt lat="44.10035" lon="7.02299">
        <ele>1668</ele>
        <time>2015-05-04T15:40:24Z</time>
      </trkpt>
      <trkpt lat="44.10041" lon="7.02294">
        <ele>1668</ele>
        <time>2015-05-04T15:40:27Z</time>
      </trkpt>
      <trkpt lat="44.10073" lon="7.02271">
        <ele>1666</ele>
        <time>2015-05-04T15:40:36Z</time>
      </trkpt>
      <trkpt lat="44.10115" lon="7.02247">
        <ele>1662</ele>
        <time>2015-05-04T15:40:42Z</time>
      </trkpt>
      <trkpt lat="44.10122" lon="7.0224">
        <ele>1661</ele>
        <time>2015-05-04T15:40:43Z</time>
      </trkpt>
      <trkpt lat="44.10128" lon="7.02231">
        <ele>1660</ele>
        <time>2015-05-04T15:40:44Z</time>
      </trkpt>
      <trkpt lat="44.10138" lon="7.02212">
        <ele>1658</ele>
        <time>2015-05-04T15:40:46Z</time>
      </trkpt>
      <trkpt lat="44.10149" lon="7.02198">
        <ele>1656</ele>
        <time>2015-05-04T15:40:48Z</time>
      </trkpt>
      <trkpt lat="44.10167" lon="7.02192">
        <ele>1654</ele>
        <time>2015-05-04T15:40:50Z</time>
      </trkpt>
      <trkpt lat="44.10197" lon="7.02186">
        <ele>1652</ele>
        <time>2015-05-04T15:40:53Z</time>
      </trkpt>
      <trkpt lat="44.10216" lon="7.02178">
        <ele>1651</ele>
        <time>2015-05-04T15:40:55Z</time>
      </trkpt>
      <trkpt lat="44.10253" lon="7.02157">
        <ele>1648</ele>
        <time>2015-05-04T15:40:59Z</time>
      </trkpt>
      <trkpt lat="44.10261" lon="7.02152">
        <ele>1647</ele>
        <time>2015-05-04T15:41:00Z</time>
      </trkpt>
      <trkpt lat="44.10266" lon="7.02143">
        <ele>1646</ele>
        <time>2015-05-04T15:41:01Z</time>
      </trkpt>
      <trkpt lat="44.1027" lon="7.02134">
        <ele>1646</ele>
        <time>2015-05-04T15:41:02Z</time>
      </trkpt>
      <trkpt lat="44.10271" lon="7.02123">
        <ele>1645</ele>
        <time>2015-05-04T15:41:03Z</time>
      </trkpt>
      <trkpt lat="44.1027" lon="7.02101">
        <ele>1644</ele>
        <time>2015-05-04T15:41:05Z</time>
      </trkpt>
      <trkpt lat="44.10267" lon="7.02091">
        <ele>1644</ele>
        <time>2015-05-04T15:41:06Z</time>
      </trkpt>
      <trkpt lat="44.10263" lon="7.02084">
        <ele>1643</ele>
        <time>2015-05-04T15:41:07Z</time>
      </trkpt>
      <trkpt lat="44.10251" lon="7.02075">
        <ele>1642</ele>
        <time>2015-05-04T15:41:09Z</time>
      </trkpt>
      <trkpt lat="44.10239" lon="7.02075">
        <ele>1641</ele>
        <time>2015-05-04T15:41:10Z</time>
      </trkpt>
      <trkpt lat="44.1023" lon="7.02072">
        <ele>1640</ele>
        <time>2015-05-04T15:41:11Z</time>
      </trkpt>
      <trkpt lat="44.10205" lon="7.02074">
        <ele>1639</ele>
        <time>2015-05-04T15:41:13Z</time>
      </trkpt>
      <trkpt lat="44.10183" lon="7.02074">
        <ele>1637</ele>
        <time>2015-05-04T15:41:15Z</time>
      </trkpt>
      <trkpt lat="44.10173" lon="7.0207">
        <ele>1636</ele>
        <time>2015-05-04T15:41:16Z</time>
      </trkpt>
      <trkpt lat="44.10156" lon="7.02057">
        <ele>1634</ele>
        <time>2015-05-04T15:41:18Z</time>
      </trkpt>
      <trkpt lat="44.1014" lon="7.02038">
        <ele>1633</ele>
        <time>2015-05-04T15:41:20Z</time>
      </trkpt>
      <trkpt lat="44.10133" lon="7.02027">
        <ele>1632</ele>
        <time>2015-05-04T15:41:21Z</time>
      </trkpt>
      <trkpt lat="44.10111" lon="7.01973">
        <ele>1628</ele>
        <time>2015-05-04T15:41:25Z</time>
      </trkpt>
      <trkpt lat="44.10088" lon="7.01934">
        <ele>1625</ele>
        <time>2015-05-04T15:41:28Z</time>
      </trkpt>
      <trkpt lat="44.10071" lon="7.01909">
        <ele>1623</ele>
        <time>2015-05-04T15:41:30Z</time>
      </trkpt>
      <trkpt lat="44.10053" lon="7.01886">
        <ele>1621</ele>
        <time>2015-05-04T15:41:32Z</time>
      </trkpt>
      <trkpt lat="44.10042" lon="7.01875">
        <ele>1620</ele>
        <time>2015-05-04T15:41:33Z</time>
      </trkpt>
      <trkpt lat="44.1003" lon="7.01866">
        <ele>1619</ele>
        <time>2015-05-04T15:41:34Z</time>
      </trkpt>
      <trkpt lat="44.10017" lon="7.01859">
        <ele>1618</ele>
        <time>2015-05-04T15:41:35Z</time>
      </trkpt>
      <trkpt lat="44.10004" lon="7.01855">
        <ele>1617</ele>
        <time>2015-05-04T15:41:36Z</time>
      </trkpt>
      <trkpt lat="44.09993" lon="7.01847">
        <ele>1616</ele>
        <time>2015-05-04T15:41:37Z</time>
      </trkpt>
      <trkpt lat="44.09982" lon="7.01839">
        <ele>1615</ele>
        <time>2015-05-04T15:41:38Z</time>
      </trkpt>
      <trkpt lat="44.09953" lon="7.01807">
        <ele>1613</ele>
        <time>2015-05-04T15:41:41Z</time>
      </trkpt>
      <trkpt lat="44.09942" lon="7.01799">
        <ele>1613</ele>
        <time>2015-05-04T15:41:42Z</time>
      </trkpt>
      <trkpt lat="44.09902" lon="7.01773">
        <ele>1613</ele>
        <time>2015-05-04T15:41:46Z</time>
      </trkpt>
      <trkpt lat="44.09875" lon="7.01752">
        <ele>1611</ele>
        <time>2015-05-04T15:41:49Z</time>
      </trkpt>
      <trkpt lat="44.09825" lon="7.01697">
        <ele>1614</ele>
        <time>2015-05-04T15:41:56Z</time>
      </trkpt>
      <trkpt lat="44.09795" lon="7.01659">
        <ele>1614</ele>
        <time>2015-05-04T15:42:01Z</time>
      </trkpt>
      <trkpt lat="44.09783" lon="7.01619">
        <ele>1614</ele>
        <time>2015-05-04T15:42:05Z</time>
      </trkpt>
      <trkpt lat="44.09764" lon="7.01542">
        <ele>1613</ele>
        <time>2015-05-04T15:42:13Z</time>
      </trkpt>
      <trkpt lat="44.09752" lon="7.01485">
        <ele>1612</ele>
        <time>2015-05-04T15:42:19Z</time>
      </trkpt>
      <trkpt lat="44.09737" lon="7.01365">
        <ele>1612</ele>
        <time>2015-05-04T15:42:32Z</time>
      </trkpt>
      <trkpt lat="44.09723" lon="7.01312">
        <ele>1612</ele>
        <time>2015-05-04T15:42:38Z</time>
      </trkpt>
      <trkpt lat="44.09696" lon="7.0126">
        <ele>1612</ele>
        <time>2015-05-04T15:42:45Z</time>
      </trkpt>
      <trkpt lat="44.09677" lon="7.0121">
        <ele>1611</ele>
        <time>2015-05-04T15:42:51Z</time>
      </trkpt>
      <trkpt lat="44.09663" lon="7.01159">
        <ele>1609</ele>
        <time>2015-05-04T15:42:57Z</time>
      </trkpt>
      <trkpt lat="44.0966" lon="7.01151">
        <ele>1609</ele>
        <time>2015-05-04T15:42:58Z</time>
      </trkpt>
      <trkpt lat="44.09623" lon="7.01078">
        <ele>1609</ele>
        <time>2015-05-04T15:43:08Z</time>
      </trkpt>
      <trkpt lat="44.09611" lon="7.01047">
        <ele>1608</ele>
        <time>2015-05-04T15:43:12Z</time>
      </trkpt>
      <trkpt lat="44.09598" lon="7.01007">
        <ele>1607</ele>
        <time>2015-05-04T15:43:17Z</time>
      </trkpt>
      <trkpt lat="44.09577" lon="7.0092">
        <ele>1607</ele>
        <time>2015-05-04T15:43:27Z</time>
      </trkpt>
      <trkpt lat="44.0957" lon="7.00904">
        <ele>1607</ele>
        <time>2015-05-04T15:43:29Z</time>
      </trkpt>
      <trkpt lat="44.09519" lon="7.00812">
        <ele>1605</ele>
        <time>2015-05-04T15:43:42Z</time>
      </trkpt>
      <trkpt lat="44.09499" lon="7.00755">
        <ele>1605</ele>
        <time>2015-05-04T15:43:49Z</time>
      </trkpt>
      <trkpt lat="44.09482" lon="7.00715">
        <ele>1605</ele>
        <time>2015-05-04T15:43:54Z</time>
      </trkpt>
      <trkpt lat="44.09457" lon="7.00683">
        <ele>1604</ele>
        <time>2015-05-04T15:43:59Z</time>
      </trkpt>
      <trkpt lat="44.09443" lon="7.00662">
        <ele>1603</ele>
        <time>2015-05-04T15:44:02Z</time>
      </trkpt>
      <trkpt lat="44.09425" lon="7.00633">
        <ele>1602</ele>
        <time>2015-05-04T15:44:06Z</time>
      </trkpt>
      <trkpt lat="44.0938" lon="7.00554">
        <ele>1601</ele>
        <time>2015-05-04T15:44:17Z</time>
      </trkpt>
      <trkpt lat="44.09344" lon="7.00462">
        <ele>1601</ele>
        <time>2015-05-04T15:44:29Z</time>
      </trkpt>
      <trkpt lat="44.0934" lon="7.00446">
        <ele>1601</ele>
        <time>2015-05-04T15:44:31Z</time>
      </trkpt>
      <trkpt lat="44.09335" lon="7.00421">
        <ele>1600</ele>
        <time>2015-05-04T15:44:34Z</time>
      </trkpt>
      <trkpt lat="44.09329" lon="7.00405">
        <ele>1599</ele>
        <time>2015-05-04T15:44:36Z</time>
      </trkpt>
      <trkpt lat="44.09321" lon="7.00392">
        <ele>1599</ele>
        <time>2015-05-04T15:44:38Z</time>
      </trkpt>
      <trkpt lat="44.09293" lon="7.00361">
        <ele>1599</ele>
        <time>2015-05-04T15:44:44Z</time>
      </trkpt>
      <trkpt lat="44.0928" lon="7.00341">
        <ele>1599</ele>
        <time>2015-05-04T15:44:47Z</time>
      </trkpt>
      <trkpt lat="44.09238" lon="7.0027">
        <ele>1597</ele>
        <time>2015-05-04T15:44:58Z</time>
      </trkpt>
      <trkpt lat="44.09235" lon="7.00263">
        <ele>1597</ele>
        <time>2015-05-04T15:44:59Z</time>
      </trkpt>
      <trkpt lat="44.09234" lon="7.00246">
        <ele>1596</ele>
        <time>2015-05-04T15:45:01Z</time>
      </trkpt>
      <trkpt lat="44.09237" lon="7.00229">
        <ele>1595</ele>
        <time>2015-05-04T15:45:03Z</time>
      </trkpt>
      <trkpt lat="44.0924" lon="7.00222">
        <ele>1595</ele>
        <time>2015-05-04T15:45:04Z</time>
      </trkpt>
      <trkpt lat="44.09253" lon="7.002">
        <ele>1595</ele>
        <time>2015-05-04T15:45:07Z</time>
      </trkpt>
      <trkpt lat="44.09263" lon="7.00187">
        <ele>1595</ele>
        <time>2015-05-04T15:45:09Z</time>
      </trkpt>
      <trkpt lat="44.09287" lon="7.00166">
        <ele>1594</ele>
        <time>2015-05-04T15:45:13Z</time>
      </trkpt>
      <trkpt lat="44.09341" lon="7.00124">
        <ele>1592</ele>
        <time>2015-05-04T15:45:22Z</time>
      </trkpt>
      <trkpt lat="44.09354" lon="7.00117">
        <ele>1591</ele>
        <time>2015-05-04T15:45:24Z</time>
      </trkpt>
      <trkpt lat="44.09369" lon="7.00112">
        <ele>1590</ele>
        <time>2015-05-04T15:45:26Z</time>
      </trkpt>
      <trkpt lat="44.09376" lon="7.00112">
        <ele>1590</ele>
        <time>2015-05-04T15:45:27Z</time>
      </trkpt>
      <trkpt lat="44.09414" lon="7.00114">
        <ele>1589</ele>
        <time>2015-05-04T15:45:32Z</time>
      </trkpt>
      <trkpt lat="44.09453" lon="7.00124">
        <ele>1587</ele>
        <time>2015-05-04T15:45:37Z</time>
      </trkpt>
      <trkpt lat="44.09462" lon="7.00124">
        <ele>1587</ele>
        <time>2015-05-04T15:45:38Z</time>
      </trkpt>
      <trkpt lat="44.09478" lon="7.0012">
        <ele>1586</ele>
        <time>2015-05-04T15:45:40Z</time>
      </trkpt>
      <trkpt lat="44.09494" lon="7.00112">
        <ele>1586</ele>
        <time>2015-05-04T15:45:42Z</time>
      </trkpt>
      <trkpt lat="44.09517" lon="7.00103">
        <ele>1586</ele>
        <time>2015-05-04T15:45:45Z</time>
      </trkpt>
      <trkpt lat="44.09525" lon="7.00103">
        <ele>1586</ele>
        <time>2015-05-04T15:45:46Z</time>
      </trkpt>
      <trkpt lat="44.09541" lon="7.00107">
        <ele>1586</ele>
        <time>2015-05-04T15:45:48Z</time>
      </trkpt>
      <trkpt lat="44.09548" lon="7.00111">
        <ele>1585</ele>
        <time>2015-05-04T15:45:49Z</time>
      </trkpt>
      <trkpt lat="44.09616" lon="7.00149">
        <ele>1584</ele>
        <time>2015-05-04T15:45:58Z</time>
      </trkpt>
      <trkpt lat="44.09631" lon="7.00156">
        <ele>1583</ele>
        <time>2015-05-04T15:46:00Z</time>
      </trkpt>
      <trkpt lat="44.09689" lon="7.0017">
        <ele>1580</ele>
        <time>2015-05-04T15:46:07Z</time>
      </trkpt>
      <trkpt lat="44.09704" lon="7.00176">
        <ele>1580</ele>
        <time>2015-05-04T15:46:09Z</time>
      </trkpt>
      <trkpt lat="44.09753" lon="7.0022">
        <ele>1579</ele>
        <time>2015-05-04T15:46:16Z</time>
      </trkpt>
      <trkpt lat="44.09802" lon="7.0026">
        <ele>1575</ele>
        <time>2015-05-04T15:46:23Z</time>
      </trkpt>
      <trkpt lat="44.09895" lon="7.00343">
        <ele>1575</ele>
        <time>2015-05-04T15:46:36Z</time>
      </trkpt>
      <trkpt lat="44.09916" lon="7.00367">
        <ele>1574</ele>
        <time>2015-05-04T15:46:39Z</time>
      </trkpt>
      <trkpt lat="44.09943" lon="7.00405">
        <ele>1572</ele>
        <time>2015-05-04T15:46:43Z</time>
      </trkpt>
      <trkpt lat="44.10058" lon="7.0052">
        <ele>1568</ele>
        <time>2015-05-04T15:46:58Z</time>
      </trkpt>
      <trkpt lat="44.10075" lon="7.00533">
        <ele>1568</ele>
        <time>2015-05-04T15:47:00Z</time>
      </trkpt>
      <trkpt lat="44.10131" lon="7.0057">
        <ele>1568</ele>
        <time>2015-05-04T15:47:06Z</time>
      </trkpt>
      <trkpt lat="44.10161" lon="7.00586">
        <ele>1566</ele>
        <time>2015-05-04T15:47:09Z</time>
      </trkpt>
      <trkpt lat="44.1017" lon="7.00589">
        <ele>1566</ele>
        <time>2015-05-04T15:47:10Z</time>
      </trkpt>
      <trkpt lat="44.10177" lon="7.00589">
        <ele>1565</ele>
        <time>2015-05-04T15:47:11Z</time>
      </trkpt>
      <trkpt lat="44.1019" lon="7.00578">
        <ele>1565</ele>
        <time>2015-05-04T15:47:13Z</time>
      </trkpt>
      <trkpt lat="44.102" lon="7.00546">
        <ele>1565</ele>
        <time>2015-05-04T15:47:16Z</time>
      </trkpt>
      <trkpt lat="44.10204" lon="7.00517">
        <ele>1563</ele>
        <time>2015-05-04T15:47:19Z</time>
      </trkpt>
      <trkpt lat="44.10193" lon="7.00519">
        <ele>1563</ele>
        <time>2015-05-04T15:47:20Z</time>
      </trkpt>
      <trkpt lat="44.10183" lon="7.00507">
        <ele>1564</ele>
        <time>2015-05-04T15:47:24Z</time>
      </trkpt>
      <trkpt lat="44.10165" lon="7.00502">
        <ele>1564</ele>
        <time>2015-05-04T15:47:25Z</time>
      </trkpt>
      <trkpt lat="44.10157" lon="7.00497">
        <ele>1565</ele>
        <time>2015-05-04T15:47:26Z</time>
      </trkpt>
      <trkpt lat="44.10133" lon="7.00471">
        <ele>1565</ele>
        <time>2015-05-04T15:47:31Z</time>
      </trkpt>
      <trkpt lat="44.10119" lon="7.00443">
        <ele>1565</ele>
        <time>2015-05-04T15:47:36Z</time>
      </trkpt>
      <trkpt lat="44.10097" lon="7.0038">
        <ele>1567</ele>
        <time>2015-05-04T15:47:48Z</time>
      </trkpt>
      <trkpt lat="44.10088" lon="7.0035">
        <ele>1567</ele>
        <time>2015-05-04T15:47:54Z</time>
      </trkpt>
      <trkpt lat="44.10071" lon="7.00286">
        <ele>1567</ele>
        <time>2015-05-04T15:48:06Z</time>
      </trkpt>
      <trkpt lat="44.10059" lon="7.00224">
        <ele>1569</ele>
        <time>2015-05-04T15:48:17Z</time>
      </trkpt>
      <trkpt lat="44.10042" lon="7.00174">
        <ele>1571</ele>
        <time>2015-05-04T15:48:27Z</time>
      </trkpt>
      <trkpt lat="44.10032" lon="7.00124">
        <ele>1572</ele>
        <time>2015-05-04T15:48:36Z</time>
      </trkpt>
      <trkpt lat="44.10015" lon="7.00083">
        <ele>1572</ele>
        <time>2015-05-04T15:48:44Z</time>
      </trkpt>
      <trkpt lat="44.09993" lon="7.00045">
        <ele>1572</ele>
        <time>2015-05-04T15:48:52Z</time>
      </trkpt>
      <trkpt lat="44.09964" lon="6.99999">
        <ele>1572</ele>
        <time>2015-05-04T15:49:02Z</time>
      </trkpt>
      <trkpt lat="44.09939" lon="6.99953">
        <ele>1574</ele>
        <time>2015-05-04T15:49:11Z</time>
      </trkpt>
      <trkpt lat="44.09912" lon="6.99882">
        <ele>1571</ele>
        <time>2015-05-04T15:49:20Z</time>
      </trkpt>
      <trkpt lat="44.09898" lon="6.99851">
        <ele>1569</ele>
        <time>2015-05-04T15:49:23Z</time>
      </trkpt>
      <trkpt lat="44.09876" lon="6.99823">
        <ele>1567</ele>
        <time>2015-05-04T15:49:26Z</time>
      </trkpt>
      <trkpt lat="44.09834" lon="6.99775">
        <ele>1562</ele>
        <time>2015-05-04T15:49:31Z</time>
      </trkpt>
      <trkpt lat="44.09814" lon="6.99757">
        <ele>1560</ele>
        <time>2015-05-04T15:49:33Z</time>
      </trkpt>
      <trkpt lat="44.09804" lon="6.9975">
        <ele>1558</ele>
        <time>2015-05-04T15:49:34Z</time>
      </trkpt>
      <trkpt lat="44.09784" lon="6.9974">
        <ele>1555</ele>
        <time>2015-05-04T15:49:36Z</time>
      </trkpt>
      <trkpt lat="44.09776" lon="6.99733">
        <ele>1554</ele>
        <time>2015-05-04T15:49:37Z</time>
      </trkpt>
      <trkpt lat="44.09763" lon="6.9971">
        <ele>1551</ele>
        <time>2015-05-04T15:49:39Z</time>
      </trkpt>
      <trkpt lat="44.09754" lon="6.99687">
        <ele>1549</ele>
        <time>2015-05-04T15:49:41Z</time>
      </trkpt>
      <trkpt lat="44.09754" lon="6.99654">
        <ele>1549</ele>
        <time>2015-05-04T15:49:44Z</time>
      </trkpt>
      <trkpt lat="44.09767" lon="6.99633">
        <ele>1548</ele>
        <time>2015-05-04T15:49:46Z</time>
      </trkpt>
      <trkpt lat="44.09775" lon="6.99625">
        <ele>1548</ele>
        <time>2015-05-04T15:49:47Z</time>
      </trkpt>
      <trkpt lat="44.09793" lon="6.9961">
        <ele>1547</ele>
        <time>2015-05-04T15:49:49Z</time>
      </trkpt>
      <trkpt lat="44.09814" lon="6.99599">
        <ele>1545</ele>
        <time>2015-05-04T15:49:51Z</time>
      </trkpt>
      <trkpt lat="44.09823" lon="6.99592">
        <ele>1544</ele>
        <time>2015-05-04T15:49:52Z</time>
      </trkpt>
      <trkpt lat="44.09849" lon="6.99558">
        <ele>1541</ele>
        <time>2015-05-04T15:49:55Z</time>
      </trkpt>
      <trkpt lat="44.09867" lon="6.99539">
        <ele>1539</ele>
        <time>2015-05-04T15:49:57Z</time>
      </trkpt>
      <trkpt lat="44.09877" lon="6.99532">
        <ele>1538</ele>
        <time>2015-05-04T15:49:58Z</time>
      </trkpt>
      <trkpt lat="44.09889" lon="6.99529">
        <ele>1537</ele>
        <time>2015-05-04T15:49:59Z</time>
      </trkpt>
      <trkpt lat="44.09901" lon="6.99529">
        <ele>1536</ele>
        <time>2015-05-04T15:50:00Z</time>
      </trkpt>
      <trkpt lat="44.09912" lon="6.99531">
        <ele>1535</ele>
        <time>2015-05-04T15:50:01Z</time>
      </trkpt>
      <trkpt lat="44.09954" lon="6.99528">
        <ele>1530</ele>
        <time>2015-05-04T15:50:05Z</time>
      </trkpt>
      <trkpt lat="44.10009" lon="6.99549">
        <ele>1525</ele>
        <time>2015-05-04T15:50:09Z</time>
      </trkpt>
      <trkpt lat="44.10023" lon="6.99557">
        <ele>1524</ele>
        <time>2015-05-04T15:50:10Z</time>
      </trkpt>
      <trkpt lat="44.10088" lon="6.99605">
        <ele>1518</ele>
        <time>2015-05-04T15:50:15Z</time>
      </trkpt>
      <trkpt lat="44.10102" lon="6.99612">
        <ele>1517</ele>
        <time>2015-05-04T15:50:16Z</time>
      </trkpt>
      <trkpt lat="44.10115" lon="6.99618">
        <ele>1515</ele>
        <time>2015-05-04T15:50:17Z</time>
      </trkpt>
      <trkpt lat="44.1014" lon="6.99623">
        <ele>1513</ele>
        <time>2015-05-04T15:50:19Z</time>
      </trkpt>
      <trkpt lat="44.10166" lon="6.99625">
        <ele>1511</ele>
        <time>2015-05-04T15:50:21Z</time>
      </trkpt>
      <trkpt lat="44.10198" lon="6.99624">
        <ele>1509</ele>
        <time>2015-05-04T15:50:23Z</time>
      </trkpt>
      <trkpt lat="44.10212" lon="6.9962">
        <ele>1508</ele>
        <time>2015-05-04T15:50:24Z</time>
      </trkpt>
      <trkpt lat="44.10226" lon="6.99614">
        <ele>1507</ele>
        <time>2015-05-04T15:50:25Z</time>
      </trkpt>
      <trkpt lat="44.1025" lon="6.996">
        <ele>1505</ele>
        <time>2015-05-04T15:50:27Z</time>
      </trkpt>
      <trkpt lat="44.10259" lon="6.99593">
        <ele>1505</ele>
        <time>2015-05-04T15:50:28Z</time>
      </trkpt>
      <trkpt lat="44.10267" lon="6.99569">
        <ele>1505</ele>
        <time>2015-05-04T15:50:30Z</time>
      </trkpt>
      <trkpt lat="44.10266" lon="6.99532">
        <ele>1505</ele>
        <time>2015-05-04T15:50:33Z</time>
      </trkpt>
      <trkpt lat="44.10255" lon="6.99516">
        <ele>1503</ele>
        <time>2015-05-04T15:50:35Z</time>
      </trkpt>
      <trkpt lat="44.10236" lon="6.99496">
        <ele>1502</ele>
        <time>2015-05-04T15:50:37Z</time>
      </trkpt>
      <trkpt lat="44.10217" lon="6.99471">
        <ele>1500</ele>
        <time>2015-05-04T15:50:39Z</time>
      </trkpt>
      <trkpt lat="44.1021" lon="6.99461">
        <ele>1499</ele>
        <time>2015-05-04T15:50:40Z</time>
      </trkpt>
      <trkpt lat="44.10204" lon="6.9945">
        <ele>1498</ele>
        <time>2015-05-04T15:50:41Z</time>
      </trkpt>
      <trkpt lat="44.10201" lon="6.99437">
        <ele>1497</ele>
        <time>2015-05-04T15:50:42Z</time>
      </trkpt>
      <trkpt lat="44.102" lon="6.99409">
        <ele>1495</ele>
        <time>2015-05-04T15:50:44Z</time>
      </trkpt>
      <trkpt lat="44.10197" lon="6.99394">
        <ele>1495</ele>
        <time>2015-05-04T15:50:45Z</time>
      </trkpt>
      <trkpt lat="44.1019" lon="6.99364">
        <ele>1493</ele>
        <time>2015-05-04T15:50:47Z</time>
      </trkpt>
      <trkpt lat="44.10189" lon="6.99347">
        <ele>1492</ele>
        <time>2015-05-04T15:50:48Z</time>
      </trkpt>
      <trkpt lat="44.10179" lon="6.99321">
        <ele>1490</ele>
        <time>2015-05-04T15:50:50Z</time>
      </trkpt>
      <trkpt lat="44.10174" lon="6.9931">
        <ele>1488</ele>
        <time>2015-05-04T15:50:51Z</time>
      </trkpt>
      <trkpt lat="44.10166" lon="6.99301">
        <ele>1487</ele>
        <time>2015-05-04T15:50:52Z</time>
      </trkpt>
      <trkpt lat="44.10157" lon="6.99295">
        <ele>1487</ele>
        <time>2015-05-04T15:50:53Z</time>
      </trkpt>
      <trkpt lat="44.10136" lon="6.99297">
        <ele>1487</ele>
        <time>2015-05-04T15:50:55Z</time>
      </trkpt>
      <trkpt lat="44.10127" lon="6.99301">
        <ele>1487</ele>
        <time>2015-05-04T15:50:56Z</time>
      </trkpt>
      <trkpt lat="44.10101" lon="6.9932">
        <ele>1485</ele>
        <time>2015-05-04T15:50:59Z</time>
      </trkpt>
      <trkpt lat="44.10092" lon="6.99323">
        <ele>1485</ele>
        <time>2015-05-04T15:51:00Z</time>
      </trkpt>
      <trkpt lat="44.10082" lon="6.99322">
        <ele>1485</ele>
        <time>2015-05-04T15:51:01Z</time>
      </trkpt>
      <trkpt lat="44.10065" lon="6.9931">
        <ele>1484</ele>
        <time>2015-05-04T15:51:03Z</time>
      </trkpt>
      <trkpt lat="44.1006" lon="6.99298">
        <ele>1484</ele>
        <time>2015-05-04T15:51:04Z</time>
      </trkpt>
      <trkpt lat="44.10058" lon="6.99285">
        <ele>1483</ele>
        <time>2015-05-04T15:51:05Z</time>
      </trkpt>
      <trkpt lat="44.10058" lon="6.99272">
        <ele>1483</ele>
        <time>2015-05-04T15:51:06Z</time>
      </trkpt>
      <trkpt lat="44.10064" lon="6.99258">
        <ele>1482</ele>
        <time>2015-05-04T15:51:07Z</time>
      </trkpt>
      <trkpt lat="44.1007" lon="6.99247">
        <ele>1482</ele>
        <time>2015-05-04T15:51:08Z</time>
      </trkpt>
      <trkpt lat="44.10078" lon="6.99239">
        <ele>1481</ele>
        <time>2015-05-04T15:51:09Z</time>
      </trkpt>
      <trkpt lat="44.10096" lon="6.99227">
        <ele>1480</ele>
        <time>2015-05-04T15:51:11Z</time>
      </trkpt>
      <trkpt lat="44.10145" lon="6.99189">
        <ele>1479</ele>
        <time>2015-05-04T15:51:16Z</time>
      </trkpt>
      <trkpt lat="44.10164" lon="6.99169">
        <ele>1477</ele>
        <time>2015-05-04T15:51:18Z</time>
      </trkpt>
      <trkpt lat="44.10191" lon="6.99135">
        <ele>1473</ele>
        <time>2015-05-04T15:51:21Z</time>
      </trkpt>
      <trkpt lat="44.10295" lon="6.98954">
        <ele>1461</ele>
        <time>2015-05-04T15:51:34Z</time>
      </trkpt>
      <trkpt lat="44.10349" lon="6.98839">
        <ele>1450</ele>
        <time>2015-05-04T15:51:41Z</time>
      </trkpt>
      <trkpt lat="44.10365" lon="6.98809">
        <ele>1448</ele>
        <time>2015-05-04T15:51:43Z</time>
      </trkpt>
      <trkpt lat="44.10373" lon="6.98796">
        <ele>1448</ele>
        <time>2015-05-04T15:51:44Z</time>
      </trkpt>
      <trkpt lat="44.10383" lon="6.98786">
        <ele>1447</ele>
        <time>2015-05-04T15:51:45Z</time>
      </trkpt>
      <trkpt lat="44.10393" lon="6.98778">
        <ele>1447</ele>
        <time>2015-05-04T15:51:46Z</time>
      </trkpt>
      <trkpt lat="44.10405" lon="6.98773">
        <ele>1446</ele>
        <time>2015-05-04T15:51:47Z</time>
      </trkpt>
      <trkpt lat="44.1045" lon="6.98769">
        <ele>1445</ele>
        <time>2015-05-04T15:51:51Z</time>
      </trkpt>
      <trkpt lat="44.1047" lon="6.98764">
        <ele>1444</ele>
        <time>2015-05-04T15:51:53Z</time>
      </trkpt>
      <trkpt lat="44.10479" lon="6.9876">
        <ele>1444</ele>
        <time>2015-05-04T15:51:54Z</time>
      </trkpt>
      <trkpt lat="44.10491" lon="6.98742">
        <ele>1444</ele>
        <time>2015-05-04T15:51:56Z</time>
      </trkpt>
      <trkpt lat="44.105" lon="6.98707">
        <ele>1444</ele>
        <time>2015-05-04T15:51:59Z</time>
      </trkpt>
      <trkpt lat="44.10495" lon="6.98674">
        <ele>1444</ele>
        <time>2015-05-04T15:52:02Z</time>
      </trkpt>
      <trkpt lat="44.10479" lon="6.98662">
        <ele>1443</ele>
        <time>2015-05-04T15:52:04Z</time>
      </trkpt>
      <trkpt lat="44.10459" lon="6.98653">
        <ele>1442</ele>
        <time>2015-05-04T15:52:06Z</time>
      </trkpt>
      <trkpt lat="44.10417" lon="6.98643">
        <ele>1438</ele>
        <time>2015-05-04T15:52:10Z</time>
      </trkpt>
      <trkpt lat="44.10338" lon="6.98638">
        <ele>1431</ele>
        <time>2015-05-04T15:52:17Z</time>
      </trkpt>
      <trkpt lat="44.10292" lon="6.98639">
        <ele>1427</ele>
        <time>2015-05-04T15:52:21Z</time>
      </trkpt>
      <trkpt lat="44.10257" lon="6.98645">
        <ele>1425</ele>
        <time>2015-05-04T15:52:24Z</time>
      </trkpt>
      <trkpt lat="44.10234" lon="6.98651">
        <ele>1424</ele>
        <time>2015-05-04T15:52:26Z</time>
      </trkpt>
      <trkpt lat="44.10211" lon="6.9866">
        <ele>1423</ele>
        <time>2015-05-04T15:52:28Z</time>
      </trkpt>
      <trkpt lat="44.10153" lon="6.98676">
        <ele>1419</ele>
        <time>2015-05-04T15:52:33Z</time>
      </trkpt>
      <trkpt lat="44.10119" lon="6.98691">
        <ele>1417</ele>
        <time>2015-05-04T15:52:36Z</time>
      </trkpt>
      <trkpt lat="44.10065" lon="6.98723">
        <ele>1415</ele>
        <time>2015-05-04T15:52:41Z</time>
      </trkpt>
      <trkpt lat="44.10055" lon="6.98727">
        <ele>1415</ele>
        <time>2015-05-04T15:52:42Z</time>
      </trkpt>
      <trkpt lat="44.10036" lon="6.98732">
        <ele>1415</ele>
        <time>2015-05-04T15:52:44Z</time>
      </trkpt>
      <trkpt lat="44.10018" lon="6.98733">
        <ele>1415</ele>
        <time>2015-05-04T15:52:46Z</time>
      </trkpt>
      <trkpt lat="44.09945" lon="6.98717">
        <ele>1423</ele>
        <time>2015-05-04T15:53:00Z</time>
      </trkpt>
      <trkpt lat="44.09922" lon="6.98715">
        <ele>1425</ele>
        <time>2015-05-04T15:53:07Z</time>
      </trkpt>
      <trkpt lat="44.09846" lon="6.98716">
        <ele>1429</ele>
        <time>2015-05-04T15:53:33Z</time>
      </trkpt>
      <trkpt lat="44.09812" lon="6.98714">
        <ele>1431</ele>
        <time>2015-05-04T15:53:46Z</time>
      </trkpt>
      <trkpt lat="44.09783" lon="6.98707">
        <ele>1433</ele>
        <time>2015-05-04T15:53:58Z</time>
      </trkpt>
      <trkpt lat="44.09759" lon="6.98698">
        <ele>1435</ele>
        <time>2015-05-04T15:54:10Z</time>
      </trkpt>
      <trkpt lat="44.09733" lon="6.98694">
        <ele>1435</ele>
        <time>2015-05-04T15:54:22Z</time>
      </trkpt>
      <trkpt lat="44.09722" lon="6.9869">
        <ele>1435</ele>
        <time>2015-05-04T15:54:27Z</time>
      </trkpt>
      <trkpt lat="44.09693" lon="6.9868">
        <ele>1439</ele>
        <time>2015-05-04T15:54:40Z</time>
      </trkpt>
      <trkpt lat="44.09692" lon="6.98678">
        <ele>1439</ele>
        <time>2015-05-04T15:54:41Z</time>
      </trkpt>
      <trkpt lat="44.09673" lon="6.9867">
        <ele>1440</ele>
        <time>2015-05-04T15:54:50Z</time>
      </trkpt>
      <trkpt lat="44.09666" lon="6.98664">
        <ele>1441</ele>
        <time>2015-05-04T15:54:54Z</time>
      </trkpt>
      <trkpt lat="44.09643" lon="6.98652">
        <ele>1443</ele>
        <time>2015-05-04T15:55:05Z</time>
      </trkpt>
      <trkpt lat="44.09609" lon="6.98628">
        <ele>1446</ele>
        <time>2015-05-04T15:55:22Z</time>
      </trkpt>
      <trkpt lat="44.09599" lon="6.98623">
        <ele>1446</ele>
        <time>2015-05-04T15:55:27Z</time>
      </trkpt>
      <trkpt lat="44.09597" lon="6.98619">
        <ele>1446</ele>
        <time>2015-05-04T15:55:28Z</time>
      </trkpt>
      <trkpt lat="44.09604" lon="6.98605">
        <ele>1446</ele>
        <time>2015-05-04T15:55:31Z</time>
      </trkpt>
      <trkpt lat="44.09624" lon="6.98594">
        <ele>1446</ele>
        <time>2015-05-04T15:55:44Z</time>
      </trkpt>
      <trkpt lat="44.09616" lon="6.98587">
        <ele>1446</ele>
        <time>2015-05-04T15:56:55Z</time>
      </trkpt>
      <trkpt lat="44.09609" lon="6.98573">
        <ele>1446</ele>
        <time>2015-05-04T15:56:59Z</time>
      </trkpt>
      <trkpt lat="44.09596" lon="6.98567">
        <ele>1445</ele>
        <time>2015-05-04T15:57:02Z</time>
      </trkpt>
      <trkpt lat="44.09591" lon="6.98568">
        <ele>1444</ele>
        <time>2015-05-04T15:57:03Z</time>
      </trkpt>
      <trkpt lat="44.09511" lon="6.98633">
        <ele>1437</ele>
        <time>2015-05-04T15:57:16Z</time>
      </trkpt>
      <trkpt lat="44.09473" lon="6.9866">
        <ele>1436</ele>
        <time>2015-05-04T15:57:21Z</time>
      </trkpt>
      <trkpt lat="44.09459" lon="6.98678">
        <ele>1435</ele>
        <time>2015-05-04T15:57:23Z</time>
      </trkpt>
      <trkpt lat="44.09453" lon="6.98686">
        <ele>1435</ele>
        <time>2015-05-04T15:57:24Z</time>
      </trkpt>
      <trkpt lat="44.09441" lon="6.98714">
        <ele>1433</ele>
        <time>2015-05-04T15:57:27Z</time>
      </trkpt>
      <trkpt lat="44.09438" lon="6.98736">
        <ele>1433</ele>
        <time>2015-05-04T15:57:29Z</time>
      </trkpt>
      <trkpt lat="44.09434" lon="6.98748">
        <ele>1432</ele>
        <time>2015-05-04T15:57:30Z</time>
      </trkpt>
      <trkpt lat="44.09419" lon="6.9878">
        <ele>1430</ele>
        <time>2015-05-04T15:57:33Z</time>
      </trkpt>
      <trkpt lat="44.09406" lon="6.98801">
        <ele>1428</ele>
        <time>2015-05-04T15:57:35Z</time>
      </trkpt>
      <trkpt lat="44.09383" lon="6.98831">
        <ele>1426</ele>
        <time>2015-05-04T15:57:38Z</time>
      </trkpt>
      <trkpt lat="44.09346" lon="6.98892">
        <ele>1422</ele>
        <time>2015-05-04T15:57:43Z</time>
      </trkpt>
      <trkpt lat="44.09339" lon="6.98905">
        <ele>1422</ele>
        <time>2015-05-04T15:57:44Z</time>
      </trkpt>
      <trkpt lat="44.09336" lon="6.98923">
        <ele>1421</ele>
        <time>2015-05-04T15:57:45Z</time>
      </trkpt>
      <trkpt lat="44.09333" lon="6.98963">
        <ele>1419</ele>
        <time>2015-05-04T15:57:47Z</time>
      </trkpt>
      <trkpt lat="44.09322" lon="6.98998">
        <ele>1416</ele>
        <time>2015-05-04T15:57:49Z</time>
      </trkpt>
      <trkpt lat="44.09306" lon="6.99024">
        <ele>1414</ele>
        <time>2015-05-04T15:57:51Z</time>
      </trkpt>
      <trkpt lat="44.09292" lon="6.99049">
        <ele>1411</ele>
        <time>2015-05-04T15:57:53Z</time>
      </trkpt>
      <trkpt lat="44.09291" lon="6.99082">
        <ele>1410</ele>
        <time>2015-05-04T15:57:55Z</time>
      </trkpt>
      <trkpt lat="44.09295" lon="6.99136">
        <ele>1409</ele>
        <time>2015-05-04T15:57:58Z</time>
      </trkpt>
      <trkpt lat="44.09295" lon="6.99155">
        <ele>1408</ele>
        <time>2015-05-04T15:57:59Z</time>
      </trkpt>
      <trkpt lat="44.09286" lon="6.99189">
        <ele>1405</ele>
        <time>2015-05-04T15:58:01Z</time>
      </trkpt>
      <trkpt lat="44.09284" lon="6.99206">
        <ele>1404</ele>
        <time>2015-05-04T15:58:02Z</time>
      </trkpt>
      <trkpt lat="44.09284" lon="6.99224">
        <ele>1403</ele>
        <time>2015-05-04T15:58:03Z</time>
      </trkpt>
      <trkpt lat="44.09295" lon="6.99275">
        <ele>1400</ele>
        <time>2015-05-04T15:58:07Z</time>
      </trkpt>
      <trkpt lat="44.09297" lon="6.9929">
        <ele>1400</ele>
        <time>2015-05-04T15:58:09Z</time>
      </trkpt>
      <trkpt lat="44.09293" lon="6.99294">
        <ele>1400</ele>
        <time>2015-05-04T15:58:10Z</time>
      </trkpt>
      <trkpt lat="44.09283" lon="6.99285">
        <ele>1400</ele>
        <time>2015-05-04T15:58:12Z</time>
      </trkpt>
      <trkpt lat="44.0928" lon="6.99259">
        <ele>1400</ele>
        <time>2015-05-04T15:58:15Z</time>
      </trkpt>
      <trkpt lat="44.09271" lon="6.99208">
        <ele>1397</ele>
        <time>2015-05-04T15:58:20Z</time>
      </trkpt>
      <trkpt lat="44.0927" lon="6.99177">
        <ele>1395</ele>
        <time>2015-05-04T15:58:23Z</time>
      </trkpt>
      <trkpt lat="44.09272" lon="6.99167">
        <ele>1395</ele>
        <time>2015-05-04T15:58:24Z</time>
      </trkpt>
      <trkpt lat="44.09276" lon="6.99158">
        <ele>1394</ele>
        <time>2015-05-04T15:58:25Z</time>
      </trkpt>
      <trkpt lat="44.09277" lon="6.99151">
        <ele>1394</ele>
        <time>2015-05-04T15:58:26Z</time>
      </trkpt>
      <trkpt lat="44.09273" lon="6.99145">
        <ele>1393</ele>
        <time>2015-05-04T15:58:27Z</time>
      </trkpt>
      <trkpt lat="44.09264" lon="6.99144">
        <ele>1393</ele>
        <time>2015-05-04T15:58:29Z</time>
      </trkpt>
      <trkpt lat="44.09254" lon="6.9916">
        <ele>1393</ele>
        <time>2015-05-04T15:58:32Z</time>
      </trkpt>
      <trkpt lat="44.09253" lon="6.99185">
        <ele>1393</ele>
        <time>2015-05-04T15:58:35Z</time>
      </trkpt>
      <trkpt lat="44.09255" lon="6.99219">
        <ele>1392</ele>
        <time>2015-05-04T15:58:38Z</time>
      </trkpt>
      <trkpt lat="44.09262" lon="6.99267">
        <ele>1388</ele>
        <time>2015-05-04T15:58:42Z</time>
      </trkpt>
      <trkpt lat="44.09269" lon="6.99297">
        <ele>1386</ele>
        <time>2015-05-04T15:58:45Z</time>
      </trkpt>
      <trkpt lat="44.09269" lon="6.99311">
        <ele>1386</ele>
        <time>2015-05-04T15:58:47Z</time>
      </trkpt>
      <trkpt lat="44.09255" lon="6.99245">
        <ele>1382</ele>
        <time>2015-05-04T15:58:55Z</time>
      </trkpt>
      <trkpt lat="44.0925" lon="6.992">
        <ele>1379</ele>
        <time>2015-05-04T15:58:59Z</time>
      </trkpt>
      <trkpt lat="44.09243" lon="6.99165">
        <ele>1379</ele>
        <time>2015-05-04T15:59:02Z</time>
      </trkpt>
      <trkpt lat="44.09237" lon="6.99157">
        <ele>1378</ele>
        <time>2015-05-04T15:59:03Z</time>
      </trkpt>
      <trkpt lat="44.0923" lon="6.99152">
        <ele>1378</ele>
        <time>2015-05-04T15:59:04Z</time>
      </trkpt>
      <trkpt lat="44.09223" lon="6.9915">
        <ele>1378</ele>
        <time>2015-05-04T15:59:05Z</time>
      </trkpt>
      <trkpt lat="44.09215" lon="6.9915">
        <ele>1377</ele>
        <time>2015-05-04T15:59:06Z</time>
      </trkpt>
      <trkpt lat="44.09183" lon="6.99162">
        <ele>1376</ele>
        <time>2015-05-04T15:59:09Z</time>
      </trkpt>
      <trkpt lat="44.09164" lon="6.99174">
        <ele>1375</ele>
        <time>2015-05-04T15:59:11Z</time>
      </trkpt>
      <trkpt lat="44.09148" lon="6.99193">
        <ele>1374</ele>
        <time>2015-05-04T15:59:13Z</time>
      </trkpt>
      <trkpt lat="44.09126" lon="6.99227">
        <ele>1371</ele>
        <time>2015-05-04T15:59:16Z</time>
      </trkpt>
      <trkpt lat="44.09116" lon="6.99233">
        <ele>1370</ele>
        <time>2015-05-04T15:59:17Z</time>
      </trkpt>
      <trkpt lat="44.09107" lon="6.99238">
        <ele>1369</ele>
        <time>2015-05-04T15:59:18Z</time>
      </trkpt>
      <trkpt lat="44.09085" lon="6.99246">
        <ele>1367</ele>
        <time>2015-05-04T15:59:20Z</time>
      </trkpt>
      <trkpt lat="44.09079" lon="6.99253">
        <ele>1366</ele>
        <time>2015-05-04T15:59:21Z</time>
      </trkpt>
      <trkpt lat="44.09071" lon="6.99257">
        <ele>1365</ele>
        <time>2015-05-04T15:59:22Z</time>
      </trkpt>
      <trkpt lat="44.09037" lon="6.99253">
        <ele>1363</ele>
        <time>2015-05-04T15:59:25Z</time>
      </trkpt>
      <trkpt lat="44.09014" lon="6.99254">
        <ele>1362</ele>
        <time>2015-05-04T15:59:27Z</time>
      </trkpt>
      <trkpt lat="44.09003" lon="6.99256">
        <ele>1362</ele>
        <time>2015-05-04T15:59:28Z</time>
      </trkpt>
      <trkpt lat="44.08993" lon="6.9926">
        <ele>1361</ele>
        <time>2015-05-04T15:59:29Z</time>
      </trkpt>
      <trkpt lat="44.08981" lon="6.99261">
        <ele>1361</ele>
        <time>2015-05-04T15:59:30Z</time>
      </trkpt>
      <trkpt lat="44.08972" lon="6.99266">
        <ele>1361</ele>
        <time>2015-05-04T15:59:31Z</time>
      </trkpt>
      <trkpt lat="44.08963" lon="6.99273">
        <ele>1360</ele>
        <time>2015-05-04T15:59:32Z</time>
      </trkpt>
      <trkpt lat="44.08956" lon="6.99282">
        <ele>1359</ele>
        <time>2015-05-04T15:59:33Z</time>
      </trkpt>
      <trkpt lat="44.08907" lon="6.99306">
        <ele>1357</ele>
        <time>2015-05-04T15:59:38Z</time>
      </trkpt>
      <trkpt lat="44.08888" lon="6.99318">
        <ele>1356</ele>
        <time>2015-05-04T15:59:40Z</time>
      </trkpt>
      <trkpt lat="44.0887" lon="6.99333">
        <ele>1356</ele>
        <time>2015-05-04T15:59:42Z</time>
      </trkpt>
      <trkpt lat="44.0886" lon="6.99339">
        <ele>1356</ele>
        <time>2015-05-04T15:59:43Z</time>
      </trkpt>
      <trkpt lat="44.0881" lon="6.99365">
        <ele>1356</ele>
        <time>2015-05-04T15:59:48Z</time>
      </trkpt>
      <trkpt lat="44.08718" lon="6.99405">
        <ele>1352</ele>
        <time>2015-05-04T15:59:57Z</time>
      </trkpt>
      <trkpt lat="44.08696" lon="6.9941">
        <ele>1351</ele>
        <time>2015-05-04T15:59:59Z</time>
      </trkpt>
      <trkpt lat="44.08652" lon="6.99418">
        <ele>1347</ele>
        <time>2015-05-04T16:00:03Z</time>
      </trkpt>
      <trkpt lat="44.08551" lon="6.99441">
        <ele>1344</ele>
        <time>2015-05-04T16:00:13Z</time>
      </trkpt>
      <trkpt lat="44.08504" lon="6.99448">
        <ele>1344</ele>
        <time>2015-05-04T16:00:18Z</time>
      </trkpt>
      <trkpt lat="44.08449" lon="6.99452">
        <ele>1343</ele>
        <time>2015-05-04T16:00:24Z</time>
      </trkpt>
      <trkpt lat="44.08366" lon="6.99473">
        <ele>1338</ele>
        <time>2015-05-04T16:00:33Z</time>
      </trkpt>
      <trkpt lat="44.08348" lon="6.99475">
        <ele>1337</ele>
        <time>2015-05-04T16:00:35Z</time>
      </trkpt>
      <trkpt lat="44.08322" lon="6.99471">
        <ele>1336</ele>
        <time>2015-05-04T16:00:38Z</time>
      </trkpt>
      <trkpt lat="44.08185" lon="6.99435">
        <ele>1331</ele>
        <time>2015-05-04T16:00:54Z</time>
      </trkpt>
      <trkpt lat="44.08151" lon="6.99422">
        <ele>1330</ele>
        <time>2015-05-04T16:00:58Z</time>
      </trkpt>
      <trkpt lat="44.08101" lon="6.99408">
        <ele>1327</ele>
        <time>2015-05-04T16:01:04Z</time>
      </trkpt>
      <trkpt lat="44.08052" lon="6.994">
        <ele>1327</ele>
        <time>2015-05-04T16:01:10Z</time>
      </trkpt>
      <trkpt lat="44.08028" lon="6.994">
        <ele>1327</ele>
        <time>2015-05-04T16:01:13Z</time>
      </trkpt>
      <trkpt lat="44.07994" lon="6.99394">
        <ele>1325</ele>
        <time>2015-05-04T16:01:17Z</time>
      </trkpt>
      <trkpt lat="44.07959" lon="6.99384">
        <ele>1324</ele>
        <time>2015-05-04T16:01:21Z</time>
      </trkpt>
      <trkpt lat="44.0792" lon="6.99378">
        <ele>1322</ele>
        <time>2015-05-04T16:01:25Z</time>
      </trkpt>
      <trkpt lat="44.0789" lon="6.99376">
        <ele>1320</ele>
        <time>2015-05-04T16:01:28Z</time>
      </trkpt>
      <trkpt lat="44.0788" lon="6.99372">
        <ele>1320</ele>
        <time>2015-05-04T16:01:29Z</time>
      </trkpt>
      <trkpt lat="44.0787" lon="6.99366">
        <ele>1319</ele>
        <time>2015-05-04T16:01:30Z</time>
      </trkpt>
      <trkpt lat="44.07813" lon="6.99316">
        <ele>1314</ele>
        <time>2015-05-04T16:01:36Z</time>
      </trkpt>
      <trkpt lat="44.07775" lon="6.99277">
        <ele>1311</ele>
        <time>2015-05-04T16:01:40Z</time>
      </trkpt>
      <trkpt lat="44.07757" lon="6.99257">
        <ele>1310</ele>
        <time>2015-05-04T16:01:42Z</time>
      </trkpt>
      <trkpt lat="44.07703" lon="6.99181">
        <ele>1308</ele>
        <time>2015-05-04T16:01:49Z</time>
      </trkpt>
      <trkpt lat="44.07656" lon="6.99102">
        <ele>1306</ele>
        <time>2015-05-04T16:01:56Z</time>
      </trkpt>
      <trkpt lat="44.07642" lon="6.99084">
        <ele>1305</ele>
        <time>2015-05-04T16:01:58Z</time>
      </trkpt>
      <trkpt lat="44.07634" lon="6.99075">
        <ele>1305</ele>
        <time>2015-05-04T16:01:59Z</time>
      </trkpt>
      <trkpt lat="44.07602" lon="6.99053">
        <ele>1303</ele>
        <time>2015-05-04T16:02:03Z</time>
      </trkpt>
      <trkpt lat="44.07568" lon="6.99024">
        <ele>1301</ele>
        <time>2015-05-04T16:02:08Z</time>
      </trkpt>
      <trkpt lat="44.07545" lon="6.99008">
        <ele>1301</ele>
        <time>2015-05-04T16:02:11Z</time>
      </trkpt>
      <trkpt lat="44.07518" lon="6.98993">
        <ele>1300</ele>
        <time>2015-05-04T16:02:14Z</time>
      </trkpt>
      <trkpt lat="44.075" lon="6.98982">
        <ele>1298</ele>
        <time>2015-05-04T16:02:16Z</time>
      </trkpt>
      <trkpt lat="44.07491" lon="6.98975">
        <ele>1298</ele>
        <time>2015-05-04T16:02:17Z</time>
      </trkpt>
      <trkpt lat="44.07483" lon="6.98965">
        <ele>1297</ele>
        <time>2015-05-04T16:02:18Z</time>
      </trkpt>
      <trkpt lat="44.0747" lon="6.9894">
        <ele>1296</ele>
        <time>2015-05-04T16:02:20Z</time>
      </trkpt>
      <trkpt lat="44.07455" lon="6.98918">
        <ele>1295</ele>
        <time>2015-05-04T16:02:22Z</time>
      </trkpt>
      <trkpt lat="44.07371" lon="6.98817">
        <ele>1285</ele>
        <time>2015-05-04T16:02:32Z</time>
      </trkpt>
      <trkpt lat="44.07327" lon="6.9877">
        <ele>1283</ele>
        <time>2015-05-04T16:02:37Z</time>
      </trkpt>
      <trkpt lat="44.07299" lon="6.98747">
        <ele>1281</ele>
        <time>2015-05-04T16:02:40Z</time>
      </trkpt>
      <trkpt lat="44.0728" lon="6.98734">
        <ele>1280</ele>
        <time>2015-05-04T16:02:42Z</time>
      </trkpt>
      <trkpt lat="44.07259" lon="6.98726">
        <ele>1279</ele>
        <time>2015-05-04T16:02:44Z</time>
      </trkpt>
      <trkpt lat="44.07228" lon="6.98717">
        <ele>1278</ele>
        <time>2015-05-04T16:02:47Z</time>
      </trkpt>
      <trkpt lat="44.07197" lon="6.98705">
        <ele>1277</ele>
        <time>2015-05-04T16:02:50Z</time>
      </trkpt>
      <trkpt lat="44.07124" lon="6.98675">
        <ele>1275</ele>
        <time>2015-05-04T16:02:57Z</time>
      </trkpt>
      <trkpt lat="44.07104" lon="6.98666">
        <ele>1274</ele>
        <time>2015-05-04T16:02:59Z</time>
      </trkpt>
      <trkpt lat="44.07085" lon="6.98654">
        <ele>1272</ele>
        <time>2015-05-04T16:03:01Z</time>
      </trkpt>
      <trkpt lat="44.07016" lon="6.98604">
        <ele>1270</ele>
        <time>2015-05-04T16:03:09Z</time>
      </trkpt>
      <trkpt lat="44.07006" lon="6.98601">
        <ele>1270</ele>
        <time>2015-05-04T16:03:10Z</time>
      </trkpt>
      <trkpt lat="44.06967" lon="6.98597">
        <ele>1270</ele>
        <time>2015-05-04T16:03:14Z</time>
      </trkpt>
      <trkpt lat="44.06917" lon="6.98598">
        <ele>1268</ele>
        <time>2015-05-04T16:03:19Z</time>
      </trkpt>
      <trkpt lat="44.06897" lon="6.98597">
        <ele>1268</ele>
        <time>2015-05-04T16:03:21Z</time>
      </trkpt>
      <trkpt lat="44.06857" lon="6.98586">
        <ele>1266</ele>
        <time>2015-05-04T16:03:25Z</time>
      </trkpt>
      <trkpt lat="44.06826" lon="6.98581">
        <ele>1265</ele>
        <time>2015-05-04T16:03:28Z</time>
      </trkpt>
      <trkpt lat="44.06806" lon="6.98575">
        <ele>1264</ele>
        <time>2015-05-04T16:03:30Z</time>
      </trkpt>
      <trkpt lat="44.06789" lon="6.98562">
        <ele>1262</ele>
        <time>2015-05-04T16:03:32Z</time>
      </trkpt>
      <trkpt lat="44.06754" lon="6.98532">
        <ele>1261</ele>
        <time>2015-05-04T16:03:36Z</time>
      </trkpt>
      <trkpt lat="44.06736" lon="6.98521">
        <ele>1261</ele>
        <time>2015-05-04T16:03:38Z</time>
      </trkpt>
      <trkpt lat="44.06726" lon="6.98517">
        <ele>1260</ele>
        <time>2015-05-04T16:03:39Z</time>
      </trkpt>
      <trkpt lat="44.06706" lon="6.98512">
        <ele>1259</ele>
        <time>2015-05-04T16:03:41Z</time>
      </trkpt>
      <trkpt lat="44.06665" lon="6.98511">
        <ele>1258</ele>
        <time>2015-05-04T16:03:45Z</time>
      </trkpt>
      <trkpt lat="44.06655" lon="6.98509">
        <ele>1257</ele>
        <time>2015-05-04T16:03:46Z</time>
      </trkpt>
      <trkpt lat="44.06646" lon="6.98505">
        <ele>1256</ele>
        <time>2015-05-04T16:03:47Z</time>
      </trkpt>
      <trkpt lat="44.06608" lon="6.98477">
        <ele>1254</ele>
        <time>2015-05-04T16:03:51Z</time>
      </trkpt>
      <trkpt lat="44.06562" lon="6.98437">
        <ele>1250</ele>
        <time>2015-05-04T16:03:56Z</time>
      </trkpt>
      <trkpt lat="44.06552" lon="6.98431">
        <ele>1249</ele>
        <time>2015-05-04T16:03:57Z</time>
      </trkpt>
      <trkpt lat="44.06531" lon="6.9842">
        <ele>1248</ele>
        <time>2015-05-04T16:03:59Z</time>
      </trkpt>
      <trkpt lat="44.06509" lon="6.98413">
        <ele>1248</ele>
        <time>2015-05-04T16:04:01Z</time>
      </trkpt>
      <trkpt lat="44.06409" lon="6.9839">
        <ele>1242</ele>
        <time>2015-05-04T16:04:10Z</time>
      </trkpt>
      <trkpt lat="44.06386" lon="6.98386">
        <ele>1241</ele>
        <time>2015-05-04T16:04:12Z</time>
      </trkpt>
      <trkpt lat="44.06332" lon="6.9838">
        <ele>1241</ele>
        <time>2015-05-04T16:04:17Z</time>
      </trkpt>
      <trkpt lat="44.06312" lon="6.98373">
        <ele>1240</ele>
        <time>2015-05-04T16:04:19Z</time>
      </trkpt>
      <trkpt lat="44.06278" lon="6.98353">
        <ele>1238</ele>
        <time>2015-05-04T16:04:23Z</time>
      </trkpt>
      <trkpt lat="44.06271" lon="6.98347">
        <ele>1237</ele>
        <time>2015-05-04T16:04:24Z</time>
      </trkpt>
      <trkpt lat="44.06264" lon="6.98338">
        <ele>1237</ele>
        <time>2015-05-04T16:04:25Z</time>
      </trkpt>
      <trkpt lat="44.06253" lon="6.98317">
        <ele>1235</ele>
        <time>2015-05-04T16:04:27Z</time>
      </trkpt>
      <trkpt lat="44.06245" lon="6.98304">
        <ele>1234</ele>
        <time>2015-05-04T16:04:28Z</time>
      </trkpt>
      <trkpt lat="44.06225" lon="6.98282">
        <ele>1232</ele>
        <time>2015-05-04T16:04:30Z</time>
      </trkpt>
      <trkpt lat="44.06205" lon="6.98267">
        <ele>1231</ele>
        <time>2015-05-04T16:04:32Z</time>
      </trkpt>
      <trkpt lat="44.06162" lon="6.9824">
        <ele>1228</ele>
        <time>2015-05-04T16:04:36Z</time>
      </trkpt>
      <trkpt lat="44.06068" lon="6.98196">
        <ele>1223</ele>
        <time>2015-05-04T16:04:44Z</time>
      </trkpt>
      <trkpt lat="44.06044" lon="6.98189">
        <ele>1222</ele>
        <time>2015-05-04T16:04:46Z</time>
      </trkpt>
      <trkpt lat="44.06032" lon="6.98187">
        <ele>1221</ele>
        <time>2015-05-04T16:04:47Z</time>
      </trkpt>
      <trkpt lat="44.05979" lon="6.98188">
        <ele>1218</ele>
        <time>2015-05-04T16:04:51Z</time>
      </trkpt>
      <trkpt lat="44.05938" lon="6.98185">
        <ele>1213</ele>
        <time>2015-05-04T16:04:54Z</time>
      </trkpt>
      <trkpt lat="44.05896" lon="6.98187">
        <ele>1209</ele>
        <time>2015-05-04T16:04:57Z</time>
      </trkpt>
      <trkpt lat="44.05883" lon="6.98184">
        <ele>1208</ele>
        <time>2015-05-04T16:04:58Z</time>
      </trkpt>
      <trkpt lat="44.05858" lon="6.98174">
        <ele>1206</ele>
        <time>2015-05-04T16:05:00Z</time>
      </trkpt>
      <trkpt lat="44.05833" lon="6.98168">
        <ele>1204</ele>
        <time>2015-05-04T16:05:02Z</time>
      </trkpt>
      <trkpt lat="44.05819" lon="6.98168">
        <ele>1203</ele>
        <time>2015-05-04T16:05:03Z</time>
      </trkpt>
      <trkpt lat="44.0576" lon="6.98178">
        <ele>1199</ele>
        <time>2015-05-04T16:05:07Z</time>
      </trkpt>
      <trkpt lat="44.05748" lon="6.98178">
        <ele>1198</ele>
        <time>2015-05-04T16:05:08Z</time>
      </trkpt>
      <trkpt lat="44.05728" lon="6.98171">
        <ele>1196</ele>
        <time>2015-05-04T16:05:10Z</time>
      </trkpt>
      <trkpt lat="44.04886" lon="6.97723">
        <ele>1115</ele>
        <time>2015-05-04T16:06:30Z</time>
      </trkpt>
      <trkpt lat="44.04882" lon="6.97706">
        <ele>1113</ele>
        <time>2015-05-04T16:06:31Z</time>
      </trkpt>
      <trkpt lat="44.04869" lon="6.97679">
        <ele>1113</ele>
        <time>2015-05-04T16:06:33Z</time>
      </trkpt>
      <trkpt lat="44.0485" lon="6.97659">
        <ele>1113</ele>
        <time>2015-05-04T16:06:35Z</time>
      </trkpt>
      <trkpt lat="44.04811" lon="6.97643">
        <ele>1112</ele>
        <time>2015-05-04T16:06:37Z</time>
      </trkpt>
      <trkpt lat="44.04782" lon="6.97634">
        <ele>1111</ele>
        <time>2015-05-04T16:06:39Z</time>
      </trkpt>
      <trkpt lat="44.04744" lon="6.97619">
        <ele>1109</ele>
        <time>2015-05-04T16:06:42Z</time>
      </trkpt>
      <trkpt lat="44.04732" lon="6.97615">
        <ele>1108</ele>
        <time>2015-05-04T16:06:43Z</time>
      </trkpt>
      <trkpt lat="44.04707" lon="6.97613">
        <ele>1107</ele>
        <time>2015-05-04T16:06:45Z</time>
      </trkpt>
      <trkpt lat="44.04681" lon="6.97614">
        <ele>1106</ele>
        <time>2015-05-04T16:06:47Z</time>
      </trkpt>
      <trkpt lat="44.04668" lon="6.97616">
        <ele>1106</ele>
        <time>2015-05-04T16:06:48Z</time>
      </trkpt>
      <trkpt lat="44.04598" lon="6.97637">
        <ele>1103</ele>
        <time>2015-05-04T16:06:53Z</time>
      </trkpt>
      <trkpt lat="44.04573" lon="6.97646">
        <ele>1102</ele>
        <time>2015-05-04T16:06:55Z</time>
      </trkpt>
      <trkpt lat="44.04552" lon="6.97652">
        <ele>1100</ele>
        <time>2015-05-04T16:06:57Z</time>
      </trkpt>
      <trkpt lat="44.04535" lon="6.97656">
        <ele>1097</ele>
        <time>2015-05-04T16:06:59Z</time>
      </trkpt>
      <trkpt lat="44.04483" lon="6.97672">
        <ele>1090</ele>
        <time>2015-05-04T16:07:07Z</time>
      </trkpt>
      <trkpt lat="44.0422" lon="6.97589">
        <ele>1077</ele>
        <time>2015-05-04T16:07:28Z</time>
      </trkpt>
      <trkpt lat="44.04196" lon="6.97551">
        <ele>1076</ele>
        <time>2015-05-04T16:07:29Z</time>
      </trkpt>
      <trkpt lat="44.04181" lon="6.97535">
        <ele>1075</ele>
        <time>2015-05-04T16:07:30Z</time>
      </trkpt>
      <trkpt lat="44.04167" lon="6.97522">
        <ele>1074</ele>
        <time>2015-05-04T16:07:31Z</time>
      </trkpt>
      <trkpt lat="44.04153" lon="6.97513">
        <ele>1074</ele>
        <time>2015-05-04T16:07:32Z</time>
      </trkpt>
      <trkpt lat="44.0414" lon="6.97508">
        <ele>1073</ele>
        <time>2015-05-04T16:07:33Z</time>
      </trkpt>
      <trkpt lat="44.04112" lon="6.97498">
        <ele>1071</ele>
        <time>2015-05-04T16:07:35Z</time>
      </trkpt>
      <trkpt lat="44.04098" lon="6.97496">
        <ele>1069</ele>
        <time>2015-05-04T16:07:36Z</time>
      </trkpt>
      <trkpt lat="44.04045" lon="6.97491">
        <ele>1065</ele>
        <time>2015-05-04T16:07:40Z</time>
      </trkpt>
      <trkpt lat="44.0403" lon="6.97491">
        <ele>1064</ele>
        <time>2015-05-04T16:07:41Z</time>
      </trkpt>
      <trkpt lat="44.03955" lon="6.97499">
        <ele>1059</ele>
        <time>2015-05-04T16:07:46Z</time>
      </trkpt>
      <trkpt lat="44.03898" lon="6.97498">
        <ele>1055</ele>
        <time>2015-05-04T16:07:50Z</time>
      </trkpt>
      <trkpt lat="44.03887" lon="6.97504">
        <ele>1054</ele>
        <time>2015-05-04T16:07:51Z</time>
      </trkpt>
      <trkpt lat="44.03879" lon="6.97516">
        <ele>1054</ele>
        <time>2015-05-04T16:07:52Z</time>
      </trkpt>
      <trkpt lat="44.0384" lon="6.97539">
        <ele>1052</ele>
        <time>2015-05-04T16:07:55Z</time>
      </trkpt>
      <trkpt lat="44.03782" lon="6.97578">
        <ele>1051</ele>
        <time>2015-05-04T16:08:00Z</time>
      </trkpt>
      <trkpt lat="44.03744" lon="6.97609">
        <ele>1050</ele>
        <time>2015-05-04T16:08:04Z</time>
      </trkpt>
      <trkpt lat="44.03731" lon="6.97636">
        <ele>1049</ele>
        <time>2015-05-04T16:08:07Z</time>
      </trkpt>
      <trkpt lat="44.03723" lon="6.97643">
        <ele>1048</ele>
        <time>2015-05-04T16:08:08Z</time>
      </trkpt>
      <trkpt lat="44.03714" lon="6.97649">
        <ele>1048</ele>
        <time>2015-05-04T16:08:09Z</time>
      </trkpt>
      <trkpt lat="44.03684" lon="6.97664">
        <ele>1046</ele>
        <time>2015-05-04T16:08:12Z</time>
      </trkpt>
      <trkpt lat="44.03666" lon="6.9767">
        <ele>1045</ele>
        <time>2015-05-04T16:08:14Z</time>
      </trkpt>
      <trkpt lat="44.03657" lon="6.9767">
        <ele>1044</ele>
        <time>2015-05-04T16:08:15Z</time>
      </trkpt>
      <trkpt lat="44.03632" lon="6.97663">
        <ele>1042</ele>
        <time>2015-05-04T16:08:18Z</time>
      </trkpt>
      <trkpt lat="44.03611" lon="6.97659">
        <ele>1040</ele>
        <time>2015-05-04T16:08:20Z</time>
      </trkpt>
      <trkpt lat="44.03548" lon="6.97654">
        <ele>1037</ele>
        <time>2015-05-04T16:08:25Z</time>
      </trkpt>
      <trkpt lat="44.03448" lon="6.9764">
        <ele>1031</ele>
        <time>2015-05-04T16:08:31Z</time>
      </trkpt>
      <trkpt lat="44.03415" lon="6.97629">
        <ele>1030</ele>
        <time>2015-05-04T16:08:33Z</time>
      </trkpt>
      <trkpt lat="44.03384" lon="6.97612">
        <ele>1028</ele>
        <time>2015-05-04T16:08:35Z</time>
      </trkpt>
      <trkpt lat="44.03372" lon="6.97603">
        <ele>1027</ele>
        <time>2015-05-04T16:08:36Z</time>
      </trkpt>
      <trkpt lat="44.03393" lon="6.97629">
        <ele>1025</ele>
        <time>2015-05-04T16:08:38Z</time>
      </trkpt>
      <trkpt lat="44.03382" lon="6.97609">
        <ele>1022</ele>
        <time>2015-05-04T16:08:41Z</time>
      </trkpt>
      <trkpt lat="44.03387" lon="6.9761">
        <ele>1021</ele>
        <time>2015-05-04T16:08:42Z</time>
      </trkpt>
      <trkpt lat="44.03388" lon="6.97606">
        <ele>1020</ele>
        <time>2015-05-04T16:08:43Z</time>
      </trkpt>
      <trkpt lat="44.03388" lon="6.97599">
        <ele>1019</ele>
        <time>2015-05-04T16:08:44Z</time>
      </trkpt>
      <trkpt lat="44.03384" lon="6.97589">
        <ele>1018</ele>
        <time>2015-05-04T16:08:45Z</time>
      </trkpt>
      <trkpt lat="44.03386" lon="6.97585">
        <ele>1017</ele>
        <time>2015-05-04T16:08:46Z</time>
      </trkpt>
      <trkpt lat="44.03384" lon="6.97576">
        <ele>1016</ele>
        <time>2015-05-04T16:08:47Z</time>
      </trkpt>
      <trkpt lat="44.03355" lon="6.97515">
        <ele>1012</ele>
        <time>2015-05-04T16:08:51Z</time>
      </trkpt>
      <trkpt lat="44.03339" lon="6.97486">
        <ele>1010</ele>
        <time>2015-05-04T16:08:53Z</time>
      </trkpt>
      <trkpt lat="44.03325" lon="6.97471">
        <ele>1008</ele>
        <time>2015-05-04T16:08:54Z</time>
      </trkpt>
      <trkpt lat="44.03311" lon="6.97458">
        <ele>1007</ele>
        <time>2015-05-04T16:08:55Z</time>
      </trkpt>
      <trkpt lat="44.03299" lon="6.97449">
        <ele>1006</ele>
        <time>2015-05-04T16:08:56Z</time>
      </trkpt>
      <trkpt lat="44.03285" lon="6.97443">
        <ele>1005</ele>
        <time>2015-05-04T16:08:57Z</time>
      </trkpt>
      <trkpt lat="44.0327" lon="6.9744">
        <ele>1005</ele>
        <time>2015-05-04T16:08:58Z</time>
      </trkpt>
      <trkpt lat="44.03224" lon="6.97437">
        <ele>1003</ele>
        <time>2015-05-04T16:09:01Z</time>
      </trkpt>
      <trkpt lat="44.03196" lon="6.97432">
        <ele>1001</ele>
        <time>2015-05-04T16:09:03Z</time>
      </trkpt>
      <trkpt lat="44.02738" lon="6.9751">
        <ele>971</ele>
        <time>2015-05-04T16:09:39Z</time>
      </trkpt>
      <trkpt lat="44.02723" lon="6.9751">
        <ele>969</ele>
        <time>2015-05-04T16:09:40Z</time>
      </trkpt>
      <trkpt lat="44.02692" lon="6.97514">
        <ele>967</ele>
        <time>2015-05-04T16:09:42Z</time>
      </trkpt>
      <trkpt lat="44.02627" lon="6.97533">
        <ele>962</ele>
        <time>2015-05-04T16:09:46Z</time>
      </trkpt>
      <trkpt lat="44.02595" lon="6.9754">
        <ele>960</ele>
        <time>2015-05-04T16:09:48Z</time>
      </trkpt>
      <trkpt lat="44.02548" lon="6.97547">
        <ele>956</ele>
        <time>2015-05-04T16:09:51Z</time>
      </trkpt>
      <trkpt lat="44.025" lon="6.97561">
        <ele>950</ele>
        <time>2015-05-04T16:09:56Z</time>
      </trkpt>
      <trkpt lat="44.02497" lon="6.97553">
        <ele>950</ele>
        <time>2015-05-04T16:09:58Z</time>
      </trkpt>
      <trkpt lat="44.02497" lon="6.97544">
        <ele>950</ele>
        <time>2015-05-04T16:09:59Z</time>
      </trkpt>
      <trkpt lat="44.02505" lon="6.97485">
        <ele>946</ele>
        <time>2015-05-04T16:10:05Z</time>
      </trkpt>
      <trkpt lat="44.02505" lon="6.97478">
        <ele>945</ele>
        <time>2015-05-04T16:10:06Z</time>
      </trkpt>
      <trkpt lat="44.02503" lon="6.97473">
        <ele>944</ele>
        <time>2015-05-04T16:10:07Z</time>
      </trkpt>
      <trkpt lat="44.02501" lon="6.9747">
        <ele>943</ele>
        <time>2015-05-04T16:10:08Z</time>
      </trkpt>
      <trkpt lat="44.02497" lon="6.97468">
        <ele>943</ele>
        <time>2015-05-04T16:10:09Z</time>
      </trkpt>
      <trkpt lat="44.02492" lon="6.97469">
        <ele>942</ele>
        <time>2015-05-04T16:10:10Z</time>
      </trkpt>
      <trkpt lat="44.0247" lon="6.97479">
        <ele>941</ele>
        <time>2015-05-04T16:10:13Z</time>
      </trkpt>
      <trkpt lat="44.02399" lon="6.97523">
        <ele>933</ele>
        <time>2015-05-04T16:10:22Z</time>
      </trkpt>
      <trkpt lat="44.02373" lon="6.97542">
        <ele>930</ele>
        <time>2015-05-04T16:10:25Z</time>
      </trkpt>
      <trkpt lat="44.02351" lon="6.97554">
        <ele>928</ele>
        <time>2015-05-04T16:10:28Z</time>
      </trkpt>
      <trkpt lat="44.02327" lon="6.97612">
        <ele>927</ele>
        <time>2015-05-04T16:10:34Z</time>
      </trkpt>
      <trkpt lat="44.02318" lon="6.97622">
        <ele>926</ele>
        <time>2015-05-04T16:10:35Z</time>
      </trkpt>
      <trkpt lat="44.02308" lon="6.97631">
        <ele>925</ele>
        <time>2015-05-04T16:10:36Z</time>
      </trkpt>
      <trkpt lat="44.02284" lon="6.97647">
        <ele>923</ele>
        <time>2015-05-04T16:10:38Z</time>
      </trkpt>
      <trkpt lat="44.02217" lon="6.97685">
        <ele>915</ele>
        <time>2015-05-04T16:10:43Z</time>
      </trkpt>
      <trkpt lat="44.02188" lon="6.97696">
        <ele>912</ele>
        <time>2015-05-04T16:10:45Z</time>
      </trkpt>
      <trkpt lat="44.02142" lon="6.97705">
        <ele>909</ele>
        <time>2015-05-04T16:10:48Z</time>
      </trkpt>
      <trkpt lat="44.02028" lon="6.97719">
        <ele>904</ele>
        <time>2015-05-04T16:10:55Z</time>
      </trkpt>
      <trkpt lat="44.01932" lon="6.97727">
        <ele>900</ele>
        <time>2015-05-04T16:11:01Z</time>
      </trkpt>
      <trkpt lat="44.01921" lon="6.97734">
        <ele>899</ele>
        <time>2015-05-04T16:11:02Z</time>
      </trkpt>
      <trkpt lat="44.0191" lon="6.97744">
        <ele>899</ele>
        <time>2015-05-04T16:11:03Z</time>
      </trkpt>
      <trkpt lat="44.01901" lon="6.97756">
        <ele>898</ele>
        <time>2015-05-04T16:11:04Z</time>
      </trkpt>
      <trkpt lat="44.01885" lon="6.97785">
        <ele>895</ele>
        <time>2015-05-04T16:11:06Z</time>
      </trkpt>
      <trkpt lat="44.01873" lon="6.97817">
        <ele>894</ele>
        <time>2015-05-04T16:11:08Z</time>
      </trkpt>
      <trkpt lat="44.01861" lon="6.97822">
        <ele>893</ele>
        <time>2015-05-04T16:11:09Z</time>
      </trkpt>
      <trkpt lat="44.01851" lon="6.97829">
        <ele>892</ele>
        <time>2015-05-04T16:11:10Z</time>
      </trkpt>
      <trkpt lat="44.01843" lon="6.97839">
        <ele>891</ele>
        <time>2015-05-04T16:11:11Z</time>
      </trkpt>
      <trkpt lat="44.01829" lon="6.97863">
        <ele>890</ele>
        <time>2015-05-04T16:11:13Z</time>
      </trkpt>
      <trkpt lat="44.01817" lon="6.97891">
        <ele>888</ele>
        <time>2015-05-04T16:11:15Z</time>
      </trkpt>
      <trkpt lat="44.01851" lon="6.97949">
        <ele>887</ele>
        <time>2015-05-04T16:11:16Z</time>
      </trkpt>
      <trkpt lat="44.01874" lon="6.98012">
        <ele>887</ele>
        <time>2015-05-04T16:11:18Z</time>
      </trkpt>
      <trkpt lat="44.01888" lon="6.98072">
        <ele>886</ele>
        <time>2015-05-04T16:11:21Z</time>
      </trkpt>
      <trkpt lat="44.01884" lon="6.98089">
        <ele>885</ele>
        <time>2015-05-04T16:11:23Z</time>
      </trkpt>
      <trkpt lat="44.01884" lon="6.98094">
        <ele>885</ele>
        <time>2015-05-04T16:11:24Z</time>
      </trkpt>
      <trkpt lat="44.01891" lon="6.98109">
        <ele>884</ele>
        <time>2015-05-04T16:11:27Z</time>
      </trkpt>
      <trkpt lat="44.01892" lon="6.98118">
        <ele>883</ele>
        <time>2015-05-04T16:11:28Z</time>
      </trkpt>
      <trkpt lat="44.01891" lon="6.98136">
        <ele>882</ele>
        <time>2015-05-04T16:11:30Z</time>
      </trkpt>
      <trkpt lat="44.01882" lon="6.98158">
        <ele>881</ele>
        <time>2015-05-04T16:11:32Z</time>
      </trkpt>
      <trkpt lat="44.01854" lon="6.98212">
        <ele>876</ele>
        <time>2015-05-04T16:11:38Z</time>
      </trkpt>
      <trkpt lat="44.01839" lon="6.98221">
        <ele>875</ele>
        <time>2015-05-04T16:11:43Z</time>
      </trkpt>
      <trkpt lat="44.01791" lon="6.98238">
        <ele>871</ele>
        <time>2015-05-04T16:11:48Z</time>
      </trkpt>
      <trkpt lat="44.01781" lon="6.98239">
        <ele>870</ele>
        <time>2015-05-04T16:11:49Z</time>
      </trkpt>
      <trkpt lat="44.0177" lon="6.98233">
        <ele>869</ele>
        <time>2015-05-04T16:11:50Z</time>
      </trkpt>
      <trkpt lat="44.01756" lon="6.98225">
        <ele>868</ele>
        <time>2015-05-04T16:11:51Z</time>
      </trkpt>
      <trkpt lat="44.01743" lon="6.98215">
        <ele>867</ele>
        <time>2015-05-04T16:11:52Z</time>
      </trkpt>
      <trkpt lat="44.01721" lon="6.98191">
        <ele>865</ele>
        <time>2015-05-04T16:11:54Z</time>
      </trkpt>
      <trkpt lat="44.01698" lon="6.98173">
        <ele>864</ele>
        <time>2015-05-04T16:11:56Z</time>
      </trkpt>
      <trkpt lat="44.01657" lon="6.98132">
        <ele>863</ele>
        <time>2015-05-04T16:11:57Z</time>
      </trkpt>
      <trkpt lat="44.01632" lon="6.9811">
        <ele>862</ele>
        <time>2015-05-04T16:11:58Z</time>
      </trkpt>
      <trkpt lat="44.01615" lon="6.98098">
        <ele>861</ele>
        <time>2015-05-04T16:11:59Z</time>
      </trkpt>
      <trkpt lat="44.01592" lon="6.98091">
        <ele>860</ele>
        <time>2015-05-04T16:12:01Z</time>
      </trkpt>
      <trkpt lat="44.01589" lon="6.98101">
        <ele>859</ele>
        <time>2015-05-04T16:12:02Z</time>
      </trkpt>
      <trkpt lat="44.01551" lon="6.98104">
        <ele>856</ele>
        <time>2015-05-04T16:12:05Z</time>
      </trkpt>
      <trkpt lat="44.01537" lon="6.98103">
        <ele>856</ele>
        <time>2015-05-04T16:12:06Z</time>
      </trkpt>
      <trkpt lat="44.01506" lon="6.98108">
        <ele>853</ele>
        <time>2015-05-04T16:12:09Z</time>
      </trkpt>
      <trkpt lat="44.01481" lon="6.98108">
        <ele>851</ele>
        <time>2015-05-04T16:12:12Z</time>
      </trkpt>
      <trkpt lat="44.01461" lon="6.98111">
        <ele>849</ele>
        <time>2015-05-04T16:12:14Z</time>
      </trkpt>
      <trkpt lat="44.01417" lon="6.98127">
        <ele>845</ele>
        <time>2015-05-04T16:12:18Z</time>
      </trkpt>
      <trkpt lat="44.01374" lon="6.98139">
        <ele>841</ele>
        <time>2015-05-04T16:12:22Z</time>
      </trkpt>
      <trkpt lat="44.0134" lon="6.98153">
        <ele>838</ele>
        <time>2015-05-04T16:12:25Z</time>
      </trkpt>
      <trkpt lat="44.01263" lon="6.98181">
        <ele>830</ele>
        <time>2015-05-04T16:12:32Z</time>
      </trkpt>
      <trkpt lat="44.01253" lon="6.98183">
        <ele>829</ele>
        <time>2015-05-04T16:12:33Z</time>
      </trkpt>
      <trkpt lat="44.01227" lon="6.98166">
        <ele>828</ele>
        <time>2015-05-04T16:12:34Z</time>
      </trkpt>
      <trkpt lat="44.01203" lon="6.98169">
        <ele>825</ele>
        <time>2015-05-04T16:12:36Z</time>
      </trkpt>
      <trkpt lat="44.0116" lon="6.98166">
        <ele>821</ele>
        <time>2015-05-04T16:12:40Z</time>
      </trkpt>
      <trkpt lat="44.01141" lon="6.9816">
        <ele>819</ele>
        <time>2015-05-04T16:12:42Z</time>
      </trkpt>
      <trkpt lat="44.01108" lon="6.98164">
        <ele>815</ele>
        <time>2015-05-04T16:12:45Z</time>
      </trkpt>
      <trkpt lat="44.01085" lon="6.98183">
        <ele>813</ele>
        <time>2015-05-04T16:12:47Z</time>
      </trkpt>
      <trkpt lat="44.01064" lon="6.98208">
        <ele>810</ele>
        <time>2015-05-04T16:12:49Z</time>
      </trkpt>
      <trkpt lat="44.01044" lon="6.98238">
        <ele>807</ele>
        <time>2015-05-04T16:12:51Z</time>
      </trkpt>
      <trkpt lat="44.01024" lon="6.98272">
        <ele>804</ele>
        <time>2015-05-04T16:12:53Z</time>
      </trkpt>
      <trkpt lat="44.01016" lon="6.9829">
        <ele>802</ele>
        <time>2015-05-04T16:12:54Z</time>
      </trkpt>
      <trkpt lat="44.01002" lon="6.98297">
        <ele>801</ele>
        <time>2015-05-04T16:12:55Z</time>
      </trkpt>
      <trkpt lat="44.00981" lon="6.98346">
        <ele>797</ele>
        <time>2015-05-04T16:12:58Z</time>
      </trkpt>
      <trkpt lat="44.00976" lon="6.98395">
        <ele>795</ele>
        <time>2015-05-04T16:13:01Z</time>
      </trkpt>
      <trkpt lat="44.00977" lon="6.98408">
        <ele>795</ele>
        <time>2015-05-04T16:13:02Z</time>
      </trkpt>
      <trkpt lat="44.00978" lon="6.98417">
        <ele>794</ele>
        <time>2015-05-04T16:13:03Z</time>
      </trkpt>
      <trkpt lat="44.00977" lon="6.98425">
        <ele>793</ele>
        <time>2015-05-04T16:13:04Z</time>
      </trkpt>
      <trkpt lat="44.00983" lon="6.9844">
        <ele>793</ele>
        <time>2015-05-04T16:13:05Z</time>
      </trkpt>
      <trkpt lat="44.0098" lon="6.98438">
        <ele>792</ele>
        <time>2015-05-04T16:13:06Z</time>
      </trkpt>
      <trkpt lat="44.00984" lon="6.98447">
        <ele>791</ele>
        <time>2015-05-04T16:13:07Z</time>
      </trkpt>
      <trkpt lat="44.00981" lon="6.98451">
        <ele>790</ele>
        <time>2015-05-04T16:13:08Z</time>
      </trkpt>
      <trkpt lat="44.0098" lon="6.98469">
        <ele>790</ele>
        <time>2015-05-04T16:13:10Z</time>
      </trkpt>
      <trkpt lat="44.00973" lon="6.98485">
        <ele>788</ele>
        <time>2015-05-04T16:13:12Z</time>
      </trkpt>
      <trkpt lat="44.00967" lon="6.98486">
        <ele>788</ele>
        <time>2015-05-04T16:13:13Z</time>
      </trkpt>
      <trkpt lat="44.00962" lon="6.98496">
        <ele>786</ele>
        <time>2015-05-04T16:13:15Z</time>
      </trkpt>
      <trkpt lat="44.00949" lon="6.98504">
        <ele>785</ele>
        <time>2015-05-04T16:13:17Z</time>
      </trkpt>
      <trkpt lat="44.00948" lon="6.98521">
        <ele>784</ele>
        <time>2015-05-04T16:13:18Z</time>
      </trkpt>
      <trkpt lat="44.00934" lon="6.9858">
        <ele>780</ele>
        <time>2015-05-04T16:13:22Z</time>
      </trkpt>
      <trkpt lat="44.00929" lon="6.98597">
        <ele>779</ele>
        <time>2015-05-04T16:13:23Z</time>
      </trkpt>
      <trkpt lat="44.00919" lon="6.98651">
        <ele>776</ele>
        <time>2015-05-04T16:13:26Z</time>
      </trkpt>
      <trkpt lat="44.00892" lon="6.98765">
        <ele>769</ele>
        <time>2015-05-04T16:13:32Z</time>
      </trkpt>
      <trkpt lat="44.00887" lon="6.98801">
        <ele>766</ele>
        <time>2015-05-04T16:13:34Z</time>
      </trkpt>
      <trkpt lat="44.00875" lon="6.98847">
        <ele>763</ele>
        <time>2015-05-04T16:13:37Z</time>
      </trkpt>
      <trkpt lat="44.00863" lon="6.98876">
        <ele>762</ele>
        <time>2015-05-04T16:13:39Z</time>
      </trkpt>
      <trkpt lat="44.00851" lon="6.98928">
        <ele>760</ele>
        <time>2015-05-04T16:13:42Z</time>
      </trkpt>
      <trkpt lat="44.00849" lon="6.98947">
        <ele>759</ele>
        <time>2015-05-04T16:13:43Z</time>
      </trkpt>
      <trkpt lat="44.00841" lon="6.9898">
        <ele>757</ele>
        <time>2015-05-04T16:13:45Z</time>
      </trkpt>
      <trkpt lat="44.00836" lon="6.99035">
        <ele>754</ele>
        <time>2015-05-04T16:13:48Z</time>
      </trkpt>
      <trkpt lat="44.00821" lon="6.99086">
        <ele>751</ele>
        <time>2015-05-04T16:13:52Z</time>
      </trkpt>
      <trkpt lat="44.00825" lon="6.99102">
        <ele>750</ele>
        <time>2015-05-04T16:13:53Z</time>
      </trkpt>
      <trkpt lat="44.00822" lon="6.99133">
        <ele>749</ele>
        <time>2015-05-04T16:13:56Z</time>
      </trkpt>
      <trkpt lat="44.00815" lon="6.99135">
        <ele>748</ele>
        <time>2015-05-04T16:13:57Z</time>
      </trkpt>
      <trkpt lat="44.00813" lon="6.9914">
        <ele>747</ele>
        <time>2015-05-04T16:13:58Z</time>
      </trkpt>
      <trkpt lat="44.00817" lon="6.99154">
        <ele>746</ele>
        <time>2015-05-04T16:13:59Z</time>
      </trkpt>
      <trkpt lat="44.00814" lon="6.99162">
        <ele>745</ele>
        <time>2015-05-04T16:14:00Z</time>
      </trkpt>
      <trkpt lat="44.0081" lon="6.99191">
        <ele>744</ele>
        <time>2015-05-04T16:14:02Z</time>
      </trkpt>
      <trkpt lat="44.00782" lon="6.9918">
        <ele>743</ele>
        <time>2015-05-04T16:14:03Z</time>
      </trkpt>
      <trkpt lat="44.00777" lon="6.99195">
        <ele>742</ele>
        <time>2015-05-04T16:14:04Z</time>
      </trkpt>
      <trkpt lat="44.00753" lon="6.99189">
        <ele>741</ele>
        <time>2015-05-04T16:14:05Z</time>
      </trkpt>
      <trkpt lat="44.00748" lon="6.99203">
        <ele>740</ele>
        <time>2015-05-04T16:14:06Z</time>
      </trkpt>
      <trkpt lat="44.00727" lon="6.99199">
        <ele>738</ele>
        <time>2015-05-04T16:14:07Z</time>
      </trkpt>
      <trkpt lat="44.00715" lon="6.9922">
        <ele>736</ele>
        <time>2015-05-04T16:14:09Z</time>
      </trkpt>
      <trkpt lat="44.00567" lon="6.99018">
        <ele>735</ele>
        <time>2015-05-04T16:14:10Z</time>
      </trkpt>
      <trkpt lat="44.00554" lon="6.99023">
        <ele>734</ele>
        <time>2015-05-04T16:14:11Z</time>
      </trkpt>
      <trkpt lat="44.00529" lon="6.99014">
        <ele>731</ele>
        <time>2015-05-04T16:14:13Z</time>
      </trkpt>
      <trkpt lat="44.00472" lon="6.99001">
        <ele>724</ele>
        <time>2015-05-04T16:14:18Z</time>
      </trkpt>
      <trkpt lat="44.0045" lon="6.98986">
        <ele>721</ele>
        <time>2015-05-04T16:14:20Z</time>
      </trkpt>
      <trkpt lat="44.00392" lon="6.98939">
        <ele>713</ele>
        <time>2015-05-04T16:14:25Z</time>
      </trkpt>
      <trkpt lat="44.00344" lon="6.98915">
        <ele>708</ele>
        <time>2015-05-04T16:14:29Z</time>
      </trkpt>
      <trkpt lat="44.00333" lon="6.98906">
        <ele>707</ele>
        <time>2015-05-04T16:14:30Z</time>
      </trkpt>
      <trkpt lat="44.00318" lon="6.98886">
        <ele>705</ele>
        <time>2015-05-04T16:14:32Z</time>
      </trkpt>
      <trkpt lat="44.00302" lon="6.98874">
        <ele>704</ele>
        <time>2015-05-04T16:14:34Z</time>
      </trkpt>
      <trkpt lat="44.00294" lon="6.98872">
        <ele>703</ele>
        <time>2015-05-04T16:14:35Z</time>
      </trkpt>
      <trkpt lat="44.00286" lon="6.98874">
        <ele>703</ele>
        <time>2015-05-04T16:14:36Z</time>
      </trkpt>
      <trkpt lat="44.00278" lon="6.9888">
        <ele>702</ele>
        <time>2015-05-04T16:14:37Z</time>
      </trkpt>
      <trkpt lat="44.00271" lon="6.98893">
        <ele>702</ele>
        <time>2015-05-04T16:14:38Z</time>
      </trkpt>
      <trkpt lat="44.00256" lon="6.9891">
        <ele>700</ele>
        <time>2015-05-04T16:14:40Z</time>
      </trkpt>
      <trkpt lat="44.00248" lon="6.98915">
        <ele>699</ele>
        <time>2015-05-04T16:14:41Z</time>
      </trkpt>
      <trkpt lat="44.0024" lon="6.98919">
        <ele>698</ele>
        <time>2015-05-04T16:14:42Z</time>
      </trkpt>
      <trkpt lat="44.0022" lon="6.98921">
        <ele>696</ele>
        <time>2015-05-04T16:14:44Z</time>
      </trkpt>
      <trkpt lat="44.00197" lon="6.98912">
        <ele>694</ele>
        <time>2015-05-04T16:14:46Z</time>
      </trkpt>
      <trkpt lat="44.00177" lon="6.98898">
        <ele>690</ele>
        <time>2015-05-04T16:14:48Z</time>
      </trkpt>
      <trkpt lat="44.00162" lon="6.98875">
        <ele>688</ele>
        <time>2015-05-04T16:14:50Z</time>
      </trkpt>
      <trkpt lat="44.00154" lon="6.98865">
        <ele>687</ele>
        <time>2015-05-04T16:14:51Z</time>
      </trkpt>
      <trkpt lat="44.00145" lon="6.98859">
        <ele>686</ele>
        <time>2015-05-04T16:14:52Z</time>
      </trkpt>
      <trkpt lat="44.00135" lon="6.98856">
        <ele>685</ele>
        <time>2015-05-04T16:14:53Z</time>
      </trkpt>
      <trkpt lat="44.00125" lon="6.98854">
        <ele>684</ele>
        <time>2015-05-04T16:14:54Z</time>
      </trkpt>
      <trkpt lat="44.00109" lon="6.98855">
        <ele>682</ele>
        <time>2015-05-04T16:14:56Z</time>
      </trkpt>
      <trkpt lat="44.00102" lon="6.98851">
        <ele>681</ele>
        <time>2015-05-04T16:14:57Z</time>
      </trkpt>
      <trkpt lat="44.00098" lon="6.98843">
        <ele>681</ele>
        <time>2015-05-04T16:14:58Z</time>
      </trkpt>
      <trkpt lat="44.00096" lon="6.98831">
        <ele>680</ele>
        <time>2015-05-04T16:14:59Z</time>
      </trkpt>
      <trkpt lat="44.00094" lon="6.98809">
        <ele>679</ele>
        <time>2015-05-04T16:15:01Z</time>
      </trkpt>
      <trkpt lat="44.00092" lon="6.98802">
        <ele>678</ele>
        <time>2015-05-04T16:15:02Z</time>
      </trkpt>
      <trkpt lat="44.00088" lon="6.98799">
        <ele>677</ele>
        <time>2015-05-04T16:15:03Z</time>
      </trkpt>
      <trkpt lat="44.00083" lon="6.98799">
        <ele>677</ele>
        <time>2015-05-04T16:15:04Z</time>
      </trkpt>
      <trkpt lat="44.00076" lon="6.98801">
        <ele>676</ele>
        <time>2015-05-04T16:15:05Z</time>
      </trkpt>
      <trkpt lat="44.00071" lon="6.98805">
        <ele>676</ele>
        <time>2015-05-04T16:15:06Z</time>
      </trkpt>
      <trkpt lat="44.00069" lon="6.98816">
        <ele>675</ele>
        <time>2015-05-04T16:15:08Z</time>
      </trkpt>
      <trkpt lat="44.00071" lon="6.98838">
        <ele>674</ele>
        <time>2015-05-04T16:15:11Z</time>
      </trkpt>
      <trkpt lat="44.00076" lon="6.98848">
        <ele>673</ele>
        <time>2015-05-04T16:15:12Z</time>
      </trkpt>
      <trkpt lat="44.00089" lon="6.98862">
        <ele>671</ele>
        <time>2015-05-04T16:15:14Z</time>
      </trkpt>
      <trkpt lat="44.00117" lon="6.98872">
        <ele>668</ele>
        <time>2015-05-04T16:15:18Z</time>
      </trkpt>
      <trkpt lat="44.00121" lon="6.98877">
        <ele>667</ele>
        <time>2015-05-04T16:15:19Z</time>
      </trkpt>
      <trkpt lat="44.00124" lon="6.98886">
        <ele>666</ele>
        <time>2015-05-04T16:15:20Z</time>
      </trkpt>
      <trkpt lat="44.00129" lon="6.98904">
        <ele>664</ele>
        <time>2015-05-04T16:15:22Z</time>
      </trkpt>
      <trkpt lat="44.00137" lon="6.9892">
        <ele>663</ele>
        <time>2015-05-04T16:15:23Z</time>
      </trkpt>
      <trkpt lat="44.00146" lon="6.98934">
        <ele>661</ele>
        <time>2015-05-04T16:15:24Z</time>
      </trkpt>
      <trkpt lat="44.00204" lon="6.98996">
        <ele>655</ele>
        <time>2015-05-04T16:15:29Z</time>
      </trkpt>
      <trkpt lat="44.00225" lon="6.99024">
        <ele>653</ele>
        <time>2015-05-04T16:15:31Z</time>
      </trkpt>
      <trkpt lat="44.00233" lon="6.99032">
        <ele>652</ele>
        <time>2015-05-04T16:15:32Z</time>
      </trkpt>
      <trkpt lat="44.00256" lon="6.99044">
        <ele>649</ele>
        <time>2015-05-04T16:15:35Z</time>
      </trkpt>
      <trkpt lat="44.00268" lon="6.99041">
        <ele>646</ele>
        <time>2015-05-04T16:15:37Z</time>
      </trkpt>
      <trkpt lat="44.00277" lon="6.99043">
        <ele>645</ele>
        <time>2015-05-04T16:15:38Z</time>
      </trkpt>
      <trkpt lat="44.00286" lon="6.99047">
        <ele>644</ele>
        <time>2015-05-04T16:15:39Z</time>
      </trkpt>
      <trkpt lat="44.00306" lon="6.99062">
        <ele>642</ele>
        <time>2015-05-04T16:15:41Z</time>
      </trkpt>
      <trkpt lat="44.00327" lon="6.99085">
        <ele>639</ele>
        <time>2015-05-04T16:15:43Z</time>
      </trkpt>
      <trkpt lat="44.00363" lon="6.99158">
        <ele>632</ele>
        <time>2015-05-04T16:15:48Z</time>
      </trkpt>
      <trkpt lat="44.00374" lon="6.99166">
        <ele>631</ele>
        <time>2015-05-04T16:15:49Z</time>
      </trkpt>
      <trkpt lat="44.00394" lon="6.99178">
        <ele>629</ele>
        <time>2015-05-04T16:15:51Z</time>
      </trkpt>
      <trkpt lat="44.00403" lon="6.99178">
        <ele>627</ele>
        <time>2015-05-04T16:15:52Z</time>
      </trkpt>
      <trkpt lat="44.00411" lon="6.99176">
        <ele>626</ele>
        <time>2015-05-04T16:15:53Z</time>
      </trkpt>
      <trkpt lat="44.00424" lon="6.99181">
        <ele>626</ele>
        <time>2015-05-04T16:15:55Z</time>
      </trkpt>
      <trkpt lat="44.00425" lon="6.99192">
        <ele>626</ele>
        <time>2015-05-04T16:15:57Z</time>
      </trkpt>
      <trkpt lat="44.00413" lon="6.99192">
        <ele>626</ele>
        <time>2015-05-04T16:16:00Z</time>
      </trkpt>
      <trkpt lat="44.0039" lon="6.99186">
        <ele>626</ele>
        <time>2015-05-04T16:16:04Z</time>
      </trkpt>
      <trkpt lat="44.00384" lon="6.99183">
        <ele>626</ele>
        <time>2015-05-04T16:16:05Z</time>
      </trkpt>
      <trkpt lat="44.00378" lon="6.99178">
        <ele>625</ele>
        <time>2015-05-04T16:16:06Z</time>
      </trkpt>
      <trkpt lat="44.00369" lon="6.99164">
        <ele>624</ele>
        <time>2015-05-04T16:16:08Z</time>
      </trkpt>
      <trkpt lat="44.00355" lon="6.99138">
        <ele>623</ele>
        <time>2015-05-04T16:16:11Z</time>
      </trkpt>
      <trkpt lat="44.00333" lon="6.99103">
        <ele>621</ele>
        <time>2015-05-04T16:16:15Z</time>
      </trkpt>
      <trkpt lat="44.00319" lon="6.99086">
        <ele>619</ele>
        <time>2015-05-04T16:16:17Z</time>
      </trkpt>
      <trkpt lat="44.00302" lon="6.99072">
        <ele>618</ele>
        <time>2015-05-04T16:16:19Z</time>
      </trkpt>
      <trkpt lat="44.00293" lon="6.99066">
        <ele>617</ele>
        <time>2015-05-04T16:16:20Z</time>
      </trkpt>
      <trkpt lat="44.00282" lon="6.99063">
        <ele>616</ele>
        <time>2015-05-04T16:16:21Z</time>
      </trkpt>
      <trkpt lat="44.00269" lon="6.99061">
        <ele>615</ele>
        <time>2015-05-04T16:16:22Z</time>
      </trkpt>
      <trkpt lat="44.00236" lon="6.99066">
        <ele>613</ele>
        <time>2015-05-04T16:16:25Z</time>
      </trkpt>
      <trkpt lat="44.00215" lon="6.9906">
        <ele>610</ele>
        <time>2015-05-04T16:16:27Z</time>
      </trkpt>
      <trkpt lat="44.00194" lon="6.99044">
        <ele>609</ele>
        <time>2015-05-04T16:16:29Z</time>
      </trkpt>
      <trkpt lat="44.00183" lon="6.99037">
        <ele>608</ele>
        <time>2015-05-04T16:16:30Z</time>
      </trkpt>
      <trkpt lat="44.0016" lon="6.99027">
        <ele>606</ele>
        <time>2015-05-04T16:16:32Z</time>
      </trkpt>
      <trkpt lat="44.00151" lon="6.99019">
        <ele>605</ele>
        <time>2015-05-04T16:16:33Z</time>
      </trkpt>
      <trkpt lat="44.00131" lon="6.99">
        <ele>603</ele>
        <time>2015-05-04T16:16:35Z</time>
      </trkpt>
      <trkpt lat="44.00098" lon="6.98973">
        <ele>600</ele>
        <time>2015-05-04T16:16:38Z</time>
      </trkpt>
      <trkpt lat="44.00066" lon="6.9894">
        <ele>597</ele>
        <time>2015-05-04T16:16:41Z</time>
      </trkpt>
      <trkpt lat="44.00002" lon="6.98884">
        <ele>591</ele>
        <time>2015-05-04T16:16:46Z</time>
      </trkpt>
      <trkpt lat="43.99987" lon="6.98873">
        <ele>590</ele>
        <time>2015-05-04T16:16:47Z</time>
      </trkpt>
      <trkpt lat="43.99972" lon="6.98865">
        <ele>589</ele>
        <time>2015-05-04T16:16:48Z</time>
      </trkpt>
      <trkpt lat="43.9993" lon="6.98851">
        <ele>585</ele>
        <time>2015-05-04T16:16:51Z</time>
      </trkpt>
      <trkpt lat="43.99925" lon="6.98859">
        <ele>585</ele>
        <time>2015-05-04T16:16:52Z</time>
      </trkpt>
      <trkpt lat="43.99914" lon="6.9886">
        <ele>585</ele>
        <time>2015-05-04T16:16:53Z</time>
      </trkpt>
      <trkpt lat="43.99895" lon="6.98873">
        <ele>585</ele>
        <time>2015-05-04T16:16:55Z</time>
      </trkpt>
      <trkpt lat="43.99876" lon="6.98903">
        <ele>585</ele>
        <time>2015-05-04T16:16:58Z</time>
      </trkpt>
      <trkpt lat="43.99868" lon="6.98927">
        <ele>585</ele>
        <time>2015-05-04T16:17:00Z</time>
      </trkpt>
      <trkpt lat="43.99852" lon="6.98959">
        <ele>585</ele>
        <time>2015-05-04T16:17:03Z</time>
      </trkpt>
      <trkpt lat="43.9983" lon="6.98991">
        <ele>585</ele>
        <time>2015-05-04T16:17:07Z</time>
      </trkpt>
      <trkpt lat="43.99796" lon="6.99024">
        <ele>585</ele>
        <time>2015-05-04T16:17:12Z</time>
      </trkpt>
      <trkpt lat="43.99751" lon="6.9907">
        <ele>585</ele>
        <time>2015-05-04T16:17:19Z</time>
      </trkpt>
      <trkpt lat="43.99697" lon="6.99108">
        <ele>585</ele>
        <time>2015-05-04T16:17:27Z</time>
      </trkpt>
      <trkpt lat="43.9968" lon="6.99117">
        <ele>585</ele>
        <time>2015-05-04T16:17:30Z</time>
      </trkpt>
      <trkpt lat="43.99677" lon="6.99118">
        <ele>585</ele>
        <time>2015-05-04T16:17:31Z</time>
      </trkpt>
      <trkpt lat="43.99668" lon="6.99117">
        <ele>585</ele>
        <time>2015-05-04T16:17:34Z</time>
      </trkpt>
      <trkpt lat="43.99655" lon="6.99109">
        <ele>585</ele>
        <time>2015-05-04T16:17:39Z</time>
      </trkpt>
      <trkpt lat="43.99648" lon="6.99108">
        <ele>585</ele>
        <time>2015-05-04T16:17:41Z</time>
      </trkpt>
      <trkpt lat="43.99633" lon="6.99109">
        <ele>585</ele>
        <time>2015-05-04T16:17:46Z</time>
      </trkpt>
      <trkpt lat="43.99624" lon="6.99104">
        <ele>585</ele>
        <time>2015-05-04T16:17:48Z</time>
      </trkpt>
      <trkpt lat="43.99605" lon="6.99096">
        <ele>585</ele>
        <time>2015-05-04T16:17:51Z</time>
      </trkpt>
      <trkpt lat="43.99599" lon="6.99098">
        <ele>585</ele>
        <time>2015-05-04T16:17:52Z</time>
      </trkpt>
      <trkpt lat="43.99582" lon="6.99094">
        <ele>585</ele>
        <time>2015-05-04T16:17:54Z</time>
      </trkpt>
      <trkpt lat="43.99556" lon="6.99074">
        <ele>585</ele>
        <time>2015-05-04T16:17:57Z</time>
      </trkpt>
      <trkpt lat="43.99517" lon="6.99073">
        <ele>585</ele>
        <time>2015-05-04T16:18:02Z</time>
      </trkpt>
      <trkpt lat="43.99494" lon="6.99068">
        <ele>585</ele>
        <time>2015-05-04T16:18:05Z</time>
      </trkpt>
      <trkpt lat="43.99487" lon="6.9907">
        <ele>585</ele>
        <time>2015-05-04T16:18:06Z</time>
      </trkpt>
      <trkpt lat="43.9947" lon="6.99085">
        <ele>584</ele>
        <time>2015-05-04T16:18:09Z</time>
      </trkpt>
      <trkpt lat="43.99458" lon="6.9909">
        <ele>583</ele>
        <time>2015-05-04T16:18:11Z</time>
      </trkpt>
      <trkpt lat="43.99452" lon="6.99092">
        <ele>583</ele>
        <time>2015-05-04T16:18:12Z</time>
      </trkpt>
      <trkpt lat="43.99422" lon="6.99092">
        <ele>586</ele>
        <time>2015-05-04T16:18:17Z</time>
      </trkpt>
      <trkpt lat="43.99406" lon="6.99097">
        <ele>586</ele>
        <time>2015-05-04T16:18:20Z</time>
      </trkpt>
      <trkpt lat="43.99392" lon="6.9911">
        <ele>586</ele>
        <time>2015-05-04T16:18:23Z</time>
      </trkpt>
      <trkpt lat="43.99376" lon="6.99129">
        <ele>586</ele>
        <time>2015-05-04T16:18:27Z</time>
      </trkpt>
      <trkpt lat="43.99373" lon="6.99142">
        <ele>586</ele>
        <time>2015-05-04T16:18:29Z</time>
      </trkpt>
      <trkpt lat="43.99376" lon="6.99158">
        <ele>586</ele>
        <time>2015-05-04T16:18:32Z</time>
      </trkpt>
      <trkpt lat="43.99386" lon="6.99168">
        <ele>586</ele>
        <time>2015-05-04T16:18:35Z</time>
      </trkpt>
      <trkpt lat="43.99404" lon="6.99172">
        <ele>586</ele>
        <time>2015-05-04T16:18:38Z</time>
      </trkpt>
      <trkpt lat="43.99418" lon="6.99193">
        <ele>586</ele>
        <time>2015-05-04T16:18:41Z</time>
      </trkpt>
      <trkpt lat="43.99442" lon="6.99331">
        <ele>580</ele>
        <time>2015-05-04T16:18:53Z</time>
      </trkpt>
      <trkpt lat="43.99443" lon="6.99344">
        <ele>580</ele>
        <time>2015-05-04T16:18:54Z</time>
      </trkpt>
      <trkpt lat="43.9944" lon="6.99357">
        <ele>579</ele>
        <time>2015-05-04T16:18:55Z</time>
      </trkpt>
      <trkpt lat="43.99435" lon="6.9937">
        <ele>578</ele>
        <time>2015-05-04T16:18:56Z</time>
      </trkpt>
      <trkpt lat="43.99386" lon="6.99424">
        <ele>574</ele>
        <time>2015-05-04T16:19:02Z</time>
      </trkpt>
      <trkpt lat="43.99325" lon="6.99525">
        <ele>571</ele>
        <time>2015-05-04T16:19:11Z</time>
      </trkpt>
      <trkpt lat="43.99309" lon="6.99543">
        <ele>570</ele>
        <time>2015-05-04T16:19:13Z</time>
      </trkpt>
      <trkpt lat="43.99272" lon="6.99575">
        <ele>568</ele>
        <time>2015-05-04T16:19:17Z</time>
      </trkpt>
      <trkpt lat="43.99249" lon="6.99605">
        <ele>566</ele>
        <time>2015-05-04T16:19:20Z</time>
      </trkpt>
      <trkpt lat="43.99235" lon="6.99627">
        <ele>565</ele>
        <time>2015-05-04T16:19:22Z</time>
      </trkpt>
      <trkpt lat="43.99229" lon="6.9964">
        <ele>565</ele>
        <time>2015-05-04T16:19:23Z</time>
      </trkpt>
      <trkpt lat="43.99226" lon="6.99667">
        <ele>564</ele>
        <time>2015-05-04T16:19:25Z</time>
      </trkpt>
      <trkpt lat="43.99229" lon="6.99722">
        <ele>562</ele>
        <time>2015-05-04T16:19:29Z</time>
      </trkpt>
      <trkpt lat="43.99229" lon="6.99735">
        <ele>562</ele>
        <time>2015-05-04T16:19:30Z</time>
      </trkpt>
      <trkpt lat="43.99226" lon="6.99748">
        <ele>562</ele>
        <time>2015-05-04T16:19:31Z</time>
      </trkpt>
      <trkpt lat="43.99215" lon="6.99789">
        <ele>560</ele>
        <time>2015-05-04T16:19:34Z</time>
      </trkpt>
      <trkpt lat="43.99185" lon="6.9982">
        <ele>559</ele>
        <time>2015-05-04T16:19:38Z</time>
      </trkpt>
      <trkpt lat="43.99177" lon="6.99824">
        <ele>558</ele>
        <time>2015-05-04T16:19:39Z</time>
      </trkpt>
      <trkpt lat="43.99167" lon="6.99827">
        <ele>558</ele>
        <time>2015-05-04T16:19:40Z</time>
      </trkpt>
      <trkpt lat="43.99147" lon="6.99836">
        <ele>557</ele>
        <time>2015-05-04T16:19:42Z</time>
      </trkpt>
      <trkpt lat="43.99135" lon="6.99838">
        <ele>556</ele>
        <time>2015-05-04T16:19:43Z</time>
      </trkpt>
      <trkpt lat="43.99104" lon="6.99839">
        <ele>554</ele>
        <time>2015-05-04T16:19:46Z</time>
      </trkpt>
      <trkpt lat="43.99047" lon="6.99846">
        <ele>551</ele>
        <time>2015-05-04T16:19:51Z</time>
      </trkpt>
      <trkpt lat="43.99035" lon="6.99849">
        <ele>550</ele>
        <time>2015-05-04T16:19:52Z</time>
      </trkpt>
      <trkpt lat="43.99022" lon="6.99847">
        <ele>549</ele>
        <time>2015-05-04T16:19:53Z</time>
      </trkpt>
      <trkpt lat="43.99011" lon="6.99852">
        <ele>548</ele>
        <time>2015-05-04T16:19:54Z</time>
      </trkpt>
      <trkpt lat="43.98987" lon="6.99866">
        <ele>546</ele>
        <time>2015-05-04T16:19:56Z</time>
      </trkpt>
      <trkpt lat="43.98955" lon="6.99892">
        <ele>543</ele>
        <time>2015-05-04T16:19:59Z</time>
      </trkpt>
      <trkpt lat="43.98923" lon="6.99919">
        <ele>542</ele>
        <time>2015-05-04T16:20:02Z</time>
      </trkpt>
      <trkpt lat="43.98894" lon="6.99949">
        <ele>540</ele>
        <time>2015-05-04T16:20:05Z</time>
      </trkpt>
      <trkpt lat="43.98885" lon="6.99961">
        <ele>540</ele>
        <time>2015-05-04T16:20:06Z</time>
      </trkpt>
      <trkpt lat="43.98869" lon="6.99987">
        <ele>539</ele>
        <time>2015-05-04T16:20:08Z</time>
      </trkpt>
      <trkpt lat="43.98847" lon="7.0003">
        <ele>536</ele>
        <time>2015-05-04T16:20:11Z</time>
      </trkpt>
      <trkpt lat="43.98822" lon="7.00085">
        <ele>534</ele>
        <time>2015-05-04T16:20:15Z</time>
      </trkpt>
      <trkpt lat="43.98815" lon="7.00093">
        <ele>534</ele>
        <time>2015-05-04T16:20:16Z</time>
      </trkpt>
      <trkpt lat="43.98797" lon="7.00097">
        <ele>534</ele>
        <time>2015-05-04T16:20:18Z</time>
      </trkpt>
      <trkpt lat="43.9877" lon="7.00083">
        <ele>533</ele>
        <time>2015-05-04T16:20:21Z</time>
      </trkpt>
      <trkpt lat="43.9876" lon="7.00084">
        <ele>532</ele>
        <time>2015-05-04T16:20:22Z</time>
      </trkpt>
      <trkpt lat="43.98709" lon="7.00122">
        <ele>530</ele>
        <time>2015-05-04T16:20:28Z</time>
      </trkpt>
      <trkpt lat="43.98664" lon="7.00152">
        <ele>529</ele>
        <time>2015-05-04T16:20:33Z</time>
      </trkpt>
      <trkpt lat="43.98621" lon="7.00182">
        <ele>526</ele>
        <time>2015-05-04T16:20:38Z</time>
      </trkpt>
      <trkpt lat="43.98576" lon="7.00211">
        <ele>525</ele>
        <time>2015-05-04T16:20:43Z</time>
      </trkpt>
      <trkpt lat="43.98484" lon="7.00259">
        <ele>521</ele>
        <time>2015-05-04T16:20:53Z</time>
      </trkpt>
      <trkpt lat="43.98447" lon="7.00271">
        <ele>521</ele>
        <time>2015-05-04T16:20:57Z</time>
      </trkpt>
      <trkpt lat="43.98409" lon="7.00273">
        <ele>519</ele>
        <time>2015-05-04T16:21:01Z</time>
      </trkpt>
      <trkpt lat="43.98358" lon="7.00278">
        <ele>518</ele>
        <time>2015-05-04T16:21:06Z</time>
      </trkpt>
      <trkpt lat="43.9832" lon="7.00291">
        <ele>517</ele>
        <time>2015-05-04T16:21:10Z</time>
      </trkpt>
      <trkpt lat="43.98267" lon="7.00315">
        <ele>516</ele>
        <time>2015-05-04T16:21:16Z</time>
      </trkpt>
      <trkpt lat="43.98248" lon="7.00322">
        <ele>515</ele>
        <time>2015-05-04T16:21:18Z</time>
      </trkpt>
      <trkpt lat="43.98221" lon="7.00328">
        <ele>514</ele>
        <time>2015-05-04T16:21:21Z</time>
      </trkpt>
      <trkpt lat="43.98184" lon="7.0033">
        <ele>512</ele>
        <time>2015-05-04T16:21:25Z</time>
      </trkpt>
      <trkpt lat="43.98145" lon="7.00331">
        <ele>512</ele>
        <time>2015-05-04T16:21:29Z</time>
      </trkpt>
      <trkpt lat="43.98123" lon="7.00329">
        <ele>511</ele>
        <time>2015-05-04T16:21:31Z</time>
      </trkpt>
      <trkpt lat="43.9809" lon="7.00321">
        <ele>510</ele>
        <time>2015-05-04T16:21:34Z</time>
      </trkpt>
      <trkpt lat="43.9807" lon="7.0032">
        <ele>509</ele>
        <time>2015-05-04T16:21:36Z</time>
      </trkpt>
      <trkpt lat="43.98053" lon="7.00317">
        <ele>508</ele>
        <time>2015-05-04T16:21:38Z</time>
      </trkpt>
      <trkpt lat="43.98004" lon="7.00301">
        <ele>507</ele>
        <time>2015-05-04T16:21:44Z</time>
      </trkpt>
      <trkpt lat="43.97984" lon="7.00296">
        <ele>506</ele>
        <time>2015-05-04T16:21:46Z</time>
      </trkpt>
      <trkpt lat="43.97954" lon="7.00293">
        <ele>506</ele>
        <time>2015-05-04T16:21:49Z</time>
      </trkpt>
      <trkpt lat="43.97925" lon="7.00299">
        <ele>506</ele>
        <time>2015-05-04T16:21:52Z</time>
      </trkpt>
      <trkpt lat="43.97918" lon="7.00305">
        <ele>505</ele>
        <time>2015-05-04T16:21:53Z</time>
      </trkpt>
      <trkpt lat="43.97895" lon="7.0032">
        <ele>504</ele>
        <time>2015-05-04T16:21:56Z</time>
      </trkpt>
      <trkpt lat="43.97879" lon="7.00326">
        <ele>504</ele>
        <time>2015-05-04T16:21:58Z</time>
      </trkpt>
      <trkpt lat="43.97871" lon="7.00327">
        <ele>504</ele>
        <time>2015-05-04T16:21:59Z</time>
      </trkpt>
      <trkpt lat="43.97864" lon="7.00326">
        <ele>503</ele>
        <time>2015-05-04T16:22:00Z</time>
      </trkpt>
      <trkpt lat="43.97836" lon="7.00317">
        <ele>502</ele>
        <time>2015-05-04T16:22:03Z</time>
      </trkpt>
      <trkpt lat="43.97826" lon="7.00316">
        <ele>501</ele>
        <time>2015-05-04T16:22:04Z</time>
      </trkpt>
      <trkpt lat="43.97765" lon="7.00324">
        <ele>500</ele>
        <time>2015-05-04T16:22:10Z</time>
      </trkpt>
      <trkpt lat="43.97736" lon="7.00326">
        <ele>499</ele>
        <time>2015-05-04T16:22:13Z</time>
      </trkpt>
      <trkpt lat="43.97631" lon="7.00323">
        <ele>496</ele>
        <time>2015-05-04T16:22:22Z</time>
      </trkpt>
      <trkpt lat="43.97596" lon="7.00328">
        <ele>494</ele>
        <time>2015-05-04T16:22:25Z</time>
      </trkpt>
      <trkpt lat="43.97562" lon="7.0033">
        <ele>493</ele>
        <time>2015-05-04T16:22:28Z</time>
      </trkpt>
      <trkpt lat="43.97538" lon="7.00328">
        <ele>493</ele>
        <time>2015-05-04T16:22:30Z</time>
      </trkpt>
      <trkpt lat="43.97503" lon="7.00327">
        <ele>492</ele>
        <time>2015-05-04T16:22:33Z</time>
      </trkpt>
      <trkpt lat="43.97492" lon="7.00329">
        <ele>492</ele>
        <time>2015-05-04T16:22:34Z</time>
      </trkpt>
      <trkpt lat="43.97482" lon="7.00332">
        <ele>491</ele>
        <time>2015-05-04T16:22:35Z</time>
      </trkpt>
      <trkpt lat="43.97472" lon="7.00337">
        <ele>491</ele>
        <time>2015-05-04T16:22:36Z</time>
      </trkpt>
      <trkpt lat="43.97462" lon="7.0034">
        <ele>491</ele>
        <time>2015-05-04T16:22:37Z</time>
      </trkpt>
      <trkpt lat="43.97451" lon="7.00342">
        <ele>491</ele>
        <time>2015-05-04T16:22:38Z</time>
      </trkpt>
      <trkpt lat="43.97442" lon="7.00348">
        <ele>491</ele>
        <time>2015-05-04T16:22:39Z</time>
      </trkpt>
      <trkpt lat="43.97456" lon="7.00394">
        <ele>490</ele>
        <time>2015-05-04T16:22:40Z</time>
      </trkpt>
      <trkpt lat="43.97454" lon="7.00413">
        <ele>490</ele>
        <time>2015-05-04T16:22:41Z</time>
      </trkpt>
      <trkpt lat="43.97443" lon="7.00416">
        <ele>489</ele>
        <time>2015-05-04T16:22:42Z</time>
      </trkpt>
      <trkpt lat="43.97431" lon="7.00416">
        <ele>489</ele>
        <time>2015-05-04T16:22:43Z</time>
      </trkpt>
      <trkpt lat="43.97399" lon="7.00406">
        <ele>488</ele>
        <time>2015-05-04T16:22:45Z</time>
      </trkpt>
      <trkpt lat="43.97344" lon="7.00376">
        <ele>486</ele>
        <time>2015-05-04T16:22:48Z</time>
      </trkpt>
      <trkpt lat="43.97289" lon="7.0034">
        <ele>484</ele>
        <time>2015-05-04T16:22:51Z</time>
      </trkpt>
      <trkpt lat="43.97282" lon="7.00348">
        <ele>483</ele>
        <time>2015-05-04T16:22:52Z</time>
      </trkpt>
      <trkpt lat="43.97278" lon="7.00362">
        <ele>483</ele>
        <time>2015-05-04T16:22:53Z</time>
      </trkpt>
      <trkpt lat="43.97278" lon="7.00385">
        <ele>482</ele>
        <time>2015-05-04T16:22:54Z</time>
      </trkpt>
      <trkpt lat="43.97276" lon="7.00407">
        <ele>482</ele>
        <time>2015-05-04T16:22:55Z</time>
      </trkpt>
      <trkpt lat="43.9727" lon="7.0042">
        <ele>481</ele>
        <time>2015-05-04T16:22:56Z</time>
      </trkpt>
      <trkpt lat="43.97255" lon="7.00417">
        <ele>480</ele>
        <time>2015-05-04T16:22:57Z</time>
      </trkpt>
      <trkpt lat="43.97236" lon="7.0046">
        <ele>479</ele>
        <time>2015-05-04T16:23:00Z</time>
      </trkpt>
      <trkpt lat="43.97221" lon="7.00459">
        <ele>478</ele>
        <time>2015-05-04T16:23:01Z</time>
      </trkpt>
      <trkpt lat="43.97211" lon="7.00468">
        <ele>478</ele>
        <time>2015-05-04T16:23:02Z</time>
      </trkpt>
      <trkpt lat="43.972" lon="7.00475">
        <ele>477</ele>
        <time>2015-05-04T16:23:03Z</time>
      </trkpt>
      <trkpt lat="43.97163" lon="7.00462">
        <ele>476</ele>
        <time>2015-05-04T16:23:05Z</time>
      </trkpt>
      <trkpt lat="43.97152" lon="7.00468">
        <ele>475</ele>
        <time>2015-05-04T16:23:06Z</time>
      </trkpt>
      <trkpt lat="43.97132" lon="7.00482">
        <ele>474</ele>
        <time>2015-05-04T16:23:08Z</time>
      </trkpt>
      <trkpt lat="43.97124" lon="7.00491">
        <ele>473</ele>
        <time>2015-05-04T16:23:09Z</time>
      </trkpt>
      <trkpt lat="43.97106" lon="7.00484">
        <ele>473</ele>
        <time>2015-05-04T16:23:10Z</time>
      </trkpt>
      <trkpt lat="43.97067" lon="7.00462">
        <ele>472</ele>
        <time>2015-05-04T16:23:12Z</time>
      </trkpt>
      <trkpt lat="43.97055" lon="7.00466">
        <ele>471</ele>
        <time>2015-05-04T16:23:13Z</time>
      </trkpt>
      <trkpt lat="43.97045" lon="7.00472">
        <ele>471</ele>
        <time>2015-05-04T16:23:14Z</time>
      </trkpt>
      <trkpt lat="43.97037" lon="7.00483">
        <ele>470</ele>
        <time>2015-05-04T16:23:15Z</time>
      </trkpt>
      <trkpt lat="43.97092" lon="7.00603">
        <ele>470</ele>
        <time>2015-05-04T16:23:16Z</time>
      </trkpt>
      <trkpt lat="43.97108" lon="7.00654">
        <ele>470</ele>
        <time>2015-05-04T16:23:17Z</time>
      </trkpt>
      <trkpt lat="43.97086" lon="7.00681">
        <ele>470</ele>
        <time>2015-05-04T16:23:20Z</time>
      </trkpt>
      <trkpt lat="43.97059" lon="7.00677">
        <ele>470</ele>
        <time>2015-05-04T16:23:22Z</time>
      </trkpt>
      <trkpt lat="43.97015" lon="7.00664">
        <ele>470</ele>
        <time>2015-05-04T16:23:25Z</time>
      </trkpt>
      <trkpt lat="43.96952" lon="7.0065">
        <ele>470</ele>
        <time>2015-05-04T16:23:30Z</time>
      </trkpt>
      <trkpt lat="43.96908" lon="7.00648">
        <ele>470</ele>
        <time>2015-05-04T16:23:34Z</time>
      </trkpt>
      <trkpt lat="43.96953" lon="7.00746">
        <ele>470</ele>
        <time>2015-05-04T16:23:35Z</time>
      </trkpt>
      <trkpt lat="43.96985" lon="7.00839">
        <ele>470</ele>
        <time>2015-05-04T16:23:37Z</time>
      </trkpt>
      <trkpt lat="43.96991" lon="7.00887">
        <ele>470</ele>
        <time>2015-05-04T16:23:39Z</time>
      </trkpt>
      <trkpt lat="43.96988" lon="7.00902">
        <ele>470</ele>
        <time>2015-05-04T16:23:40Z</time>
      </trkpt>
      <trkpt lat="43.97014" lon="7.01">
        <ele>469</ele>
        <time>2015-05-04T16:23:43Z</time>
      </trkpt>
      <trkpt lat="43.96997" lon="7.01005">
        <ele>468</ele>
        <time>2015-05-04T16:23:45Z</time>
      </trkpt>
      <trkpt lat="43.96981" lon="7.01013">
        <ele>467</ele>
        <time>2015-05-04T16:23:47Z</time>
      </trkpt>
      <trkpt lat="43.96931" lon="7.01046">
        <ele>463</ele>
        <time>2015-05-04T16:23:53Z</time>
      </trkpt>
      <trkpt lat="43.96926" lon="7.01055">
        <ele>462</ele>
        <time>2015-05-04T16:23:54Z</time>
      </trkpt>
      <trkpt lat="43.96917" lon="7.01062">
        <ele>462</ele>
        <time>2015-05-04T16:23:55Z</time>
      </trkpt>
      <trkpt lat="43.96906" lon="7.01064">
        <ele>461</ele>
        <time>2015-05-04T16:23:56Z</time>
      </trkpt>
      <trkpt lat="43.96894" lon="7.01063">
        <ele>460</ele>
        <time>2015-05-04T16:23:57Z</time>
      </trkpt>
      <trkpt lat="43.96881" lon="7.01057">
        <ele>460</ele>
        <time>2015-05-04T16:23:58Z</time>
      </trkpt>
      <trkpt lat="43.96849" lon="7.01035">
        <ele>459</ele>
        <time>2015-05-04T16:24:00Z</time>
      </trkpt>
      <trkpt lat="43.96818" lon="7.01009">
        <ele>458</ele>
        <time>2015-05-04T16:24:02Z</time>
      </trkpt>
      <trkpt lat="43.96827" lon="7.01049">
        <ele>458</ele>
        <time>2015-05-04T16:24:04Z</time>
      </trkpt>
      <trkpt lat="43.96801" lon="7.01048">
        <ele>457</ele>
        <time>2015-05-04T16:24:08Z</time>
      </trkpt>
      <trkpt lat="43.96786" lon="7.01042">
        <ele>456</ele>
        <time>2015-05-04T16:24:10Z</time>
      </trkpt>
      <trkpt lat="43.9676" lon="7.01029">
        <ele>454</ele>
        <time>2015-05-04T16:24:13Z</time>
      </trkpt>
      <trkpt lat="43.9674" lon="7.01013">
        <ele>454</ele>
        <time>2015-05-04T16:24:15Z</time>
      </trkpt>
      <trkpt lat="43.96714" lon="7.0099">
        <ele>453</ele>
        <time>2015-05-04T16:24:17Z</time>
      </trkpt>
      <trkpt lat="43.96681" lon="7.00952">
        <ele>452</ele>
        <time>2015-05-04T16:24:20Z</time>
      </trkpt>
      <trkpt lat="43.96664" lon="7.00922">
        <ele>452</ele>
        <time>2015-05-04T16:24:21Z</time>
      </trkpt>
      <trkpt lat="43.96649" lon="7.00891">
        <ele>452</ele>
        <time>2015-05-04T16:24:22Z</time>
      </trkpt>
      <trkpt lat="43.96624" lon="7.00824">
        <ele>452</ele>
        <time>2015-05-04T16:24:27Z</time>
      </trkpt>
      <trkpt lat="43.96621" lon="7.00812">
        <ele>452</ele>
        <time>2015-05-04T16:24:28Z</time>
      </trkpt>
      <trkpt lat="43.96613" lon="7.00761">
        <ele>452</ele>
        <time>2015-05-04T16:24:32Z</time>
      </trkpt>
      <trkpt lat="43.96608" lon="7.00697">
        <ele>452</ele>
        <time>2015-05-04T16:24:37Z</time>
      </trkpt>
      <trkpt lat="43.96609" lon="7.00655">
        <ele>452</ele>
        <time>2015-05-04T16:24:41Z</time>
      </trkpt>
      <trkpt lat="43.96611" lon="7.00615">
        <ele>452</ele>
        <time>2015-05-04T16:24:45Z</time>
      </trkpt>
      <trkpt lat="43.96611" lon="7.00596">
        <ele>452</ele>
        <time>2015-05-04T16:24:47Z</time>
      </trkpt>
      <trkpt lat="43.96599" lon="7.00565">
        <ele>452</ele>
        <time>2015-05-04T16:24:51Z</time>
      </trkpt>
      <trkpt lat="43.96588" lon="7.00545">
        <ele>452</ele>
        <time>2015-05-04T16:24:54Z</time>
      </trkpt>
      <trkpt lat="43.96577" lon="7.00504">
        <ele>452</ele>
        <time>2015-05-04T16:24:59Z</time>
      </trkpt>
      <trkpt lat="43.9657" lon="7.00451">
        <ele>452</ele>
        <time>2015-05-04T16:25:05Z</time>
      </trkpt>
      <trkpt lat="43.96566" lon="7.00428">
        <ele>452</ele>
        <time>2015-05-04T16:25:08Z</time>
      </trkpt>
      <trkpt lat="43.9655" lon="7.00392">
        <ele>452</ele>
        <time>2015-05-04T16:25:14Z</time>
      </trkpt>
      <trkpt lat="43.96538" lon="7.00368">
        <ele>452</ele>
        <time>2015-05-04T16:25:20Z</time>
      </trkpt>
      <trkpt lat="43.96531" lon="7.00361">
        <ele>452</ele>
        <time>2015-05-04T16:25:25Z</time>
      </trkpt>
      <trkpt lat="43.96458" lon="7.00357">
        <ele>449</ele>
        <time>2015-05-04T16:25:41Z</time>
      </trkpt>
      <trkpt lat="43.96437" lon="7.0035">
        <ele>448</ele>
        <time>2015-05-04T16:25:44Z</time>
      </trkpt>
      <trkpt lat="43.96421" lon="7.00342">
        <ele>448</ele>
        <time>2015-05-04T16:25:46Z</time>
      </trkpt>
      <trkpt lat="43.96397" lon="7.00325">
        <ele>447</ele>
        <time>2015-05-04T16:25:49Z</time>
      </trkpt>
      <trkpt lat="43.96368" lon="7.00295">
        <ele>445</ele>
        <time>2015-05-04T16:25:53Z</time>
      </trkpt>
      <trkpt lat="43.96315" lon="7.0021">
        <ele>444</ele>
        <time>2015-05-04T16:25:57Z</time>
      </trkpt>
      <trkpt lat="43.96292" lon="7.00179">
        <ele>443</ele>
        <time>2015-05-04T16:25:59Z</time>
      </trkpt>
      <trkpt lat="43.96276" lon="7.0016">
        <ele>442</ele>
        <time>2015-05-04T16:26:01Z</time>
      </trkpt>
      <trkpt lat="43.96242" lon="7.00104">
        <ele>440</ele>
        <time>2015-05-04T16:26:04Z</time>
      </trkpt>
      <trkpt lat="43.9621" lon="7.00024">
        <ele>435</ele>
        <time>2015-05-04T16:26:09Z</time>
      </trkpt>
      <trkpt lat="43.96194" lon="6.99993">
        <ele>433</ele>
        <time>2015-05-04T16:26:11Z</time>
      </trkpt>
      <trkpt lat="43.96187" lon="6.99975">
        <ele>433</ele>
        <time>2015-05-04T16:26:12Z</time>
      </trkpt>
      <trkpt lat="43.96187" lon="6.99956">
        <ele>432</ele>
        <time>2015-05-04T16:26:13Z</time>
      </trkpt>
      <trkpt lat="43.96184" lon="6.99939">
        <ele>431</ele>
        <time>2015-05-04T16:26:14Z</time>
      </trkpt>
      <trkpt lat="43.96174" lon="6.99907">
        <ele>429</ele>
        <time>2015-05-04T16:26:16Z</time>
      </trkpt>
      <trkpt lat="43.96153" lon="6.99863">
        <ele>426</ele>
        <time>2015-05-04T16:26:19Z</time>
      </trkpt>
      <trkpt lat="43.96135" lon="6.99841">
        <ele>424</ele>
        <time>2015-05-04T16:26:21Z</time>
      </trkpt>
      <trkpt lat="43.96118" lon="6.99825">
        <ele>423</ele>
        <time>2015-05-04T16:26:23Z</time>
      </trkpt>
      <trkpt lat="43.96098" lon="6.99814">
        <ele>422</ele>
        <time>2015-05-04T16:26:25Z</time>
      </trkpt>
      <trkpt lat="43.96068" lon="6.99801">
        <ele>421</ele>
        <time>2015-05-04T16:26:28Z</time>
      </trkpt>
      <trkpt lat="43.96024" lon="6.9979">
        <ele>421</ele>
        <time>2015-05-04T16:26:33Z</time>
      </trkpt>
      <trkpt lat="43.95984" lon="6.99797">
        <ele>421</ele>
        <time>2015-05-04T16:26:38Z</time>
      </trkpt>
      <trkpt lat="43.95951" lon="6.99744">
        <ele>421</ele>
        <time>2015-05-04T16:26:41Z</time>
      </trkpt>
      <trkpt lat="43.95941" lon="6.99713">
        <ele>423</ele>
        <time>2015-05-04T16:26:44Z</time>
      </trkpt>
      <trkpt lat="43.95915" lon="6.99646">
        <ele>423</ele>
        <time>2015-05-04T16:26:51Z</time>
      </trkpt>
      <trkpt lat="43.95896" lon="6.99583">
        <ele>425</ele>
        <time>2015-05-04T16:26:58Z</time>
      </trkpt>
      <trkpt lat="43.95884" lon="6.99541">
        <ele>425</ele>
        <time>2015-05-04T16:27:03Z</time>
      </trkpt>
      <trkpt lat="43.95883" lon="6.99533">
        <ele>425</ele>
        <time>2015-05-04T16:27:04Z</time>
      </trkpt>
      <trkpt lat="43.95897" lon="6.99492">
        <ele>425</ele>
        <time>2015-05-04T16:27:09Z</time>
      </trkpt>
      <trkpt lat="43.95895" lon="6.99448">
        <ele>425</ele>
        <time>2015-05-04T16:27:14Z</time>
      </trkpt>
      <trkpt lat="43.9589" lon="6.99422">
        <ele>425</ele>
        <time>2015-05-04T16:27:17Z</time>
      </trkpt>
      <trkpt lat="43.95883" lon="6.99405">
        <ele>425</ele>
        <time>2015-05-04T16:27:19Z</time>
      </trkpt>
      <trkpt lat="43.9586" lon="6.99368">
        <ele>425</ele>
        <time>2015-05-04T16:27:24Z</time>
      </trkpt>
      <trkpt lat="43.95796" lon="6.99297">
        <ele>423</ele>
        <time>2015-05-04T16:27:36Z</time>
      </trkpt>
      <trkpt lat="43.95729" lon="6.99226">
        <ele>423</ele>
        <time>2015-05-04T16:27:50Z</time>
      </trkpt>
      <trkpt lat="43.95691" lon="6.99177">
        <ele>425</ele>
        <time>2015-05-04T16:28:00Z</time>
      </trkpt>
      <trkpt lat="43.9567" lon="6.99146">
        <ele>425</ele>
        <time>2015-05-04T16:28:06Z</time>
      </trkpt>
      <trkpt lat="43.95661" lon="6.9913">
        <ele>425</ele>
        <time>2015-05-04T16:28:09Z</time>
      </trkpt>
      <trkpt lat="43.95626" lon="6.99107">
        <ele>427</ele>
        <time>2015-05-04T16:28:16Z</time>
      </trkpt>
      <trkpt lat="43.95496" lon="6.99045">
        <ele>427</ele>
        <time>2015-05-04T16:28:39Z</time>
      </trkpt>
      <trkpt lat="43.95465" lon="6.99032">
        <ele>425</ele>
        <time>2015-05-04T16:28:44Z</time>
      </trkpt>
      <trkpt lat="43.95458" lon="6.9903">
        <ele>425</ele>
        <time>2015-05-04T16:28:45Z</time>
      </trkpt>
      <trkpt lat="43.95435" lon="6.99028">
        <ele>425</ele>
        <time>2015-05-04T16:28:48Z</time>
      </trkpt>
      <trkpt lat="43.9541" lon="6.99029">
        <ele>423</ele>
        <time>2015-05-04T16:28:51Z</time>
      </trkpt>
      <trkpt lat="43.95316" lon="6.9904">
        <ele>420</ele>
        <time>2015-05-04T16:29:02Z</time>
      </trkpt>
      <trkpt lat="43.95275" lon="6.99048">
        <ele>417</ele>
        <time>2015-05-04T16:29:06Z</time>
      </trkpt>
      <trkpt lat="43.95243" lon="6.99042">
        <ele>414</ele>
        <time>2015-05-04T16:29:09Z</time>
      </trkpt>
      <trkpt lat="43.9518" lon="6.99023">
        <ele>407</ele>
        <time>2015-05-04T16:29:15Z</time>
      </trkpt>
      <trkpt lat="43.95161" lon="6.99015">
        <ele>406</ele>
        <time>2015-05-04T16:29:17Z</time>
      </trkpt>
      <trkpt lat="43.95136" lon="6.98997">
        <ele>406</ele>
        <time>2015-05-04T16:29:20Z</time>
      </trkpt>
      <trkpt lat="43.95114" lon="6.98977">
        <ele>405</ele>
        <time>2015-05-04T16:29:23Z</time>
      </trkpt>
      <trkpt lat="43.95087" lon="6.9895">
        <ele>403</ele>
        <time>2015-05-04T16:29:27Z</time>
      </trkpt>
      <trkpt lat="43.95079" lon="6.98944">
        <ele>403</ele>
        <time>2015-05-04T16:29:28Z</time>
      </trkpt>
      <trkpt lat="43.95054" lon="6.9894">
        <ele>402</ele>
        <time>2015-05-04T16:29:29Z</time>
      </trkpt>
      <trkpt lat="43.94974" lon="6.98877">
        <ele>401</ele>
        <time>2015-05-04T16:29:34Z</time>
      </trkpt>
      <trkpt lat="43.94998" lon="6.989">
        <ele>400</ele>
        <time>2015-05-04T16:29:37Z</time>
      </trkpt>
      <trkpt lat="43.94995" lon="6.989">
        <ele>400</ele>
        <time>2015-05-04T16:29:38Z</time>
      </trkpt>
      <trkpt lat="43.94981" lon="6.98889">
        <ele>398</ele>
        <time>2015-05-04T16:29:40Z</time>
      </trkpt>
      <trkpt lat="43.94971" lon="6.98885">
        <ele>397</ele>
        <time>2015-05-04T16:29:42Z</time>
      </trkpt>
      <trkpt lat="43.94947" lon="6.98879">
        <ele>397</ele>
        <time>2015-05-04T16:29:46Z</time>
      </trkpt>
      <trkpt lat="43.94942" lon="6.9888">
        <ele>397</ele>
        <time>2015-05-04T16:29:47Z</time>
      </trkpt>
      <trkpt lat="43.94929" lon="6.9889">
        <ele>397</ele>
        <time>2015-05-04T16:29:50Z</time>
      </trkpt>
      <trkpt lat="43.94922" lon="6.98909">
        <ele>397</ele>
        <time>2015-05-04T16:29:53Z</time>
      </trkpt>
      <trkpt lat="43.94916" lon="6.98939">
        <ele>397</ele>
        <time>2015-05-04T16:29:57Z</time>
      </trkpt>
      <trkpt lat="43.94905" lon="6.98977">
        <ele>397</ele>
        <time>2015-05-04T16:30:02Z</time>
      </trkpt>
      <trkpt lat="43.9487" lon="6.99043">
        <ele>397</ele>
        <time>2015-05-04T16:30:12Z</time>
      </trkpt>
      <trkpt lat="43.94822" lon="6.99128">
        <ele>397</ele>
        <time>2015-05-04T16:30:26Z</time>
      </trkpt>
      <trkpt lat="43.94806" lon="6.99167">
        <ele>397</ele>
        <time>2015-05-04T16:30:32Z</time>
      </trkpt>
      <trkpt lat="43.94772" lon="6.99267">
        <ele>396</ele>
        <time>2015-05-04T16:30:46Z</time>
      </trkpt>
      <trkpt lat="43.94701" lon="6.99498">
        <ele>395</ele>
        <time>2015-05-04T16:31:17Z</time>
      </trkpt>
      <trkpt lat="43.94683" lon="6.99567">
        <ele>395</ele>
        <time>2015-05-04T16:31:26Z</time>
      </trkpt>
      <trkpt lat="43.94672" lon="6.99615">
        <ele>395</ele>
        <time>2015-05-04T16:31:32Z</time>
      </trkpt>
      <trkpt lat="43.94668" lon="6.99648">
        <ele>395</ele>
        <time>2015-05-04T16:31:36Z</time>
      </trkpt>
      <trkpt lat="43.94667" lon="6.99714">
        <ele>395</ele>
        <time>2015-05-04T16:31:44Z</time>
      </trkpt>
      <trkpt lat="43.94662" lon="6.99774">
        <ele>395</ele>
        <time>2015-05-04T16:31:51Z</time>
      </trkpt>
      <trkpt lat="43.94652" lon="6.99831">
        <ele>395</ele>
        <time>2015-05-04T16:31:58Z</time>
      </trkpt>
      <trkpt lat="43.94641" lon="6.99879">
        <ele>395</ele>
        <time>2015-05-04T16:32:04Z</time>
      </trkpt>
      <trkpt lat="43.94637" lon="6.99936">
        <ele>395</ele>
        <time>2015-05-04T16:32:11Z</time>
      </trkpt>
      <trkpt lat="43.94643" lon="6.99995">
        <ele>395</ele>
        <time>2015-05-04T16:32:18Z</time>
      </trkpt>
      <trkpt lat="43.94662" lon="7.00074">
        <ele>393</ele>
        <time>2015-05-04T16:32:28Z</time>
      </trkpt>
      <trkpt lat="43.94672" lon="7.00102">
        <ele>393</ele>
        <time>2015-05-04T16:32:32Z</time>
      </trkpt>
      <trkpt lat="43.94687" lon="7.0015">
        <ele>393</ele>
        <time>2015-05-04T16:32:39Z</time>
      </trkpt>
      <trkpt lat="43.9472" lon="7.00324">
        <ele>393</ele>
        <time>2015-05-04T16:33:04Z</time>
      </trkpt>
      <trkpt lat="43.94746" lon="7.00404">
        <ele>393</ele>
        <time>2015-05-04T16:33:16Z</time>
      </trkpt>
      <trkpt lat="43.9477" lon="7.00652">
        <ele>390</ele>
        <time>2015-05-04T16:33:49Z</time>
      </trkpt>
      <trkpt lat="43.94773" lon="7.00669">
        <ele>390</ele>
        <time>2015-05-04T16:33:52Z</time>
      </trkpt>
      <trkpt lat="43.94778" lon="7.00747">
        <ele>390</ele>
        <time>2015-05-04T16:34:03Z</time>
      </trkpt>
      <trkpt lat="43.94777" lon="7.00786">
        <ele>390</ele>
        <time>2015-05-04T16:34:09Z</time>
      </trkpt>
      <trkpt lat="43.94782" lon="7.00819">
        <ele>390</ele>
        <time>2015-05-04T16:34:15Z</time>
      </trkpt>
      <trkpt lat="43.94792" lon="7.00863">
        <ele>390</ele>
        <time>2015-05-04T16:34:28Z</time>
      </trkpt>
      <trkpt lat="43.94794" lon="7.00879">
        <ele>390</ele>
        <time>2015-05-04T16:34:33Z</time>
      </trkpt>
      <trkpt lat="43.94798" lon="7.00894">
        <ele>388</ele>
        <time>2015-05-04T16:34:37Z</time>
      </trkpt>
      <trkpt lat="43.94801" lon="7.00899">
        <ele>388</ele>
        <time>2015-05-04T16:34:40Z</time>
      </trkpt>
      <trkpt lat="43.94802" lon="7.00898">
        <ele>388</ele>
        <time>2015-05-04T16:34:41Z</time>
      </trkpt>
      <trkpt lat="43.94802" lon="7.00895">
        <ele>388</ele>
        <time>2015-05-04T16:34:43Z</time>
      </trkpt>
      <trkpt lat="43.94798" lon="7.00882">
        <ele>388</ele>
        <time>2015-05-04T16:34:47Z</time>
      </trkpt>
      <trkpt lat="43.94794" lon="7.00856">
        <ele>388</ele>
        <time>2015-05-04T16:34:52Z</time>
      </trkpt>
      <trkpt lat="43.94781" lon="7.00797">
        <ele>388</ele>
        <time>2015-05-04T16:35:02Z</time>
      </trkpt>
      <trkpt lat="43.94777" lon="7.00774">
        <ele>388</ele>
        <time>2015-05-04T16:35:06Z</time>
      </trkpt>
      <trkpt lat="43.94778" lon="7.00743">
        <ele>390</ele>
        <time>2015-05-04T16:35:11Z</time>
      </trkpt>
      <trkpt lat="43.94779" lon="7.00729">
        <ele>390</ele>
        <time>2015-05-04T16:35:13Z</time>
      </trkpt>
      <trkpt lat="43.94778" lon="7.00688">
        <ele>390</ele>
        <time>2015-05-04T16:35:19Z</time>
      </trkpt>
      <trkpt lat="43.94773" lon="7.00651">
        <ele>390</ele>
        <time>2015-05-04T16:35:26Z</time>
      </trkpt>
      <trkpt lat="43.94771" lon="7.00642">
        <ele>390</ele>
        <time>2015-05-04T16:35:29Z</time>
      </trkpt>
      <trkpt lat="43.94766" lon="7.00643">
        <ele>390</ele>
        <time>2015-05-04T16:35:31Z</time>
      </trkpt>
      <trkpt lat="43.94759" lon="7.00641">
        <ele>390</ele>
        <time>2015-05-04T16:35:33Z</time>
      </trkpt>
      <trkpt lat="43.94756" lon="7.00638">
        <ele>390</ele>
        <time>2015-05-04T16:35:34Z</time>
      </trkpt>
      <trkpt lat="43.94729" lon="7.00591">
        <ele>388</ele>
        <time>2015-05-04T16:35:40Z</time>
      </trkpt>
      <trkpt lat="43.94705" lon="7.00561">
        <ele>385</ele>
        <time>2015-05-04T16:35:44Z</time>
      </trkpt>
      <trkpt lat="43.94684" lon="7.00527">
        <ele>382</ele>
        <time>2015-05-04T16:35:48Z</time>
      </trkpt>
      <trkpt lat="43.94682" lon="7.00507">
        <ele>380</ele>
        <time>2015-05-04T16:35:50Z</time>
      </trkpt>
      <trkpt lat="43.94682" lon="7.00486">
        <ele>378</ele>
        <time>2015-05-04T16:35:52Z</time>
      </trkpt>
      <trkpt lat="43.94681" lon="7.00466">
        <ele>378</ele>
        <time>2015-05-04T16:35:54Z</time>
      </trkpt>
      <trkpt lat="43.94672" lon="7.00447">
        <ele>377</ele>
        <time>2015-05-04T16:35:56Z</time>
      </trkpt>
      <trkpt lat="43.94665" lon="7.00429">
        <ele>376</ele>
        <time>2015-05-04T16:35:58Z</time>
      </trkpt>
      <trkpt lat="43.94664" lon="7.00422">
        <ele>376</ele>
        <time>2015-05-04T16:35:59Z</time>
      </trkpt>
      <trkpt lat="43.94675" lon="7.00378">
        <ele>376</ele>
        <time>2015-05-04T16:36:06Z</time>
      </trkpt>
      <trkpt lat="43.94675" lon="7.00374">
        <ele>376</ele>
        <time>2015-05-04T16:36:07Z</time>
      </trkpt>
      <trkpt lat="43.94674" lon="7.0037">
        <ele>376</ele>
        <time>2015-05-04T16:36:08Z</time>
      </trkpt>
      <trkpt lat="43.94672" lon="7.00369">
        <ele>376</ele>
        <time>2015-05-04T16:36:13Z</time>
      </trkpt>
    </trkseg>
  </trk>
</gpx>